<?xml version="1.0" encoding="UTF-8" standalone="no" ?>
<gpx xmlns="http://www.topografix.com/GPX/1/1" xmlns:xsi="http://www.w3.org/2001/XMLSchema-instance" xsi:schemaLocation="http://www.topografix.com/GPX/1/1 http://www.topografix.com/GPX/1/1/gpx.xsd" version="1.1" creator="VisuGPX - https://www.visugpx.com">
  <metadata>
    <name>Tour en Chartreuse</name>
    <desc><![CDATA[Tour en chartreuse]]></desc>
  </metadata>
  <wpt lat="45.42315" lon="5.6755">
    <ele>868</ele>
    <name><![CDATA[Point de cheminement 1]]></name>
    <desc><![CDATA[]]></desc>
  </wpt>
  <wpt lat="45.42245" lon="5.68642">
    <ele>741</ele>
    <name><![CDATA[Point de cheminement 2]]></name>
    <desc><![CDATA[]]></desc>
  </wpt>
  <wpt lat="45.4385" lon="5.68537">
    <ele>838</ele>
    <name><![CDATA[Point de cheminement 3]]></name>
    <desc><![CDATA[]]></desc>
  </wpt>
  <wpt lat="45.44805" lon="5.68477">
    <ele>795</ele>
    <name><![CDATA[Point de cheminement 4]]></name>
    <desc><![CDATA[]]></desc>
  </wpt>
  <wpt lat="45.44884" lon="5.6995">
    <ele>769</ele>
    <name><![CDATA[Point de cheminement 5]]></name>
    <desc><![CDATA[]]></desc>
  </wpt>
  <trk>
    <name><![CDATA[]]></name>
    <desc><![CDATA[]]></desc>
    <trkseg>
      <trkpt lat="45.43297" lon="5.69185">
        <ele>808</ele>
        <time>2015-08-07T08:28:52.735Z</time>
      </trkpt>
      <trkpt lat="45.43306" lon="5.69187">
        <ele>808</ele>
        <time>2015-08-07T08:28:53.705Z</time>
      </trkpt>
      <trkpt lat="45.43309" lon="5.69197">
        <ele>808</ele>
        <time>2015-08-07T08:28:54.713Z</time>
      </trkpt>
      <trkpt lat="45.43307" lon="5.69206">
        <ele>808</ele>
        <time>2015-08-07T08:28:55.708Z</time>
      </trkpt>
      <trkpt lat="45.43318" lon="5.69219">
        <ele>809</ele>
        <time>2015-08-07T08:28:56.723Z</time>
      </trkpt>
      <trkpt lat="45.43317" lon="5.69225">
        <ele>809</ele>
        <time>2015-08-07T08:28:57.000Z</time>
      </trkpt>
      <trkpt lat="45.43317" lon="5.69232">
        <ele>809</ele>
        <time>2015-08-07T08:28:59.000Z</time>
      </trkpt>
      <trkpt lat="45.43313" lon="5.69229">
        <ele>809</ele>
        <time>2015-08-07T08:29:01.000Z</time>
      </trkpt>
      <trkpt lat="45.43312" lon="5.69228">
        <ele>809</ele>
        <time>2015-08-07T08:29:02.000Z</time>
      </trkpt>
      <trkpt lat="45.43309" lon="5.69224">
        <ele>809</ele>
        <time>2015-08-07T08:29:05.000Z</time>
      </trkpt>
      <trkpt lat="45.43309" lon="5.69223">
        <ele>809</ele>
        <time>2015-08-07T08:29:06.000Z</time>
      </trkpt>
      <trkpt lat="45.43308" lon="5.69218">
        <ele>809</ele>
        <time>2015-08-07T08:29:08.000Z</time>
      </trkpt>
      <trkpt lat="45.43304" lon="5.69214">
        <ele>809</ele>
        <time>2015-08-07T08:29:09.000Z</time>
      </trkpt>
      <trkpt lat="45.43301" lon="5.69209">
        <ele>809</ele>
        <time>2015-08-07T08:29:10.000Z</time>
      </trkpt>
      <trkpt lat="45.43296" lon="5.69203">
        <ele>808</ele>
        <time>2015-08-07T08:29:11.000Z</time>
      </trkpt>
      <trkpt lat="45.43293" lon="5.69202">
        <ele>808</ele>
        <time>2015-08-07T08:29:12.000Z</time>
      </trkpt>
      <trkpt lat="45.43292" lon="5.69198">
        <ele>808</ele>
        <time>2015-08-07T08:29:13.000Z</time>
      </trkpt>
      <trkpt lat="45.43289" lon="5.69196">
        <ele>808</ele>
        <time>2015-08-07T08:29:14.000Z</time>
      </trkpt>
      <trkpt lat="45.43287" lon="5.69193">
        <ele>808</ele>
        <time>2015-08-07T08:29:15.000Z</time>
      </trkpt>
      <trkpt lat="45.43284" lon="5.69189">
        <ele>808</ele>
        <time>2015-08-07T08:29:17.000Z</time>
      </trkpt>
      <trkpt lat="45.43282" lon="5.69187">
        <ele>808</ele>
        <time>2015-08-07T08:29:18.000Z</time>
      </trkpt>
      <trkpt lat="45.4328" lon="5.69186">
        <ele>808</ele>
        <time>2015-08-07T08:29:19.000Z</time>
      </trkpt>
      <trkpt lat="45.43278" lon="5.69184">
        <ele>808</ele>
        <time>2015-08-07T08:29:20.000Z</time>
      </trkpt>
      <trkpt lat="45.43275" lon="5.69182">
        <ele>808</ele>
        <time>2015-08-07T08:29:21.000Z</time>
      </trkpt>
      <trkpt lat="45.43273" lon="5.6918">
        <ele>808</ele>
        <time>2015-08-07T08:29:22.000Z</time>
      </trkpt>
      <trkpt lat="45.4327" lon="5.69178">
        <ele>808</ele>
        <time>2015-08-07T08:29:23.000Z</time>
      </trkpt>
      <trkpt lat="45.43266" lon="5.69177">
        <ele>808</ele>
        <time>2015-08-07T08:29:24.000Z</time>
      </trkpt>
      <trkpt lat="45.43263" lon="5.69176">
        <ele>808</ele>
        <time>2015-08-07T08:29:25.000Z</time>
      </trkpt>
      <trkpt lat="45.43258" lon="5.69176">
        <ele>808</ele>
        <time>2015-08-07T08:29:26.000Z</time>
      </trkpt>
      <trkpt lat="45.43254" lon="5.69176">
        <ele>808</ele>
        <time>2015-08-07T08:29:27.000Z</time>
      </trkpt>
      <trkpt lat="45.43249" lon="5.69175">
        <ele>808</ele>
        <time>2015-08-07T08:29:28.000Z</time>
      </trkpt>
      <trkpt lat="45.43245" lon="5.69174">
        <ele>808</ele>
        <time>2015-08-07T08:29:29.000Z</time>
      </trkpt>
      <trkpt lat="45.43241" lon="5.69173">
        <ele>808</ele>
        <time>2015-08-07T08:29:30.000Z</time>
      </trkpt>
      <trkpt lat="45.43238" lon="5.69171">
        <ele>808</ele>
        <time>2015-08-07T08:29:31.000Z</time>
      </trkpt>
      <trkpt lat="45.43239" lon="5.69166">
        <ele>808</ele>
        <time>2015-08-07T08:29:34.000Z</time>
      </trkpt>
      <trkpt lat="45.4324" lon="5.69164">
        <ele>808</ele>
        <time>2015-08-07T08:29:35.000Z</time>
      </trkpt>
      <trkpt lat="45.43242" lon="5.69159">
        <ele>808</ele>
        <time>2015-08-07T08:29:38.000Z</time>
      </trkpt>
      <trkpt lat="45.43242" lon="5.69158">
        <ele>808</ele>
        <time>2015-08-07T08:29:39.000Z</time>
      </trkpt>
      <trkpt lat="45.43238" lon="5.69157">
        <ele>807</ele>
        <time>2015-08-07T08:29:41.000Z</time>
      </trkpt>
      <trkpt lat="45.43236" lon="5.69157">
        <ele>807</ele>
        <time>2015-08-07T08:29:42.000Z</time>
      </trkpt>
      <trkpt lat="45.43233" lon="5.69155">
        <ele>807</ele>
        <time>2015-08-07T08:29:43.000Z</time>
      </trkpt>
      <trkpt lat="45.43231" lon="5.69152">
        <ele>807</ele>
        <time>2015-08-07T08:29:44.000Z</time>
      </trkpt>
      <trkpt lat="45.43229" lon="5.69148">
        <ele>807</ele>
        <time>2015-08-07T08:29:45.000Z</time>
      </trkpt>
      <trkpt lat="45.43229" lon="5.69145">
        <ele>807</ele>
        <time>2015-08-07T08:29:46.000Z</time>
      </trkpt>
      <trkpt lat="45.4323" lon="5.69139">
        <ele>807</ele>
        <time>2015-08-07T08:29:48.000Z</time>
      </trkpt>
      <trkpt lat="45.4323" lon="5.69138">
        <ele>807</ele>
        <time>2015-08-07T08:29:49.000Z</time>
      </trkpt>
      <trkpt lat="45.43229" lon="5.69133">
        <ele>807</ele>
        <time>2015-08-07T08:29:52.000Z</time>
      </trkpt>
      <trkpt lat="45.43227" lon="5.69131">
        <ele>807</ele>
        <time>2015-08-07T08:29:53.000Z</time>
      </trkpt>
      <trkpt lat="45.43225" lon="5.69129">
        <ele>807</ele>
        <time>2015-08-07T08:29:54.000Z</time>
      </trkpt>
      <trkpt lat="45.43222" lon="5.69127">
        <ele>807</ele>
        <time>2015-08-07T08:29:55.000Z</time>
      </trkpt>
      <trkpt lat="45.43218" lon="5.69124">
        <ele>807</ele>
        <time>2015-08-07T08:29:56.000Z</time>
      </trkpt>
      <trkpt lat="45.43215" lon="5.69121">
        <ele>807</ele>
        <time>2015-08-07T08:29:57.000Z</time>
      </trkpt>
      <trkpt lat="45.43213" lon="5.69119">
        <ele>807</ele>
        <time>2015-08-07T08:29:58.000Z</time>
      </trkpt>
      <trkpt lat="45.43211" lon="5.69117">
        <ele>807</ele>
        <time>2015-08-07T08:29:59.000Z</time>
      </trkpt>
      <trkpt lat="45.43209" lon="5.69112">
        <ele>807</ele>
        <time>2015-08-07T08:30:01.000Z</time>
      </trkpt>
      <trkpt lat="45.43209" lon="5.69109">
        <ele>807</ele>
        <time>2015-08-07T08:30:02.000Z</time>
      </trkpt>
      <trkpt lat="45.43208" lon="5.69103">
        <ele>807</ele>
        <time>2015-08-07T08:30:04.000Z</time>
      </trkpt>
      <trkpt lat="45.43207" lon="5.69101">
        <ele>807</ele>
        <time>2015-08-07T08:30:05.000Z</time>
      </trkpt>
      <trkpt lat="45.43205" lon="5.69096">
        <ele>807</ele>
        <time>2015-08-07T08:30:07.000Z</time>
      </trkpt>
      <trkpt lat="45.43205" lon="5.69093">
        <ele>807</ele>
        <time>2015-08-07T08:30:08.000Z</time>
      </trkpt>
      <trkpt lat="45.43204" lon="5.69087">
        <ele>807</ele>
        <time>2015-08-07T08:30:10.000Z</time>
      </trkpt>
      <trkpt lat="45.43203" lon="5.69084">
        <ele>807</ele>
        <time>2015-08-07T08:30:11.000Z</time>
      </trkpt>
      <trkpt lat="45.43201" lon="5.69081">
        <ele>807</ele>
        <time>2015-08-07T08:30:12.000Z</time>
      </trkpt>
      <trkpt lat="45.432" lon="5.69077">
        <ele>807</ele>
        <time>2015-08-07T08:30:13.000Z</time>
      </trkpt>
      <trkpt lat="45.43198" lon="5.69074">
        <ele>807</ele>
        <time>2015-08-07T08:30:14.000Z</time>
      </trkpt>
      <trkpt lat="45.43196" lon="5.6907">
        <ele>807</ele>
        <time>2015-08-07T08:30:15.000Z</time>
      </trkpt>
      <trkpt lat="45.43195" lon="5.69067">
        <ele>807</ele>
        <time>2015-08-07T08:30:16.000Z</time>
      </trkpt>
      <trkpt lat="45.43195" lon="5.69063">
        <ele>807</ele>
        <time>2015-08-07T08:30:17.000Z</time>
      </trkpt>
      <trkpt lat="45.43194" lon="5.6906">
        <ele>807</ele>
        <time>2015-08-07T08:30:18.000Z</time>
      </trkpt>
      <trkpt lat="45.43195" lon="5.69056">
        <ele>807</ele>
        <time>2015-08-07T08:30:19.000Z</time>
      </trkpt>
      <trkpt lat="45.43195" lon="5.69052">
        <ele>807</ele>
        <time>2015-08-07T08:30:20.000Z</time>
      </trkpt>
      <trkpt lat="45.43194" lon="5.69047">
        <ele>807</ele>
        <time>2015-08-07T08:30:21.000Z</time>
      </trkpt>
      <trkpt lat="45.43193" lon="5.69042">
        <ele>807</ele>
        <time>2015-08-07T08:30:22.000Z</time>
      </trkpt>
      <trkpt lat="45.43192" lon="5.69037">
        <ele>807</ele>
        <time>2015-08-07T08:30:23.000Z</time>
      </trkpt>
      <trkpt lat="45.43191" lon="5.69031">
        <ele>807</ele>
        <time>2015-08-07T08:30:24.000Z</time>
      </trkpt>
      <trkpt lat="45.43189" lon="5.69027">
        <ele>807</ele>
        <time>2015-08-07T08:30:25.000Z</time>
      </trkpt>
      <trkpt lat="45.43189" lon="5.69023">
        <ele>807</ele>
        <time>2015-08-07T08:30:26.000Z</time>
      </trkpt>
      <trkpt lat="45.43185" lon="5.69019">
        <ele>807</ele>
        <time>2015-08-07T08:30:27.000Z</time>
      </trkpt>
      <trkpt lat="45.43183" lon="5.69015">
        <ele>807</ele>
        <time>2015-08-07T08:30:28.000Z</time>
      </trkpt>
      <trkpt lat="45.4318" lon="5.69011">
        <ele>807</ele>
        <time>2015-08-07T08:30:29.000Z</time>
      </trkpt>
      <trkpt lat="45.43178" lon="5.69008">
        <ele>807</ele>
        <time>2015-08-07T08:30:30.000Z</time>
      </trkpt>
      <trkpt lat="45.43177" lon="5.69005">
        <ele>807</ele>
        <time>2015-08-07T08:30:31.000Z</time>
      </trkpt>
      <trkpt lat="45.43175" lon="5.68999">
        <ele>808</ele>
        <time>2015-08-07T08:30:33.000Z</time>
      </trkpt>
      <trkpt lat="45.43174" lon="5.68997">
        <ele>808</ele>
        <time>2015-08-07T08:30:34.000Z</time>
      </trkpt>
      <trkpt lat="45.43173" lon="5.68993">
        <ele>808</ele>
        <time>2015-08-07T08:30:35.000Z</time>
      </trkpt>
      <trkpt lat="45.43173" lon="5.6899">
        <ele>808</ele>
        <time>2015-08-07T08:30:36.000Z</time>
      </trkpt>
      <trkpt lat="45.43173" lon="5.68983">
        <ele>808</ele>
        <time>2015-08-07T08:30:38.000Z</time>
      </trkpt>
      <trkpt lat="45.43174" lon="5.6898">
        <ele>808</ele>
        <time>2015-08-07T08:30:39.000Z</time>
      </trkpt>
      <trkpt lat="45.43173" lon="5.68977">
        <ele>808</ele>
        <time>2015-08-07T08:30:40.000Z</time>
      </trkpt>
      <trkpt lat="45.43173" lon="5.68974">
        <ele>808</ele>
        <time>2015-08-07T08:30:41.000Z</time>
      </trkpt>
      <trkpt lat="45.43172" lon="5.6897">
        <ele>808</ele>
        <time>2015-08-07T08:30:42.000Z</time>
      </trkpt>
      <trkpt lat="45.4317" lon="5.68966">
        <ele>808</ele>
        <time>2015-08-07T08:30:43.000Z</time>
      </trkpt>
      <trkpt lat="45.43169" lon="5.68962">
        <ele>808</ele>
        <time>2015-08-07T08:30:44.000Z</time>
      </trkpt>
      <trkpt lat="45.43167" lon="5.68957">
        <ele>808</ele>
        <time>2015-08-07T08:30:45.000Z</time>
      </trkpt>
      <trkpt lat="45.43166" lon="5.68953">
        <ele>809</ele>
        <time>2015-08-07T08:30:46.000Z</time>
      </trkpt>
      <trkpt lat="45.43164" lon="5.6895">
        <ele>809</ele>
        <time>2015-08-07T08:30:47.000Z</time>
      </trkpt>
      <trkpt lat="45.43163" lon="5.68947">
        <ele>809</ele>
        <time>2015-08-07T08:30:48.000Z</time>
      </trkpt>
      <trkpt lat="45.43161" lon="5.68944">
        <ele>809</ele>
        <time>2015-08-07T08:30:49.000Z</time>
      </trkpt>
      <trkpt lat="45.43158" lon="5.6894">
        <ele>809</ele>
        <time>2015-08-07T08:30:51.000Z</time>
      </trkpt>
      <trkpt lat="45.43157" lon="5.68939">
        <ele>809</ele>
        <time>2015-08-07T08:30:52.000Z</time>
      </trkpt>
      <trkpt lat="45.43155" lon="5.68934">
        <ele>809</ele>
        <time>2015-08-07T08:30:55.000Z</time>
      </trkpt>
      <trkpt lat="45.43153" lon="5.68933">
        <ele>809</ele>
        <time>2015-08-07T08:30:56.000Z</time>
      </trkpt>
      <trkpt lat="45.43152" lon="5.68928">
        <ele>809</ele>
        <time>2015-08-07T08:31:01.000Z</time>
      </trkpt>
      <trkpt lat="45.43152" lon="5.68926">
        <ele>809</ele>
        <time>2015-08-07T08:31:02.000Z</time>
      </trkpt>
      <trkpt lat="45.43151" lon="5.68921">
        <ele>809</ele>
        <time>2015-08-07T08:31:05.000Z</time>
      </trkpt>
      <trkpt lat="45.43151" lon="5.68919">
        <ele>809</ele>
        <time>2015-08-07T08:31:06.000Z</time>
      </trkpt>
      <trkpt lat="45.43152" lon="5.68914">
        <ele>810</ele>
        <time>2015-08-07T08:31:08.000Z</time>
      </trkpt>
      <trkpt lat="45.43152" lon="5.68911">
        <ele>810</ele>
        <time>2015-08-07T08:31:09.000Z</time>
      </trkpt>
      <trkpt lat="45.43151" lon="5.68908">
        <ele>810</ele>
        <time>2015-08-07T08:31:10.000Z</time>
      </trkpt>
      <trkpt lat="45.4315" lon="5.68905">
        <ele>810</ele>
        <time>2015-08-07T08:31:11.000Z</time>
      </trkpt>
      <trkpt lat="45.43148" lon="5.68902">
        <ele>810</ele>
        <time>2015-08-07T08:31:12.000Z</time>
      </trkpt>
      <trkpt lat="45.43147" lon="5.68899">
        <ele>810</ele>
        <time>2015-08-07T08:31:13.000Z</time>
      </trkpt>
      <trkpt lat="45.43146" lon="5.68896">
        <ele>810</ele>
        <time>2015-08-07T08:31:14.000Z</time>
      </trkpt>
      <trkpt lat="45.43145" lon="5.68893">
        <ele>810</ele>
        <time>2015-08-07T08:31:15.000Z</time>
      </trkpt>
      <trkpt lat="45.43143" lon="5.68889">
        <ele>811</ele>
        <time>2015-08-07T08:31:16.000Z</time>
      </trkpt>
      <trkpt lat="45.43143" lon="5.68886">
        <ele>811</ele>
        <time>2015-08-07T08:31:17.000Z</time>
      </trkpt>
      <trkpt lat="45.43142" lon="5.68881">
        <ele>811</ele>
        <time>2015-08-07T08:31:19.000Z</time>
      </trkpt>
      <trkpt lat="45.43141" lon="5.68878">
        <ele>811</ele>
        <time>2015-08-07T08:31:20.000Z</time>
      </trkpt>
      <trkpt lat="45.4314" lon="5.68874">
        <ele>811</ele>
        <time>2015-08-07T08:31:21.000Z</time>
      </trkpt>
      <trkpt lat="45.43139" lon="5.6887">
        <ele>811</ele>
        <time>2015-08-07T08:31:22.000Z</time>
      </trkpt>
      <trkpt lat="45.43138" lon="5.68866">
        <ele>811</ele>
        <time>2015-08-07T08:31:23.000Z</time>
      </trkpt>
      <trkpt lat="45.43137" lon="5.68863">
        <ele>811</ele>
        <time>2015-08-07T08:31:24.000Z</time>
      </trkpt>
      <trkpt lat="45.43137" lon="5.68858">
        <ele>811</ele>
        <time>2015-08-07T08:31:25.000Z</time>
      </trkpt>
      <trkpt lat="45.43137" lon="5.68854">
        <ele>811</ele>
        <time>2015-08-07T08:31:26.000Z</time>
      </trkpt>
      <trkpt lat="45.43137" lon="5.6885">
        <ele>811</ele>
        <time>2015-08-07T08:31:27.000Z</time>
      </trkpt>
      <trkpt lat="45.43137" lon="5.68846">
        <ele>811</ele>
        <time>2015-08-07T08:31:28.000Z</time>
      </trkpt>
      <trkpt lat="45.43137" lon="5.68842">
        <ele>811</ele>
        <time>2015-08-07T08:31:29.000Z</time>
      </trkpt>
      <trkpt lat="45.43136" lon="5.68839">
        <ele>811</ele>
        <time>2015-08-07T08:31:30.000Z</time>
      </trkpt>
      <trkpt lat="45.43135" lon="5.68834">
        <ele>811</ele>
        <time>2015-08-07T08:31:32.000Z</time>
      </trkpt>
      <trkpt lat="45.43134" lon="5.68833">
        <ele>812</ele>
        <time>2015-08-07T08:31:33.000Z</time>
      </trkpt>
      <trkpt lat="45.43132" lon="5.68828">
        <ele>812</ele>
        <time>2015-08-07T08:31:35.000Z</time>
      </trkpt>
      <trkpt lat="45.4313" lon="5.68826">
        <ele>812</ele>
        <time>2015-08-07T08:31:36.000Z</time>
      </trkpt>
      <trkpt lat="45.43128" lon="5.68821">
        <ele>812</ele>
        <time>2015-08-07T08:31:38.000Z</time>
      </trkpt>
      <trkpt lat="45.43127" lon="5.68819">
        <ele>813</ele>
        <time>2015-08-07T08:31:39.000Z</time>
      </trkpt>
      <trkpt lat="45.43126" lon="5.68813">
        <ele>813</ele>
        <time>2015-08-07T08:31:41.000Z</time>
      </trkpt>
      <trkpt lat="45.43126" lon="5.68811">
        <ele>813</ele>
        <time>2015-08-07T08:31:42.000Z</time>
      </trkpt>
      <trkpt lat="45.43124" lon="5.68806">
        <ele>813</ele>
        <time>2015-08-07T08:31:44.000Z</time>
      </trkpt>
      <trkpt lat="45.43123" lon="5.68803">
        <ele>813</ele>
        <time>2015-08-07T08:31:45.000Z</time>
      </trkpt>
      <trkpt lat="45.43121" lon="5.68799">
        <ele>813</ele>
        <time>2015-08-07T08:31:46.999Z</time>
      </trkpt>
      <trkpt lat="45.43117" lon="5.68796">
        <ele>813</ele>
        <time>2015-08-07T08:31:48.000Z</time>
      </trkpt>
      <trkpt lat="45.43113" lon="5.68794">
        <ele>813</ele>
        <time>2015-08-07T08:31:49.000Z</time>
      </trkpt>
      <trkpt lat="45.4311" lon="5.68792">
        <ele>813</ele>
        <time>2015-08-07T08:31:50.000Z</time>
      </trkpt>
      <trkpt lat="45.43107" lon="5.6879">
        <ele>813</ele>
        <time>2015-08-07T08:31:51.000Z</time>
      </trkpt>
      <trkpt lat="45.43104" lon="5.68788">
        <ele>813</ele>
        <time>2015-08-07T08:31:52.000Z</time>
      </trkpt>
      <trkpt lat="45.43102" lon="5.68786">
        <ele>813</ele>
        <time>2015-08-07T08:31:53.000Z</time>
      </trkpt>
      <trkpt lat="45.43098" lon="5.68783">
        <ele>813</ele>
        <time>2015-08-07T08:31:54.000Z</time>
      </trkpt>
      <trkpt lat="45.43095" lon="5.68781">
        <ele>813</ele>
        <time>2015-08-07T08:31:55.000Z</time>
      </trkpt>
      <trkpt lat="45.43092" lon="5.68779">
        <ele>813</ele>
        <time>2015-08-07T08:31:56.000Z</time>
      </trkpt>
      <trkpt lat="45.43089" lon="5.68777">
        <ele>813</ele>
        <time>2015-08-07T08:31:57.000Z</time>
      </trkpt>
      <trkpt lat="45.43086" lon="5.68775">
        <ele>813</ele>
        <time>2015-08-07T08:31:58.000Z</time>
      </trkpt>
      <trkpt lat="45.43084" lon="5.68773">
        <ele>813</ele>
        <time>2015-08-07T08:31:59.000Z</time>
      </trkpt>
      <trkpt lat="45.43081" lon="5.68772">
        <ele>812</ele>
        <time>2015-08-07T08:32:00.000Z</time>
      </trkpt>
      <trkpt lat="45.43078" lon="5.68769">
        <ele>812</ele>
        <time>2015-08-07T08:32:01.000Z</time>
      </trkpt>
      <trkpt lat="45.43075" lon="5.68768">
        <ele>812</ele>
        <time>2015-08-07T08:32:02.000Z</time>
      </trkpt>
      <trkpt lat="45.43072" lon="5.68765">
        <ele>812</ele>
        <time>2015-08-07T08:32:03.000Z</time>
      </trkpt>
      <trkpt lat="45.43069" lon="5.68763">
        <ele>812</ele>
        <time>2015-08-07T08:32:04.000Z</time>
      </trkpt>
      <trkpt lat="45.43066" lon="5.68761">
        <ele>812</ele>
        <time>2015-08-07T08:32:05.000Z</time>
      </trkpt>
      <trkpt lat="45.43063" lon="5.68759">
        <ele>812</ele>
        <time>2015-08-07T08:32:06.000Z</time>
      </trkpt>
      <trkpt lat="45.4306" lon="5.68756">
        <ele>812</ele>
        <time>2015-08-07T08:32:07.000Z</time>
      </trkpt>
      <trkpt lat="45.43056" lon="5.68753">
        <ele>812</ele>
        <time>2015-08-07T08:32:08.000Z</time>
      </trkpt>
      <trkpt lat="45.43049" lon="5.68748">
        <ele>814</ele>
        <time>2015-08-07T08:32:09.000Z</time>
      </trkpt>
      <trkpt lat="45.43044" lon="5.68743">
        <ele>814</ele>
        <time>2015-08-07T08:32:10.000Z</time>
      </trkpt>
      <trkpt lat="45.43039" lon="5.68739">
        <ele>814</ele>
        <time>2015-08-07T08:32:11.000Z</time>
      </trkpt>
      <trkpt lat="45.43034" lon="5.68735">
        <ele>814</ele>
        <time>2015-08-07T08:32:12.000Z</time>
      </trkpt>
      <trkpt lat="45.43029" lon="5.68733">
        <ele>814</ele>
        <time>2015-08-07T08:32:13.000Z</time>
      </trkpt>
      <trkpt lat="45.43023" lon="5.6873">
        <ele>814</ele>
        <time>2015-08-07T08:32:14.000Z</time>
      </trkpt>
      <trkpt lat="45.43018" lon="5.68727">
        <ele>814</ele>
        <time>2015-08-07T08:32:15.000Z</time>
      </trkpt>
      <trkpt lat="45.43013" lon="5.68724">
        <ele>814</ele>
        <time>2015-08-07T08:32:16.000Z</time>
      </trkpt>
      <trkpt lat="45.43009" lon="5.68721">
        <ele>814</ele>
        <time>2015-08-07T08:32:17.000Z</time>
      </trkpt>
      <trkpt lat="45.43005" lon="5.68718">
        <ele>814</ele>
        <time>2015-08-07T08:32:18.000Z</time>
      </trkpt>
      <trkpt lat="45.43001" lon="5.68716">
        <ele>814</ele>
        <time>2015-08-07T08:32:19.000Z</time>
      </trkpt>
      <trkpt lat="45.42997" lon="5.68712">
        <ele>811</ele>
        <time>2015-08-07T08:32:20.000Z</time>
      </trkpt>
      <trkpt lat="45.42993" lon="5.68709">
        <ele>811</ele>
        <time>2015-08-07T08:32:21.000Z</time>
      </trkpt>
      <trkpt lat="45.4299" lon="5.68706">
        <ele>811</ele>
        <time>2015-08-07T08:32:22.000Z</time>
      </trkpt>
      <trkpt lat="45.42987" lon="5.68702">
        <ele>811</ele>
        <time>2015-08-07T08:32:23.000Z</time>
      </trkpt>
      <trkpt lat="45.42985" lon="5.68698">
        <ele>811</ele>
        <time>2015-08-07T08:32:24.000Z</time>
      </trkpt>
      <trkpt lat="45.42983" lon="5.68694">
        <ele>811</ele>
        <time>2015-08-07T08:32:25.000Z</time>
      </trkpt>
      <trkpt lat="45.42981" lon="5.68689">
        <ele>811</ele>
        <time>2015-08-07T08:32:27.000Z</time>
      </trkpt>
      <trkpt lat="45.42981" lon="5.68686">
        <ele>812</ele>
        <time>2015-08-07T08:32:28.000Z</time>
      </trkpt>
      <trkpt lat="45.4298" lon="5.6868">
        <ele>812</ele>
        <time>2015-08-07T08:32:30.000Z</time>
      </trkpt>
      <trkpt lat="45.4298" lon="5.68677">
        <ele>812</ele>
        <time>2015-08-07T08:32:31.000Z</time>
      </trkpt>
      <trkpt lat="45.4298" lon="5.68671">
        <ele>812</ele>
        <time>2015-08-07T08:32:33.000Z</time>
      </trkpt>
      <trkpt lat="45.42979" lon="5.68668">
        <ele>812</ele>
        <time>2015-08-07T08:32:34.000Z</time>
      </trkpt>
      <trkpt lat="45.42979" lon="5.68665">
        <ele>815</ele>
        <time>2015-08-07T08:32:35.000Z</time>
      </trkpt>
      <trkpt lat="45.42978" lon="5.68661">
        <ele>815</ele>
        <time>2015-08-07T08:32:36.000Z</time>
      </trkpt>
      <trkpt lat="45.42978" lon="5.68657">
        <ele>815</ele>
        <time>2015-08-07T08:32:37.000Z</time>
      </trkpt>
      <trkpt lat="45.42978" lon="5.68654">
        <ele>815</ele>
        <time>2015-08-07T08:32:38.000Z</time>
      </trkpt>
      <trkpt lat="45.42977" lon="5.68651">
        <ele>815</ele>
        <time>2015-08-07T08:32:39.000Z</time>
      </trkpt>
      <trkpt lat="45.42977" lon="5.68647">
        <ele>815</ele>
        <time>2015-08-07T08:32:40.000Z</time>
      </trkpt>
      <trkpt lat="45.42976" lon="5.68644">
        <ele>815</ele>
        <time>2015-08-07T08:32:41.000Z</time>
      </trkpt>
      <trkpt lat="45.42976" lon="5.68641">
        <ele>815</ele>
        <time>2015-08-07T08:32:42.000Z</time>
      </trkpt>
      <trkpt lat="45.42976" lon="5.68635">
        <ele>815</ele>
        <time>2015-08-07T08:32:44.000Z</time>
      </trkpt>
      <trkpt lat="45.42976" lon="5.68633">
        <ele>815</ele>
        <time>2015-08-07T08:32:45.000Z</time>
      </trkpt>
      <trkpt lat="45.42976" lon="5.68627">
        <ele>815</ele>
        <time>2015-08-07T08:32:47.000Z</time>
      </trkpt>
      <trkpt lat="45.42976" lon="5.68625">
        <ele>815</ele>
        <time>2015-08-07T08:32:48.000Z</time>
      </trkpt>
      <trkpt lat="45.42977" lon="5.68618">
        <ele>815</ele>
        <time>2015-08-07T08:32:50.000Z</time>
      </trkpt>
      <trkpt lat="45.42977" lon="5.68615">
        <ele>816</ele>
        <time>2015-08-07T08:32:51.000Z</time>
      </trkpt>
      <trkpt lat="45.42977" lon="5.68612">
        <ele>816</ele>
        <time>2015-08-07T08:32:52.000Z</time>
      </trkpt>
      <trkpt lat="45.42978" lon="5.68608">
        <ele>816</ele>
        <time>2015-08-07T08:32:53.000Z</time>
      </trkpt>
      <trkpt lat="45.42978" lon="5.68602">
        <ele>816</ele>
        <time>2015-08-07T08:32:55.000Z</time>
      </trkpt>
      <trkpt lat="45.42978" lon="5.68599">
        <ele>816</ele>
        <time>2015-08-07T08:32:56.000Z</time>
      </trkpt>
      <trkpt lat="45.42978" lon="5.68593">
        <ele>817</ele>
        <time>2015-08-07T08:32:58.000Z</time>
      </trkpt>
      <trkpt lat="45.42978" lon="5.6859">
        <ele>817</ele>
        <time>2015-08-07T08:32:59.000Z</time>
      </trkpt>
      <trkpt lat="45.42979" lon="5.68584">
        <ele>817</ele>
        <time>2015-08-07T08:33:01.000Z</time>
      </trkpt>
      <trkpt lat="45.4298" lon="5.68581">
        <ele>821</ele>
        <time>2015-08-07T08:33:02.000Z</time>
      </trkpt>
      <trkpt lat="45.42981" lon="5.68576">
        <ele>821</ele>
        <time>2015-08-07T08:33:04.000Z</time>
      </trkpt>
      <trkpt lat="45.42981" lon="5.68573">
        <ele>821</ele>
        <time>2015-08-07T08:33:05.000Z</time>
      </trkpt>
      <trkpt lat="45.42983" lon="5.68568">
        <ele>821</ele>
        <time>2015-08-07T08:33:07.000Z</time>
      </trkpt>
      <trkpt lat="45.42983" lon="5.68565">
        <ele>821</ele>
        <time>2015-08-07T08:33:08.000Z</time>
      </trkpt>
      <trkpt lat="45.42984" lon="5.68561">
        <ele>821</ele>
        <time>2015-08-07T08:33:10.000Z</time>
      </trkpt>
      <trkpt lat="45.42985" lon="5.68558">
        <ele>821</ele>
        <time>2015-08-07T08:33:11.000Z</time>
      </trkpt>
      <trkpt lat="45.42987" lon="5.68554">
        <ele>822</ele>
        <time>2015-08-07T08:33:13.000Z</time>
      </trkpt>
      <trkpt lat="45.42988" lon="5.68552">
        <ele>822</ele>
        <time>2015-08-07T08:33:14.000Z</time>
      </trkpt>
      <trkpt lat="45.42989" lon="5.68548">
        <ele>822</ele>
        <time>2015-08-07T08:33:16.000Z</time>
      </trkpt>
      <trkpt lat="45.42989" lon="5.68546">
        <ele>822</ele>
        <time>2015-08-07T08:33:17.000Z</time>
      </trkpt>
      <trkpt lat="45.42991" lon="5.68542">
        <ele>823</ele>
        <time>2015-08-07T08:33:19.000Z</time>
      </trkpt>
      <trkpt lat="45.42991" lon="5.68539">
        <ele>823</ele>
        <time>2015-08-07T08:33:20.000Z</time>
      </trkpt>
      <trkpt lat="45.42992" lon="5.68535">
        <ele>823</ele>
        <time>2015-08-07T08:33:22.000Z</time>
      </trkpt>
      <trkpt lat="45.42993" lon="5.68532">
        <ele>824</ele>
        <time>2015-08-07T08:33:23.000Z</time>
      </trkpt>
      <trkpt lat="45.42994" lon="5.68528">
        <ele>824</ele>
        <time>2015-08-07T08:33:25.000Z</time>
      </trkpt>
      <trkpt lat="45.42994" lon="5.68525">
        <ele>824</ele>
        <time>2015-08-07T08:33:26.000Z</time>
      </trkpt>
      <trkpt lat="45.42995" lon="5.6852">
        <ele>825</ele>
        <time>2015-08-07T08:33:28.000Z</time>
      </trkpt>
      <trkpt lat="45.42995" lon="5.68518">
        <ele>825</ele>
        <time>2015-08-07T08:33:29.000Z</time>
      </trkpt>
      <trkpt lat="45.42995" lon="5.68513">
        <ele>826</ele>
        <time>2015-08-07T08:33:31.000Z</time>
      </trkpt>
      <trkpt lat="45.42995" lon="5.68511">
        <ele>827</ele>
        <time>2015-08-07T08:33:31.999Z</time>
      </trkpt>
      <trkpt lat="45.42995" lon="5.68506">
        <ele>828</ele>
        <time>2015-08-07T08:33:35.000Z</time>
      </trkpt>
      <trkpt lat="45.42994" lon="5.68504">
        <ele>828</ele>
        <time>2015-08-07T08:33:36.000Z</time>
      </trkpt>
      <trkpt lat="45.42994" lon="5.68498">
        <ele>830</ele>
        <time>2015-08-07T08:33:40.000Z</time>
      </trkpt>
      <trkpt lat="45.42993" lon="5.68497">
        <ele>830</ele>
        <time>2015-08-07T08:33:41.000Z</time>
      </trkpt>
      <trkpt lat="45.42992" lon="5.68491">
        <ele>830</ele>
        <time>2015-08-07T08:33:45.000Z</time>
      </trkpt>
      <trkpt lat="45.42992" lon="5.6849">
        <ele>830</ele>
        <time>2015-08-07T08:33:46.000Z</time>
      </trkpt>
      <trkpt lat="45.42991" lon="5.68485">
        <ele>831</ele>
        <time>2015-08-07T08:33:50.000Z</time>
      </trkpt>
      <trkpt lat="45.4299" lon="5.68483">
        <ele>831</ele>
        <time>2015-08-07T08:33:51.000Z</time>
      </trkpt>
      <trkpt lat="45.42988" lon="5.68479">
        <ele>831</ele>
        <time>2015-08-07T08:33:54.000Z</time>
      </trkpt>
      <trkpt lat="45.42988" lon="5.68477">
        <ele>831</ele>
        <time>2015-08-07T08:33:55.000Z</time>
      </trkpt>
      <trkpt lat="45.42985" lon="5.68472">
        <ele>831</ele>
        <time>2015-08-07T08:33:59.000Z</time>
      </trkpt>
      <trkpt lat="45.42985" lon="5.6847">
        <ele>831</ele>
        <time>2015-08-07T08:34:00.000Z</time>
      </trkpt>
      <trkpt lat="45.42983" lon="5.68465">
        <ele>831</ele>
        <time>2015-08-07T08:34:03.000Z</time>
      </trkpt>
      <trkpt lat="45.42983" lon="5.68463">
        <ele>832</ele>
        <time>2015-08-07T08:34:04.000Z</time>
      </trkpt>
      <trkpt lat="45.42983" lon="5.68458">
        <ele>832</ele>
        <time>2015-08-07T08:34:07.000Z</time>
      </trkpt>
      <trkpt lat="45.42982" lon="5.68456">
        <ele>832</ele>
        <time>2015-08-07T08:34:07.999Z</time>
      </trkpt>
      <trkpt lat="45.4298" lon="5.68452">
        <ele>832</ele>
        <time>2015-08-07T08:34:11.000Z</time>
      </trkpt>
      <trkpt lat="45.42979" lon="5.68451">
        <ele>832</ele>
        <time>2015-08-07T08:34:12.000Z</time>
      </trkpt>
      <trkpt lat="45.42976" lon="5.68446">
        <ele>832</ele>
        <time>2015-08-07T08:34:15.000Z</time>
      </trkpt>
      <trkpt lat="45.42975" lon="5.68445">
        <ele>833</ele>
        <time>2015-08-07T08:34:16.000Z</time>
      </trkpt>
      <trkpt lat="45.42975" lon="5.68439">
        <ele>833</ele>
        <time>2015-08-07T08:34:20.000Z</time>
      </trkpt>
      <trkpt lat="45.42975" lon="5.68437">
        <ele>833</ele>
        <time>2015-08-07T08:34:21.000Z</time>
      </trkpt>
      <trkpt lat="45.42974" lon="5.68432">
        <ele>833</ele>
        <time>2015-08-07T08:34:24.000Z</time>
      </trkpt>
      <trkpt lat="45.42973" lon="5.68431">
        <ele>833</ele>
        <time>2015-08-07T08:34:25.000Z</time>
      </trkpt>
      <trkpt lat="45.42972" lon="5.68425">
        <ele>834</ele>
        <time>2015-08-07T08:34:28.000Z</time>
      </trkpt>
      <trkpt lat="45.42972" lon="5.68424">
        <ele>834</ele>
        <time>2015-08-07T08:34:29.000Z</time>
      </trkpt>
      <trkpt lat="45.42972" lon="5.68418">
        <ele>834</ele>
        <time>2015-08-07T08:34:32.000Z</time>
      </trkpt>
      <trkpt lat="45.42972" lon="5.68417">
        <ele>840</ele>
        <time>2015-08-07T08:34:33.000Z</time>
      </trkpt>
      <trkpt lat="45.42971" lon="5.6841">
        <ele>840</ele>
        <time>2015-08-07T08:34:37.001Z</time>
      </trkpt>
      <trkpt lat="45.42972" lon="5.68408">
        <ele>841</ele>
        <time>2015-08-07T08:34:37.999Z</time>
      </trkpt>
      <trkpt lat="45.42974" lon="5.68403">
        <ele>841</ele>
        <time>2015-08-07T08:34:41.000Z</time>
      </trkpt>
      <trkpt lat="45.42974" lon="5.68401">
        <ele>841</ele>
        <time>2015-08-07T08:34:41.999Z</time>
      </trkpt>
      <trkpt lat="45.42975" lon="5.68397">
        <ele>841</ele>
        <time>2015-08-07T08:34:45.000Z</time>
      </trkpt>
      <trkpt lat="45.42976" lon="5.68395">
        <ele>841</ele>
        <time>2015-08-07T08:34:46.000Z</time>
      </trkpt>
      <trkpt lat="45.42977" lon="5.68391">
        <ele>842</ele>
        <time>2015-08-07T08:34:49.000Z</time>
      </trkpt>
      <trkpt lat="45.42978" lon="5.68389">
        <ele>842</ele>
        <time>2015-08-07T08:34:50.000Z</time>
      </trkpt>
      <trkpt lat="45.42979" lon="5.68384">
        <ele>842</ele>
        <time>2015-08-07T08:34:53.000Z</time>
      </trkpt>
      <trkpt lat="45.4298" lon="5.68382">
        <ele>842</ele>
        <time>2015-08-07T08:34:54.000Z</time>
      </trkpt>
      <trkpt lat="45.42982" lon="5.68376">
        <ele>843</ele>
        <time>2015-08-07T08:34:57.001Z</time>
      </trkpt>
      <trkpt lat="45.42983" lon="5.68375">
        <ele>843</ele>
        <time>2015-08-07T08:34:58.000Z</time>
      </trkpt>
      <trkpt lat="45.42985" lon="5.6837">
        <ele>844</ele>
        <time>2015-08-07T08:35:01.000Z</time>
      </trkpt>
      <trkpt lat="45.42985" lon="5.68369">
        <ele>844</ele>
        <time>2015-08-07T08:35:02.000Z</time>
      </trkpt>
      <trkpt lat="45.42987" lon="5.68364">
        <ele>844</ele>
        <time>2015-08-07T08:35:05.000Z</time>
      </trkpt>
      <trkpt lat="45.42988" lon="5.68363">
        <ele>845</ele>
        <time>2015-08-07T08:35:06.000Z</time>
      </trkpt>
      <trkpt lat="45.4299" lon="5.68359">
        <ele>845</ele>
        <time>2015-08-07T08:35:09.000Z</time>
      </trkpt>
      <trkpt lat="45.42991" lon="5.68358">
        <ele>845</ele>
        <time>2015-08-07T08:35:10.000Z</time>
      </trkpt>
      <trkpt lat="45.42992" lon="5.68354">
        <ele>846</ele>
        <time>2015-08-07T08:35:12.999Z</time>
      </trkpt>
      <trkpt lat="45.42993" lon="5.68352">
        <ele>847</ele>
        <time>2015-08-07T08:35:14.000Z</time>
      </trkpt>
      <trkpt lat="45.42995" lon="5.68347">
        <ele>848</ele>
        <time>2015-08-07T08:35:17.000Z</time>
      </trkpt>
      <trkpt lat="45.42996" lon="5.68346">
        <ele>848</ele>
        <time>2015-08-07T08:35:18.000Z</time>
      </trkpt>
      <trkpt lat="45.42999" lon="5.68342">
        <ele>849</ele>
        <time>2015-08-07T08:35:22.000Z</time>
      </trkpt>
      <trkpt lat="45.42999" lon="5.68341">
        <ele>849</ele>
        <time>2015-08-07T08:35:23.000Z</time>
      </trkpt>
      <trkpt lat="45.43002" lon="5.68336">
        <ele>851</ele>
        <time>2015-08-07T08:35:26.000Z</time>
      </trkpt>
      <trkpt lat="45.43003" lon="5.68335">
        <ele>851</ele>
        <time>2015-08-07T08:35:27.000Z</time>
      </trkpt>
      <trkpt lat="45.43005" lon="5.6833">
        <ele>853</ele>
        <time>2015-08-07T08:35:31.000Z</time>
      </trkpt>
      <trkpt lat="45.43006" lon="5.68329">
        <ele>853</ele>
        <time>2015-08-07T08:35:32.000Z</time>
      </trkpt>
      <trkpt lat="45.43009" lon="5.68325">
        <ele>853</ele>
        <time>2015-08-07T08:35:36.000Z</time>
      </trkpt>
      <trkpt lat="45.4301" lon="5.68324">
        <ele>853</ele>
        <time>2015-08-07T08:35:37.000Z</time>
      </trkpt>
      <trkpt lat="45.43012" lon="5.68321">
        <ele>854</ele>
        <time>2015-08-07T08:35:40.000Z</time>
      </trkpt>
      <trkpt lat="45.43013" lon="5.68319">
        <ele>854</ele>
        <time>2015-08-07T08:35:41.000Z</time>
      </trkpt>
      <trkpt lat="45.43015" lon="5.68314">
        <ele>854</ele>
        <time>2015-08-07T08:35:45.000Z</time>
      </trkpt>
      <trkpt lat="45.43015" lon="5.68313">
        <ele>854</ele>
        <time>2015-08-07T08:35:46.000Z</time>
      </trkpt>
      <trkpt lat="45.43017" lon="5.68309">
        <ele>854</ele>
        <time>2015-08-07T08:35:50.000Z</time>
      </trkpt>
      <trkpt lat="45.43018" lon="5.68307">
        <ele>855</ele>
        <time>2015-08-07T08:35:51.000Z</time>
      </trkpt>
      <trkpt lat="45.43019" lon="5.68304">
        <ele>855</ele>
        <time>2015-08-07T08:35:53.000Z</time>
      </trkpt>
      <trkpt lat="45.43021" lon="5.68302">
        <ele>855</ele>
        <time>2015-08-07T08:35:54.000Z</time>
      </trkpt>
      <trkpt lat="45.43022" lon="5.68296">
        <ele>855</ele>
        <time>2015-08-07T08:35:58.000Z</time>
      </trkpt>
      <trkpt lat="45.43022" lon="5.68295">
        <ele>855</ele>
        <time>2015-08-07T08:35:59.000Z</time>
      </trkpt>
      <trkpt lat="45.43024" lon="5.68289">
        <ele>856</ele>
        <time>2015-08-07T08:36:02.000Z</time>
      </trkpt>
      <trkpt lat="45.43024" lon="5.68287">
        <ele>856</ele>
        <time>2015-08-07T08:36:03.000Z</time>
      </trkpt>
      <trkpt lat="45.43026" lon="5.68281">
        <ele>856</ele>
        <time>2015-08-07T08:36:06.000Z</time>
      </trkpt>
      <trkpt lat="45.43026" lon="5.68279">
        <ele>856</ele>
        <time>2015-08-07T08:36:07.000Z</time>
      </trkpt>
      <trkpt lat="45.43027" lon="5.68273">
        <ele>857</ele>
        <time>2015-08-07T08:36:11.000Z</time>
      </trkpt>
      <trkpt lat="45.43027" lon="5.68271">
        <ele>857</ele>
        <time>2015-08-07T08:36:12.000Z</time>
      </trkpt>
      <trkpt lat="45.43027" lon="5.68265">
        <ele>857</ele>
        <time>2015-08-07T08:36:15.000Z</time>
      </trkpt>
      <trkpt lat="45.43027" lon="5.68262">
        <ele>857</ele>
        <time>2015-08-07T08:36:16.000Z</time>
      </trkpt>
      <trkpt lat="45.43028" lon="5.68256">
        <ele>857</ele>
        <time>2015-08-07T08:36:19.000Z</time>
      </trkpt>
      <trkpt lat="45.43027" lon="5.68255">
        <ele>857</ele>
        <time>2015-08-07T08:36:20.000Z</time>
      </trkpt>
      <trkpt lat="45.43028" lon="5.6825">
        <ele>863</ele>
        <time>2015-08-07T08:36:24.000Z</time>
      </trkpt>
      <trkpt lat="45.43028" lon="5.68249">
        <ele>863</ele>
        <time>2015-08-07T08:36:25.000Z</time>
      </trkpt>
      <trkpt lat="45.43029" lon="5.68245">
        <ele>863</ele>
        <time>2015-08-07T08:36:28.001Z</time>
      </trkpt>
      <trkpt lat="45.43029" lon="5.68242">
        <ele>863</ele>
        <time>2015-08-07T08:36:29.000Z</time>
      </trkpt>
      <trkpt lat="45.43031" lon="5.68236">
        <ele>864</ele>
        <time>2015-08-07T08:36:32.000Z</time>
      </trkpt>
      <trkpt lat="45.43032" lon="5.68235">
        <ele>864</ele>
        <time>2015-08-07T08:36:33.000Z</time>
      </trkpt>
      <trkpt lat="45.43034" lon="5.6823">
        <ele>864</ele>
        <time>2015-08-07T08:36:36.000Z</time>
      </trkpt>
      <trkpt lat="45.43035" lon="5.68228">
        <ele>864</ele>
        <time>2015-08-07T08:36:37.000Z</time>
      </trkpt>
      <trkpt lat="45.43035" lon="5.68222">
        <ele>864</ele>
        <time>2015-08-07T08:36:40.000Z</time>
      </trkpt>
      <trkpt lat="45.43035" lon="5.6822">
        <ele>864</ele>
        <time>2015-08-07T08:36:41.000Z</time>
      </trkpt>
      <trkpt lat="45.43036" lon="5.68215">
        <ele>865</ele>
        <time>2015-08-07T08:36:44.000Z</time>
      </trkpt>
      <trkpt lat="45.43036" lon="5.68213">
        <ele>865</ele>
        <time>2015-08-07T08:36:45.000Z</time>
      </trkpt>
      <trkpt lat="45.43037" lon="5.68207">
        <ele>865</ele>
        <time>2015-08-07T08:36:48.000Z</time>
      </trkpt>
      <trkpt lat="45.43037" lon="5.68205">
        <ele>865</ele>
        <time>2015-08-07T08:36:49.000Z</time>
      </trkpt>
      <trkpt lat="45.43037" lon="5.68199">
        <ele>866</ele>
        <time>2015-08-07T08:36:52.000Z</time>
      </trkpt>
      <trkpt lat="45.43037" lon="5.68197">
        <ele>866</ele>
        <time>2015-08-07T08:36:52.999Z</time>
      </trkpt>
      <trkpt lat="45.43039" lon="5.68192">
        <ele>866</ele>
        <time>2015-08-07T08:36:55.000Z</time>
      </trkpt>
      <trkpt lat="45.4304" lon="5.6819">
        <ele>866</ele>
        <time>2015-08-07T08:36:56.000Z</time>
      </trkpt>
      <trkpt lat="45.43041" lon="5.68184">
        <ele>866</ele>
        <time>2015-08-07T08:36:58.999Z</time>
      </trkpt>
      <trkpt lat="45.43041" lon="5.68182">
        <ele>866</ele>
        <time>2015-08-07T08:37:00.000Z</time>
      </trkpt>
      <trkpt lat="45.43041" lon="5.68176">
        <ele>867</ele>
        <time>2015-08-07T08:37:03.000Z</time>
      </trkpt>
      <trkpt lat="45.4304" lon="5.68175">
        <ele>867</ele>
        <time>2015-08-07T08:37:04.000Z</time>
      </trkpt>
      <trkpt lat="45.4304" lon="5.68169">
        <ele>867</ele>
        <time>2015-08-07T08:37:07.000Z</time>
      </trkpt>
      <trkpt lat="45.4304" lon="5.68167">
        <ele>867</ele>
        <time>2015-08-07T08:37:08.001Z</time>
      </trkpt>
      <trkpt lat="45.4304" lon="5.68162">
        <ele>875</ele>
        <time>2015-08-07T08:37:10.000Z</time>
      </trkpt>
      <trkpt lat="45.43041" lon="5.6816">
        <ele>875</ele>
        <time>2015-08-07T08:37:11.000Z</time>
      </trkpt>
      <trkpt lat="45.43041" lon="5.68156">
        <ele>875</ele>
        <time>2015-08-07T08:37:13.000Z</time>
      </trkpt>
      <trkpt lat="45.43041" lon="5.68153">
        <ele>876</ele>
        <time>2015-08-07T08:37:14.000Z</time>
      </trkpt>
      <trkpt lat="45.4304" lon="5.68149">
        <ele>876</ele>
        <time>2015-08-07T08:37:16.000Z</time>
      </trkpt>
      <trkpt lat="45.4304" lon="5.68147">
        <ele>876</ele>
        <time>2015-08-07T08:37:17.000Z</time>
      </trkpt>
      <trkpt lat="45.4304" lon="5.6814">
        <ele>877</ele>
        <time>2015-08-07T08:37:20.000Z</time>
      </trkpt>
      <trkpt lat="45.43041" lon="5.68138">
        <ele>877</ele>
        <time>2015-08-07T08:37:21.000Z</time>
      </trkpt>
      <trkpt lat="45.43041" lon="5.68133">
        <ele>877</ele>
        <time>2015-08-07T08:37:23.000Z</time>
      </trkpt>
      <trkpt lat="45.43042" lon="5.6813">
        <ele>878</ele>
        <time>2015-08-07T08:37:23.999Z</time>
      </trkpt>
      <trkpt lat="45.43042" lon="5.68125">
        <ele>878</ele>
        <time>2015-08-07T08:37:26.000Z</time>
      </trkpt>
      <trkpt lat="45.43042" lon="5.68122">
        <ele>878</ele>
        <time>2015-08-07T08:37:27.000Z</time>
      </trkpt>
      <trkpt lat="45.43043" lon="5.68117">
        <ele>879</ele>
        <time>2015-08-07T08:37:30.000Z</time>
      </trkpt>
      <trkpt lat="45.43043" lon="5.68115">
        <ele>879</ele>
        <time>2015-08-07T08:37:31.000Z</time>
      </trkpt>
      <trkpt lat="45.43044" lon="5.6811">
        <ele>879</ele>
        <time>2015-08-07T08:37:34.000Z</time>
      </trkpt>
      <trkpt lat="45.43044" lon="5.68108">
        <ele>879</ele>
        <time>2015-08-07T08:37:35.000Z</time>
      </trkpt>
      <trkpt lat="45.43045" lon="5.68102">
        <ele>880</ele>
        <time>2015-08-07T08:37:39.001Z</time>
      </trkpt>
      <trkpt lat="45.43045" lon="5.68101">
        <ele>880</ele>
        <time>2015-08-07T08:37:40.002Z</time>
      </trkpt>
      <trkpt lat="45.43041" lon="5.68097">
        <ele>880</ele>
        <time>2015-08-07T08:37:43.000Z</time>
      </trkpt>
      <trkpt lat="45.4304" lon="5.68096">
        <ele>881</ele>
        <time>2015-08-07T08:37:44.000Z</time>
      </trkpt>
      <trkpt lat="45.43037" lon="5.68097">
        <ele>881</ele>
        <time>2015-08-07T08:37:47.000Z</time>
      </trkpt>
      <trkpt lat="45.43035" lon="5.68097">
        <ele>881</ele>
        <time>2015-08-07T08:37:48.000Z</time>
      </trkpt>
      <trkpt lat="45.43031" lon="5.68098">
        <ele>881</ele>
        <time>2015-08-07T08:37:51.000Z</time>
      </trkpt>
      <trkpt lat="45.4303" lon="5.68098">
        <ele>881</ele>
        <time>2015-08-07T08:37:52.000Z</time>
      </trkpt>
      <trkpt lat="45.43027" lon="5.68099">
        <ele>881</ele>
        <time>2015-08-07T08:37:53.000Z</time>
      </trkpt>
      <trkpt lat="45.43025" lon="5.68099">
        <ele>881</ele>
        <time>2015-08-07T08:37:54.000Z</time>
      </trkpt>
      <trkpt lat="45.43021" lon="5.68099">
        <ele>882</ele>
        <time>2015-08-07T08:37:55.000Z</time>
      </trkpt>
      <trkpt lat="45.43018" lon="5.681">
        <ele>882</ele>
        <time>2015-08-07T08:37:56.000Z</time>
      </trkpt>
      <trkpt lat="45.43014" lon="5.681">
        <ele>883</ele>
        <time>2015-08-07T08:37:58.000Z</time>
      </trkpt>
      <trkpt lat="45.43012" lon="5.68099">
        <ele>883</ele>
        <time>2015-08-07T08:37:59.000Z</time>
      </trkpt>
      <trkpt lat="45.43009" lon="5.68099">
        <ele>883</ele>
        <time>2015-08-07T08:39:09.000Z</time>
      </trkpt>
      <trkpt lat="45.43008" lon="5.68099">
        <ele>883</ele>
        <time>2015-08-07T08:39:10.000Z</time>
      </trkpt>
      <trkpt lat="45.43004" lon="5.68098">
        <ele>884</ele>
        <time>2015-08-07T08:39:13.000Z</time>
      </trkpt>
      <trkpt lat="45.43003" lon="5.68097">
        <ele>884</ele>
        <time>2015-08-07T08:39:14.000Z</time>
      </trkpt>
      <trkpt lat="45.42999" lon="5.68096">
        <ele>885</ele>
        <time>2015-08-07T08:39:16.000Z</time>
      </trkpt>
      <trkpt lat="45.42997" lon="5.68096">
        <ele>885</ele>
        <time>2015-08-07T08:39:17.000Z</time>
      </trkpt>
      <trkpt lat="45.42993" lon="5.68093">
        <ele>885</ele>
        <time>2015-08-07T08:39:20.000Z</time>
      </trkpt>
      <trkpt lat="45.42991" lon="5.68093">
        <ele>885</ele>
        <time>2015-08-07T08:39:21.000Z</time>
      </trkpt>
      <trkpt lat="45.42989" lon="5.68093">
        <ele>885</ele>
        <time>2015-08-07T08:39:22.000Z</time>
      </trkpt>
      <trkpt lat="45.42986" lon="5.68094">
        <ele>884</ele>
        <time>2015-08-07T08:39:23.000Z</time>
      </trkpt>
      <trkpt lat="45.42982" lon="5.68094">
        <ele>884</ele>
        <time>2015-08-07T08:39:26.000Z</time>
      </trkpt>
      <trkpt lat="45.42981" lon="5.68093">
        <ele>884</ele>
        <time>2015-08-07T08:39:27.000Z</time>
      </trkpt>
      <trkpt lat="45.42976" lon="5.68093">
        <ele>883</ele>
        <time>2015-08-07T08:39:29.000Z</time>
      </trkpt>
      <trkpt lat="45.42974" lon="5.68092">
        <ele>883</ele>
        <time>2015-08-07T08:39:30.000Z</time>
      </trkpt>
      <trkpt lat="45.42971" lon="5.68092">
        <ele>883</ele>
        <time>2015-08-07T08:39:31.000Z</time>
      </trkpt>
      <trkpt lat="45.42968" lon="5.68092">
        <ele>883</ele>
        <time>2015-08-07T08:39:32.000Z</time>
      </trkpt>
      <trkpt lat="45.42965" lon="5.68093">
        <ele>883</ele>
        <time>2015-08-07T08:39:33.000Z</time>
      </trkpt>
      <trkpt lat="45.42963" lon="5.68093">
        <ele>883</ele>
        <time>2015-08-07T08:39:34.000Z</time>
      </trkpt>
      <trkpt lat="45.42959" lon="5.68092">
        <ele>883</ele>
        <time>2015-08-07T08:39:36.000Z</time>
      </trkpt>
      <trkpt lat="45.42957" lon="5.68092">
        <ele>883</ele>
        <time>2015-08-07T08:39:37.000Z</time>
      </trkpt>
      <trkpt lat="45.42954" lon="5.68092">
        <ele>883</ele>
        <time>2015-08-07T08:39:38.000Z</time>
      </trkpt>
      <trkpt lat="45.42952" lon="5.68091">
        <ele>883</ele>
        <time>2015-08-07T08:39:39.000Z</time>
      </trkpt>
      <trkpt lat="45.42948" lon="5.68089">
        <ele>883</ele>
        <time>2015-08-07T08:39:41.000Z</time>
      </trkpt>
      <trkpt lat="45.42946" lon="5.68087">
        <ele>883</ele>
        <time>2015-08-07T08:39:42.000Z</time>
      </trkpt>
      <trkpt lat="45.42944" lon="5.68084">
        <ele>883</ele>
        <time>2015-08-07T08:39:44.000Z</time>
      </trkpt>
      <trkpt lat="45.42942" lon="5.68083">
        <ele>891</ele>
        <time>2015-08-07T08:39:45.000Z</time>
      </trkpt>
      <trkpt lat="45.42939" lon="5.6808">
        <ele>891</ele>
        <time>2015-08-07T08:39:47.000Z</time>
      </trkpt>
      <trkpt lat="45.42937" lon="5.6808">
        <ele>890</ele>
        <time>2015-08-07T08:39:48.000Z</time>
      </trkpt>
      <trkpt lat="45.42933" lon="5.68079">
        <ele>890</ele>
        <time>2015-08-07T08:39:50.000Z</time>
      </trkpt>
      <trkpt lat="45.42931" lon="5.68078">
        <ele>890</ele>
        <time>2015-08-07T08:39:51.000Z</time>
      </trkpt>
      <trkpt lat="45.42928" lon="5.68074">
        <ele>890</ele>
        <time>2015-08-07T08:39:54.000Z</time>
      </trkpt>
      <trkpt lat="45.42927" lon="5.68073">
        <ele>890</ele>
        <time>2015-08-07T08:39:55.000Z</time>
      </trkpt>
      <trkpt lat="45.42924" lon="5.68069">
        <ele>890</ele>
        <time>2015-08-07T08:39:58.000Z</time>
      </trkpt>
      <trkpt lat="45.42922" lon="5.68069">
        <ele>890</ele>
        <time>2015-08-07T08:39:59.000Z</time>
      </trkpt>
      <trkpt lat="45.42919" lon="5.68067">
        <ele>891</ele>
        <time>2015-08-07T08:40:03.000Z</time>
      </trkpt>
      <trkpt lat="45.42918" lon="5.68065">
        <ele>891</ele>
        <time>2015-08-07T08:40:04.000Z</time>
      </trkpt>
      <trkpt lat="45.42915" lon="5.6806">
        <ele>893</ele>
        <time>2015-08-07T08:40:08.000Z</time>
      </trkpt>
      <trkpt lat="45.42915" lon="5.68059">
        <ele>893</ele>
        <time>2015-08-07T08:40:09.000Z</time>
      </trkpt>
      <trkpt lat="45.42913" lon="5.68054">
        <ele>893</ele>
        <time>2015-08-07T08:40:13.000Z</time>
      </trkpt>
      <trkpt lat="45.42912" lon="5.68053">
        <ele>894</ele>
        <time>2015-08-07T08:40:14.000Z</time>
      </trkpt>
      <trkpt lat="45.4291" lon="5.68048">
        <ele>894</ele>
        <time>2015-08-07T08:40:17.000Z</time>
      </trkpt>
      <trkpt lat="45.42909" lon="5.68047">
        <ele>894</ele>
        <time>2015-08-07T08:40:18.000Z</time>
      </trkpt>
      <trkpt lat="45.42908" lon="5.68043">
        <ele>895</ele>
        <time>2015-08-07T08:40:20.000Z</time>
      </trkpt>
      <trkpt lat="45.42908" lon="5.6804">
        <ele>895</ele>
        <time>2015-08-07T08:40:21.000Z</time>
      </trkpt>
      <trkpt lat="45.42907" lon="5.68035">
        <ele>896</ele>
        <time>2015-08-07T08:40:23.000Z</time>
      </trkpt>
      <trkpt lat="45.42907" lon="5.68032">
        <ele>896</ele>
        <time>2015-08-07T08:40:24.000Z</time>
      </trkpt>
      <trkpt lat="45.42905" lon="5.68027">
        <ele>896</ele>
        <time>2015-08-07T08:40:26.000Z</time>
      </trkpt>
      <trkpt lat="45.42905" lon="5.68024">
        <ele>897</ele>
        <time>2015-08-07T08:40:27.000Z</time>
      </trkpt>
      <trkpt lat="45.42904" lon="5.6802">
        <ele>897</ele>
        <time>2015-08-07T08:40:28.000Z</time>
      </trkpt>
      <trkpt lat="45.42903" lon="5.68017">
        <ele>897</ele>
        <time>2015-08-07T08:40:29.000Z</time>
      </trkpt>
      <trkpt lat="45.42901" lon="5.68014">
        <ele>898</ele>
        <time>2015-08-07T08:40:30.000Z</time>
      </trkpt>
      <trkpt lat="45.42901" lon="5.6801">
        <ele>898</ele>
        <time>2015-08-07T08:40:31.000Z</time>
      </trkpt>
      <trkpt lat="45.42901" lon="5.68006">
        <ele>898</ele>
        <time>2015-08-07T08:40:32.000Z</time>
      </trkpt>
      <trkpt lat="45.429" lon="5.68001">
        <ele>898</ele>
        <time>2015-08-07T08:40:33.000Z</time>
      </trkpt>
      <trkpt lat="45.429" lon="5.67998">
        <ele>902</ele>
        <time>2015-08-07T08:40:34.000Z</time>
      </trkpt>
      <trkpt lat="45.42899" lon="5.67994">
        <ele>902</ele>
        <time>2015-08-07T08:40:35.000Z</time>
      </trkpt>
      <trkpt lat="45.42897" lon="5.6799">
        <ele>902</ele>
        <time>2015-08-07T08:40:36.000Z</time>
      </trkpt>
      <trkpt lat="45.42896" lon="5.67987">
        <ele>902</ele>
        <time>2015-08-07T08:40:37.000Z</time>
      </trkpt>
      <trkpt lat="45.42893" lon="5.67982">
        <ele>902</ele>
        <time>2015-08-07T08:40:39.000Z</time>
      </trkpt>
      <trkpt lat="45.42892" lon="5.6798">
        <ele>902</ele>
        <time>2015-08-07T08:40:40.000Z</time>
      </trkpt>
      <trkpt lat="45.4289" lon="5.67977">
        <ele>902</ele>
        <time>2015-08-07T08:40:41.000Z</time>
      </trkpt>
      <trkpt lat="45.42887" lon="5.67975">
        <ele>902</ele>
        <time>2015-08-07T08:40:42.000Z</time>
      </trkpt>
      <trkpt lat="45.42883" lon="5.67972">
        <ele>902</ele>
        <time>2015-08-07T08:40:43.000Z</time>
      </trkpt>
      <trkpt lat="45.42879" lon="5.67969">
        <ele>902</ele>
        <time>2015-08-07T08:40:44.000Z</time>
      </trkpt>
      <trkpt lat="45.42875" lon="5.67966">
        <ele>903</ele>
        <time>2015-08-07T08:40:45.000Z</time>
      </trkpt>
      <trkpt lat="45.42871" lon="5.67963">
        <ele>903</ele>
        <time>2015-08-07T08:40:46.000Z</time>
      </trkpt>
      <trkpt lat="45.42867" lon="5.6796">
        <ele>903</ele>
        <time>2015-08-07T08:40:47.000Z</time>
      </trkpt>
      <trkpt lat="45.42864" lon="5.67957">
        <ele>903</ele>
        <time>2015-08-07T08:40:48.000Z</time>
      </trkpt>
      <trkpt lat="45.42861" lon="5.67953">
        <ele>903</ele>
        <time>2015-08-07T08:40:49.000Z</time>
      </trkpt>
      <trkpt lat="45.42858" lon="5.6795">
        <ele>903</ele>
        <time>2015-08-07T08:40:50.000Z</time>
      </trkpt>
      <trkpt lat="45.42856" lon="5.67946">
        <ele>903</ele>
        <time>2015-08-07T08:40:51.000Z</time>
      </trkpt>
      <trkpt lat="45.42853" lon="5.67943">
        <ele>903</ele>
        <time>2015-08-07T08:40:52.000Z</time>
      </trkpt>
      <trkpt lat="45.42851" lon="5.6794">
        <ele>903</ele>
        <time>2015-08-07T08:40:53.000Z</time>
      </trkpt>
      <trkpt lat="45.42849" lon="5.67938">
        <ele>903</ele>
        <time>2015-08-07T08:40:54.000Z</time>
      </trkpt>
      <trkpt lat="45.42847" lon="5.67936">
        <ele>904</ele>
        <time>2015-08-07T08:40:55.000Z</time>
      </trkpt>
      <trkpt lat="45.42844" lon="5.67934">
        <ele>904</ele>
        <time>2015-08-07T08:40:56.000Z</time>
      </trkpt>
      <trkpt lat="45.42841" lon="5.67932">
        <ele>904</ele>
        <time>2015-08-07T08:40:57.000Z</time>
      </trkpt>
      <trkpt lat="45.42838" lon="5.6793">
        <ele>904</ele>
        <time>2015-08-07T08:40:58.000Z</time>
      </trkpt>
      <trkpt lat="45.42836" lon="5.67928">
        <ele>904</ele>
        <time>2015-08-07T08:40:59.000Z</time>
      </trkpt>
      <trkpt lat="45.42833" lon="5.67926">
        <ele>904</ele>
        <time>2015-08-07T08:41:00.000Z</time>
      </trkpt>
      <trkpt lat="45.4283" lon="5.67924">
        <ele>904</ele>
        <time>2015-08-07T08:41:01.000Z</time>
      </trkpt>
      <trkpt lat="45.42827" lon="5.67923">
        <ele>904</ele>
        <time>2015-08-07T08:41:02.000Z</time>
      </trkpt>
      <trkpt lat="45.42824" lon="5.67922">
        <ele>904</ele>
        <time>2015-08-07T08:41:03.000Z</time>
      </trkpt>
      <trkpt lat="45.42821" lon="5.67922">
        <ele>903</ele>
        <time>2015-08-07T08:41:04.000Z</time>
      </trkpt>
      <trkpt lat="45.42818" lon="5.67921">
        <ele>903</ele>
        <time>2015-08-07T08:41:05.000Z</time>
      </trkpt>
      <trkpt lat="45.42815" lon="5.67921">
        <ele>903</ele>
        <time>2015-08-07T08:41:06.000Z</time>
      </trkpt>
      <trkpt lat="45.42811" lon="5.6792">
        <ele>903</ele>
        <time>2015-08-07T08:41:07.000Z</time>
      </trkpt>
      <trkpt lat="45.42808" lon="5.6792">
        <ele>902</ele>
        <time>2015-08-07T08:41:08.000Z</time>
      </trkpt>
      <trkpt lat="45.42805" lon="5.67919">
        <ele>902</ele>
        <time>2015-08-07T08:41:09.000Z</time>
      </trkpt>
      <trkpt lat="45.42802" lon="5.67918">
        <ele>902</ele>
        <time>2015-08-07T08:41:10.000Z</time>
      </trkpt>
      <trkpt lat="45.42799" lon="5.67917">
        <ele>902</ele>
        <time>2015-08-07T08:41:11.000Z</time>
      </trkpt>
      <trkpt lat="45.42797" lon="5.67916">
        <ele>904</ele>
        <time>2015-08-07T08:41:12.000Z</time>
      </trkpt>
      <trkpt lat="45.42795" lon="5.67915">
        <ele>904</ele>
        <time>2015-08-07T08:41:13.000Z</time>
      </trkpt>
      <trkpt lat="45.42791" lon="5.67912">
        <ele>904</ele>
        <time>2015-08-07T08:41:15.000Z</time>
      </trkpt>
      <trkpt lat="45.42789" lon="5.6791">
        <ele>904</ele>
        <time>2015-08-07T08:41:16.000Z</time>
      </trkpt>
      <trkpt lat="45.42787" lon="5.67909">
        <ele>904</ele>
        <time>2015-08-07T08:41:17.000Z</time>
      </trkpt>
      <trkpt lat="45.42784" lon="5.67909">
        <ele>904</ele>
        <time>2015-08-07T08:41:18.000Z</time>
      </trkpt>
      <trkpt lat="45.42782" lon="5.67907">
        <ele>904</ele>
        <time>2015-08-07T08:41:19.000Z</time>
      </trkpt>
      <trkpt lat="45.42779" lon="5.67905">
        <ele>904</ele>
        <time>2015-08-07T08:41:20.000Z</time>
      </trkpt>
      <trkpt lat="45.42777" lon="5.67903">
        <ele>904</ele>
        <time>2015-08-07T08:41:21.000Z</time>
      </trkpt>
      <trkpt lat="45.42775" lon="5.67902">
        <ele>904</ele>
        <time>2015-08-07T08:41:22.000Z</time>
      </trkpt>
      <trkpt lat="45.42772" lon="5.67901">
        <ele>904</ele>
        <time>2015-08-07T08:41:23.000Z</time>
      </trkpt>
      <trkpt lat="45.4277" lon="5.679">
        <ele>904</ele>
        <time>2015-08-07T08:41:24.000Z</time>
      </trkpt>
      <trkpt lat="45.42765" lon="5.67899">
        <ele>903</ele>
        <time>2015-08-07T08:41:26.000Z</time>
      </trkpt>
      <trkpt lat="45.42762" lon="5.67899">
        <ele>903</ele>
        <time>2015-08-07T08:41:27.000Z</time>
      </trkpt>
      <trkpt lat="45.42759" lon="5.679">
        <ele>903</ele>
        <time>2015-08-07T08:41:28.000Z</time>
      </trkpt>
      <trkpt lat="45.42755" lon="5.679">
        <ele>903</ele>
        <time>2015-08-07T08:41:29.000Z</time>
      </trkpt>
      <trkpt lat="45.42752" lon="5.67901">
        <ele>903</ele>
        <time>2015-08-07T08:41:30.000Z</time>
      </trkpt>
      <trkpt lat="45.42749" lon="5.67902">
        <ele>900</ele>
        <time>2015-08-07T08:41:31.000Z</time>
      </trkpt>
      <trkpt lat="45.42746" lon="5.67902">
        <ele>900</ele>
        <time>2015-08-07T08:41:32.000Z</time>
      </trkpt>
      <trkpt lat="45.42744" lon="5.67903">
        <ele>900</ele>
        <time>2015-08-07T08:41:33.000Z</time>
      </trkpt>
      <trkpt lat="45.42741" lon="5.67903">
        <ele>900</ele>
        <time>2015-08-07T08:41:34.000Z</time>
      </trkpt>
      <trkpt lat="45.42738" lon="5.67903">
        <ele>900</ele>
        <time>2015-08-07T08:41:35.000Z</time>
      </trkpt>
      <trkpt lat="45.42734" lon="5.67903">
        <ele>900</ele>
        <time>2015-08-07T08:41:36.000Z</time>
      </trkpt>
      <trkpt lat="45.42731" lon="5.67903">
        <ele>900</ele>
        <time>2015-08-07T08:41:37.000Z</time>
      </trkpt>
      <trkpt lat="45.42728" lon="5.67903">
        <ele>900</ele>
        <time>2015-08-07T08:41:38.000Z</time>
      </trkpt>
      <trkpt lat="45.42724" lon="5.67903">
        <ele>900</ele>
        <time>2015-08-07T08:41:39.000Z</time>
      </trkpt>
      <trkpt lat="45.42721" lon="5.67902">
        <ele>899</ele>
        <time>2015-08-07T08:41:40.000Z</time>
      </trkpt>
      <trkpt lat="45.42717" lon="5.679">
        <ele>899</ele>
        <time>2015-08-07T08:41:41.000Z</time>
      </trkpt>
      <trkpt lat="45.42714" lon="5.67898">
        <ele>899</ele>
        <time>2015-08-07T08:41:42.000Z</time>
      </trkpt>
      <trkpt lat="45.42711" lon="5.67895">
        <ele>899</ele>
        <time>2015-08-07T08:41:43.000Z</time>
      </trkpt>
      <trkpt lat="45.42707" lon="5.67891">
        <ele>899</ele>
        <time>2015-08-07T08:41:44.000Z</time>
      </trkpt>
      <trkpt lat="45.42704" lon="5.67888">
        <ele>899</ele>
        <time>2015-08-07T08:41:45.000Z</time>
      </trkpt>
      <trkpt lat="45.42701" lon="5.67885">
        <ele>899</ele>
        <time>2015-08-07T08:41:46.000Z</time>
      </trkpt>
      <trkpt lat="45.42698" lon="5.67882">
        <ele>899</ele>
        <time>2015-08-07T08:41:47.000Z</time>
      </trkpt>
      <trkpt lat="45.42695" lon="5.67879">
        <ele>899</ele>
        <time>2015-08-07T08:41:48.000Z</time>
      </trkpt>
      <trkpt lat="45.42692" lon="5.67876">
        <ele>899</ele>
        <time>2015-08-07T08:41:49.000Z</time>
      </trkpt>
      <trkpt lat="45.4269" lon="5.67874">
        <ele>899</ele>
        <time>2015-08-07T08:41:50.000Z</time>
      </trkpt>
      <trkpt lat="45.42687" lon="5.67872">
        <ele>899</ele>
        <time>2015-08-07T08:41:51.000Z</time>
      </trkpt>
      <trkpt lat="45.42684" lon="5.67871">
        <ele>899</ele>
        <time>2015-08-07T08:41:52.000Z</time>
      </trkpt>
      <trkpt lat="45.4268" lon="5.67869">
        <ele>899</ele>
        <time>2015-08-07T08:41:53.000Z</time>
      </trkpt>
      <trkpt lat="45.42677" lon="5.67869">
        <ele>899</ele>
        <time>2015-08-07T08:41:54.000Z</time>
      </trkpt>
      <trkpt lat="45.42673" lon="5.67868">
        <ele>899</ele>
        <time>2015-08-07T08:41:55.000Z</time>
      </trkpt>
      <trkpt lat="45.42669" lon="5.67868">
        <ele>899</ele>
        <time>2015-08-07T08:41:56.000Z</time>
      </trkpt>
      <trkpt lat="45.42665" lon="5.67867">
        <ele>895</ele>
        <time>2015-08-07T08:41:57.000Z</time>
      </trkpt>
      <trkpt lat="45.42661" lon="5.67867">
        <ele>895</ele>
        <time>2015-08-07T08:41:58.000Z</time>
      </trkpt>
      <trkpt lat="45.42657" lon="5.67866">
        <ele>895</ele>
        <time>2015-08-07T08:41:59.000Z</time>
      </trkpt>
      <trkpt lat="45.42653" lon="5.67866">
        <ele>895</ele>
        <time>2015-08-07T08:42:00.000Z</time>
      </trkpt>
      <trkpt lat="45.42648" lon="5.67865">
        <ele>895</ele>
        <time>2015-08-07T08:42:01.000Z</time>
      </trkpt>
      <trkpt lat="45.42643" lon="5.67864">
        <ele>894</ele>
        <time>2015-08-07T08:42:02.000Z</time>
      </trkpt>
      <trkpt lat="45.42638" lon="5.67864">
        <ele>894</ele>
        <time>2015-08-07T08:42:03.000Z</time>
      </trkpt>
      <trkpt lat="45.42633" lon="5.67863">
        <ele>894</ele>
        <time>2015-08-07T08:42:04.000Z</time>
      </trkpt>
      <trkpt lat="45.42628" lon="5.67862">
        <ele>894</ele>
        <time>2015-08-07T08:42:05.000Z</time>
      </trkpt>
      <trkpt lat="45.42624" lon="5.67862">
        <ele>894</ele>
        <time>2015-08-07T08:42:06.000Z</time>
      </trkpt>
      <trkpt lat="45.4262" lon="5.67861">
        <ele>894</ele>
        <time>2015-08-07T08:42:07.000Z</time>
      </trkpt>
      <trkpt lat="45.42616" lon="5.67861">
        <ele>894</ele>
        <time>2015-08-07T08:42:09.000Z</time>
      </trkpt>
      <trkpt lat="45.42615" lon="5.67861">
        <ele>894</ele>
        <time>2015-08-07T08:42:10.000Z</time>
      </trkpt>
      <trkpt lat="45.42611" lon="5.67861">
        <ele>893</ele>
        <time>2015-08-07T08:42:12.000Z</time>
      </trkpt>
      <trkpt lat="45.42609" lon="5.67861">
        <ele>893</ele>
        <time>2015-08-07T08:42:13.000Z</time>
      </trkpt>
      <trkpt lat="45.42607" lon="5.6786">
        <ele>894</ele>
        <time>2015-08-07T08:42:14.000Z</time>
      </trkpt>
      <trkpt lat="45.42604" lon="5.67859">
        <ele>894</ele>
        <time>2015-08-07T08:42:15.000Z</time>
      </trkpt>
      <trkpt lat="45.42602" lon="5.67857">
        <ele>894</ele>
        <time>2015-08-07T08:42:16.000Z</time>
      </trkpt>
      <trkpt lat="45.42599" lon="5.67855">
        <ele>894</ele>
        <time>2015-08-07T08:42:17.000Z</time>
      </trkpt>
      <trkpt lat="45.42596" lon="5.67853">
        <ele>894</ele>
        <time>2015-08-07T08:42:18.000Z</time>
      </trkpt>
      <trkpt lat="45.42593" lon="5.67851">
        <ele>895</ele>
        <time>2015-08-07T08:42:19.000Z</time>
      </trkpt>
      <trkpt lat="45.4259" lon="5.67849">
        <ele>895</ele>
        <time>2015-08-07T08:42:20.000Z</time>
      </trkpt>
      <trkpt lat="45.42586" lon="5.67846">
        <ele>896</ele>
        <time>2015-08-07T08:42:21.000Z</time>
      </trkpt>
      <trkpt lat="45.42582" lon="5.67843">
        <ele>892</ele>
        <time>2015-08-07T08:42:22.000Z</time>
      </trkpt>
      <trkpt lat="45.42577" lon="5.6784">
        <ele>893</ele>
        <time>2015-08-07T08:42:23.000Z</time>
      </trkpt>
      <trkpt lat="45.42572" lon="5.67837">
        <ele>891</ele>
        <time>2015-08-07T08:42:24.000Z</time>
      </trkpt>
      <trkpt lat="45.42567" lon="5.67833">
        <ele>890</ele>
        <time>2015-08-07T08:42:25.000Z</time>
      </trkpt>
      <trkpt lat="45.42562" lon="5.6783">
        <ele>896</ele>
        <time>2015-08-07T08:42:26.000Z</time>
      </trkpt>
      <trkpt lat="45.42557" lon="5.67827">
        <ele>896</ele>
        <time>2015-08-07T08:42:27.000Z</time>
      </trkpt>
      <trkpt lat="45.42553" lon="5.67823">
        <ele>895</ele>
        <time>2015-08-07T08:42:28.000Z</time>
      </trkpt>
      <trkpt lat="45.42548" lon="5.67819">
        <ele>895</ele>
        <time>2015-08-07T08:42:29.000Z</time>
      </trkpt>
      <trkpt lat="45.42544" lon="5.67816">
        <ele>895</ele>
        <time>2015-08-07T08:42:30.000Z</time>
      </trkpt>
      <trkpt lat="45.42532" lon="5.67803">
        <ele>894</ele>
        <time>2015-08-07T08:42:31.000Z</time>
      </trkpt>
      <trkpt lat="45.42525" lon="5.678">
        <ele>894</ele>
        <time>2015-08-07T08:42:32.000Z</time>
      </trkpt>
      <trkpt lat="45.42519" lon="5.67797">
        <ele>894</ele>
        <time>2015-08-07T08:42:33.000Z</time>
      </trkpt>
      <trkpt lat="45.4251" lon="5.67795">
        <ele>893</ele>
        <time>2015-08-07T08:42:34.000Z</time>
      </trkpt>
      <trkpt lat="45.42505" lon="5.67792">
        <ele>893</ele>
        <time>2015-08-07T08:42:35.000Z</time>
      </trkpt>
      <trkpt lat="45.425" lon="5.67787">
        <ele>894</ele>
        <time>2015-08-07T08:42:36.000Z</time>
      </trkpt>
      <trkpt lat="45.42497" lon="5.67784">
        <ele>883</ele>
        <time>2015-08-07T08:42:37.000Z</time>
      </trkpt>
      <trkpt lat="45.42494" lon="5.67779">
        <ele>883</ele>
        <time>2015-08-07T08:42:38.000Z</time>
      </trkpt>
      <trkpt lat="45.42489" lon="5.67776">
        <ele>883</ele>
        <time>2015-08-07T08:42:39.000Z</time>
      </trkpt>
      <trkpt lat="45.42484" lon="5.67774">
        <ele>883</ele>
        <time>2015-08-07T08:42:40.000Z</time>
      </trkpt>
      <trkpt lat="45.42482" lon="5.6777">
        <ele>883</ele>
        <time>2015-08-07T08:42:41.000Z</time>
      </trkpt>
      <trkpt lat="45.42478" lon="5.67767">
        <ele>883</ele>
        <time>2015-08-07T08:42:42.000Z</time>
      </trkpt>
      <trkpt lat="45.42475" lon="5.67764">
        <ele>883</ele>
        <time>2015-08-07T08:42:43.000Z</time>
      </trkpt>
      <trkpt lat="45.42472" lon="5.67761">
        <ele>882</ele>
        <time>2015-08-07T08:42:44.000Z</time>
      </trkpt>
      <trkpt lat="45.42469" lon="5.67758">
        <ele>882</ele>
        <time>2015-08-07T08:42:45.000Z</time>
      </trkpt>
      <trkpt lat="45.42466" lon="5.67754">
        <ele>881</ele>
        <time>2015-08-07T08:42:46.000Z</time>
      </trkpt>
      <trkpt lat="45.42463" lon="5.67749">
        <ele>888</ele>
        <time>2015-08-07T08:42:47.000Z</time>
      </trkpt>
      <trkpt lat="45.4246" lon="5.67745">
        <ele>887</ele>
        <time>2015-08-07T08:42:48.000Z</time>
      </trkpt>
      <trkpt lat="45.42453" lon="5.67729">
        <ele>886</ele>
        <time>2015-08-07T08:42:49.000Z</time>
      </trkpt>
      <trkpt lat="45.42449" lon="5.67718">
        <ele>886</ele>
        <time>2015-08-07T08:42:50.000Z</time>
      </trkpt>
      <trkpt lat="45.42445" lon="5.67711">
        <ele>886</ele>
        <time>2015-08-07T08:42:51.000Z</time>
      </trkpt>
      <trkpt lat="45.42441" lon="5.67707">
        <ele>886</ele>
        <time>2015-08-07T08:42:52.000Z</time>
      </trkpt>
      <trkpt lat="45.42438" lon="5.67702">
        <ele>886</ele>
        <time>2015-08-07T08:42:53.000Z</time>
      </trkpt>
      <trkpt lat="45.42434" lon="5.67698">
        <ele>885</ele>
        <time>2015-08-07T08:42:54.000Z</time>
      </trkpt>
      <trkpt lat="45.42432" lon="5.67693">
        <ele>885</ele>
        <time>2015-08-07T08:42:55.000Z</time>
      </trkpt>
      <trkpt lat="45.42427" lon="5.6769">
        <ele>885</ele>
        <time>2015-08-07T08:42:56.000Z</time>
      </trkpt>
      <trkpt lat="45.42425" lon="5.67683">
        <ele>884</ele>
        <time>2015-08-07T08:42:57.000Z</time>
      </trkpt>
      <trkpt lat="45.42421" lon="5.67679">
        <ele>884</ele>
        <time>2015-08-07T08:42:58.000Z</time>
      </trkpt>
      <trkpt lat="45.42417" lon="5.67677">
        <ele>883</ele>
        <time>2015-08-07T08:42:59.000Z</time>
      </trkpt>
      <trkpt lat="45.42412" lon="5.67675">
        <ele>877</ele>
        <time>2015-08-07T08:43:00.000Z</time>
      </trkpt>
      <trkpt lat="45.42407" lon="5.67672">
        <ele>876</ele>
        <time>2015-08-07T08:43:01.000Z</time>
      </trkpt>
      <trkpt lat="45.42403" lon="5.67669">
        <ele>875</ele>
        <time>2015-08-07T08:43:02.000Z</time>
      </trkpt>
      <trkpt lat="45.42398" lon="5.67664">
        <ele>878</ele>
        <time>2015-08-07T08:43:03.000Z</time>
      </trkpt>
      <trkpt lat="45.42394" lon="5.67659">
        <ele>878</ele>
        <time>2015-08-07T08:43:04.000Z</time>
      </trkpt>
      <trkpt lat="45.42388" lon="5.67647">
        <ele>877</ele>
        <time>2015-08-07T08:43:05.000Z</time>
      </trkpt>
      <trkpt lat="45.42384" lon="5.67642">
        <ele>877</ele>
        <time>2015-08-07T08:43:06.000Z</time>
      </trkpt>
      <trkpt lat="45.4238" lon="5.67637">
        <ele>877</ele>
        <time>2015-08-07T08:43:07.000Z</time>
      </trkpt>
      <trkpt lat="45.42377" lon="5.67632">
        <ele>877</ele>
        <time>2015-08-07T08:43:08.000Z</time>
      </trkpt>
      <trkpt lat="45.42373" lon="5.67622">
        <ele>877</ele>
        <time>2015-08-07T08:43:09.000Z</time>
      </trkpt>
      <trkpt lat="45.4237" lon="5.67618">
        <ele>877</ele>
        <time>2015-08-07T08:43:10.000Z</time>
      </trkpt>
      <trkpt lat="45.42367" lon="5.67614">
        <ele>877</ele>
        <time>2015-08-07T08:43:11.000Z</time>
      </trkpt>
      <trkpt lat="45.42362" lon="5.67611">
        <ele>876</ele>
        <time>2015-08-07T08:43:12.000Z</time>
      </trkpt>
      <trkpt lat="45.42359" lon="5.67605">
        <ele>876</ele>
        <time>2015-08-07T08:43:13.000Z</time>
      </trkpt>
      <trkpt lat="45.42351" lon="5.676">
        <ele>876</ele>
        <time>2015-08-07T08:43:14.000Z</time>
      </trkpt>
      <trkpt lat="45.42344" lon="5.67595">
        <ele>876</ele>
        <time>2015-08-07T08:43:15.000Z</time>
      </trkpt>
      <trkpt lat="45.42339" lon="5.67588">
        <ele>875</ele>
        <time>2015-08-07T08:43:16.000Z</time>
      </trkpt>
      <trkpt lat="45.42335" lon="5.67585">
        <ele>875</ele>
        <time>2015-08-07T08:43:17.000Z</time>
      </trkpt>
      <trkpt lat="45.4233" lon="5.67582">
        <ele>873</ele>
        <time>2015-08-07T08:43:18.000Z</time>
      </trkpt>
      <trkpt lat="45.42327" lon="5.67575">
        <ele>872</ele>
        <time>2015-08-07T08:43:19.000Z</time>
      </trkpt>
      <trkpt lat="45.42325" lon="5.67572">
        <ele>871</ele>
        <time>2015-08-07T08:43:20.000Z</time>
      </trkpt>
      <trkpt lat="45.42323" lon="5.67569">
        <ele>870</ele>
        <time>2015-08-07T08:43:21.000Z</time>
      </trkpt>
      <trkpt lat="45.42319" lon="5.67566">
        <ele>869</ele>
        <time>2015-08-07T08:43:25.000Z</time>
      </trkpt>
      <trkpt lat="45.42319" lon="5.67564">
        <ele>869</ele>
        <time>2015-08-07T08:43:26.000Z</time>
      </trkpt>
      <trkpt lat="45.42318" lon="5.67558">
        <ele>868</ele>
        <time>2015-08-07T08:43:30.000Z</time>
      </trkpt>
      <trkpt lat="45.42318" lon="5.67556">
        <ele>868</ele>
        <time>2015-08-07T08:43:31.000Z</time>
      </trkpt>
      <trkpt lat="45.42316" lon="5.67551">
        <ele>868</ele>
        <time>2015-08-07T08:43:34.000Z</time>
      </trkpt>
      <trkpt lat="45.42315" lon="5.6755">
        <ele>868</ele>
        <time>2015-08-07T08:43:35.000Z</time>
      </trkpt>
      <trkpt lat="45.42311" lon="5.67549">
        <ele>867</ele>
        <time>2015-08-07T08:44:05.000Z</time>
      </trkpt>
      <trkpt lat="45.4231" lon="5.67549">
        <ele>867</ele>
        <time>2015-08-07T08:44:06.000Z</time>
      </trkpt>
      <trkpt lat="45.42307" lon="5.67546">
        <ele>867</ele>
        <time>2015-08-07T08:44:08.000Z</time>
      </trkpt>
      <trkpt lat="45.42306" lon="5.67545">
        <ele>866</ele>
        <time>2015-08-07T08:44:09.000Z</time>
      </trkpt>
      <trkpt lat="45.42304" lon="5.67543">
        <ele>866</ele>
        <time>2015-08-07T08:44:10.000Z</time>
      </trkpt>
      <trkpt lat="45.42302" lon="5.6754">
        <ele>866</ele>
        <time>2015-08-07T08:44:11.000Z</time>
      </trkpt>
      <trkpt lat="45.423" lon="5.67537">
        <ele>866</ele>
        <time>2015-08-07T08:44:12.000Z</time>
      </trkpt>
      <trkpt lat="45.42299" lon="5.67533">
        <ele>866</ele>
        <time>2015-08-07T08:44:13.000Z</time>
      </trkpt>
      <trkpt lat="45.42297" lon="5.6753">
        <ele>865</ele>
        <time>2015-08-07T08:44:14.000Z</time>
      </trkpt>
      <trkpt lat="45.42295" lon="5.67526">
        <ele>865</ele>
        <time>2015-08-07T08:44:15.000Z</time>
      </trkpt>
      <trkpt lat="45.42292" lon="5.67522">
        <ele>865</ele>
        <time>2015-08-07T08:44:16.000Z</time>
      </trkpt>
      <trkpt lat="45.4229" lon="5.67519">
        <ele>864</ele>
        <time>2015-08-07T08:44:17.000Z</time>
      </trkpt>
      <trkpt lat="45.42288" lon="5.67516">
        <ele>864</ele>
        <time>2015-08-07T08:44:18.000Z</time>
      </trkpt>
      <trkpt lat="45.42287" lon="5.67514">
        <ele>864</ele>
        <time>2015-08-07T08:44:19.000Z</time>
      </trkpt>
      <trkpt lat="45.42285" lon="5.67509">
        <ele>863</ele>
        <time>2015-08-07T08:44:21.000Z</time>
      </trkpt>
      <trkpt lat="45.42284" lon="5.67507">
        <ele>863</ele>
        <time>2015-08-07T08:44:22.000Z</time>
      </trkpt>
      <trkpt lat="45.42281" lon="5.67504">
        <ele>863</ele>
        <time>2015-08-07T08:44:24.000Z</time>
      </trkpt>
      <trkpt lat="45.4228" lon="5.67501">
        <ele>862</ele>
        <time>2015-08-07T08:44:25.000Z</time>
      </trkpt>
      <trkpt lat="45.42277" lon="5.67499">
        <ele>857</ele>
        <time>2015-08-07T08:44:26.000Z</time>
      </trkpt>
      <trkpt lat="45.42275" lon="5.67496">
        <ele>857</ele>
        <time>2015-08-07T08:44:27.000Z</time>
      </trkpt>
      <trkpt lat="45.42273" lon="5.67493">
        <ele>856</ele>
        <time>2015-08-07T08:44:28.000Z</time>
      </trkpt>
      <trkpt lat="45.42271" lon="5.67491">
        <ele>856</ele>
        <time>2015-08-07T08:44:29.000Z</time>
      </trkpt>
      <trkpt lat="45.42269" lon="5.67488">
        <ele>856</ele>
        <time>2015-08-07T08:44:30.000Z</time>
      </trkpt>
      <trkpt lat="45.42267" lon="5.67486">
        <ele>855</ele>
        <time>2015-08-07T08:44:31.000Z</time>
      </trkpt>
      <trkpt lat="45.42265" lon="5.67483">
        <ele>855</ele>
        <time>2015-08-07T08:44:32.000Z</time>
      </trkpt>
      <trkpt lat="45.42264" lon="5.67481">
        <ele>855</ele>
        <time>2015-08-07T08:44:33.000Z</time>
      </trkpt>
      <trkpt lat="45.42262" lon="5.67479">
        <ele>855</ele>
        <time>2015-08-07T08:44:34.000Z</time>
      </trkpt>
      <trkpt lat="45.4226" lon="5.67476">
        <ele>855</ele>
        <time>2015-08-07T08:44:35.000Z</time>
      </trkpt>
      <trkpt lat="45.42258" lon="5.67474">
        <ele>854</ele>
        <time>2015-08-07T08:44:36.000Z</time>
      </trkpt>
      <trkpt lat="45.42255" lon="5.67471">
        <ele>854</ele>
        <time>2015-08-07T08:44:37.000Z</time>
      </trkpt>
      <trkpt lat="45.42251" lon="5.67469">
        <ele>854</ele>
        <time>2015-08-07T08:44:38.000Z</time>
      </trkpt>
      <trkpt lat="45.42248" lon="5.67468">
        <ele>839</ele>
        <time>2015-08-07T08:44:39.000Z</time>
      </trkpt>
      <trkpt lat="45.42246" lon="5.67467">
        <ele>839</ele>
        <time>2015-08-07T08:44:40.000Z</time>
      </trkpt>
      <trkpt lat="45.42243" lon="5.67467">
        <ele>838</ele>
        <time>2015-08-07T08:44:41.000Z</time>
      </trkpt>
      <trkpt lat="45.4224" lon="5.67468">
        <ele>838</ele>
        <time>2015-08-07T08:44:43.000Z</time>
      </trkpt>
      <trkpt lat="45.42238" lon="5.67469">
        <ele>838</ele>
        <time>2015-08-07T08:44:44.000Z</time>
      </trkpt>
      <trkpt lat="45.42235" lon="5.6747">
        <ele>838</ele>
        <time>2015-08-07T08:44:45.000Z</time>
      </trkpt>
      <trkpt lat="45.42233" lon="5.67471">
        <ele>838</ele>
        <time>2015-08-07T08:44:46.000Z</time>
      </trkpt>
      <trkpt lat="45.4223" lon="5.67472">
        <ele>837</ele>
        <time>2015-08-07T08:44:47.000Z</time>
      </trkpt>
      <trkpt lat="45.42227" lon="5.67473">
        <ele>837</ele>
        <time>2015-08-07T08:44:48.000Z</time>
      </trkpt>
      <trkpt lat="45.42223" lon="5.67472">
        <ele>836</ele>
        <time>2015-08-07T08:44:50.000Z</time>
      </trkpt>
      <trkpt lat="45.42221" lon="5.6747">
        <ele>835</ele>
        <time>2015-08-07T08:44:51.000Z</time>
      </trkpt>
      <trkpt lat="45.42219" lon="5.67467">
        <ele>835</ele>
        <time>2015-08-07T08:44:52.000Z</time>
      </trkpt>
      <trkpt lat="45.42217" lon="5.67465">
        <ele>834</ele>
        <time>2015-08-07T08:44:53.001Z</time>
      </trkpt>
      <trkpt lat="45.42215" lon="5.67462">
        <ele>834</ele>
        <time>2015-08-07T08:44:54.000Z</time>
      </trkpt>
      <trkpt lat="45.42213" lon="5.67459">
        <ele>833</ele>
        <time>2015-08-07T08:44:54.999Z</time>
      </trkpt>
      <trkpt lat="45.42212" lon="5.67455">
        <ele>833</ele>
        <time>2015-08-07T08:44:56.000Z</time>
      </trkpt>
      <trkpt lat="45.42212" lon="5.67452">
        <ele>832</ele>
        <time>2015-08-07T08:44:57.000Z</time>
      </trkpt>
      <trkpt lat="45.42212" lon="5.67446">
        <ele>832</ele>
        <time>2015-08-07T08:44:58.998Z</time>
      </trkpt>
      <trkpt lat="45.42212" lon="5.67443">
        <ele>832</ele>
        <time>2015-08-07T08:45:00.000Z</time>
      </trkpt>
      <trkpt lat="45.42212" lon="5.67437">
        <ele>831</ele>
        <time>2015-08-07T08:45:04.000Z</time>
      </trkpt>
      <trkpt lat="45.42212" lon="5.67435">
        <ele>831</ele>
        <time>2015-08-07T08:45:05.000Z</time>
      </trkpt>
      <trkpt lat="45.42211" lon="5.6743">
        <ele>831</ele>
        <time>2015-08-07T08:45:07.000Z</time>
      </trkpt>
      <trkpt lat="45.42211" lon="5.67427">
        <ele>830</ele>
        <time>2015-08-07T08:45:08.000Z</time>
      </trkpt>
      <trkpt lat="45.42211" lon="5.67421">
        <ele>830</ele>
        <time>2015-08-07T08:45:10.000Z</time>
      </trkpt>
      <trkpt lat="45.42212" lon="5.67418">
        <ele>830</ele>
        <time>2015-08-07T08:45:11.000Z</time>
      </trkpt>
      <trkpt lat="45.42214" lon="5.67415">
        <ele>820</ele>
        <time>2015-08-07T08:45:12.000Z</time>
      </trkpt>
      <trkpt lat="45.42215" lon="5.67411">
        <ele>821</ele>
        <time>2015-08-07T08:45:13.000Z</time>
      </trkpt>
      <trkpt lat="45.42216" lon="5.67408">
        <ele>821</ele>
        <time>2015-08-07T08:45:14.000Z</time>
      </trkpt>
      <trkpt lat="45.42216" lon="5.67404">
        <ele>820</ele>
        <time>2015-08-07T08:45:15.000Z</time>
      </trkpt>
      <trkpt lat="45.42217" lon="5.67399">
        <ele>820</ele>
        <time>2015-08-07T08:45:16.000Z</time>
      </trkpt>
      <trkpt lat="45.42217" lon="5.67395">
        <ele>819</ele>
        <time>2015-08-07T08:45:17.000Z</time>
      </trkpt>
      <trkpt lat="45.42216" lon="5.67391">
        <ele>819</ele>
        <time>2015-08-07T08:45:18.000Z</time>
      </trkpt>
      <trkpt lat="45.42214" lon="5.67388">
        <ele>818</ele>
        <time>2015-08-07T08:45:19.000Z</time>
      </trkpt>
      <trkpt lat="45.42212" lon="5.67385">
        <ele>818</ele>
        <time>2015-08-07T08:45:20.000Z</time>
      </trkpt>
      <trkpt lat="45.4221" lon="5.67383">
        <ele>817</ele>
        <time>2015-08-07T08:45:21.000Z</time>
      </trkpt>
      <trkpt lat="45.42208" lon="5.6738">
        <ele>816</ele>
        <time>2015-08-07T08:45:22.000Z</time>
      </trkpt>
      <trkpt lat="45.42206" lon="5.67377">
        <ele>816</ele>
        <time>2015-08-07T08:45:23.000Z</time>
      </trkpt>
      <trkpt lat="45.42204" lon="5.67374">
        <ele>815</ele>
        <time>2015-08-07T08:45:24.000Z</time>
      </trkpt>
      <trkpt lat="45.42202" lon="5.67371">
        <ele>814</ele>
        <time>2015-08-07T08:45:25.000Z</time>
      </trkpt>
      <trkpt lat="45.42201" lon="5.67368">
        <ele>814</ele>
        <time>2015-08-07T08:45:26.000Z</time>
      </trkpt>
      <trkpt lat="45.422" lon="5.67365">
        <ele>813</ele>
        <time>2015-08-07T08:45:27.000Z</time>
      </trkpt>
      <trkpt lat="45.42199" lon="5.6736">
        <ele>812</ele>
        <time>2015-08-07T08:45:29.000Z</time>
      </trkpt>
      <trkpt lat="45.42199" lon="5.67357">
        <ele>812</ele>
        <time>2015-08-07T08:45:30.000Z</time>
      </trkpt>
      <trkpt lat="45.42197" lon="5.67352">
        <ele>811</ele>
        <time>2015-08-07T08:45:32.000Z</time>
      </trkpt>
      <trkpt lat="45.42195" lon="5.6735">
        <ele>810</ele>
        <time>2015-08-07T08:45:33.000Z</time>
      </trkpt>
      <trkpt lat="45.42193" lon="5.67348">
        <ele>809</ele>
        <time>2015-08-07T08:45:34.000Z</time>
      </trkpt>
      <trkpt lat="45.42191" lon="5.67346">
        <ele>809</ele>
        <time>2015-08-07T08:45:35.000Z</time>
      </trkpt>
      <trkpt lat="45.4219" lon="5.67341">
        <ele>808</ele>
        <time>2015-08-07T08:45:37.000Z</time>
      </trkpt>
      <trkpt lat="45.4219" lon="5.67339">
        <ele>808</ele>
        <time>2015-08-07T08:45:38.000Z</time>
      </trkpt>
      <trkpt lat="45.42189" lon="5.67334">
        <ele>807</ele>
        <time>2015-08-07T08:45:41.000Z</time>
      </trkpt>
      <trkpt lat="45.42189" lon="5.67332">
        <ele>798</ele>
        <time>2015-08-07T08:45:42.000Z</time>
      </trkpt>
      <trkpt lat="45.42189" lon="5.67327">
        <ele>798</ele>
        <time>2015-08-07T08:45:44.000Z</time>
      </trkpt>
      <trkpt lat="45.42188" lon="5.67325">
        <ele>798</ele>
        <time>2015-08-07T08:45:45.000Z</time>
      </trkpt>
      <trkpt lat="45.42185" lon="5.67321">
        <ele>798</ele>
        <time>2015-08-07T08:45:47.000Z</time>
      </trkpt>
      <trkpt lat="45.42183" lon="5.67321">
        <ele>798</ele>
        <time>2015-08-07T08:45:48.000Z</time>
      </trkpt>
      <trkpt lat="45.42179" lon="5.67319">
        <ele>797</ele>
        <time>2015-08-07T08:46:14.000Z</time>
      </trkpt>
      <trkpt lat="45.42179" lon="5.67319">
        <ele>797</ele>
        <time>2015-08-07T08:46:15.000Z</time>
      </trkpt>
      <trkpt lat="45.42177" lon="5.67323">
        <ele>797</ele>
        <time>2015-08-07T08:46:18.000Z</time>
      </trkpt>
      <trkpt lat="45.42177" lon="5.67325">
        <ele>797</ele>
        <time>2015-08-07T08:46:19.000Z</time>
      </trkpt>
      <trkpt lat="45.42178" lon="5.67329">
        <ele>797</ele>
        <time>2015-08-07T08:46:21.000Z</time>
      </trkpt>
      <trkpt lat="45.42178" lon="5.67331">
        <ele>797</ele>
        <time>2015-08-07T08:46:22.000Z</time>
      </trkpt>
      <trkpt lat="45.42178" lon="5.67337">
        <ele>802</ele>
        <time>2015-08-07T08:46:26.000Z</time>
      </trkpt>
      <trkpt lat="45.42177" lon="5.67338">
        <ele>802</ele>
        <time>2015-08-07T08:46:27.000Z</time>
      </trkpt>
      <trkpt lat="45.42174" lon="5.67342">
        <ele>802</ele>
        <time>2015-08-07T08:46:33.000Z</time>
      </trkpt>
      <trkpt lat="45.42174" lon="5.67343">
        <ele>802</ele>
        <time>2015-08-07T08:46:34.000Z</time>
      </trkpt>
      <trkpt lat="45.42171" lon="5.67347">
        <ele>803</ele>
        <time>2015-08-07T08:46:41.000Z</time>
      </trkpt>
      <trkpt lat="45.42171" lon="5.67348">
        <ele>804</ele>
        <time>2015-08-07T08:46:42.000Z</time>
      </trkpt>
      <trkpt lat="45.42169" lon="5.67353">
        <ele>805</ele>
        <time>2015-08-07T08:46:45.000Z</time>
      </trkpt>
      <trkpt lat="45.42169" lon="5.67355">
        <ele>806</ele>
        <time>2015-08-07T08:46:46.000Z</time>
      </trkpt>
      <trkpt lat="45.42169" lon="5.67359">
        <ele>808</ele>
        <time>2015-08-07T08:46:48.000Z</time>
      </trkpt>
      <trkpt lat="45.42169" lon="5.67361">
        <ele>808</ele>
        <time>2015-08-07T08:46:49.000Z</time>
      </trkpt>
      <trkpt lat="45.42166" lon="5.67367">
        <ele>795</ele>
        <time>2015-08-07T08:46:53.000Z</time>
      </trkpt>
      <trkpt lat="45.42165" lon="5.67367">
        <ele>795</ele>
        <time>2015-08-07T08:46:54.000Z</time>
      </trkpt>
      <trkpt lat="45.42164" lon="5.67371">
        <ele>795</ele>
        <time>2015-08-07T08:46:57.000Z</time>
      </trkpt>
      <trkpt lat="45.42165" lon="5.67374">
        <ele>796</ele>
        <time>2015-08-07T08:46:58.000Z</time>
      </trkpt>
      <trkpt lat="45.42166" lon="5.67379">
        <ele>797</ele>
        <time>2015-08-07T08:47:00.000Z</time>
      </trkpt>
      <trkpt lat="45.42165" lon="5.67381">
        <ele>797</ele>
        <time>2015-08-07T08:47:01.000Z</time>
      </trkpt>
      <trkpt lat="45.42162" lon="5.67384">
        <ele>797</ele>
        <time>2015-08-07T08:47:05.000Z</time>
      </trkpt>
      <trkpt lat="45.42162" lon="5.67386">
        <ele>798</ele>
        <time>2015-08-07T08:47:06.000Z</time>
      </trkpt>
      <trkpt lat="45.4216" lon="5.67389">
        <ele>798</ele>
        <time>2015-08-07T08:47:08.000Z</time>
      </trkpt>
      <trkpt lat="45.42159" lon="5.67391">
        <ele>799</ele>
        <time>2015-08-07T08:47:09.000Z</time>
      </trkpt>
      <trkpt lat="45.42157" lon="5.67395">
        <ele>799</ele>
        <time>2015-08-07T08:47:11.000Z</time>
      </trkpt>
      <trkpt lat="45.42156" lon="5.67397">
        <ele>800</ele>
        <time>2015-08-07T08:47:12.000Z</time>
      </trkpt>
      <trkpt lat="45.42153" lon="5.67401">
        <ele>800</ele>
        <time>2015-08-07T08:47:15.000Z</time>
      </trkpt>
      <trkpt lat="45.42152" lon="5.67403">
        <ele>801</ele>
        <time>2015-08-07T08:47:16.000Z</time>
      </trkpt>
      <trkpt lat="45.4215" lon="5.67406">
        <ele>801</ele>
        <time>2015-08-07T08:47:18.000Z</time>
      </trkpt>
      <trkpt lat="45.42149" lon="5.67408">
        <ele>801</ele>
        <time>2015-08-07T08:47:19.000Z</time>
      </trkpt>
      <trkpt lat="45.42145" lon="5.6741">
        <ele>800</ele>
        <time>2015-08-07T08:47:23.000Z</time>
      </trkpt>
      <trkpt lat="45.42144" lon="5.6741">
        <ele>799</ele>
        <time>2015-08-07T08:47:24.000Z</time>
      </trkpt>
      <trkpt lat="45.4214" lon="5.67412">
        <ele>798</ele>
        <time>2015-08-07T08:47:27.000Z</time>
      </trkpt>
      <trkpt lat="45.42139" lon="5.67413">
        <ele>798</ele>
        <time>2015-08-07T08:47:28.000Z</time>
      </trkpt>
      <trkpt lat="45.42137" lon="5.67415">
        <ele>798</ele>
        <time>2015-08-07T08:47:30.000Z</time>
      </trkpt>
      <trkpt lat="45.42136" lon="5.67417">
        <ele>806</ele>
        <time>2015-08-07T08:47:31.000Z</time>
      </trkpt>
      <trkpt lat="45.42134" lon="5.67421">
        <ele>806</ele>
        <time>2015-08-07T08:47:33.000Z</time>
      </trkpt>
      <trkpt lat="45.42133" lon="5.67423">
        <ele>806</ele>
        <time>2015-08-07T08:47:34.000Z</time>
      </trkpt>
      <trkpt lat="45.42132" lon="5.67428">
        <ele>806</ele>
        <time>2015-08-07T08:47:36.000Z</time>
      </trkpt>
      <trkpt lat="45.42132" lon="5.6743">
        <ele>806</ele>
        <time>2015-08-07T08:47:37.000Z</time>
      </trkpt>
      <trkpt lat="45.42131" lon="5.67434">
        <ele>806</ele>
        <time>2015-08-07T08:47:39.000Z</time>
      </trkpt>
      <trkpt lat="45.4213" lon="5.67437">
        <ele>806</ele>
        <time>2015-08-07T08:47:40.000Z</time>
      </trkpt>
      <trkpt lat="45.42129" lon="5.6744">
        <ele>806</ele>
        <time>2015-08-07T08:47:41.000Z</time>
      </trkpt>
      <trkpt lat="45.42129" lon="5.67444">
        <ele>806</ele>
        <time>2015-08-07T08:47:42.000Z</time>
      </trkpt>
      <trkpt lat="45.42129" lon="5.67448">
        <ele>806</ele>
        <time>2015-08-07T08:47:43.000Z</time>
      </trkpt>
      <trkpt lat="45.42129" lon="5.67452">
        <ele>806</ele>
        <time>2015-08-07T08:47:44.000Z</time>
      </trkpt>
      <trkpt lat="45.42129" lon="5.67458">
        <ele>807</ele>
        <time>2015-08-07T08:47:46.000Z</time>
      </trkpt>
      <trkpt lat="45.42129" lon="5.6746">
        <ele>807</ele>
        <time>2015-08-07T08:47:47.000Z</time>
      </trkpt>
      <trkpt lat="45.4213" lon="5.67466">
        <ele>808</ele>
        <time>2015-08-07T08:47:49.000Z</time>
      </trkpt>
      <trkpt lat="45.42131" lon="5.67469">
        <ele>808</ele>
        <time>2015-08-07T08:47:50.000Z</time>
      </trkpt>
      <trkpt lat="45.4213" lon="5.67475">
        <ele>808</ele>
        <time>2015-08-07T08:47:53.000Z</time>
      </trkpt>
      <trkpt lat="45.4213" lon="5.67476">
        <ele>808</ele>
        <time>2015-08-07T08:47:54.000Z</time>
      </trkpt>
      <trkpt lat="45.42128" lon="5.67481">
        <ele>808</ele>
        <time>2015-08-07T08:47:57.000Z</time>
      </trkpt>
      <trkpt lat="45.42127" lon="5.67483">
        <ele>808</ele>
        <time>2015-08-07T08:47:58.000Z</time>
      </trkpt>
      <trkpt lat="45.42125" lon="5.67489">
        <ele>808</ele>
        <time>2015-08-07T08:48:01.000Z</time>
      </trkpt>
      <trkpt lat="45.42125" lon="5.6749">
        <ele>808</ele>
        <time>2015-08-07T08:48:02.000Z</time>
      </trkpt>
      <trkpt lat="45.42123" lon="5.67496">
        <ele>808</ele>
        <time>2015-08-07T08:48:07.000Z</time>
      </trkpt>
      <trkpt lat="45.42123" lon="5.67497">
        <ele>808</ele>
        <time>2015-08-07T08:48:08.000Z</time>
      </trkpt>
      <trkpt lat="45.42122" lon="5.67501">
        <ele>813</ele>
        <time>2015-08-07T08:48:10.000Z</time>
      </trkpt>
      <trkpt lat="45.42121" lon="5.67503">
        <ele>813</ele>
        <time>2015-08-07T08:48:11.000Z</time>
      </trkpt>
      <trkpt lat="45.4212" lon="5.67508">
        <ele>813</ele>
        <time>2015-08-07T08:48:13.000Z</time>
      </trkpt>
      <trkpt lat="45.4212" lon="5.67509">
        <ele>813</ele>
        <time>2015-08-07T08:48:14.000Z</time>
      </trkpt>
      <trkpt lat="45.42119" lon="5.67516">
        <ele>813</ele>
        <time>2015-08-07T08:48:17.000Z</time>
      </trkpt>
      <trkpt lat="45.4212" lon="5.67518">
        <ele>813</ele>
        <time>2015-08-07T08:48:18.000Z</time>
      </trkpt>
      <trkpt lat="45.4212" lon="5.67523">
        <ele>814</ele>
        <time>2015-08-07T08:48:20.000Z</time>
      </trkpt>
      <trkpt lat="45.4212" lon="5.67526">
        <ele>814</ele>
        <time>2015-08-07T08:48:21.000Z</time>
      </trkpt>
      <trkpt lat="45.4212" lon="5.67531">
        <ele>814</ele>
        <time>2015-08-07T08:48:23.000Z</time>
      </trkpt>
      <trkpt lat="45.42121" lon="5.67534">
        <ele>814</ele>
        <time>2015-08-07T08:48:24.000Z</time>
      </trkpt>
      <trkpt lat="45.42122" lon="5.6754">
        <ele>815</ele>
        <time>2015-08-07T08:48:26.000Z</time>
      </trkpt>
      <trkpt lat="45.42123" lon="5.67543">
        <ele>815</ele>
        <time>2015-08-07T08:48:27.000Z</time>
      </trkpt>
      <trkpt lat="45.42124" lon="5.67548">
        <ele>815</ele>
        <time>2015-08-07T08:48:29.000Z</time>
      </trkpt>
      <trkpt lat="45.42124" lon="5.67551">
        <ele>815</ele>
        <time>2015-08-07T08:48:30.000Z</time>
      </trkpt>
      <trkpt lat="45.42125" lon="5.67556">
        <ele>816</ele>
        <time>2015-08-07T08:48:32.000Z</time>
      </trkpt>
      <trkpt lat="45.42125" lon="5.67558">
        <ele>816</ele>
        <time>2015-08-07T08:48:33.000Z</time>
      </trkpt>
      <trkpt lat="45.42124" lon="5.67563">
        <ele>816</ele>
        <time>2015-08-07T08:48:36.000Z</time>
      </trkpt>
      <trkpt lat="45.42124" lon="5.67565">
        <ele>816</ele>
        <time>2015-08-07T08:48:37.000Z</time>
      </trkpt>
      <trkpt lat="45.42125" lon="5.67568">
        <ele>816</ele>
        <time>2015-08-07T08:48:39.000Z</time>
      </trkpt>
      <trkpt lat="45.42125" lon="5.67571">
        <ele>816</ele>
        <time>2015-08-07T08:48:40.000Z</time>
      </trkpt>
      <trkpt lat="45.42127" lon="5.67574">
        <ele>817</ele>
        <time>2015-08-07T08:48:42.000Z</time>
      </trkpt>
      <trkpt lat="45.42129" lon="5.67576">
        <ele>817</ele>
        <time>2015-08-07T08:48:43.000Z</time>
      </trkpt>
      <trkpt lat="45.42131" lon="5.67578">
        <ele>818</ele>
        <time>2015-08-07T08:48:45.000Z</time>
      </trkpt>
      <trkpt lat="45.42133" lon="5.6758">
        <ele>818</ele>
        <time>2015-08-07T08:48:46.000Z</time>
      </trkpt>
      <trkpt lat="45.42135" lon="5.67584">
        <ele>819</ele>
        <time>2015-08-07T08:48:48.000Z</time>
      </trkpt>
      <trkpt lat="45.42137" lon="5.67587">
        <ele>820</ele>
        <time>2015-08-07T08:48:49.000Z</time>
      </trkpt>
      <trkpt lat="45.42138" lon="5.6759">
        <ele>820</ele>
        <time>2015-08-07T08:48:50.000Z</time>
      </trkpt>
      <trkpt lat="45.4214" lon="5.67593">
        <ele>820</ele>
        <time>2015-08-07T08:48:51.000Z</time>
      </trkpt>
      <trkpt lat="45.42142" lon="5.67596">
        <ele>820</ele>
        <time>2015-08-07T08:48:52.000Z</time>
      </trkpt>
      <trkpt lat="45.42143" lon="5.67599">
        <ele>820</ele>
        <time>2015-08-07T08:48:53.000Z</time>
      </trkpt>
      <trkpt lat="45.42145" lon="5.67604">
        <ele>820</ele>
        <time>2015-08-07T08:48:55.000Z</time>
      </trkpt>
      <trkpt lat="45.42146" lon="5.67607">
        <ele>820</ele>
        <time>2015-08-07T08:48:56.000Z</time>
      </trkpt>
      <trkpt lat="45.42147" lon="5.67612">
        <ele>820</ele>
        <time>2015-08-07T08:48:58.000Z</time>
      </trkpt>
      <trkpt lat="45.42147" lon="5.67614">
        <ele>820</ele>
        <time>2015-08-07T08:48:59.000Z</time>
      </trkpt>
      <trkpt lat="45.42149" lon="5.6762">
        <ele>820</ele>
        <time>2015-08-07T08:49:01.000Z</time>
      </trkpt>
      <trkpt lat="45.4215" lon="5.67623">
        <ele>820</ele>
        <time>2015-08-07T08:49:02.000Z</time>
      </trkpt>
      <trkpt lat="45.4215" lon="5.67627">
        <ele>820</ele>
        <time>2015-08-07T08:49:03.000Z</time>
      </trkpt>
      <trkpt lat="45.42151" lon="5.6763">
        <ele>820</ele>
        <time>2015-08-07T08:49:04.000Z</time>
      </trkpt>
      <trkpt lat="45.42151" lon="5.67634">
        <ele>820</ele>
        <time>2015-08-07T08:49:05.000Z</time>
      </trkpt>
      <trkpt lat="45.42152" lon="5.67638">
        <ele>820</ele>
        <time>2015-08-07T08:49:06.000Z</time>
      </trkpt>
      <trkpt lat="45.42153" lon="5.67642">
        <ele>820</ele>
        <time>2015-08-07T08:49:07.000Z</time>
      </trkpt>
      <trkpt lat="45.42155" lon="5.67646">
        <ele>820</ele>
        <time>2015-08-07T08:49:08.000Z</time>
      </trkpt>
      <trkpt lat="45.42156" lon="5.67651">
        <ele>821</ele>
        <time>2015-08-07T08:49:09.000Z</time>
      </trkpt>
      <trkpt lat="45.42158" lon="5.67655">
        <ele>822</ele>
        <time>2015-08-07T08:49:10.000Z</time>
      </trkpt>
      <trkpt lat="45.42161" lon="5.67659">
        <ele>822</ele>
        <time>2015-08-07T08:49:11.000Z</time>
      </trkpt>
      <trkpt lat="45.42162" lon="5.67662">
        <ele>823</ele>
        <time>2015-08-07T08:49:12.000Z</time>
      </trkpt>
      <trkpt lat="45.42164" lon="5.67664">
        <ele>824</ele>
        <time>2015-08-07T08:49:13.000Z</time>
      </trkpt>
      <trkpt lat="45.42165" lon="5.67667">
        <ele>824</ele>
        <time>2015-08-07T08:49:14.000Z</time>
      </trkpt>
      <trkpt lat="45.42168" lon="5.67672">
        <ele>826</ele>
        <time>2015-08-07T08:49:16.000Z</time>
      </trkpt>
      <trkpt lat="45.42169" lon="5.67674">
        <ele>826</ele>
        <time>2015-08-07T08:49:17.000Z</time>
      </trkpt>
      <trkpt lat="45.42172" lon="5.67679">
        <ele>827</ele>
        <time>2015-08-07T08:49:19.000Z</time>
      </trkpt>
      <trkpt lat="45.42173" lon="5.67681">
        <ele>827</ele>
        <time>2015-08-07T08:49:20.000Z</time>
      </trkpt>
      <trkpt lat="45.42175" lon="5.67683">
        <ele>827</ele>
        <time>2015-08-07T08:49:21.000Z</time>
      </trkpt>
      <trkpt lat="45.42177" lon="5.67684">
        <ele>827</ele>
        <time>2015-08-07T08:49:22.000Z</time>
      </trkpt>
      <trkpt lat="45.42181" lon="5.67686">
        <ele>828</ele>
        <time>2015-08-07T08:49:24.000Z</time>
      </trkpt>
      <trkpt lat="45.42183" lon="5.67687">
        <ele>828</ele>
        <time>2015-08-07T08:49:25.000Z</time>
      </trkpt>
      <trkpt lat="45.42185" lon="5.67689">
        <ele>828</ele>
        <time>2015-08-07T08:49:28.000Z</time>
      </trkpt>
      <trkpt lat="45.42186" lon="5.67691">
        <ele>828</ele>
        <time>2015-08-07T08:49:29.000Z</time>
      </trkpt>
      <trkpt lat="45.42187" lon="5.67694">
        <ele>828</ele>
        <time>2015-08-07T08:49:30.000Z</time>
      </trkpt>
      <trkpt lat="45.42188" lon="5.67698">
        <ele>828</ele>
        <time>2015-08-07T08:49:31.000Z</time>
      </trkpt>
      <trkpt lat="45.42189" lon="5.67703">
        <ele>828</ele>
        <time>2015-08-07T08:49:33.000Z</time>
      </trkpt>
      <trkpt lat="45.42189" lon="5.67706">
        <ele>828</ele>
        <time>2015-08-07T08:49:34.000Z</time>
      </trkpt>
      <trkpt lat="45.42191" lon="5.6771">
        <ele>828</ele>
        <time>2015-08-07T08:49:35.000Z</time>
      </trkpt>
      <trkpt lat="45.42192" lon="5.67713">
        <ele>828</ele>
        <time>2015-08-07T08:49:36.000Z</time>
      </trkpt>
      <trkpt lat="45.42194" lon="5.67717">
        <ele>828</ele>
        <time>2015-08-07T08:49:37.000Z</time>
      </trkpt>
      <trkpt lat="45.42196" lon="5.67721">
        <ele>828</ele>
        <time>2015-08-07T08:49:38.000Z</time>
      </trkpt>
      <trkpt lat="45.42198" lon="5.67726">
        <ele>827</ele>
        <time>2015-08-07T08:49:39.000Z</time>
      </trkpt>
      <trkpt lat="45.422" lon="5.67731">
        <ele>827</ele>
        <time>2015-08-07T08:49:40.000Z</time>
      </trkpt>
      <trkpt lat="45.42202" lon="5.67736">
        <ele>827</ele>
        <time>2015-08-07T08:49:41.000Z</time>
      </trkpt>
      <trkpt lat="45.42203" lon="5.67741">
        <ele>827</ele>
        <time>2015-08-07T08:49:42.000Z</time>
      </trkpt>
      <trkpt lat="45.42205" lon="5.67746">
        <ele>827</ele>
        <time>2015-08-07T08:49:43.000Z</time>
      </trkpt>
      <trkpt lat="45.42207" lon="5.6775">
        <ele>821</ele>
        <time>2015-08-07T08:49:44.000Z</time>
      </trkpt>
      <trkpt lat="45.42208" lon="5.67755">
        <ele>821</ele>
        <time>2015-08-07T08:49:45.000Z</time>
      </trkpt>
      <trkpt lat="45.4221" lon="5.6776">
        <ele>821</ele>
        <time>2015-08-07T08:49:46.000Z</time>
      </trkpt>
      <trkpt lat="45.42211" lon="5.67766">
        <ele>821</ele>
        <time>2015-08-07T08:49:47.000Z</time>
      </trkpt>
      <trkpt lat="45.42213" lon="5.67773">
        <ele>821</ele>
        <time>2015-08-07T08:49:48.000Z</time>
      </trkpt>
      <trkpt lat="45.42216" lon="5.67779">
        <ele>821</ele>
        <time>2015-08-07T08:49:49.000Z</time>
      </trkpt>
      <trkpt lat="45.42219" lon="5.67785">
        <ele>820</ele>
        <time>2015-08-07T08:49:50.000Z</time>
      </trkpt>
      <trkpt lat="45.42222" lon="5.6779">
        <ele>820</ele>
        <time>2015-08-07T08:49:51.000Z</time>
      </trkpt>
      <trkpt lat="45.42225" lon="5.67794">
        <ele>820</ele>
        <time>2015-08-07T08:49:52.000Z</time>
      </trkpt>
      <trkpt lat="45.42227" lon="5.67796">
        <ele>820</ele>
        <time>2015-08-07T08:49:53.000Z</time>
      </trkpt>
      <trkpt lat="45.42224" lon="5.67792">
        <ele>820</ele>
        <time>2015-08-07T08:50:07.000Z</time>
      </trkpt>
      <trkpt lat="45.42224" lon="5.6779">
        <ele>820</ele>
        <time>2015-08-07T08:50:08.000Z</time>
      </trkpt>
      <trkpt lat="45.42222" lon="5.67785">
        <ele>821</ele>
        <time>2015-08-07T08:50:10.000Z</time>
      </trkpt>
      <trkpt lat="45.42222" lon="5.67782">
        <ele>821</ele>
        <time>2015-08-07T08:50:11.000Z</time>
      </trkpt>
      <trkpt lat="45.42219" lon="5.6778">
        <ele>821</ele>
        <time>2015-08-07T08:50:44.000Z</time>
      </trkpt>
      <trkpt lat="45.42218" lon="5.6778">
        <ele>821</ele>
        <time>2015-08-07T08:50:45.000Z</time>
      </trkpt>
      <trkpt lat="45.42215" lon="5.67781">
        <ele>820</ele>
        <time>2015-08-07T08:50:46.000Z</time>
      </trkpt>
      <trkpt lat="45.42212" lon="5.67782">
        <ele>820</ele>
        <time>2015-08-07T08:50:47.000Z</time>
      </trkpt>
      <trkpt lat="45.42209" lon="5.67782">
        <ele>820</ele>
        <time>2015-08-07T08:50:48.000Z</time>
      </trkpt>
      <trkpt lat="45.42207" lon="5.67783">
        <ele>819</ele>
        <time>2015-08-07T08:50:49.000Z</time>
      </trkpt>
      <trkpt lat="45.42202" lon="5.67783">
        <ele>819</ele>
        <time>2015-08-07T08:50:51.000Z</time>
      </trkpt>
      <trkpt lat="45.42201" lon="5.67781">
        <ele>819</ele>
        <time>2015-08-07T08:50:52.000Z</time>
      </trkpt>
      <trkpt lat="45.42199" lon="5.67779">
        <ele>819</ele>
        <time>2015-08-07T08:50:53.000Z</time>
      </trkpt>
      <trkpt lat="45.42198" lon="5.67776">
        <ele>819</ele>
        <time>2015-08-07T08:50:54.000Z</time>
      </trkpt>
      <trkpt lat="45.42196" lon="5.67773">
        <ele>819</ele>
        <time>2015-08-07T08:50:55.000Z</time>
      </trkpt>
      <trkpt lat="45.42194" lon="5.6777">
        <ele>819</ele>
        <time>2015-08-07T08:50:56.000Z</time>
      </trkpt>
      <trkpt lat="45.42192" lon="5.67768">
        <ele>819</ele>
        <time>2015-08-07T08:50:57.000Z</time>
      </trkpt>
      <trkpt lat="45.4219" lon="5.67765">
        <ele>819</ele>
        <time>2015-08-07T08:50:58.000Z</time>
      </trkpt>
      <trkpt lat="45.42188" lon="5.67763">
        <ele>819</ele>
        <time>2015-08-07T08:50:59.000Z</time>
      </trkpt>
      <trkpt lat="45.42185" lon="5.6776">
        <ele>818</ele>
        <time>2015-08-07T08:51:00.000Z</time>
      </trkpt>
      <trkpt lat="45.42182" lon="5.67758">
        <ele>818</ele>
        <time>2015-08-07T08:51:01.000Z</time>
      </trkpt>
      <trkpt lat="45.42178" lon="5.67756">
        <ele>818</ele>
        <time>2015-08-07T08:51:02.000Z</time>
      </trkpt>
      <trkpt lat="45.42174" lon="5.67753">
        <ele>818</ele>
        <time>2015-08-07T08:51:03.000Z</time>
      </trkpt>
      <trkpt lat="45.4217" lon="5.6775">
        <ele>817</ele>
        <time>2015-08-07T08:51:04.000Z</time>
      </trkpt>
      <trkpt lat="45.42165" lon="5.67747">
        <ele>816</ele>
        <time>2015-08-07T08:51:05.000Z</time>
      </trkpt>
      <trkpt lat="45.42161" lon="5.67744">
        <ele>815</ele>
        <time>2015-08-07T08:51:06.000Z</time>
      </trkpt>
      <trkpt lat="45.42156" lon="5.6774">
        <ele>815</ele>
        <time>2015-08-07T08:51:07.000Z</time>
      </trkpt>
      <trkpt lat="45.42152" lon="5.67736">
        <ele>814</ele>
        <time>2015-08-07T08:51:08.000Z</time>
      </trkpt>
      <trkpt lat="45.42148" lon="5.67733">
        <ele>814</ele>
        <time>2015-08-07T08:51:09.000Z</time>
      </trkpt>
      <trkpt lat="45.42145" lon="5.6773">
        <ele>813</ele>
        <time>2015-08-07T08:51:10.000Z</time>
      </trkpt>
      <trkpt lat="45.42141" lon="5.67728">
        <ele>813</ele>
        <time>2015-08-07T08:51:11.000Z</time>
      </trkpt>
      <trkpt lat="45.42138" lon="5.67729">
        <ele>812</ele>
        <time>2015-08-07T08:51:12.000Z</time>
      </trkpt>
      <trkpt lat="45.42135" lon="5.6773">
        <ele>812</ele>
        <time>2015-08-07T08:51:13.000Z</time>
      </trkpt>
      <trkpt lat="45.42132" lon="5.6773">
        <ele>812</ele>
        <time>2015-08-07T08:51:14.000Z</time>
      </trkpt>
      <trkpt lat="45.42129" lon="5.67731">
        <ele>811</ele>
        <time>2015-08-07T08:51:15.000Z</time>
      </trkpt>
      <trkpt lat="45.42126" lon="5.67729">
        <ele>811</ele>
        <time>2015-08-07T08:51:16.000Z</time>
      </trkpt>
      <trkpt lat="45.42124" lon="5.67728">
        <ele>811</ele>
        <time>2015-08-07T08:51:17.000Z</time>
      </trkpt>
      <trkpt lat="45.4212" lon="5.67725">
        <ele>810</ele>
        <time>2015-08-07T08:51:19.000Z</time>
      </trkpt>
      <trkpt lat="45.42119" lon="5.67723">
        <ele>810</ele>
        <time>2015-08-07T08:51:20.000Z</time>
      </trkpt>
      <trkpt lat="45.42114" lon="5.67721">
        <ele>810</ele>
        <time>2015-08-07T08:51:24.000Z</time>
      </trkpt>
      <trkpt lat="45.42113" lon="5.67722">
        <ele>810</ele>
        <time>2015-08-07T08:51:25.000Z</time>
      </trkpt>
      <trkpt lat="45.42109" lon="5.67723">
        <ele>809</ele>
        <time>2015-08-07T08:51:27.000Z</time>
      </trkpt>
      <trkpt lat="45.42107" lon="5.67724">
        <ele>809</ele>
        <time>2015-08-07T08:51:28.000Z</time>
      </trkpt>
      <trkpt lat="45.42105" lon="5.67725">
        <ele>808</ele>
        <time>2015-08-07T08:51:29.000Z</time>
      </trkpt>
      <trkpt lat="45.42102" lon="5.67726">
        <ele>808</ele>
        <time>2015-08-07T08:51:30.000Z</time>
      </trkpt>
      <trkpt lat="45.42098" lon="5.67726">
        <ele>807</ele>
        <time>2015-08-07T08:51:32.000Z</time>
      </trkpt>
      <trkpt lat="45.42096" lon="5.67725">
        <ele>807</ele>
        <time>2015-08-07T08:51:33.000Z</time>
      </trkpt>
      <trkpt lat="45.42093" lon="5.67722">
        <ele>807</ele>
        <time>2015-08-07T08:51:35.000Z</time>
      </trkpt>
      <trkpt lat="45.4209" lon="5.67724">
        <ele>807</ele>
        <time>2015-08-07T08:51:36.000Z</time>
      </trkpt>
      <trkpt lat="45.42088" lon="5.67726">
        <ele>806</ele>
        <time>2015-08-07T08:51:37.000Z</time>
      </trkpt>
      <trkpt lat="45.42085" lon="5.67728">
        <ele>806</ele>
        <time>2015-08-07T08:51:38.000Z</time>
      </trkpt>
      <trkpt lat="45.42082" lon="5.6773">
        <ele>795</ele>
        <time>2015-08-07T08:51:39.000Z</time>
      </trkpt>
      <trkpt lat="45.42079" lon="5.67732">
        <ele>795</ele>
        <time>2015-08-07T08:51:40.000Z</time>
      </trkpt>
      <trkpt lat="45.42077" lon="5.67734">
        <ele>795</ele>
        <time>2015-08-07T08:51:41.000Z</time>
      </trkpt>
      <trkpt lat="45.42075" lon="5.67736">
        <ele>795</ele>
        <time>2015-08-07T08:51:42.000Z</time>
      </trkpt>
      <trkpt lat="45.42073" lon="5.67738">
        <ele>795</ele>
        <time>2015-08-07T08:51:43.000Z</time>
      </trkpt>
      <trkpt lat="45.42071" lon="5.67739">
        <ele>795</ele>
        <time>2015-08-07T08:51:44.000Z</time>
      </trkpt>
      <trkpt lat="45.42069" lon="5.67741">
        <ele>795</ele>
        <time>2015-08-07T08:51:45.000Z</time>
      </trkpt>
      <trkpt lat="45.42066" lon="5.67742">
        <ele>794</ele>
        <time>2015-08-07T08:51:46.000Z</time>
      </trkpt>
      <trkpt lat="45.42064" lon="5.67744">
        <ele>794</ele>
        <time>2015-08-07T08:51:47.000Z</time>
      </trkpt>
      <trkpt lat="45.42061" lon="5.67745">
        <ele>794</ele>
        <time>2015-08-07T08:51:48.000Z</time>
      </trkpt>
      <trkpt lat="45.42058" lon="5.67747">
        <ele>793</ele>
        <time>2015-08-07T08:51:49.000Z</time>
      </trkpt>
      <trkpt lat="45.42055" lon="5.67749">
        <ele>793</ele>
        <time>2015-08-07T08:51:50.000Z</time>
      </trkpt>
      <trkpt lat="45.42052" lon="5.67751">
        <ele>786</ele>
        <time>2015-08-07T08:51:51.000Z</time>
      </trkpt>
      <trkpt lat="45.4205" lon="5.67753">
        <ele>785</ele>
        <time>2015-08-07T08:51:52.000Z</time>
      </trkpt>
      <trkpt lat="45.42047" lon="5.67754">
        <ele>785</ele>
        <time>2015-08-07T08:51:53.000Z</time>
      </trkpt>
      <trkpt lat="45.42045" lon="5.67754">
        <ele>784</ele>
        <time>2015-08-07T08:51:54.000Z</time>
      </trkpt>
      <trkpt lat="45.42041" lon="5.67754">
        <ele>784</ele>
        <time>2015-08-07T08:51:56.000Z</time>
      </trkpt>
      <trkpt lat="45.4204" lon="5.67754">
        <ele>783</ele>
        <time>2015-08-07T08:51:57.000Z</time>
      </trkpt>
      <trkpt lat="45.42036" lon="5.67757">
        <ele>783</ele>
        <time>2015-08-07T08:52:00.000Z</time>
      </trkpt>
      <trkpt lat="45.42035" lon="5.67759">
        <ele>782</ele>
        <time>2015-08-07T08:52:01.000Z</time>
      </trkpt>
      <trkpt lat="45.42033" lon="5.67761">
        <ele>782</ele>
        <time>2015-08-07T08:52:02.000Z</time>
      </trkpt>
      <trkpt lat="45.42031" lon="5.67763">
        <ele>782</ele>
        <time>2015-08-07T08:52:03.000Z</time>
      </trkpt>
      <trkpt lat="45.42029" lon="5.67766">
        <ele>781</ele>
        <time>2015-08-07T08:52:04.000Z</time>
      </trkpt>
      <trkpt lat="45.42027" lon="5.67768">
        <ele>781</ele>
        <time>2015-08-07T08:52:05.000Z</time>
      </trkpt>
      <trkpt lat="45.42025" lon="5.67772">
        <ele>781</ele>
        <time>2015-08-07T08:52:07.000Z</time>
      </trkpt>
      <trkpt lat="45.42024" lon="5.67774">
        <ele>781</ele>
        <time>2015-08-07T08:52:08.000Z</time>
      </trkpt>
      <trkpt lat="45.42023" lon="5.67779">
        <ele>780</ele>
        <time>2015-08-07T08:52:10.000Z</time>
      </trkpt>
      <trkpt lat="45.42023" lon="5.67782">
        <ele>780</ele>
        <time>2015-08-07T08:52:11.000Z</time>
      </trkpt>
      <trkpt lat="45.42022" lon="5.67786">
        <ele>780</ele>
        <time>2015-08-07T08:52:12.000Z</time>
      </trkpt>
      <trkpt lat="45.42022" lon="5.67791">
        <ele>779</ele>
        <time>2015-08-07T08:52:13.000Z</time>
      </trkpt>
      <trkpt lat="45.42021" lon="5.67796">
        <ele>779</ele>
        <time>2015-08-07T08:52:14.000Z</time>
      </trkpt>
      <trkpt lat="45.4202" lon="5.67801">
        <ele>778</ele>
        <time>2015-08-07T08:52:15.000Z</time>
      </trkpt>
      <trkpt lat="45.42019" lon="5.67806">
        <ele>778</ele>
        <time>2015-08-07T08:52:16.000Z</time>
      </trkpt>
      <trkpt lat="45.42018" lon="5.67811">
        <ele>777</ele>
        <time>2015-08-07T08:52:17.000Z</time>
      </trkpt>
      <trkpt lat="45.42017" lon="5.67814">
        <ele>776</ele>
        <time>2015-08-07T08:52:18.000Z</time>
      </trkpt>
      <trkpt lat="45.42016" lon="5.67817">
        <ele>775</ele>
        <time>2015-08-07T08:52:19.000Z</time>
      </trkpt>
      <trkpt lat="45.42013" lon="5.67821">
        <ele>774</ele>
        <time>2015-08-07T08:52:21.000Z</time>
      </trkpt>
      <trkpt lat="45.42011" lon="5.67822">
        <ele>773</ele>
        <time>2015-08-07T08:52:22.000Z</time>
      </trkpt>
      <trkpt lat="45.42007" lon="5.67824">
        <ele>772</ele>
        <time>2015-08-07T08:52:26.000Z</time>
      </trkpt>
      <trkpt lat="45.42007" lon="5.67824">
        <ele>771</ele>
        <time>2015-08-07T08:52:27.000Z</time>
      </trkpt>
      <trkpt lat="45.42004" lon="5.67828">
        <ele>769</ele>
        <time>2015-08-07T08:52:30.000Z</time>
      </trkpt>
      <trkpt lat="45.42003" lon="5.67829">
        <ele>768</ele>
        <time>2015-08-07T08:52:31.000Z</time>
      </trkpt>
      <trkpt lat="45.42" lon="5.67831">
        <ele>767</ele>
        <time>2015-08-07T08:52:32.000Z</time>
      </trkpt>
      <trkpt lat="45.41997" lon="5.67833">
        <ele>764</ele>
        <time>2015-08-07T08:52:33.000Z</time>
      </trkpt>
      <trkpt lat="45.41994" lon="5.67834">
        <ele>762</ele>
        <time>2015-08-07T08:52:34.000Z</time>
      </trkpt>
      <trkpt lat="45.41991" lon="5.67834">
        <ele>760</ele>
        <time>2015-08-07T08:52:35.000Z</time>
      </trkpt>
      <trkpt lat="45.41989" lon="5.67834">
        <ele>759</ele>
        <time>2015-08-07T08:52:36.000Z</time>
      </trkpt>
      <trkpt lat="45.41986" lon="5.67833">
        <ele>758</ele>
        <time>2015-08-07T08:52:37.000Z</time>
      </trkpt>
      <trkpt lat="45.41982" lon="5.67835">
        <ele>757</ele>
        <time>2015-08-07T08:52:39.000Z</time>
      </trkpt>
      <trkpt lat="45.41981" lon="5.67836">
        <ele>756</ele>
        <time>2015-08-07T08:52:40.000Z</time>
      </trkpt>
      <trkpt lat="45.41978" lon="5.67841">
        <ele>755</ele>
        <time>2015-08-07T08:52:43.000Z</time>
      </trkpt>
      <trkpt lat="45.41976" lon="5.67842">
        <ele>754</ele>
        <time>2015-08-07T08:52:44.000Z</time>
      </trkpt>
      <trkpt lat="45.41973" lon="5.67843">
        <ele>753</ele>
        <time>2015-08-07T08:52:46.000Z</time>
      </trkpt>
      <trkpt lat="45.41971" lon="5.67844">
        <ele>753</ele>
        <time>2015-08-07T08:52:47.000Z</time>
      </trkpt>
      <trkpt lat="45.41967" lon="5.67846">
        <ele>752</ele>
        <time>2015-08-07T08:52:49.000Z</time>
      </trkpt>
      <trkpt lat="45.41956" lon="5.67858">
        <ele>749</ele>
        <time>2015-08-07T08:52:50.000Z</time>
      </trkpt>
      <trkpt lat="45.41953" lon="5.67863">
        <ele>749</ele>
        <time>2015-08-07T08:52:51.000Z</time>
      </trkpt>
      <trkpt lat="45.41951" lon="5.67868">
        <ele>748</ele>
        <time>2015-08-07T08:52:53.000Z</time>
      </trkpt>
      <trkpt lat="45.41948" lon="5.67869">
        <ele>748</ele>
        <time>2015-08-07T08:52:54.000Z</time>
      </trkpt>
      <trkpt lat="45.41946" lon="5.67871">
        <ele>747</ele>
        <time>2015-08-07T08:52:55.000Z</time>
      </trkpt>
      <trkpt lat="45.41944" lon="5.67873">
        <ele>747</ele>
        <time>2015-08-07T08:52:56.000Z</time>
      </trkpt>
      <trkpt lat="45.41941" lon="5.67877">
        <ele>747</ele>
        <time>2015-08-07T08:52:57.000Z</time>
      </trkpt>
      <trkpt lat="45.41939" lon="5.6788">
        <ele>746</ele>
        <time>2015-08-07T08:52:58.000Z</time>
      </trkpt>
      <trkpt lat="45.41941" lon="5.67886">
        <ele>746</ele>
        <time>2015-08-07T08:52:59.000Z</time>
      </trkpt>
      <trkpt lat="45.41941" lon="5.67891">
        <ele>745</ele>
        <time>2015-08-07T08:53:00.000Z</time>
      </trkpt>
      <trkpt lat="45.41942" lon="5.67895">
        <ele>745</ele>
        <time>2015-08-07T08:53:01.000Z</time>
      </trkpt>
      <trkpt lat="45.41944" lon="5.679">
        <ele>745</ele>
        <time>2015-08-07T08:53:02.000Z</time>
      </trkpt>
      <trkpt lat="45.41945" lon="5.67903">
        <ele>745</ele>
        <time>2015-08-07T08:53:03.000Z</time>
      </trkpt>
      <trkpt lat="45.41946" lon="5.67906">
        <ele>745</ele>
        <time>2015-08-07T08:53:04.000Z</time>
      </trkpt>
      <trkpt lat="45.41948" lon="5.6791">
        <ele>745</ele>
        <time>2015-08-07T08:53:06.000Z</time>
      </trkpt>
      <trkpt lat="45.41949" lon="5.67911">
        <ele>745</ele>
        <time>2015-08-07T08:53:07.000Z</time>
      </trkpt>
      <trkpt lat="45.41951" lon="5.67914">
        <ele>745</ele>
        <time>2015-08-07T08:53:09.000Z</time>
      </trkpt>
      <trkpt lat="45.41952" lon="5.67917">
        <ele>741</ele>
        <time>2015-08-07T08:53:10.000Z</time>
      </trkpt>
      <trkpt lat="45.41953" lon="5.6792">
        <ele>741</ele>
        <time>2015-08-07T08:53:11.000Z</time>
      </trkpt>
      <trkpt lat="45.41955" lon="5.67924">
        <ele>741</ele>
        <time>2015-08-07T08:53:12.000Z</time>
      </trkpt>
      <trkpt lat="45.41957" lon="5.67928">
        <ele>742</ele>
        <time>2015-08-07T08:53:13.000Z</time>
      </trkpt>
      <trkpt lat="45.41959" lon="5.67932">
        <ele>742</ele>
        <time>2015-08-07T08:53:14.000Z</time>
      </trkpt>
      <trkpt lat="45.41962" lon="5.67935">
        <ele>742</ele>
        <time>2015-08-07T08:53:15.000Z</time>
      </trkpt>
      <trkpt lat="45.41964" lon="5.67938">
        <ele>742</ele>
        <time>2015-08-07T08:53:16.000Z</time>
      </trkpt>
      <trkpt lat="45.41966" lon="5.6794">
        <ele>742</ele>
        <time>2015-08-07T08:53:17.000Z</time>
      </trkpt>
      <trkpt lat="45.41967" lon="5.67944">
        <ele>743</ele>
        <time>2015-08-07T08:53:18.000Z</time>
      </trkpt>
      <trkpt lat="45.41969" lon="5.67947">
        <ele>743</ele>
        <time>2015-08-07T08:53:19.000Z</time>
      </trkpt>
      <trkpt lat="45.4197" lon="5.67951">
        <ele>742</ele>
        <time>2015-08-07T08:53:20.000Z</time>
      </trkpt>
      <trkpt lat="45.4197" lon="5.67956">
        <ele>742</ele>
        <time>2015-08-07T08:53:21.000Z</time>
      </trkpt>
      <trkpt lat="45.41969" lon="5.6796">
        <ele>742</ele>
        <time>2015-08-07T08:53:22.000Z</time>
      </trkpt>
      <trkpt lat="45.41968" lon="5.67965">
        <ele>742</ele>
        <time>2015-08-07T08:53:23.000Z</time>
      </trkpt>
      <trkpt lat="45.41967" lon="5.6797">
        <ele>742</ele>
        <time>2015-08-07T08:53:24.000Z</time>
      </trkpt>
      <trkpt lat="45.41967" lon="5.67974">
        <ele>741</ele>
        <time>2015-08-07T08:53:25.000Z</time>
      </trkpt>
      <trkpt lat="45.41966" lon="5.67977">
        <ele>741</ele>
        <time>2015-08-07T08:53:26.000Z</time>
      </trkpt>
      <trkpt lat="45.41968" lon="5.67983">
        <ele>741</ele>
        <time>2015-08-07T08:53:29.000Z</time>
      </trkpt>
      <trkpt lat="45.41969" lon="5.67986">
        <ele>742</ele>
        <time>2015-08-07T08:53:30.000Z</time>
      </trkpt>
      <trkpt lat="45.41971" lon="5.67991">
        <ele>742</ele>
        <time>2015-08-07T08:53:32.000Z</time>
      </trkpt>
      <trkpt lat="45.41971" lon="5.67993">
        <ele>742</ele>
        <time>2015-08-07T08:53:33.000Z</time>
      </trkpt>
      <trkpt lat="45.41972" lon="5.67998">
        <ele>742</ele>
        <time>2015-08-07T08:53:36.000Z</time>
      </trkpt>
      <trkpt lat="45.41972" lon="5.68">
        <ele>742</ele>
        <time>2015-08-07T08:53:37.000Z</time>
      </trkpt>
      <trkpt lat="45.41971" lon="5.68005">
        <ele>738</ele>
        <time>2015-08-07T08:53:40.000Z</time>
      </trkpt>
      <trkpt lat="45.41972" lon="5.68008">
        <ele>738</ele>
        <time>2015-08-07T08:53:41.000Z</time>
      </trkpt>
      <trkpt lat="45.41972" lon="5.68012">
        <ele>738</ele>
        <time>2015-08-07T08:53:42.000Z</time>
      </trkpt>
      <trkpt lat="45.41972" lon="5.68016">
        <ele>737</ele>
        <time>2015-08-07T08:53:43.000Z</time>
      </trkpt>
      <trkpt lat="45.41974" lon="5.68021">
        <ele>737</ele>
        <time>2015-08-07T08:53:44.000Z</time>
      </trkpt>
      <trkpt lat="45.41975" lon="5.68025">
        <ele>737</ele>
        <time>2015-08-07T08:53:45.000Z</time>
      </trkpt>
      <trkpt lat="45.41978" lon="5.68029">
        <ele>737</ele>
        <time>2015-08-07T08:53:46.000Z</time>
      </trkpt>
      <trkpt lat="45.4198" lon="5.68033">
        <ele>737</ele>
        <time>2015-08-07T08:53:47.000Z</time>
      </trkpt>
      <trkpt lat="45.41982" lon="5.68037">
        <ele>737</ele>
        <time>2015-08-07T08:53:48.000Z</time>
      </trkpt>
      <trkpt lat="45.41985" lon="5.6804">
        <ele>737</ele>
        <time>2015-08-07T08:53:49.000Z</time>
      </trkpt>
      <trkpt lat="45.41986" lon="5.68043">
        <ele>737</ele>
        <time>2015-08-07T08:53:50.000Z</time>
      </trkpt>
      <trkpt lat="45.41988" lon="5.68047">
        <ele>737</ele>
        <time>2015-08-07T08:53:51.000Z</time>
      </trkpt>
      <trkpt lat="45.4199" lon="5.68051">
        <ele>737</ele>
        <time>2015-08-07T08:53:53.000Z</time>
      </trkpt>
      <trkpt lat="45.41991" lon="5.68053">
        <ele>737</ele>
        <time>2015-08-07T08:53:54.000Z</time>
      </trkpt>
      <trkpt lat="45.41992" lon="5.68059">
        <ele>737</ele>
        <time>2015-08-07T08:53:56.000Z</time>
      </trkpt>
      <trkpt lat="45.41992" lon="5.68063">
        <ele>737</ele>
        <time>2015-08-07T08:53:57.000Z</time>
      </trkpt>
      <trkpt lat="45.41992" lon="5.68068">
        <ele>737</ele>
        <time>2015-08-07T08:53:58.000Z</time>
      </trkpt>
      <trkpt lat="45.41992" lon="5.68074">
        <ele>737</ele>
        <time>2015-08-07T08:53:59.000Z</time>
      </trkpt>
      <trkpt lat="45.41993" lon="5.6808">
        <ele>738</ele>
        <time>2015-08-07T08:54:00.000Z</time>
      </trkpt>
      <trkpt lat="45.41994" lon="5.68087">
        <ele>736</ele>
        <time>2015-08-07T08:54:01.000Z</time>
      </trkpt>
      <trkpt lat="45.41996" lon="5.68093">
        <ele>735</ele>
        <time>2015-08-07T08:54:02.000Z</time>
      </trkpt>
      <trkpt lat="45.41998" lon="5.68098">
        <ele>734</ele>
        <time>2015-08-07T08:54:03.000Z</time>
      </trkpt>
      <trkpt lat="45.42" lon="5.68102">
        <ele>741</ele>
        <time>2015-08-07T08:54:04.000Z</time>
      </trkpt>
      <trkpt lat="45.42002" lon="5.68105">
        <ele>741</ele>
        <time>2015-08-07T08:54:05.000Z</time>
      </trkpt>
      <trkpt lat="45.42003" lon="5.68108">
        <ele>742</ele>
        <time>2015-08-07T08:54:06.000Z</time>
      </trkpt>
      <trkpt lat="45.42005" lon="5.68112">
        <ele>742</ele>
        <time>2015-08-07T08:54:07.000Z</time>
      </trkpt>
      <trkpt lat="45.42006" lon="5.68115">
        <ele>742</ele>
        <time>2015-08-07T08:54:08.000Z</time>
      </trkpt>
      <trkpt lat="45.42008" lon="5.68119">
        <ele>742</ele>
        <time>2015-08-07T08:54:10.000Z</time>
      </trkpt>
      <trkpt lat="45.42008" lon="5.68121">
        <ele>742</ele>
        <time>2015-08-07T08:54:11.000Z</time>
      </trkpt>
      <trkpt lat="45.42009" lon="5.68126">
        <ele>741</ele>
        <time>2015-08-07T08:54:13.000Z</time>
      </trkpt>
      <trkpt lat="45.42009" lon="5.6813">
        <ele>741</ele>
        <time>2015-08-07T08:54:14.000Z</time>
      </trkpt>
      <trkpt lat="45.42009" lon="5.68133">
        <ele>741</ele>
        <time>2015-08-07T08:54:15.000Z</time>
      </trkpt>
      <trkpt lat="45.42009" lon="5.68136">
        <ele>741</ele>
        <time>2015-08-07T08:54:16.000Z</time>
      </trkpt>
      <trkpt lat="45.42009" lon="5.68141">
        <ele>740</ele>
        <time>2015-08-07T08:54:18.000Z</time>
      </trkpt>
      <trkpt lat="45.42008" lon="5.68143">
        <ele>740</ele>
        <time>2015-08-07T08:54:19.000Z</time>
      </trkpt>
      <trkpt lat="45.42007" lon="5.68149">
        <ele>739</ele>
        <time>2015-08-07T08:54:21.000Z</time>
      </trkpt>
      <trkpt lat="45.42007" lon="5.68152">
        <ele>738</ele>
        <time>2015-08-07T08:54:22.000Z</time>
      </trkpt>
      <trkpt lat="45.42007" lon="5.68158">
        <ele>737</ele>
        <time>2015-08-07T08:54:24.000Z</time>
      </trkpt>
      <trkpt lat="45.42008" lon="5.6816">
        <ele>736</ele>
        <time>2015-08-07T08:54:25.000Z</time>
      </trkpt>
      <trkpt lat="45.4201" lon="5.68165">
        <ele>736</ele>
        <time>2015-08-07T08:54:27.000Z</time>
      </trkpt>
      <trkpt lat="45.42011" lon="5.68168">
        <ele>735</ele>
        <time>2015-08-07T08:54:28.000Z</time>
      </trkpt>
      <trkpt lat="45.42012" lon="5.68173">
        <ele>735</ele>
        <time>2015-08-07T08:54:30.000Z</time>
      </trkpt>
      <trkpt lat="45.42013" lon="5.68176">
        <ele>735</ele>
        <time>2015-08-07T08:54:31.000Z</time>
      </trkpt>
      <trkpt lat="45.42015" lon="5.68178">
        <ele>736</ele>
        <time>2015-08-07T08:54:32.000Z</time>
      </trkpt>
      <trkpt lat="45.42016" lon="5.68181">
        <ele>736</ele>
        <time>2015-08-07T08:54:33.000Z</time>
      </trkpt>
      <trkpt lat="45.42018" lon="5.68183">
        <ele>736</ele>
        <time>2015-08-07T08:54:34.000Z</time>
      </trkpt>
      <trkpt lat="45.4202" lon="5.68185">
        <ele>737</ele>
        <time>2015-08-07T08:54:35.000Z</time>
      </trkpt>
      <trkpt lat="45.42023" lon="5.68189">
        <ele>737</ele>
        <time>2015-08-07T08:54:37.000Z</time>
      </trkpt>
      <trkpt lat="45.42024" lon="5.6819">
        <ele>737</ele>
        <time>2015-08-07T08:54:38.000Z</time>
      </trkpt>
      <trkpt lat="45.42027" lon="5.68192">
        <ele>737</ele>
        <time>2015-08-07T08:54:40.000Z</time>
      </trkpt>
      <trkpt lat="45.42028" lon="5.68193">
        <ele>738</ele>
        <time>2015-08-07T08:54:41.000Z</time>
      </trkpt>
      <trkpt lat="45.4203" lon="5.68196">
        <ele>738</ele>
        <time>2015-08-07T08:54:43.000Z</time>
      </trkpt>
      <trkpt lat="45.42032" lon="5.68198">
        <ele>738</ele>
        <time>2015-08-07T08:54:44.000Z</time>
      </trkpt>
      <trkpt lat="45.42034" lon="5.68202">
        <ele>738</ele>
        <time>2015-08-07T08:54:46.000Z</time>
      </trkpt>
      <trkpt lat="45.42035" lon="5.68203">
        <ele>738</ele>
        <time>2015-08-07T08:54:47.000Z</time>
      </trkpt>
      <trkpt lat="45.42039" lon="5.68206">
        <ele>739</ele>
        <time>2015-08-07T08:54:50.000Z</time>
      </trkpt>
      <trkpt lat="45.42041" lon="5.68207">
        <ele>739</ele>
        <time>2015-08-07T08:54:51.000Z</time>
      </trkpt>
      <trkpt lat="45.42044" lon="5.6821">
        <ele>739</ele>
        <time>2015-08-07T08:54:53.000Z</time>
      </trkpt>
      <trkpt lat="45.42045" lon="5.68211">
        <ele>739</ele>
        <time>2015-08-07T08:54:54.000Z</time>
      </trkpt>
      <trkpt lat="45.42048" lon="5.68213">
        <ele>739</ele>
        <time>2015-08-07T08:54:56.000Z</time>
      </trkpt>
      <trkpt lat="45.4205" lon="5.68213">
        <ele>739</ele>
        <time>2015-08-07T08:54:57.000Z</time>
      </trkpt>
      <trkpt lat="45.42053" lon="5.68216">
        <ele>740</ele>
        <time>2015-08-07T08:55:00.000Z</time>
      </trkpt>
      <trkpt lat="45.42055" lon="5.68217">
        <ele>740</ele>
        <time>2015-08-07T08:55:01.000Z</time>
      </trkpt>
      <trkpt lat="45.42058" lon="5.68218">
        <ele>740</ele>
        <time>2015-08-07T08:55:03.000Z</time>
      </trkpt>
      <trkpt lat="45.4206" lon="5.68218">
        <ele>740</ele>
        <time>2015-08-07T08:55:04.000Z</time>
      </trkpt>
      <trkpt lat="45.42064" lon="5.68221">
        <ele>741</ele>
        <time>2015-08-07T08:55:06.000Z</time>
      </trkpt>
      <trkpt lat="45.42066" lon="5.68223">
        <ele>741</ele>
        <time>2015-08-07T08:55:07.000Z</time>
      </trkpt>
      <trkpt lat="45.42069" lon="5.68224">
        <ele>741</ele>
        <time>2015-08-07T08:55:08.000Z</time>
      </trkpt>
      <trkpt lat="45.42072" lon="5.68226">
        <ele>741</ele>
        <time>2015-08-07T08:55:09.000Z</time>
      </trkpt>
      <trkpt lat="45.42074" lon="5.68227">
        <ele>742</ele>
        <time>2015-08-07T08:55:10.000Z</time>
      </trkpt>
      <trkpt lat="45.42077" lon="5.68228">
        <ele>742</ele>
        <time>2015-08-07T08:55:11.000Z</time>
      </trkpt>
      <trkpt lat="45.42079" lon="5.6823">
        <ele>742</ele>
        <time>2015-08-07T08:55:12.000Z</time>
      </trkpt>
      <trkpt lat="45.42082" lon="5.68232">
        <ele>742</ele>
        <time>2015-08-07T08:55:13.000Z</time>
      </trkpt>
      <trkpt lat="45.42083" lon="5.68233">
        <ele>742</ele>
        <time>2015-08-07T08:55:14.000Z</time>
      </trkpt>
      <trkpt lat="45.42085" lon="5.68235">
        <ele>750</ele>
        <time>2015-08-07T08:55:15.000Z</time>
      </trkpt>
      <trkpt lat="45.42087" lon="5.68237">
        <ele>749</ele>
        <time>2015-08-07T08:55:16.000Z</time>
      </trkpt>
      <trkpt lat="45.42089" lon="5.68239">
        <ele>749</ele>
        <time>2015-08-07T08:55:17.000Z</time>
      </trkpt>
      <trkpt lat="45.42093" lon="5.68242">
        <ele>749</ele>
        <time>2015-08-07T08:55:19.000Z</time>
      </trkpt>
      <trkpt lat="45.42094" lon="5.68243">
        <ele>749</ele>
        <time>2015-08-07T08:55:20.000Z</time>
      </trkpt>
      <trkpt lat="45.42097" lon="5.68247">
        <ele>749</ele>
        <time>2015-08-07T08:55:22.000Z</time>
      </trkpt>
      <trkpt lat="45.42098" lon="5.68249">
        <ele>750</ele>
        <time>2015-08-07T08:55:23.000Z</time>
      </trkpt>
      <trkpt lat="45.42101" lon="5.68252">
        <ele>748</ele>
        <time>2015-08-07T08:55:25.000Z</time>
      </trkpt>
      <trkpt lat="45.42102" lon="5.68254">
        <ele>748</ele>
        <time>2015-08-07T08:55:26.000Z</time>
      </trkpt>
      <trkpt lat="45.42104" lon="5.68257">
        <ele>748</ele>
        <time>2015-08-07T08:55:28.000Z</time>
      </trkpt>
      <trkpt lat="45.42106" lon="5.68258">
        <ele>748</ele>
        <time>2015-08-07T08:55:29.000Z</time>
      </trkpt>
      <trkpt lat="45.42108" lon="5.6826">
        <ele>748</ele>
        <time>2015-08-07T08:55:30.000Z</time>
      </trkpt>
      <trkpt lat="45.4211" lon="5.68263">
        <ele>749</ele>
        <time>2015-08-07T08:55:31.000Z</time>
      </trkpt>
      <trkpt lat="45.42112" lon="5.68266">
        <ele>749</ele>
        <time>2015-08-07T08:55:32.000Z</time>
      </trkpt>
      <trkpt lat="45.42114" lon="5.68269">
        <ele>749</ele>
        <time>2015-08-07T08:55:33.000Z</time>
      </trkpt>
      <trkpt lat="45.42115" lon="5.68272">
        <ele>749</ele>
        <time>2015-08-07T08:55:34.000Z</time>
      </trkpt>
      <trkpt lat="45.42117" lon="5.68275">
        <ele>749</ele>
        <time>2015-08-07T08:55:35.000Z</time>
      </trkpt>
      <trkpt lat="45.42119" lon="5.68278">
        <ele>749</ele>
        <time>2015-08-07T08:55:36.000Z</time>
      </trkpt>
      <trkpt lat="45.42121" lon="5.6828">
        <ele>750</ele>
        <time>2015-08-07T08:55:37.000Z</time>
      </trkpt>
      <trkpt lat="45.42122" lon="5.68283">
        <ele>750</ele>
        <time>2015-08-07T08:55:38.000Z</time>
      </trkpt>
      <trkpt lat="45.42124" lon="5.68286">
        <ele>750</ele>
        <time>2015-08-07T08:55:39.000Z</time>
      </trkpt>
      <trkpt lat="45.42127" lon="5.68291">
        <ele>750</ele>
        <time>2015-08-07T08:55:41.000Z</time>
      </trkpt>
      <trkpt lat="45.42128" lon="5.68293">
        <ele>750</ele>
        <time>2015-08-07T08:55:42.000Z</time>
      </trkpt>
      <trkpt lat="45.42131" lon="5.68297">
        <ele>750</ele>
        <time>2015-08-07T08:55:44.000Z</time>
      </trkpt>
      <trkpt lat="45.42132" lon="5.68299">
        <ele>750</ele>
        <time>2015-08-07T08:55:45.000Z</time>
      </trkpt>
      <trkpt lat="45.42135" lon="5.68302">
        <ele>750</ele>
        <time>2015-08-07T08:55:47.000Z</time>
      </trkpt>
      <trkpt lat="45.42137" lon="5.68304">
        <ele>750</ele>
        <time>2015-08-07T08:55:48.000Z</time>
      </trkpt>
      <trkpt lat="45.4214" lon="5.68308">
        <ele>750</ele>
        <time>2015-08-07T08:55:50.000Z</time>
      </trkpt>
      <trkpt lat="45.42142" lon="5.6831">
        <ele>750</ele>
        <time>2015-08-07T08:55:51.000Z</time>
      </trkpt>
      <trkpt lat="45.42144" lon="5.68313">
        <ele>751</ele>
        <time>2015-08-07T08:55:53.000Z</time>
      </trkpt>
      <trkpt lat="45.42144" lon="5.68316">
        <ele>751</ele>
        <time>2015-08-07T08:55:54.000Z</time>
      </trkpt>
      <trkpt lat="45.42147" lon="5.6832">
        <ele>751</ele>
        <time>2015-08-07T08:55:56.000Z</time>
      </trkpt>
      <trkpt lat="45.42148" lon="5.68322">
        <ele>751</ele>
        <time>2015-08-07T08:55:57.000Z</time>
      </trkpt>
      <trkpt lat="45.4215" lon="5.68325">
        <ele>751</ele>
        <time>2015-08-07T08:55:59.000Z</time>
      </trkpt>
      <trkpt lat="45.42152" lon="5.68327">
        <ele>752</ele>
        <time>2015-08-07T08:56:00.000Z</time>
      </trkpt>
      <trkpt lat="45.42154" lon="5.68331">
        <ele>752</ele>
        <time>2015-08-07T08:56:02.000Z</time>
      </trkpt>
      <trkpt lat="45.42155" lon="5.68333">
        <ele>752</ele>
        <time>2015-08-07T08:56:03.000Z</time>
      </trkpt>
      <trkpt lat="45.42158" lon="5.68337">
        <ele>751</ele>
        <time>2015-08-07T08:56:05.000Z</time>
      </trkpt>
      <trkpt lat="45.42159" lon="5.6834">
        <ele>751</ele>
        <time>2015-08-07T08:56:06.000Z</time>
      </trkpt>
      <trkpt lat="45.42161" lon="5.68343">
        <ele>750</ele>
        <time>2015-08-07T08:56:07.000Z</time>
      </trkpt>
      <trkpt lat="45.42162" lon="5.68346">
        <ele>750</ele>
        <time>2015-08-07T08:56:08.000Z</time>
      </trkpt>
      <trkpt lat="45.42163" lon="5.6835">
        <ele>749</ele>
        <time>2015-08-07T08:56:09.000Z</time>
      </trkpt>
      <trkpt lat="45.42164" lon="5.68353">
        <ele>749</ele>
        <time>2015-08-07T08:56:10.000Z</time>
      </trkpt>
      <trkpt lat="45.42165" lon="5.68356">
        <ele>748</ele>
        <time>2015-08-07T08:56:11.000Z</time>
      </trkpt>
      <trkpt lat="45.42166" lon="5.68359">
        <ele>748</ele>
        <time>2015-08-07T08:56:12.000Z</time>
      </trkpt>
      <trkpt lat="45.42168" lon="5.68364">
        <ele>755</ele>
        <time>2015-08-07T08:56:13.000Z</time>
      </trkpt>
      <trkpt lat="45.42169" lon="5.68368">
        <ele>755</ele>
        <time>2015-08-07T08:56:14.000Z</time>
      </trkpt>
      <trkpt lat="45.4217" lon="5.68373">
        <ele>755</ele>
        <time>2015-08-07T08:56:15.000Z</time>
      </trkpt>
      <trkpt lat="45.42171" lon="5.68378">
        <ele>755</ele>
        <time>2015-08-07T08:56:16.000Z</time>
      </trkpt>
      <trkpt lat="45.42172" lon="5.68382">
        <ele>755</ele>
        <time>2015-08-07T08:56:17.000Z</time>
      </trkpt>
      <trkpt lat="45.42174" lon="5.68385">
        <ele>755</ele>
        <time>2015-08-07T08:56:18.000Z</time>
      </trkpt>
      <trkpt lat="45.42175" lon="5.68388">
        <ele>754</ele>
        <time>2015-08-07T08:56:19.000Z</time>
      </trkpt>
      <trkpt lat="45.42177" lon="5.6839">
        <ele>754</ele>
        <time>2015-08-07T08:56:20.000Z</time>
      </trkpt>
      <trkpt lat="45.42181" lon="5.68393">
        <ele>754</ele>
        <time>2015-08-07T08:56:22.000Z</time>
      </trkpt>
      <trkpt lat="45.42182" lon="5.68394">
        <ele>754</ele>
        <time>2015-08-07T08:56:23.000Z</time>
      </trkpt>
      <trkpt lat="45.42187" lon="5.68394">
        <ele>755</ele>
        <time>2015-08-07T08:56:25.000Z</time>
      </trkpt>
      <trkpt lat="45.42189" lon="5.68393">
        <ele>755</ele>
        <time>2015-08-07T08:56:26.000Z</time>
      </trkpt>
      <trkpt lat="45.42188" lon="5.68397">
        <ele>755</ele>
        <time>2015-08-07T08:56:43.000Z</time>
      </trkpt>
      <trkpt lat="45.42186" lon="5.68399">
        <ele>754</ele>
        <time>2015-08-07T08:56:44.000Z</time>
      </trkpt>
      <trkpt lat="45.42184" lon="5.684">
        <ele>754</ele>
        <time>2015-08-07T08:56:45.000Z</time>
      </trkpt>
      <trkpt lat="45.42181" lon="5.68402">
        <ele>753</ele>
        <time>2015-08-07T08:56:46.000Z</time>
      </trkpt>
      <trkpt lat="45.42179" lon="5.68404">
        <ele>753</ele>
        <time>2015-08-07T08:56:47.000Z</time>
      </trkpt>
      <trkpt lat="45.42177" lon="5.68407">
        <ele>752</ele>
        <time>2015-08-07T08:56:48.000Z</time>
      </trkpt>
      <trkpt lat="45.42174" lon="5.6841">
        <ele>751</ele>
        <time>2015-08-07T08:57:53.000Z</time>
      </trkpt>
      <trkpt lat="45.42174" lon="5.68413">
        <ele>751</ele>
        <time>2015-08-07T08:57:54.000Z</time>
      </trkpt>
      <trkpt lat="45.42174" lon="5.68416">
        <ele>750</ele>
        <time>2015-08-07T08:57:55.000Z</time>
      </trkpt>
      <trkpt lat="45.42174" lon="5.68421">
        <ele>749</ele>
        <time>2015-08-07T08:57:56.000Z</time>
      </trkpt>
      <trkpt lat="45.42173" lon="5.68425">
        <ele>750</ele>
        <time>2015-08-07T08:57:57.000Z</time>
      </trkpt>
      <trkpt lat="45.42173" lon="5.6843">
        <ele>750</ele>
        <time>2015-08-07T08:57:58.000Z</time>
      </trkpt>
      <trkpt lat="45.42172" lon="5.68436">
        <ele>751</ele>
        <time>2015-08-07T08:57:59.000Z</time>
      </trkpt>
      <trkpt lat="45.42172" lon="5.68442">
        <ele>751</ele>
        <time>2015-08-07T08:58:00.000Z</time>
      </trkpt>
      <trkpt lat="45.42171" lon="5.68448">
        <ele>751</ele>
        <time>2015-08-07T08:58:01.000Z</time>
      </trkpt>
      <trkpt lat="45.4217" lon="5.68454">
        <ele>751</ele>
        <time>2015-08-07T08:58:02.000Z</time>
      </trkpt>
      <trkpt lat="45.42169" lon="5.6846">
        <ele>751</ele>
        <time>2015-08-07T08:58:03.000Z</time>
      </trkpt>
      <trkpt lat="45.42168" lon="5.68465">
        <ele>751</ele>
        <time>2015-08-07T08:58:04.000Z</time>
      </trkpt>
      <trkpt lat="45.42168" lon="5.6847">
        <ele>750</ele>
        <time>2015-08-07T08:58:05.000Z</time>
      </trkpt>
      <trkpt lat="45.42167" lon="5.68475">
        <ele>750</ele>
        <time>2015-08-07T08:58:06.000Z</time>
      </trkpt>
      <trkpt lat="45.42167" lon="5.68481">
        <ele>742</ele>
        <time>2015-08-07T08:58:07.000Z</time>
      </trkpt>
      <trkpt lat="45.42166" lon="5.68487">
        <ele>743</ele>
        <time>2015-08-07T08:58:08.000Z</time>
      </trkpt>
      <trkpt lat="45.42166" lon="5.68493">
        <ele>744</ele>
        <time>2015-08-07T08:58:09.000Z</time>
      </trkpt>
      <trkpt lat="45.42166" lon="5.68499">
        <ele>745</ele>
        <time>2015-08-07T08:58:10.000Z</time>
      </trkpt>
      <trkpt lat="45.42166" lon="5.68504">
        <ele>743</ele>
        <time>2015-08-07T08:58:11.000Z</time>
      </trkpt>
      <trkpt lat="45.42165" lon="5.68509">
        <ele>742</ele>
        <time>2015-08-07T08:58:12.000Z</time>
      </trkpt>
      <trkpt lat="45.42166" lon="5.68514">
        <ele>740</ele>
        <time>2015-08-07T08:58:13.000Z</time>
      </trkpt>
      <trkpt lat="45.42166" lon="5.6852">
        <ele>739</ele>
        <time>2015-08-07T08:58:14.000Z</time>
      </trkpt>
      <trkpt lat="45.42167" lon="5.68526">
        <ele>747</ele>
        <time>2015-08-07T08:58:15.000Z</time>
      </trkpt>
      <trkpt lat="45.42167" lon="5.68532">
        <ele>747</ele>
        <time>2015-08-07T08:58:16.000Z</time>
      </trkpt>
      <trkpt lat="45.42168" lon="5.68537">
        <ele>747</ele>
        <time>2015-08-07T08:58:17.000Z</time>
      </trkpt>
      <trkpt lat="45.42168" lon="5.68542">
        <ele>747</ele>
        <time>2015-08-07T08:58:18.000Z</time>
      </trkpt>
      <trkpt lat="45.42169" lon="5.68547">
        <ele>746</ele>
        <time>2015-08-07T08:58:19.000Z</time>
      </trkpt>
      <trkpt lat="45.4217" lon="5.68552">
        <ele>746</ele>
        <time>2015-08-07T08:58:20.000Z</time>
      </trkpt>
      <trkpt lat="45.4217" lon="5.68556">
        <ele>746</ele>
        <time>2015-08-07T08:58:21.000Z</time>
      </trkpt>
      <trkpt lat="45.42171" lon="5.68561">
        <ele>745</ele>
        <time>2015-08-07T08:58:22.000Z</time>
      </trkpt>
      <trkpt lat="45.42172" lon="5.68566">
        <ele>744</ele>
        <time>2015-08-07T08:58:23.000Z</time>
      </trkpt>
      <trkpt lat="45.42174" lon="5.68571">
        <ele>744</ele>
        <time>2015-08-07T08:58:24.000Z</time>
      </trkpt>
      <trkpt lat="45.42176" lon="5.68576">
        <ele>743</ele>
        <time>2015-08-07T08:58:25.000Z</time>
      </trkpt>
      <trkpt lat="45.42178" lon="5.6858">
        <ele>743</ele>
        <time>2015-08-07T08:58:26.000Z</time>
      </trkpt>
      <trkpt lat="45.42181" lon="5.68585">
        <ele>740</ele>
        <time>2015-08-07T08:58:27.000Z</time>
      </trkpt>
      <trkpt lat="45.42184" lon="5.68589">
        <ele>740</ele>
        <time>2015-08-07T08:58:28.000Z</time>
      </trkpt>
      <trkpt lat="45.42187" lon="5.68594">
        <ele>741</ele>
        <time>2015-08-07T08:58:29.000Z</time>
      </trkpt>
      <trkpt lat="45.42191" lon="5.68598">
        <ele>741</ele>
        <time>2015-08-07T08:58:30.000Z</time>
      </trkpt>
      <trkpt lat="45.42194" lon="5.68603">
        <ele>741</ele>
        <time>2015-08-07T08:58:31.000Z</time>
      </trkpt>
      <trkpt lat="45.42198" lon="5.68608">
        <ele>741</ele>
        <time>2015-08-07T08:58:32.000Z</time>
      </trkpt>
      <trkpt lat="45.42201" lon="5.68612">
        <ele>741</ele>
        <time>2015-08-07T08:58:33.000Z</time>
      </trkpt>
      <trkpt lat="45.42205" lon="5.68616">
        <ele>741</ele>
        <time>2015-08-07T08:58:34.000Z</time>
      </trkpt>
      <trkpt lat="45.42209" lon="5.68619">
        <ele>741</ele>
        <time>2015-08-07T08:58:35.000Z</time>
      </trkpt>
      <trkpt lat="45.42213" lon="5.68622">
        <ele>741</ele>
        <time>2015-08-07T08:58:36.000Z</time>
      </trkpt>
      <trkpt lat="45.42217" lon="5.68625">
        <ele>741</ele>
        <time>2015-08-07T08:58:37.000Z</time>
      </trkpt>
      <trkpt lat="45.4222" lon="5.68627">
        <ele>741</ele>
        <time>2015-08-07T08:58:38.000Z</time>
      </trkpt>
      <trkpt lat="45.42224" lon="5.6863">
        <ele>741</ele>
        <time>2015-08-07T08:58:39.000Z</time>
      </trkpt>
      <trkpt lat="45.42227" lon="5.68632">
        <ele>741</ele>
        <time>2015-08-07T08:58:40.000Z</time>
      </trkpt>
      <trkpt lat="45.4223" lon="5.68634">
        <ele>741</ele>
        <time>2015-08-07T08:58:41.000Z</time>
      </trkpt>
      <trkpt lat="45.42233" lon="5.68636">
        <ele>741</ele>
        <time>2015-08-07T08:58:42.000Z</time>
      </trkpt>
      <trkpt lat="45.42237" lon="5.68638">
        <ele>741</ele>
        <time>2015-08-07T08:58:43.000Z</time>
      </trkpt>
      <trkpt lat="45.42241" lon="5.6864">
        <ele>741</ele>
        <time>2015-08-07T08:58:44.000Z</time>
      </trkpt>
      <trkpt lat="45.42245" lon="5.68642">
        <ele>741</ele>
        <time>2015-08-07T08:58:45.000Z</time>
      </trkpt>
      <trkpt lat="45.42249" lon="5.68644">
        <ele>741</ele>
        <time>2015-08-07T08:58:46.000Z</time>
      </trkpt>
      <trkpt lat="45.42254" lon="5.68645">
        <ele>744</ele>
        <time>2015-08-07T08:58:47.000Z</time>
      </trkpt>
      <trkpt lat="45.42258" lon="5.68646">
        <ele>744</ele>
        <time>2015-08-07T08:58:48.000Z</time>
      </trkpt>
      <trkpt lat="45.42262" lon="5.68646">
        <ele>744</ele>
        <time>2015-08-07T08:58:49.000Z</time>
      </trkpt>
      <trkpt lat="45.42266" lon="5.68646">
        <ele>745</ele>
        <time>2015-08-07T08:58:50.000Z</time>
      </trkpt>
      <trkpt lat="45.42269" lon="5.68645">
        <ele>745</ele>
        <time>2015-08-07T08:58:51.000Z</time>
      </trkpt>
      <trkpt lat="45.42271" lon="5.68644">
        <ele>745</ele>
        <time>2015-08-07T08:58:52.000Z</time>
      </trkpt>
      <trkpt lat="45.42274" lon="5.68644">
        <ele>745</ele>
        <time>2015-08-07T08:58:53.000Z</time>
      </trkpt>
      <trkpt lat="45.42276" lon="5.68644">
        <ele>745</ele>
        <time>2015-08-07T08:58:54.000Z</time>
      </trkpt>
      <trkpt lat="45.4228" lon="5.68643">
        <ele>745</ele>
        <time>2015-08-07T08:58:55.000Z</time>
      </trkpt>
      <trkpt lat="45.42282" lon="5.68643">
        <ele>745</ele>
        <time>2015-08-07T08:58:56.000Z</time>
      </trkpt>
      <trkpt lat="45.42285" lon="5.68643">
        <ele>746</ele>
        <time>2015-08-07T08:58:57.000Z</time>
      </trkpt>
      <trkpt lat="45.42288" lon="5.68643">
        <ele>746</ele>
        <time>2015-08-07T08:58:58.000Z</time>
      </trkpt>
      <trkpt lat="45.4229" lon="5.68644">
        <ele>746</ele>
        <time>2015-08-07T08:58:59.000Z</time>
      </trkpt>
      <trkpt lat="45.42293" lon="5.68644">
        <ele>746</ele>
        <time>2015-08-07T08:59:00.000Z</time>
      </trkpt>
      <trkpt lat="45.42296" lon="5.68644">
        <ele>746</ele>
        <time>2015-08-07T08:59:01.000Z</time>
      </trkpt>
      <trkpt lat="45.42298" lon="5.68644">
        <ele>746</ele>
        <time>2015-08-07T08:59:02.000Z</time>
      </trkpt>
      <trkpt lat="45.42302" lon="5.68644">
        <ele>746</ele>
        <time>2015-08-07T08:59:03.000Z</time>
      </trkpt>
      <trkpt lat="45.42305" lon="5.68644">
        <ele>746</ele>
        <time>2015-08-07T08:59:04.000Z</time>
      </trkpt>
      <trkpt lat="45.4231" lon="5.68644">
        <ele>746</ele>
        <time>2015-08-07T08:59:05.000Z</time>
      </trkpt>
      <trkpt lat="45.42314" lon="5.68645">
        <ele>746</ele>
        <time>2015-08-07T08:59:06.000Z</time>
      </trkpt>
      <trkpt lat="45.42318" lon="5.68647">
        <ele>745</ele>
        <time>2015-08-07T08:59:07.000Z</time>
      </trkpt>
      <trkpt lat="45.42323" lon="5.68648">
        <ele>745</ele>
        <time>2015-08-07T08:59:08.000Z</time>
      </trkpt>
      <trkpt lat="45.42327" lon="5.68649">
        <ele>745</ele>
        <time>2015-08-07T08:59:09.000Z</time>
      </trkpt>
      <trkpt lat="45.4233" lon="5.68651">
        <ele>745</ele>
        <time>2015-08-07T08:59:10.000Z</time>
      </trkpt>
      <trkpt lat="45.42333" lon="5.68653">
        <ele>747</ele>
        <time>2015-08-07T08:59:11.000Z</time>
      </trkpt>
      <trkpt lat="45.42337" lon="5.68654">
        <ele>746</ele>
        <time>2015-08-07T08:59:12.000Z</time>
      </trkpt>
      <trkpt lat="45.4234" lon="5.68655">
        <ele>746</ele>
        <time>2015-08-07T08:59:13.000Z</time>
      </trkpt>
      <trkpt lat="45.42343" lon="5.68656">
        <ele>747</ele>
        <time>2015-08-07T08:59:14.000Z</time>
      </trkpt>
      <trkpt lat="45.42346" lon="5.68656">
        <ele>747</ele>
        <time>2015-08-07T08:59:15.000Z</time>
      </trkpt>
      <trkpt lat="45.42349" lon="5.68657">
        <ele>747</ele>
        <time>2015-08-07T08:59:16.000Z</time>
      </trkpt>
      <trkpt lat="45.42352" lon="5.68658">
        <ele>748</ele>
        <time>2015-08-07T08:59:17.000Z</time>
      </trkpt>
      <trkpt lat="45.42355" lon="5.68657">
        <ele>748</ele>
        <time>2015-08-07T08:59:18.000Z</time>
      </trkpt>
      <trkpt lat="45.42357" lon="5.68658">
        <ele>748</ele>
        <time>2015-08-07T08:59:19.000Z</time>
      </trkpt>
      <trkpt lat="45.4236" lon="5.68659">
        <ele>749</ele>
        <time>2015-08-07T08:59:20.000Z</time>
      </trkpt>
      <trkpt lat="45.42362" lon="5.6866">
        <ele>749</ele>
        <time>2015-08-07T08:59:21.000Z</time>
      </trkpt>
      <trkpt lat="45.42366" lon="5.68661">
        <ele>749</ele>
        <time>2015-08-07T08:59:23.000Z</time>
      </trkpt>
      <trkpt lat="45.42367" lon="5.68662">
        <ele>749</ele>
        <time>2015-08-07T08:59:24.000Z</time>
      </trkpt>
      <trkpt lat="45.4237" lon="5.68664">
        <ele>749</ele>
        <time>2015-08-07T08:59:26.000Z</time>
      </trkpt>
      <trkpt lat="45.42372" lon="5.68665">
        <ele>750</ele>
        <time>2015-08-07T08:59:27.000Z</time>
      </trkpt>
      <trkpt lat="45.42376" lon="5.68666">
        <ele>750</ele>
        <time>2015-08-07T08:59:29.000Z</time>
      </trkpt>
      <trkpt lat="45.42378" lon="5.68666">
        <ele>750</ele>
        <time>2015-08-07T08:59:30.000Z</time>
      </trkpt>
      <trkpt lat="45.42381" lon="5.68665">
        <ele>750</ele>
        <time>2015-08-07T08:59:31.000Z</time>
      </trkpt>
      <trkpt lat="45.42383" lon="5.68665">
        <ele>750</ele>
        <time>2015-08-07T08:59:32.000Z</time>
      </trkpt>
      <trkpt lat="45.42387" lon="5.68664">
        <ele>751</ele>
        <time>2015-08-07T08:59:34.000Z</time>
      </trkpt>
      <trkpt lat="45.42389" lon="5.68664">
        <ele>751</ele>
        <time>2015-08-07T08:59:35.000Z</time>
      </trkpt>
      <trkpt lat="45.42393" lon="5.68665">
        <ele>751</ele>
        <time>2015-08-07T08:59:37.000Z</time>
      </trkpt>
      <trkpt lat="45.42395" lon="5.68666">
        <ele>751</ele>
        <time>2015-08-07T08:59:38.000Z</time>
      </trkpt>
      <trkpt lat="45.424" lon="5.68668">
        <ele>750</ele>
        <time>2015-08-07T08:59:40.000Z</time>
      </trkpt>
      <trkpt lat="45.42402" lon="5.68668">
        <ele>751</ele>
        <time>2015-08-07T08:59:41.000Z</time>
      </trkpt>
      <trkpt lat="45.42406" lon="5.6867">
        <ele>751</ele>
        <time>2015-08-07T08:59:43.000Z</time>
      </trkpt>
      <trkpt lat="45.42407" lon="5.6867">
        <ele>751</ele>
        <time>2015-08-07T08:59:44.000Z</time>
      </trkpt>
      <trkpt lat="45.42411" lon="5.68673">
        <ele>751</ele>
        <time>2015-08-07T08:59:46.000Z</time>
      </trkpt>
      <trkpt lat="45.42413" lon="5.68674">
        <ele>751</ele>
        <time>2015-08-07T08:59:47.000Z</time>
      </trkpt>
      <trkpt lat="45.42415" lon="5.6868">
        <ele>751</ele>
        <time>2015-08-07T08:59:49.000Z</time>
      </trkpt>
      <trkpt lat="45.42416" lon="5.68682">
        <ele>751</ele>
        <time>2015-08-07T08:59:50.000Z</time>
      </trkpt>
      <trkpt lat="45.42418" lon="5.68684">
        <ele>754</ele>
        <time>2015-08-07T08:59:51.000Z</time>
      </trkpt>
      <trkpt lat="45.4242" lon="5.68686">
        <ele>755</ele>
        <time>2015-08-07T08:59:52.000Z</time>
      </trkpt>
      <trkpt lat="45.42423" lon="5.68686">
        <ele>755</ele>
        <time>2015-08-07T08:59:53.000Z</time>
      </trkpt>
      <trkpt lat="45.42426" lon="5.68687">
        <ele>755</ele>
        <time>2015-08-07T08:59:54.000Z</time>
      </trkpt>
      <trkpt lat="45.42429" lon="5.68688">
        <ele>755</ele>
        <time>2015-08-07T08:59:55.000Z</time>
      </trkpt>
      <trkpt lat="45.42431" lon="5.68688">
        <ele>755</ele>
        <time>2015-08-07T08:59:56.000Z</time>
      </trkpt>
      <trkpt lat="45.42434" lon="5.68689">
        <ele>755</ele>
        <time>2015-08-07T08:59:57.000Z</time>
      </trkpt>
      <trkpt lat="45.42436" lon="5.6869">
        <ele>756</ele>
        <time>2015-08-07T08:59:58.000Z</time>
      </trkpt>
      <trkpt lat="45.42439" lon="5.68692">
        <ele>756</ele>
        <time>2015-08-07T08:59:59.000Z</time>
      </trkpt>
      <trkpt lat="45.42442" lon="5.68693">
        <ele>756</ele>
        <time>2015-08-07T09:00:00.000Z</time>
      </trkpt>
      <trkpt lat="45.42444" lon="5.68695">
        <ele>756</ele>
        <time>2015-08-07T09:00:01.000Z</time>
      </trkpt>
      <trkpt lat="45.42447" lon="5.68697">
        <ele>756</ele>
        <time>2015-08-07T09:00:02.000Z</time>
      </trkpt>
      <trkpt lat="45.42449" lon="5.68699">
        <ele>756</ele>
        <time>2015-08-07T09:00:03.000Z</time>
      </trkpt>
      <trkpt lat="45.42452" lon="5.68701">
        <ele>756</ele>
        <time>2015-08-07T09:00:04.000Z</time>
      </trkpt>
      <trkpt lat="45.42455" lon="5.68704">
        <ele>757</ele>
        <time>2015-08-07T09:00:05.000Z</time>
      </trkpt>
      <trkpt lat="45.42457" lon="5.68706">
        <ele>757</ele>
        <time>2015-08-07T09:00:06.000Z</time>
      </trkpt>
      <trkpt lat="45.42459" lon="5.68708">
        <ele>757</ele>
        <time>2015-08-07T09:00:07.000Z</time>
      </trkpt>
      <trkpt lat="45.42461" lon="5.6871">
        <ele>757</ele>
        <time>2015-08-07T09:00:08.000Z</time>
      </trkpt>
      <trkpt lat="45.42465" lon="5.68713">
        <ele>757</ele>
        <time>2015-08-07T09:00:10.000Z</time>
      </trkpt>
      <trkpt lat="45.42467" lon="5.68715">
        <ele>757</ele>
        <time>2015-08-07T09:00:11.000Z</time>
      </trkpt>
      <trkpt lat="45.4247" lon="5.68716">
        <ele>757</ele>
        <time>2015-08-07T09:00:13.000Z</time>
      </trkpt>
      <trkpt lat="45.42472" lon="5.68717">
        <ele>757</ele>
        <time>2015-08-07T09:00:14.000Z</time>
      </trkpt>
      <trkpt lat="45.42474" lon="5.68719">
        <ele>757</ele>
        <time>2015-08-07T09:00:15.000Z</time>
      </trkpt>
      <trkpt lat="45.42476" lon="5.68721">
        <ele>757</ele>
        <time>2015-08-07T09:00:16.000Z</time>
      </trkpt>
      <trkpt lat="45.42477" lon="5.68724">
        <ele>757</ele>
        <time>2015-08-07T09:00:17.000Z</time>
      </trkpt>
      <trkpt lat="45.42479" lon="5.68727">
        <ele>758</ele>
        <time>2015-08-07T09:00:18.000Z</time>
      </trkpt>
      <trkpt lat="45.4248" lon="5.6873">
        <ele>758</ele>
        <time>2015-08-07T09:00:19.000Z</time>
      </trkpt>
      <trkpt lat="45.42482" lon="5.68732">
        <ele>758</ele>
        <time>2015-08-07T09:00:20.000Z</time>
      </trkpt>
      <trkpt lat="45.42484" lon="5.68735">
        <ele>758</ele>
        <time>2015-08-07T09:00:21.000Z</time>
      </trkpt>
      <trkpt lat="45.42485" lon="5.68737">
        <ele>758</ele>
        <time>2015-08-07T09:00:22.000Z</time>
      </trkpt>
      <trkpt lat="45.42487" lon="5.6874">
        <ele>758</ele>
        <time>2015-08-07T09:00:23.000Z</time>
      </trkpt>
      <trkpt lat="45.42489" lon="5.68744">
        <ele>758</ele>
        <time>2015-08-07T09:00:24.000Z</time>
      </trkpt>
      <trkpt lat="45.4249" lon="5.68747">
        <ele>758</ele>
        <time>2015-08-07T09:00:25.000Z</time>
      </trkpt>
      <trkpt lat="45.42491" lon="5.6875">
        <ele>758</ele>
        <time>2015-08-07T09:00:26.000Z</time>
      </trkpt>
      <trkpt lat="45.42493" lon="5.68753">
        <ele>758</ele>
        <time>2015-08-07T09:00:27.000Z</time>
      </trkpt>
      <trkpt lat="45.42495" lon="5.68756">
        <ele>758</ele>
        <time>2015-08-07T09:00:28.000Z</time>
      </trkpt>
      <trkpt lat="45.42496" lon="5.68759">
        <ele>758</ele>
        <time>2015-08-07T09:00:29.000Z</time>
      </trkpt>
      <trkpt lat="45.42497" lon="5.68762">
        <ele>758</ele>
        <time>2015-08-07T09:00:30.000Z</time>
      </trkpt>
      <trkpt lat="45.42499" lon="5.68766">
        <ele>758</ele>
        <time>2015-08-07T09:00:31.000Z</time>
      </trkpt>
      <trkpt lat="45.425" lon="5.68769">
        <ele>762</ele>
        <time>2015-08-07T09:00:32.000Z</time>
      </trkpt>
      <trkpt lat="45.42502" lon="5.68772">
        <ele>762</ele>
        <time>2015-08-07T09:00:33.000Z</time>
      </trkpt>
      <trkpt lat="45.42504" lon="5.68775">
        <ele>762</ele>
        <time>2015-08-07T09:00:34.000Z</time>
      </trkpt>
      <trkpt lat="45.42506" lon="5.68778">
        <ele>762</ele>
        <time>2015-08-07T09:00:35.000Z</time>
      </trkpt>
      <trkpt lat="45.42507" lon="5.68781">
        <ele>763</ele>
        <time>2015-08-07T09:00:36.000Z</time>
      </trkpt>
      <trkpt lat="45.42509" lon="5.68784">
        <ele>763</ele>
        <time>2015-08-07T09:00:37.000Z</time>
      </trkpt>
      <trkpt lat="45.42511" lon="5.68786">
        <ele>763</ele>
        <time>2015-08-07T09:00:38.000Z</time>
      </trkpt>
      <trkpt lat="45.42513" lon="5.68788">
        <ele>763</ele>
        <time>2015-08-07T09:00:39.000Z</time>
      </trkpt>
      <trkpt lat="45.42515" lon="5.6879">
        <ele>763</ele>
        <time>2015-08-07T09:00:40.000Z</time>
      </trkpt>
      <trkpt lat="45.42517" lon="5.68792">
        <ele>763</ele>
        <time>2015-08-07T09:00:41.000Z</time>
      </trkpt>
      <trkpt lat="45.42519" lon="5.68794">
        <ele>763</ele>
        <time>2015-08-07T09:00:42.000Z</time>
      </trkpt>
      <trkpt lat="45.42521" lon="5.68798">
        <ele>763</ele>
        <time>2015-08-07T09:00:43.000Z</time>
      </trkpt>
      <trkpt lat="45.42522" lon="5.68802">
        <ele>763</ele>
        <time>2015-08-07T09:00:44.000Z</time>
      </trkpt>
      <trkpt lat="45.42524" lon="5.68805">
        <ele>763</ele>
        <time>2015-08-07T09:00:45.000Z</time>
      </trkpt>
      <trkpt lat="45.42526" lon="5.68809">
        <ele>763</ele>
        <time>2015-08-07T09:00:46.000Z</time>
      </trkpt>
      <trkpt lat="45.42528" lon="5.68812">
        <ele>763</ele>
        <time>2015-08-07T09:00:47.000Z</time>
      </trkpt>
      <trkpt lat="45.4253" lon="5.68814">
        <ele>763</ele>
        <time>2015-08-07T09:00:48.000Z</time>
      </trkpt>
      <trkpt lat="45.42533" lon="5.68817">
        <ele>763</ele>
        <time>2015-08-07T09:00:49.000Z</time>
      </trkpt>
      <trkpt lat="45.42535" lon="5.6882">
        <ele>763</ele>
        <time>2015-08-07T09:00:50.000Z</time>
      </trkpt>
      <trkpt lat="45.42538" lon="5.68823">
        <ele>764</ele>
        <time>2015-08-07T09:00:51.000Z</time>
      </trkpt>
      <trkpt lat="45.42541" lon="5.68827">
        <ele>764</ele>
        <time>2015-08-07T09:00:52.000Z</time>
      </trkpt>
      <trkpt lat="45.42544" lon="5.6883">
        <ele>764</ele>
        <time>2015-08-07T09:00:53.000Z</time>
      </trkpt>
      <trkpt lat="45.42546" lon="5.68834">
        <ele>762</ele>
        <time>2015-08-07T09:00:54.000Z</time>
      </trkpt>
      <trkpt lat="45.42548" lon="5.68839">
        <ele>762</ele>
        <time>2015-08-07T09:00:55.000Z</time>
      </trkpt>
      <trkpt lat="45.4255" lon="5.68843">
        <ele>762</ele>
        <time>2015-08-07T09:00:56.000Z</time>
      </trkpt>
      <trkpt lat="45.42553" lon="5.68848">
        <ele>762</ele>
        <time>2015-08-07T09:00:57.000Z</time>
      </trkpt>
      <trkpt lat="45.42556" lon="5.68852">
        <ele>762</ele>
        <time>2015-08-07T09:00:58.000Z</time>
      </trkpt>
      <trkpt lat="45.42559" lon="5.68856">
        <ele>762</ele>
        <time>2015-08-07T09:00:59.000Z</time>
      </trkpt>
      <trkpt lat="45.42561" lon="5.6886">
        <ele>762</ele>
        <time>2015-08-07T09:01:00.000Z</time>
      </trkpt>
      <trkpt lat="45.42564" lon="5.68865">
        <ele>762</ele>
        <time>2015-08-07T09:01:01.000Z</time>
      </trkpt>
      <trkpt lat="45.42567" lon="5.68869">
        <ele>762</ele>
        <time>2015-08-07T09:01:02.000Z</time>
      </trkpt>
      <trkpt lat="45.42569" lon="5.68873">
        <ele>762</ele>
        <time>2015-08-07T09:01:03.000Z</time>
      </trkpt>
      <trkpt lat="45.42571" lon="5.68876">
        <ele>762</ele>
        <time>2015-08-07T09:01:04.000Z</time>
      </trkpt>
      <trkpt lat="45.42574" lon="5.6888">
        <ele>761</ele>
        <time>2015-08-07T09:01:05.000Z</time>
      </trkpt>
      <trkpt lat="45.42576" lon="5.68883">
        <ele>761</ele>
        <time>2015-08-07T09:01:06.000Z</time>
      </trkpt>
      <trkpt lat="45.42578" lon="5.68887">
        <ele>761</ele>
        <time>2015-08-07T09:01:07.000Z</time>
      </trkpt>
      <trkpt lat="45.4258" lon="5.68891">
        <ele>761</ele>
        <time>2015-08-07T09:01:08.000Z</time>
      </trkpt>
      <trkpt lat="45.42582" lon="5.68895">
        <ele>761</ele>
        <time>2015-08-07T09:01:09.000Z</time>
      </trkpt>
      <trkpt lat="45.42583" lon="5.68899">
        <ele>763</ele>
        <time>2015-08-07T09:01:10.000Z</time>
      </trkpt>
      <trkpt lat="45.42585" lon="5.68903">
        <ele>762</ele>
        <time>2015-08-07T09:01:11.000Z</time>
      </trkpt>
      <trkpt lat="45.42587" lon="5.68906">
        <ele>762</ele>
        <time>2015-08-07T09:01:12.000Z</time>
      </trkpt>
      <trkpt lat="45.42589" lon="5.6891">
        <ele>762</ele>
        <time>2015-08-07T09:01:13.000Z</time>
      </trkpt>
      <trkpt lat="45.42591" lon="5.68913">
        <ele>761</ele>
        <time>2015-08-07T09:01:14.000Z</time>
      </trkpt>
      <trkpt lat="45.42592" lon="5.68917">
        <ele>761</ele>
        <time>2015-08-07T09:01:15.000Z</time>
      </trkpt>
      <trkpt lat="45.42594" lon="5.6892">
        <ele>761</ele>
        <time>2015-08-07T09:01:16.000Z</time>
      </trkpt>
      <trkpt lat="45.42596" lon="5.68924">
        <ele>761</ele>
        <time>2015-08-07T09:01:17.000Z</time>
      </trkpt>
      <trkpt lat="45.42598" lon="5.68928">
        <ele>761</ele>
        <time>2015-08-07T09:01:18.000Z</time>
      </trkpt>
      <trkpt lat="45.42601" lon="5.68932">
        <ele>761</ele>
        <time>2015-08-07T09:01:19.000Z</time>
      </trkpt>
      <trkpt lat="45.42603" lon="5.68935">
        <ele>761</ele>
        <time>2015-08-07T09:01:20.000Z</time>
      </trkpt>
      <trkpt lat="45.42606" lon="5.68938">
        <ele>761</ele>
        <time>2015-08-07T09:01:21.000Z</time>
      </trkpt>
      <trkpt lat="45.42608" lon="5.68941">
        <ele>761</ele>
        <time>2015-08-07T09:01:22.000Z</time>
      </trkpt>
      <trkpt lat="45.42611" lon="5.68945">
        <ele>761</ele>
        <time>2015-08-07T09:01:23.000Z</time>
      </trkpt>
      <trkpt lat="45.42613" lon="5.68948">
        <ele>761</ele>
        <time>2015-08-07T09:01:24.000Z</time>
      </trkpt>
      <trkpt lat="45.42616" lon="5.68952">
        <ele>761</ele>
        <time>2015-08-07T09:01:25.000Z</time>
      </trkpt>
      <trkpt lat="45.42618" lon="5.68955">
        <ele>761</ele>
        <time>2015-08-07T09:01:26.000Z</time>
      </trkpt>
      <trkpt lat="45.42621" lon="5.68958">
        <ele>761</ele>
        <time>2015-08-07T09:01:27.000Z</time>
      </trkpt>
      <trkpt lat="45.42623" lon="5.68962">
        <ele>761</ele>
        <time>2015-08-07T09:01:28.000Z</time>
      </trkpt>
      <trkpt lat="45.42626" lon="5.68965">
        <ele>761</ele>
        <time>2015-08-07T09:01:29.000Z</time>
      </trkpt>
      <trkpt lat="45.42628" lon="5.68969">
        <ele>761</ele>
        <time>2015-08-07T09:01:30.000Z</time>
      </trkpt>
      <trkpt lat="45.4263" lon="5.68971">
        <ele>762</ele>
        <time>2015-08-07T09:01:31.000Z</time>
      </trkpt>
      <trkpt lat="45.42632" lon="5.68975">
        <ele>762</ele>
        <time>2015-08-07T09:01:32.000Z</time>
      </trkpt>
      <trkpt lat="45.42634" lon="5.68978">
        <ele>762</ele>
        <time>2015-08-07T09:01:33.000Z</time>
      </trkpt>
      <trkpt lat="45.42635" lon="5.68982">
        <ele>762</ele>
        <time>2015-08-07T09:01:34.000Z</time>
      </trkpt>
      <trkpt lat="45.42637" lon="5.68986">
        <ele>762</ele>
        <time>2015-08-07T09:01:35.000Z</time>
      </trkpt>
      <trkpt lat="45.42638" lon="5.68989">
        <ele>762</ele>
        <time>2015-08-07T09:01:36.000Z</time>
      </trkpt>
      <trkpt lat="45.4264" lon="5.68992">
        <ele>762</ele>
        <time>2015-08-07T09:01:37.000Z</time>
      </trkpt>
      <trkpt lat="45.42641" lon="5.68994">
        <ele>762</ele>
        <time>2015-08-07T09:01:38.000Z</time>
      </trkpt>
      <trkpt lat="45.42643" lon="5.68997">
        <ele>762</ele>
        <time>2015-08-07T09:01:39.000Z</time>
      </trkpt>
      <trkpt lat="45.42645" lon="5.68999">
        <ele>762</ele>
        <time>2015-08-07T09:01:40.000Z</time>
      </trkpt>
      <trkpt lat="45.42648" lon="5.69001">
        <ele>761</ele>
        <time>2015-08-07T09:01:41.000Z</time>
      </trkpt>
      <trkpt lat="45.4265" lon="5.69002">
        <ele>761</ele>
        <time>2015-08-07T09:01:42.000Z</time>
      </trkpt>
      <trkpt lat="45.42654" lon="5.69001">
        <ele>762</ele>
        <time>2015-08-07T09:01:44.000Z</time>
      </trkpt>
      <trkpt lat="45.42656" lon="5.69001">
        <ele>762</ele>
        <time>2015-08-07T09:01:45.000Z</time>
      </trkpt>
      <trkpt lat="45.42658" lon="5.69">
        <ele>762</ele>
        <time>2015-08-07T09:01:46.000Z</time>
      </trkpt>
      <trkpt lat="45.42661" lon="5.69">
        <ele>762</ele>
        <time>2015-08-07T09:01:47.000Z</time>
      </trkpt>
      <trkpt lat="45.42664" lon="5.69001">
        <ele>762</ele>
        <time>2015-08-07T09:01:48.000Z</time>
      </trkpt>
      <trkpt lat="45.42667" lon="5.69002">
        <ele>762</ele>
        <time>2015-08-07T09:01:49.000Z</time>
      </trkpt>
      <trkpt lat="45.42669" lon="5.69004">
        <ele>763</ele>
        <time>2015-08-07T09:01:50.000Z</time>
      </trkpt>
      <trkpt lat="45.42672" lon="5.69007">
        <ele>763</ele>
        <time>2015-08-07T09:01:51.000Z</time>
      </trkpt>
      <trkpt lat="45.42674" lon="5.6901">
        <ele>763</ele>
        <time>2015-08-07T09:01:52.000Z</time>
      </trkpt>
      <trkpt lat="45.42676" lon="5.69013">
        <ele>764</ele>
        <time>2015-08-07T09:01:53.000Z</time>
      </trkpt>
      <trkpt lat="45.42678" lon="5.69016">
        <ele>764</ele>
        <time>2015-08-07T09:01:54.000Z</time>
      </trkpt>
      <trkpt lat="45.42681" lon="5.69019">
        <ele>764</ele>
        <time>2015-08-07T09:01:55.000Z</time>
      </trkpt>
      <trkpt lat="45.42688" lon="5.69022">
        <ele>765</ele>
        <time>2015-08-07T09:01:56.000Z</time>
      </trkpt>
      <trkpt lat="45.42692" lon="5.69024">
        <ele>765</ele>
        <time>2015-08-07T09:01:57.000Z</time>
      </trkpt>
      <trkpt lat="45.42693" lon="5.69025">
        <ele>765</ele>
        <time>2015-08-07T09:01:58.000Z</time>
      </trkpt>
      <trkpt lat="45.42695" lon="5.69027">
        <ele>765</ele>
        <time>2015-08-07T09:01:59.000Z</time>
      </trkpt>
      <trkpt lat="45.42696" lon="5.69032">
        <ele>765</ele>
        <time>2015-08-07T09:02:00.000Z</time>
      </trkpt>
      <trkpt lat="45.42698" lon="5.69036">
        <ele>765</ele>
        <time>2015-08-07T09:02:01.000Z</time>
      </trkpt>
      <trkpt lat="45.42699" lon="5.69039">
        <ele>765</ele>
        <time>2015-08-07T09:02:02.000Z</time>
      </trkpt>
      <trkpt lat="45.42698" lon="5.69042">
        <ele>765</ele>
        <time>2015-08-07T09:02:03.000Z</time>
      </trkpt>
      <trkpt lat="45.42701" lon="5.69044">
        <ele>765</ele>
        <time>2015-08-07T09:02:04.000Z</time>
      </trkpt>
      <trkpt lat="45.42704" lon="5.69047">
        <ele>765</ele>
        <time>2015-08-07T09:02:05.000Z</time>
      </trkpt>
      <trkpt lat="45.42705" lon="5.6905">
        <ele>765</ele>
        <time>2015-08-07T09:02:06.000Z</time>
      </trkpt>
      <trkpt lat="45.42707" lon="5.69054">
        <ele>765</ele>
        <time>2015-08-07T09:02:08.000Z</time>
      </trkpt>
      <trkpt lat="45.42709" lon="5.69057">
        <ele>765</ele>
        <time>2015-08-07T09:02:09.000Z</time>
      </trkpt>
      <trkpt lat="45.4271" lon="5.6906">
        <ele>765</ele>
        <time>2015-08-07T09:02:10.000Z</time>
      </trkpt>
      <trkpt lat="45.42711" lon="5.69063">
        <ele>765</ele>
        <time>2015-08-07T09:02:11.000Z</time>
      </trkpt>
      <trkpt lat="45.42712" lon="5.69067">
        <ele>765</ele>
        <time>2015-08-07T09:02:12.000Z</time>
      </trkpt>
      <trkpt lat="45.42713" lon="5.69071">
        <ele>765</ele>
        <time>2015-08-07T09:02:13.000Z</time>
      </trkpt>
      <trkpt lat="45.42713" lon="5.69074">
        <ele>765</ele>
        <time>2015-08-07T09:02:14.000Z</time>
      </trkpt>
      <trkpt lat="45.42713" lon="5.69078">
        <ele>765</ele>
        <time>2015-08-07T09:02:15.000Z</time>
      </trkpt>
      <trkpt lat="45.42717" lon="5.69079">
        <ele>765</ele>
        <time>2015-08-07T09:02:29.000Z</time>
      </trkpt>
      <trkpt lat="45.42719" lon="5.69079">
        <ele>765</ele>
        <time>2015-08-07T09:02:30.000Z</time>
      </trkpt>
      <trkpt lat="45.42722" lon="5.69082">
        <ele>765</ele>
        <time>2015-08-07T09:02:33.000Z</time>
      </trkpt>
      <trkpt lat="45.42723" lon="5.69083">
        <ele>765</ele>
        <time>2015-08-07T09:02:34.000Z</time>
      </trkpt>
      <trkpt lat="45.42727" lon="5.69085">
        <ele>765</ele>
        <time>2015-08-07T09:02:37.000Z</time>
      </trkpt>
      <trkpt lat="45.42728" lon="5.69087">
        <ele>765</ele>
        <time>2015-08-07T09:02:38.000Z</time>
      </trkpt>
      <trkpt lat="45.42731" lon="5.69089">
        <ele>765</ele>
        <time>2015-08-07T09:02:40.000Z</time>
      </trkpt>
      <trkpt lat="45.42733" lon="5.6909">
        <ele>765</ele>
        <time>2015-08-07T09:02:41.000Z</time>
      </trkpt>
      <trkpt lat="45.42737" lon="5.6909">
        <ele>765</ele>
        <time>2015-08-07T09:02:44.000Z</time>
      </trkpt>
      <trkpt lat="45.42738" lon="5.69091">
        <ele>765</ele>
        <time>2015-08-07T09:02:45.000Z</time>
      </trkpt>
      <trkpt lat="45.42742" lon="5.69089">
        <ele>765</ele>
        <time>2015-08-07T09:02:48.000Z</time>
      </trkpt>
      <trkpt lat="45.42744" lon="5.69088">
        <ele>765</ele>
        <time>2015-08-07T09:02:49.000Z</time>
      </trkpt>
      <trkpt lat="45.42747" lon="5.69085">
        <ele>766</ele>
        <time>2015-08-07T09:02:51.000Z</time>
      </trkpt>
      <trkpt lat="45.42749" lon="5.69083">
        <ele>766</ele>
        <time>2015-08-07T09:02:52.000Z</time>
      </trkpt>
      <trkpt lat="45.42751" lon="5.69083">
        <ele>766</ele>
        <time>2015-08-07T09:02:53.000Z</time>
      </trkpt>
      <trkpt lat="45.42754" lon="5.69082">
        <ele>767</ele>
        <time>2015-08-07T09:02:54.000Z</time>
      </trkpt>
      <trkpt lat="45.42756" lon="5.69081">
        <ele>768</ele>
        <time>2015-08-07T09:02:55.000Z</time>
      </trkpt>
      <trkpt lat="45.42759" lon="5.6908">
        <ele>768</ele>
        <time>2015-08-07T09:02:56.000Z</time>
      </trkpt>
      <trkpt lat="45.42761" lon="5.69079">
        <ele>769</ele>
        <time>2015-08-07T09:02:57.000Z</time>
      </trkpt>
      <trkpt lat="45.42763" lon="5.69077">
        <ele>769</ele>
        <time>2015-08-07T09:02:58.000Z</time>
      </trkpt>
      <trkpt lat="45.42765" lon="5.69075">
        <ele>770</ele>
        <time>2015-08-07T09:02:59.000Z</time>
      </trkpt>
      <trkpt lat="45.42767" lon="5.69072">
        <ele>770</ele>
        <time>2015-08-07T09:03:00.000Z</time>
      </trkpt>
      <trkpt lat="45.42769" lon="5.69069">
        <ele>771</ele>
        <time>2015-08-07T09:03:01.000Z</time>
      </trkpt>
      <trkpt lat="45.42772" lon="5.69067">
        <ele>771</ele>
        <time>2015-08-07T09:03:02.000Z</time>
      </trkpt>
      <trkpt lat="45.42774" lon="5.69065">
        <ele>772</ele>
        <time>2015-08-07T09:03:03.000Z</time>
      </trkpt>
      <trkpt lat="45.42776" lon="5.69063">
        <ele>772</ele>
        <time>2015-08-07T09:03:04.000Z</time>
      </trkpt>
      <trkpt lat="45.42778" lon="5.69062">
        <ele>772</ele>
        <time>2015-08-07T09:03:05.000Z</time>
      </trkpt>
      <trkpt lat="45.42781" lon="5.6906">
        <ele>772</ele>
        <time>2015-08-07T09:03:06.000Z</time>
      </trkpt>
      <trkpt lat="45.42783" lon="5.69059">
        <ele>773</ele>
        <time>2015-08-07T09:03:07.000Z</time>
      </trkpt>
      <trkpt lat="45.42785" lon="5.69057">
        <ele>773</ele>
        <time>2015-08-07T09:03:08.000Z</time>
      </trkpt>
      <trkpt lat="45.42788" lon="5.69052">
        <ele>773</ele>
        <time>2015-08-07T09:03:10.000Z</time>
      </trkpt>
      <trkpt lat="45.42789" lon="5.6905">
        <ele>773</ele>
        <time>2015-08-07T09:03:11.000Z</time>
      </trkpt>
      <trkpt lat="45.42791" lon="5.69046">
        <ele>774</ele>
        <time>2015-08-07T09:03:13.000Z</time>
      </trkpt>
      <trkpt lat="45.42792" lon="5.69044">
        <ele>774</ele>
        <time>2015-08-07T09:03:14.000Z</time>
      </trkpt>
      <trkpt lat="45.42795" lon="5.6904">
        <ele>774</ele>
        <time>2015-08-07T09:03:17.000Z</time>
      </trkpt>
      <trkpt lat="45.42796" lon="5.69039">
        <ele>774</ele>
        <time>2015-08-07T09:03:18.000Z</time>
      </trkpt>
      <trkpt lat="45.428" lon="5.69036">
        <ele>775</ele>
        <time>2015-08-07T09:03:21.000Z</time>
      </trkpt>
      <trkpt lat="45.42801" lon="5.69035">
        <ele>775</ele>
        <time>2015-08-07T09:03:22.000Z</time>
      </trkpt>
      <trkpt lat="45.42804" lon="5.69033">
        <ele>775</ele>
        <time>2015-08-07T09:03:24.000Z</time>
      </trkpt>
      <trkpt lat="45.42805" lon="5.69032">
        <ele>775</ele>
        <time>2015-08-07T09:03:25.000Z</time>
      </trkpt>
      <trkpt lat="45.42809" lon="5.69032">
        <ele>776</ele>
        <time>2015-08-07T09:03:28.000Z</time>
      </trkpt>
      <trkpt lat="45.4281" lon="5.69032">
        <ele>776</ele>
        <time>2015-08-07T09:03:29.000Z</time>
      </trkpt>
      <trkpt lat="45.42815" lon="5.69033">
        <ele>776</ele>
        <time>2015-08-07T09:03:33.000Z</time>
      </trkpt>
      <trkpt lat="45.42816" lon="5.69033">
        <ele>776</ele>
        <time>2015-08-07T09:03:34.000Z</time>
      </trkpt>
      <trkpt lat="45.42819" lon="5.69034">
        <ele>776</ele>
        <time>2015-08-07T09:03:36.000Z</time>
      </trkpt>
      <trkpt lat="45.42821" lon="5.69035">
        <ele>776</ele>
        <time>2015-08-07T09:03:37.000Z</time>
      </trkpt>
      <trkpt lat="45.42825" lon="5.69038">
        <ele>776</ele>
        <time>2015-08-07T09:03:40.000Z</time>
      </trkpt>
      <trkpt lat="45.42826" lon="5.69038">
        <ele>776</ele>
        <time>2015-08-07T09:03:41.000Z</time>
      </trkpt>
      <trkpt lat="45.4283" lon="5.6904">
        <ele>776</ele>
        <time>2015-08-07T09:03:44.000Z</time>
      </trkpt>
      <trkpt lat="45.42831" lon="5.69041">
        <ele>776</ele>
        <time>2015-08-07T09:03:45.000Z</time>
      </trkpt>
      <trkpt lat="45.42834" lon="5.69045">
        <ele>781</ele>
        <time>2015-08-07T09:03:49.000Z</time>
      </trkpt>
      <trkpt lat="45.42836" lon="5.69046">
        <ele>781</ele>
        <time>2015-08-07T09:03:50.000Z</time>
      </trkpt>
      <trkpt lat="45.4284" lon="5.69047">
        <ele>781</ele>
        <time>2015-08-07T09:03:53.000Z</time>
      </trkpt>
      <trkpt lat="45.42841" lon="5.69048">
        <ele>781</ele>
        <time>2015-08-07T09:03:54.000Z</time>
      </trkpt>
      <trkpt lat="45.42844" lon="5.6905">
        <ele>781</ele>
        <time>2015-08-07T09:03:56.000Z</time>
      </trkpt>
      <trkpt lat="45.42846" lon="5.69051">
        <ele>781</ele>
        <time>2015-08-07T09:03:57.000Z</time>
      </trkpt>
      <trkpt lat="45.42849" lon="5.69055">
        <ele>781</ele>
        <time>2015-08-07T09:03:59.000Z</time>
      </trkpt>
      <trkpt lat="45.4285" lon="5.69057">
        <ele>781</ele>
        <time>2015-08-07T09:04:00.000Z</time>
      </trkpt>
      <trkpt lat="45.42851" lon="5.69061">
        <ele>780</ele>
        <time>2015-08-07T09:04:02.000Z</time>
      </trkpt>
      <trkpt lat="45.42853" lon="5.69062">
        <ele>780</ele>
        <time>2015-08-07T09:04:03.000Z</time>
      </trkpt>
      <trkpt lat="45.42857" lon="5.69062">
        <ele>781</ele>
        <time>2015-08-07T09:04:05.000Z</time>
      </trkpt>
      <trkpt lat="45.42859" lon="5.69062">
        <ele>781</ele>
        <time>2015-08-07T09:04:06.000Z</time>
      </trkpt>
      <trkpt lat="45.42862" lon="5.69061">
        <ele>781</ele>
        <time>2015-08-07T09:04:08.000Z</time>
      </trkpt>
      <trkpt lat="45.42864" lon="5.69061">
        <ele>781</ele>
        <time>2015-08-07T09:04:09.000Z</time>
      </trkpt>
      <trkpt lat="45.42868" lon="5.69061">
        <ele>782</ele>
        <time>2015-08-07T09:04:11.000Z</time>
      </trkpt>
      <trkpt lat="45.4287" lon="5.6906">
        <ele>782</ele>
        <time>2015-08-07T09:04:12.000Z</time>
      </trkpt>
      <trkpt lat="45.42874" lon="5.69059">
        <ele>782</ele>
        <time>2015-08-07T09:04:15.000Z</time>
      </trkpt>
      <trkpt lat="45.42875" lon="5.69059">
        <ele>782</ele>
        <time>2015-08-07T09:04:16.000Z</time>
      </trkpt>
      <trkpt lat="45.42878" lon="5.69057">
        <ele>782</ele>
        <time>2015-08-07T09:04:18.000Z</time>
      </trkpt>
      <trkpt lat="45.4288" lon="5.69056">
        <ele>782</ele>
        <time>2015-08-07T09:04:19.000Z</time>
      </trkpt>
      <trkpt lat="45.42883" lon="5.69052">
        <ele>783</ele>
        <time>2015-08-07T09:04:21.000Z</time>
      </trkpt>
      <trkpt lat="45.42885" lon="5.6905">
        <ele>783</ele>
        <time>2015-08-07T09:04:22.000Z</time>
      </trkpt>
      <trkpt lat="45.42888" lon="5.69047">
        <ele>783</ele>
        <time>2015-08-07T09:04:24.000Z</time>
      </trkpt>
      <trkpt lat="45.42889" lon="5.69047">
        <ele>783</ele>
        <time>2015-08-07T09:04:25.000Z</time>
      </trkpt>
      <trkpt lat="45.42893" lon="5.69046">
        <ele>783</ele>
        <time>2015-08-07T09:04:28.000Z</time>
      </trkpt>
      <trkpt lat="45.42894" lon="5.69045">
        <ele>783</ele>
        <time>2015-08-07T09:04:29.000Z</time>
      </trkpt>
      <trkpt lat="45.42898" lon="5.69043">
        <ele>783</ele>
        <time>2015-08-07T09:04:32.000Z</time>
      </trkpt>
      <trkpt lat="45.42899" lon="5.69042">
        <ele>783</ele>
        <time>2015-08-07T09:04:33.000Z</time>
      </trkpt>
      <trkpt lat="45.42902" lon="5.69041">
        <ele>784</ele>
        <time>2015-08-07T09:04:35.000Z</time>
      </trkpt>
      <trkpt lat="45.42904" lon="5.6904">
        <ele>784</ele>
        <time>2015-08-07T09:04:36.000Z</time>
      </trkpt>
      <trkpt lat="45.42908" lon="5.69038">
        <ele>784</ele>
        <time>2015-08-07T09:04:38.000Z</time>
      </trkpt>
      <trkpt lat="45.42909" lon="5.69038">
        <ele>784</ele>
        <time>2015-08-07T09:04:39.000Z</time>
      </trkpt>
      <trkpt lat="45.42912" lon="5.69036">
        <ele>784</ele>
        <time>2015-08-07T09:04:41.000Z</time>
      </trkpt>
      <trkpt lat="45.42914" lon="5.69036">
        <ele>784</ele>
        <time>2015-08-07T09:04:42.000Z</time>
      </trkpt>
      <trkpt lat="45.42917" lon="5.69034">
        <ele>790</ele>
        <time>2015-08-07T09:04:44.000Z</time>
      </trkpt>
      <trkpt lat="45.42919" lon="5.69034">
        <ele>790</ele>
        <time>2015-08-07T09:04:45.000Z</time>
      </trkpt>
      <trkpt lat="45.42922" lon="5.69032">
        <ele>790</ele>
        <time>2015-08-07T09:04:47.000Z</time>
      </trkpt>
      <trkpt lat="45.42924" lon="5.69031">
        <ele>790</ele>
        <time>2015-08-07T09:04:48.000Z</time>
      </trkpt>
      <trkpt lat="45.42926" lon="5.69028">
        <ele>790</ele>
        <time>2015-08-07T09:04:50.000Z</time>
      </trkpt>
      <trkpt lat="45.42927" lon="5.69026">
        <ele>790</ele>
        <time>2015-08-07T09:04:51.000Z</time>
      </trkpt>
      <trkpt lat="45.42929" lon="5.69022">
        <ele>790</ele>
        <time>2015-08-07T09:04:53.000Z</time>
      </trkpt>
      <trkpt lat="45.4293" lon="5.69021">
        <ele>790</ele>
        <time>2015-08-07T09:04:54.000Z</time>
      </trkpt>
      <trkpt lat="45.42932" lon="5.69017">
        <ele>790</ele>
        <time>2015-08-07T09:04:56.000Z</time>
      </trkpt>
      <trkpt lat="45.42933" lon="5.69015">
        <ele>790</ele>
        <time>2015-08-07T09:04:57.000Z</time>
      </trkpt>
      <trkpt lat="45.42934" lon="5.69011">
        <ele>790</ele>
        <time>2015-08-07T09:04:59.000Z</time>
      </trkpt>
      <trkpt lat="45.42935" lon="5.69009">
        <ele>790</ele>
        <time>2015-08-07T09:05:00.000Z</time>
      </trkpt>
      <trkpt lat="45.42937" lon="5.69004">
        <ele>790</ele>
        <time>2015-08-07T09:05:03.000Z</time>
      </trkpt>
      <trkpt lat="45.42937" lon="5.69002">
        <ele>791</ele>
        <time>2015-08-07T09:05:04.000Z</time>
      </trkpt>
      <trkpt lat="45.42939" lon="5.68997">
        <ele>793</ele>
        <time>2015-08-07T09:05:07.000Z</time>
      </trkpt>
      <trkpt lat="45.42938" lon="5.68995">
        <ele>793</ele>
        <time>2015-08-07T09:05:08.000Z</time>
      </trkpt>
      <trkpt lat="45.42939" lon="5.68991">
        <ele>793</ele>
        <time>2015-08-07T09:05:10.000Z</time>
      </trkpt>
      <trkpt lat="45.42939" lon="5.68988">
        <ele>793</ele>
        <time>2015-08-07T09:05:11.000Z</time>
      </trkpt>
      <trkpt lat="45.4294" lon="5.68985">
        <ele>794</ele>
        <time>2015-08-07T09:05:12.000Z</time>
      </trkpt>
      <trkpt lat="45.42941" lon="5.68982">
        <ele>794</ele>
        <time>2015-08-07T09:05:13.000Z</time>
      </trkpt>
      <trkpt lat="45.42943" lon="5.68977">
        <ele>795</ele>
        <time>2015-08-07T09:05:15.000Z</time>
      </trkpt>
      <trkpt lat="45.42944" lon="5.68974">
        <ele>795</ele>
        <time>2015-08-07T09:05:16.000Z</time>
      </trkpt>
      <trkpt lat="45.42947" lon="5.6897">
        <ele>795</ele>
        <time>2015-08-07T09:05:18.000Z</time>
      </trkpt>
      <trkpt lat="45.42948" lon="5.68968">
        <ele>796</ele>
        <time>2015-08-07T09:05:19.000Z</time>
      </trkpt>
      <trkpt lat="45.42951" lon="5.68965">
        <ele>796</ele>
        <time>2015-08-07T09:05:22.000Z</time>
      </trkpt>
      <trkpt lat="45.42952" lon="5.68964">
        <ele>796</ele>
        <time>2015-08-07T09:05:23.000Z</time>
      </trkpt>
      <trkpt lat="45.42954" lon="5.68961">
        <ele>796</ele>
        <time>2015-08-07T09:05:25.000Z</time>
      </trkpt>
      <trkpt lat="45.42955" lon="5.6896">
        <ele>796</ele>
        <time>2015-08-07T09:05:26.000Z</time>
      </trkpt>
      <trkpt lat="45.42958" lon="5.68955">
        <ele>797</ele>
        <time>2015-08-07T09:05:29.000Z</time>
      </trkpt>
      <trkpt lat="45.42959" lon="5.68953">
        <ele>797</ele>
        <time>2015-08-07T09:05:30.000Z</time>
      </trkpt>
      <trkpt lat="45.42962" lon="5.68949">
        <ele>797</ele>
        <time>2015-08-07T09:05:32.000Z</time>
      </trkpt>
      <trkpt lat="45.42963" lon="5.68948">
        <ele>798</ele>
        <time>2015-08-07T09:05:33.000Z</time>
      </trkpt>
      <trkpt lat="45.42966" lon="5.68944">
        <ele>798</ele>
        <time>2015-08-07T09:05:36.000Z</time>
      </trkpt>
      <trkpt lat="45.42967" lon="5.68943">
        <ele>798</ele>
        <time>2015-08-07T09:05:37.000Z</time>
      </trkpt>
      <trkpt lat="45.42971" lon="5.68942">
        <ele>798</ele>
        <time>2015-08-07T09:05:44.000Z</time>
      </trkpt>
      <trkpt lat="45.42972" lon="5.68942">
        <ele>799</ele>
        <time>2015-08-07T09:05:45.000Z</time>
      </trkpt>
      <trkpt lat="45.42976" lon="5.68943">
        <ele>799</ele>
        <time>2015-08-07T09:05:48.000Z</time>
      </trkpt>
      <trkpt lat="45.42977" lon="5.68944">
        <ele>799</ele>
        <time>2015-08-07T09:05:49.022Z</time>
      </trkpt>
      <trkpt lat="45.42981" lon="5.68944">
        <ele>799</ele>
        <time>2015-08-07T09:05:52.000Z</time>
      </trkpt>
      <trkpt lat="45.42982" lon="5.68944">
        <ele>799</ele>
        <time>2015-08-07T09:05:53.000Z</time>
      </trkpt>
      <trkpt lat="45.42986" lon="5.68946">
        <ele>799</ele>
        <time>2015-08-07T09:05:56.000Z</time>
      </trkpt>
      <trkpt lat="45.42987" lon="5.68947">
        <ele>799</ele>
        <time>2015-08-07T09:05:57.000Z</time>
      </trkpt>
      <trkpt lat="45.4299" lon="5.68947">
        <ele>800</ele>
        <time>2015-08-07T09:06:00.000Z</time>
      </trkpt>
      <trkpt lat="45.42992" lon="5.68947">
        <ele>800</ele>
        <time>2015-08-07T09:06:01.000Z</time>
      </trkpt>
      <trkpt lat="45.42994" lon="5.68948">
        <ele>800</ele>
        <time>2015-08-07T09:06:03.000Z</time>
      </trkpt>
      <trkpt lat="45.42996" lon="5.68949">
        <ele>800</ele>
        <time>2015-08-07T09:06:04.000Z</time>
      </trkpt>
      <trkpt lat="45.42999" lon="5.6895">
        <ele>800</ele>
        <time>2015-08-07T09:06:06.000Z</time>
      </trkpt>
      <trkpt lat="45.43" lon="5.68949">
        <ele>805</ele>
        <time>2015-08-07T09:06:07.000Z</time>
      </trkpt>
      <trkpt lat="45.43004" lon="5.68948">
        <ele>805</ele>
        <time>2015-08-07T09:06:10.000Z</time>
      </trkpt>
      <trkpt lat="45.43005" lon="5.68949">
        <ele>805</ele>
        <time>2015-08-07T09:06:11.000Z</time>
      </trkpt>
      <trkpt lat="45.43009" lon="5.68952">
        <ele>805</ele>
        <time>2015-08-07T09:06:15.000Z</time>
      </trkpt>
      <trkpt lat="45.43009" lon="5.68953">
        <ele>805</ele>
        <time>2015-08-07T09:06:16.000Z</time>
      </trkpt>
      <trkpt lat="45.43013" lon="5.68954">
        <ele>805</ele>
        <time>2015-08-07T09:06:20.000Z</time>
      </trkpt>
      <trkpt lat="45.43015" lon="5.68954">
        <ele>805</ele>
        <time>2015-08-07T09:06:21.000Z</time>
      </trkpt>
      <trkpt lat="45.43018" lon="5.68955">
        <ele>805</ele>
        <time>2015-08-07T09:06:23.000Z</time>
      </trkpt>
      <trkpt lat="45.4302" lon="5.68955">
        <ele>805</ele>
        <time>2015-08-07T09:06:24.000Z</time>
      </trkpt>
      <trkpt lat="45.43023" lon="5.68956">
        <ele>805</ele>
        <time>2015-08-07T09:06:26.000Z</time>
      </trkpt>
      <trkpt lat="45.43024" lon="5.68958">
        <ele>805</ele>
        <time>2015-08-07T09:06:27.000Z</time>
      </trkpt>
      <trkpt lat="45.43026" lon="5.68962">
        <ele>805</ele>
        <time>2015-08-07T09:06:29.000Z</time>
      </trkpt>
      <trkpt lat="45.43026" lon="5.68965">
        <ele>805</ele>
        <time>2015-08-07T09:06:30.000Z</time>
      </trkpt>
      <trkpt lat="45.43028" lon="5.6897">
        <ele>805</ele>
        <time>2015-08-07T09:06:32.000Z</time>
      </trkpt>
      <trkpt lat="45.4303" lon="5.68971">
        <ele>805</ele>
        <time>2015-08-07T09:06:33.000Z</time>
      </trkpt>
      <trkpt lat="45.43033" lon="5.68973">
        <ele>805</ele>
        <time>2015-08-07T09:06:35.000Z</time>
      </trkpt>
      <trkpt lat="45.43035" lon="5.68973">
        <ele>805</ele>
        <time>2015-08-07T09:06:36.000Z</time>
      </trkpt>
      <trkpt lat="45.43038" lon="5.68973">
        <ele>805</ele>
        <time>2015-08-07T09:06:38.000Z</time>
      </trkpt>
      <trkpt lat="45.43039" lon="5.68973">
        <ele>805</ele>
        <time>2015-08-07T09:06:39.000Z</time>
      </trkpt>
      <trkpt lat="45.43044" lon="5.68974">
        <ele>805</ele>
        <time>2015-08-07T09:06:41.000Z</time>
      </trkpt>
      <trkpt lat="45.43046" lon="5.68974">
        <ele>805</ele>
        <time>2015-08-07T09:06:42.000Z</time>
      </trkpt>
      <trkpt lat="45.43049" lon="5.68975">
        <ele>806</ele>
        <time>2015-08-07T09:06:43.000Z</time>
      </trkpt>
      <trkpt lat="45.43053" lon="5.68976">
        <ele>806</ele>
        <time>2015-08-07T09:06:44.000Z</time>
      </trkpt>
      <trkpt lat="45.43056" lon="5.68977">
        <ele>806</ele>
        <time>2015-08-07T09:06:45.000Z</time>
      </trkpt>
      <trkpt lat="45.43059" lon="5.68979">
        <ele>806</ele>
        <time>2015-08-07T09:06:46.000Z</time>
      </trkpt>
      <trkpt lat="45.43063" lon="5.68982">
        <ele>806</ele>
        <time>2015-08-07T09:06:47.000Z</time>
      </trkpt>
      <trkpt lat="45.43067" lon="5.68984">
        <ele>806</ele>
        <time>2015-08-07T09:06:48.000Z</time>
      </trkpt>
      <trkpt lat="45.4307" lon="5.68987">
        <ele>806</ele>
        <time>2015-08-07T09:06:49.000Z</time>
      </trkpt>
      <trkpt lat="45.43073" lon="5.68988">
        <ele>806</ele>
        <time>2015-08-07T09:06:50.000Z</time>
      </trkpt>
      <trkpt lat="45.43076" lon="5.68989">
        <ele>806</ele>
        <time>2015-08-07T09:06:51.000Z</time>
      </trkpt>
      <trkpt lat="45.4308" lon="5.6899">
        <ele>806</ele>
        <time>2015-08-07T09:06:52.000Z</time>
      </trkpt>
      <trkpt lat="45.43083" lon="5.68989">
        <ele>807</ele>
        <time>2015-08-07T09:06:53.000Z</time>
      </trkpt>
      <trkpt lat="45.43087" lon="5.68989">
        <ele>807</ele>
        <time>2015-08-07T09:06:54.000Z</time>
      </trkpt>
      <trkpt lat="45.43091" lon="5.68989">
        <ele>807</ele>
        <time>2015-08-07T09:06:55.000Z</time>
      </trkpt>
      <trkpt lat="45.43094" lon="5.68988">
        <ele>807</ele>
        <time>2015-08-07T09:06:56.000Z</time>
      </trkpt>
      <trkpt lat="45.43097" lon="5.68987">
        <ele>807</ele>
        <time>2015-08-07T09:06:57.000Z</time>
      </trkpt>
      <trkpt lat="45.431" lon="5.68986">
        <ele>808</ele>
        <time>2015-08-07T09:06:58.000Z</time>
      </trkpt>
      <trkpt lat="45.43103" lon="5.68984">
        <ele>808</ele>
        <time>2015-08-07T09:06:59.000Z</time>
      </trkpt>
      <trkpt lat="45.43106" lon="5.68983">
        <ele>808</ele>
        <time>2015-08-07T09:07:00.000Z</time>
      </trkpt>
      <trkpt lat="45.43109" lon="5.68981">
        <ele>808</ele>
        <time>2015-08-07T09:07:01.000Z</time>
      </trkpt>
      <trkpt lat="45.43112" lon="5.68979">
        <ele>808</ele>
        <time>2015-08-07T09:07:02.000Z</time>
      </trkpt>
      <trkpt lat="45.43115" lon="5.68977">
        <ele>808</ele>
        <time>2015-08-07T09:07:03.000Z</time>
      </trkpt>
      <trkpt lat="45.43118" lon="5.68975">
        <ele>808</ele>
        <time>2015-08-07T09:07:04.000Z</time>
      </trkpt>
      <trkpt lat="45.43119" lon="5.68974">
        <ele>808</ele>
        <time>2015-08-07T09:07:05.000Z</time>
      </trkpt>
      <trkpt lat="45.43123" lon="5.68974">
        <ele>808</ele>
        <time>2015-08-07T09:07:06.000Z</time>
      </trkpt>
      <trkpt lat="45.43125" lon="5.68974">
        <ele>808</ele>
        <time>2015-08-07T09:07:07.000Z</time>
      </trkpt>
      <trkpt lat="45.43128" lon="5.68975">
        <ele>808</ele>
        <time>2015-08-07T09:07:08.000Z</time>
      </trkpt>
      <trkpt lat="45.4313" lon="5.68975">
        <ele>808</ele>
        <time>2015-08-07T09:07:09.000Z</time>
      </trkpt>
      <trkpt lat="45.43132" lon="5.68975">
        <ele>808</ele>
        <time>2015-08-07T09:07:10.000Z</time>
      </trkpt>
      <trkpt lat="45.43136" lon="5.68976">
        <ele>808</ele>
        <time>2015-08-07T09:07:12.000Z</time>
      </trkpt>
      <trkpt lat="45.43138" lon="5.68976">
        <ele>808</ele>
        <time>2015-08-07T09:07:13.000Z</time>
      </trkpt>
      <trkpt lat="45.43142" lon="5.68975">
        <ele>808</ele>
        <time>2015-08-07T09:07:16.000Z</time>
      </trkpt>
      <trkpt lat="45.43143" lon="5.68974">
        <ele>808</ele>
        <time>2015-08-07T09:07:17.000Z</time>
      </trkpt>
      <trkpt lat="45.43147" lon="5.68973">
        <ele>808</ele>
        <time>2015-08-07T09:07:20.000Z</time>
      </trkpt>
      <trkpt lat="45.43148" lon="5.68973">
        <ele>808</ele>
        <time>2015-08-07T09:07:21.000Z</time>
      </trkpt>
      <trkpt lat="45.43152" lon="5.68971">
        <ele>808</ele>
        <time>2015-08-07T09:07:23.000Z</time>
      </trkpt>
      <trkpt lat="45.43154" lon="5.6897">
        <ele>808</ele>
        <time>2015-08-07T09:07:24.000Z</time>
      </trkpt>
      <trkpt lat="45.43156" lon="5.68969">
        <ele>808</ele>
        <time>2015-08-07T09:07:26.000Z</time>
      </trkpt>
      <trkpt lat="45.43158" lon="5.68968">
        <ele>808</ele>
        <time>2015-08-07T09:07:27.000Z</time>
      </trkpt>
      <trkpt lat="45.4316" lon="5.68963">
        <ele>808</ele>
        <time>2015-08-07T09:07:31.000Z</time>
      </trkpt>
      <trkpt lat="45.43162" lon="5.6896">
        <ele>808</ele>
        <time>2015-08-07T09:07:32.000Z</time>
      </trkpt>
      <trkpt lat="45.43163" lon="5.68956">
        <ele>809</ele>
        <time>2015-08-07T09:07:33.000Z</time>
      </trkpt>
      <trkpt lat="45.43164" lon="5.68952">
        <ele>809</ele>
        <time>2015-08-07T09:07:34.000Z</time>
      </trkpt>
      <trkpt lat="45.43167" lon="5.68947">
        <ele>808</ele>
        <time>2015-08-07T09:07:36.000Z</time>
      </trkpt>
      <trkpt lat="45.43168" lon="5.68946">
        <ele>808</ele>
        <time>2015-08-07T09:07:37.000Z</time>
      </trkpt>
      <trkpt lat="45.43172" lon="5.68943">
        <ele>808</ele>
        <time>2015-08-07T09:07:41.000Z</time>
      </trkpt>
      <trkpt lat="45.43174" lon="5.68942">
        <ele>808</ele>
        <time>2015-08-07T09:07:42.000Z</time>
      </trkpt>
      <trkpt lat="45.43177" lon="5.6894">
        <ele>808</ele>
        <time>2015-08-07T09:07:44.000Z</time>
      </trkpt>
      <trkpt lat="45.43178" lon="5.68939">
        <ele>808</ele>
        <time>2015-08-07T09:07:45.000Z</time>
      </trkpt>
      <trkpt lat="45.4318" lon="5.68935">
        <ele>808</ele>
        <time>2015-08-07T09:07:47.000Z</time>
      </trkpt>
      <trkpt lat="45.43181" lon="5.68933">
        <ele>808</ele>
        <time>2015-08-07T09:07:48.000Z</time>
      </trkpt>
      <trkpt lat="45.43184" lon="5.6893">
        <ele>809</ele>
        <time>2015-08-07T09:07:50.000Z</time>
      </trkpt>
      <trkpt lat="45.43185" lon="5.68928">
        <ele>809</ele>
        <time>2015-08-07T09:07:51.000Z</time>
      </trkpt>
      <trkpt lat="45.43187" lon="5.68925">
        <ele>809</ele>
        <time>2015-08-07T09:07:52.000Z</time>
      </trkpt>
      <trkpt lat="45.43188" lon="5.68924">
        <ele>809</ele>
        <time>2015-08-07T09:07:53.000Z</time>
      </trkpt>
      <trkpt lat="45.43192" lon="5.68921">
        <ele>809</ele>
        <time>2015-08-07T09:07:56.000Z</time>
      </trkpt>
      <trkpt lat="45.43193" lon="5.6892">
        <ele>809</ele>
        <time>2015-08-07T09:07:57.000Z</time>
      </trkpt>
      <trkpt lat="45.43196" lon="5.68915">
        <ele>811</ele>
        <time>2015-08-07T09:07:59.000Z</time>
      </trkpt>
      <trkpt lat="45.43197" lon="5.68912">
        <ele>811</ele>
        <time>2015-08-07T09:08:00.000Z</time>
      </trkpt>
      <trkpt lat="45.43199" lon="5.68908">
        <ele>811</ele>
        <time>2015-08-07T09:08:02.000Z</time>
      </trkpt>
      <trkpt lat="45.43201" lon="5.68906">
        <ele>811</ele>
        <time>2015-08-07T09:08:03.000Z</time>
      </trkpt>
      <trkpt lat="45.43204" lon="5.68902">
        <ele>811</ele>
        <time>2015-08-07T09:08:05.000Z</time>
      </trkpt>
      <trkpt lat="45.43205" lon="5.689">
        <ele>811</ele>
        <time>2015-08-07T09:08:06.000Z</time>
      </trkpt>
      <trkpt lat="45.43207" lon="5.68895">
        <ele>811</ele>
        <time>2015-08-07T09:08:13.000Z</time>
      </trkpt>
      <trkpt lat="45.43207" lon="5.68895">
        <ele>811</ele>
        <time>2015-08-07T09:08:14.000Z</time>
      </trkpt>
      <trkpt lat="45.43211" lon="5.68895">
        <ele>811</ele>
        <time>2015-08-07T09:08:29.000Z</time>
      </trkpt>
      <trkpt lat="45.43212" lon="5.68895">
        <ele>811</ele>
        <time>2015-08-07T09:08:30.000Z</time>
      </trkpt>
      <trkpt lat="45.43215" lon="5.68895">
        <ele>811</ele>
        <time>2015-08-07T09:08:31.000Z</time>
      </trkpt>
      <trkpt lat="45.43217" lon="5.68895">
        <ele>811</ele>
        <time>2015-08-07T09:08:32.000Z</time>
      </trkpt>
      <trkpt lat="45.4322" lon="5.68895">
        <ele>811</ele>
        <time>2015-08-07T09:08:33.000Z</time>
      </trkpt>
      <trkpt lat="45.43222" lon="5.68896">
        <ele>811</ele>
        <time>2015-08-07T09:08:34.000Z</time>
      </trkpt>
      <trkpt lat="45.43225" lon="5.68898">
        <ele>811</ele>
        <time>2015-08-07T09:08:35.000Z</time>
      </trkpt>
      <trkpt lat="45.43227" lon="5.68899">
        <ele>811</ele>
        <time>2015-08-07T09:08:36.000Z</time>
      </trkpt>
      <trkpt lat="45.4323" lon="5.68901">
        <ele>811</ele>
        <time>2015-08-07T09:08:37.000Z</time>
      </trkpt>
      <trkpt lat="45.43234" lon="5.68902">
        <ele>811</ele>
        <time>2015-08-07T09:08:38.000Z</time>
      </trkpt>
      <trkpt lat="45.43237" lon="5.68904">
        <ele>811</ele>
        <time>2015-08-07T09:08:39.000Z</time>
      </trkpt>
      <trkpt lat="45.43241" lon="5.68906">
        <ele>811</ele>
        <time>2015-08-07T09:08:40.000Z</time>
      </trkpt>
      <trkpt lat="45.43244" lon="5.68908">
        <ele>811</ele>
        <time>2015-08-07T09:08:41.000Z</time>
      </trkpt>
      <trkpt lat="45.43247" lon="5.6891">
        <ele>810</ele>
        <time>2015-08-07T09:08:42.000Z</time>
      </trkpt>
      <trkpt lat="45.43251" lon="5.68912">
        <ele>810</ele>
        <time>2015-08-07T09:08:43.000Z</time>
      </trkpt>
      <trkpt lat="45.43253" lon="5.68914">
        <ele>810</ele>
        <time>2015-08-07T09:08:44.001Z</time>
      </trkpt>
      <trkpt lat="45.43257" lon="5.68916">
        <ele>811</ele>
        <time>2015-08-07T09:08:45.000Z</time>
      </trkpt>
      <trkpt lat="45.4326" lon="5.68918">
        <ele>809</ele>
        <time>2015-08-07T09:08:46.000Z</time>
      </trkpt>
      <trkpt lat="45.43264" lon="5.68921">
        <ele>809</ele>
        <time>2015-08-07T09:08:47.000Z</time>
      </trkpt>
      <trkpt lat="45.43267" lon="5.68923">
        <ele>808</ele>
        <time>2015-08-07T09:08:48.002Z</time>
      </trkpt>
      <trkpt lat="45.43271" lon="5.68925">
        <ele>808</ele>
        <time>2015-08-07T09:08:49.000Z</time>
      </trkpt>
      <trkpt lat="45.43275" lon="5.68927">
        <ele>808</ele>
        <time>2015-08-07T09:08:50.000Z</time>
      </trkpt>
      <trkpt lat="45.43279" lon="5.68929">
        <ele>808</ele>
        <time>2015-08-07T09:08:51.000Z</time>
      </trkpt>
      <trkpt lat="45.43283" lon="5.68931">
        <ele>808</ele>
        <time>2015-08-07T09:08:52.000Z</time>
      </trkpt>
      <trkpt lat="45.43287" lon="5.68933">
        <ele>807</ele>
        <time>2015-08-07T09:08:53.000Z</time>
      </trkpt>
      <trkpt lat="45.4329" lon="5.68935">
        <ele>807</ele>
        <time>2015-08-07T09:08:54.000Z</time>
      </trkpt>
      <trkpt lat="45.43298" lon="5.68939">
        <ele>807</ele>
        <time>2015-08-07T09:08:55.000Z</time>
      </trkpt>
      <trkpt lat="45.43303" lon="5.68941">
        <ele>807</ele>
        <time>2015-08-07T09:08:56.000Z</time>
      </trkpt>
      <trkpt lat="45.43307" lon="5.68943">
        <ele>807</ele>
        <time>2015-08-07T09:08:57.000Z</time>
      </trkpt>
      <trkpt lat="45.43312" lon="5.68946">
        <ele>807</ele>
        <time>2015-08-07T09:08:58.000Z</time>
      </trkpt>
      <trkpt lat="45.43316" lon="5.68949">
        <ele>807</ele>
        <time>2015-08-07T09:08:59.000Z</time>
      </trkpt>
      <trkpt lat="45.4332" lon="5.68952">
        <ele>807</ele>
        <time>2015-08-07T09:09:00.000Z</time>
      </trkpt>
      <trkpt lat="45.43324" lon="5.68953">
        <ele>807</ele>
        <time>2015-08-07T09:09:01.000Z</time>
      </trkpt>
      <trkpt lat="45.43328" lon="5.68955">
        <ele>807</ele>
        <time>2015-08-07T09:09:01.999Z</time>
      </trkpt>
      <trkpt lat="45.43332" lon="5.68957">
        <ele>807</ele>
        <time>2015-08-07T09:09:03.001Z</time>
      </trkpt>
      <trkpt lat="45.43335" lon="5.68959">
        <ele>806</ele>
        <time>2015-08-07T09:09:04.000Z</time>
      </trkpt>
      <trkpt lat="45.4334" lon="5.68959">
        <ele>806</ele>
        <time>2015-08-07T09:09:05.000Z</time>
      </trkpt>
      <trkpt lat="45.43342" lon="5.68963">
        <ele>806</ele>
        <time>2015-08-07T09:09:06.000Z</time>
      </trkpt>
      <trkpt lat="45.43346" lon="5.68964">
        <ele>806</ele>
        <time>2015-08-07T09:09:07.000Z</time>
      </trkpt>
      <trkpt lat="45.43349" lon="5.68967">
        <ele>806</ele>
        <time>2015-08-07T09:09:08.000Z</time>
      </trkpt>
      <trkpt lat="45.43353" lon="5.6897">
        <ele>806</ele>
        <time>2015-08-07T09:09:09.000Z</time>
      </trkpt>
      <trkpt lat="45.43356" lon="5.68973">
        <ele>806</ele>
        <time>2015-08-07T09:09:10.000Z</time>
      </trkpt>
      <trkpt lat="45.4336" lon="5.68975">
        <ele>806</ele>
        <time>2015-08-07T09:09:11.000Z</time>
      </trkpt>
      <trkpt lat="45.43363" lon="5.68976">
        <ele>806</ele>
        <time>2015-08-07T09:09:12.000Z</time>
      </trkpt>
      <trkpt lat="45.43367" lon="5.68976">
        <ele>806</ele>
        <time>2015-08-07T09:09:13.000Z</time>
      </trkpt>
      <trkpt lat="45.4337" lon="5.68976">
        <ele>806</ele>
        <time>2015-08-07T09:09:14.000Z</time>
      </trkpt>
      <trkpt lat="45.43375" lon="5.68975">
        <ele>806</ele>
        <time>2015-08-07T09:09:15.000Z</time>
      </trkpt>
      <trkpt lat="45.43379" lon="5.68973">
        <ele>806</ele>
        <time>2015-08-07T09:09:16.000Z</time>
      </trkpt>
      <trkpt lat="45.43382" lon="5.68971">
        <ele>807</ele>
        <time>2015-08-07T09:09:17.000Z</time>
      </trkpt>
      <trkpt lat="45.43386" lon="5.68968">
        <ele>807</ele>
        <time>2015-08-07T09:09:18.000Z</time>
      </trkpt>
      <trkpt lat="45.43391" lon="5.68965">
        <ele>807</ele>
        <time>2015-08-07T09:09:19.000Z</time>
      </trkpt>
      <trkpt lat="45.43395" lon="5.68962">
        <ele>807</ele>
        <time>2015-08-07T09:09:20.000Z</time>
      </trkpt>
      <trkpt lat="45.43398" lon="5.68959">
        <ele>807</ele>
        <time>2015-08-07T09:09:21.000Z</time>
      </trkpt>
      <trkpt lat="45.43402" lon="5.68956">
        <ele>807</ele>
        <time>2015-08-07T09:09:22.000Z</time>
      </trkpt>
      <trkpt lat="45.43406" lon="5.68953">
        <ele>807</ele>
        <time>2015-08-07T09:09:23.000Z</time>
      </trkpt>
      <trkpt lat="45.43409" lon="5.6895">
        <ele>807</ele>
        <time>2015-08-07T09:09:24.000Z</time>
      </trkpt>
      <trkpt lat="45.43412" lon="5.68948">
        <ele>807</ele>
        <time>2015-08-07T09:09:25.000Z</time>
      </trkpt>
      <trkpt lat="45.43416" lon="5.68945">
        <ele>807</ele>
        <time>2015-08-07T09:09:25.999Z</time>
      </trkpt>
      <trkpt lat="45.43419" lon="5.68941">
        <ele>809</ele>
        <time>2015-08-07T09:09:27.000Z</time>
      </trkpt>
      <trkpt lat="45.43422" lon="5.68939">
        <ele>809</ele>
        <time>2015-08-07T09:09:28.000Z</time>
      </trkpt>
      <trkpt lat="45.43426" lon="5.68937">
        <ele>809</ele>
        <time>2015-08-07T09:09:29.000Z</time>
      </trkpt>
      <trkpt lat="45.4343" lon="5.68935">
        <ele>809</ele>
        <time>2015-08-07T09:09:30.000Z</time>
      </trkpt>
      <trkpt lat="45.43434" lon="5.68932">
        <ele>809</ele>
        <time>2015-08-07T09:09:31.000Z</time>
      </trkpt>
      <trkpt lat="45.43437" lon="5.68931">
        <ele>809</ele>
        <time>2015-08-07T09:09:32.000Z</time>
      </trkpt>
      <trkpt lat="45.43441" lon="5.68929">
        <ele>809</ele>
        <time>2015-08-07T09:09:33.000Z</time>
      </trkpt>
      <trkpt lat="45.43444" lon="5.68927">
        <ele>809</ele>
        <time>2015-08-07T09:09:34.000Z</time>
      </trkpt>
      <trkpt lat="45.43449" lon="5.68924">
        <ele>809</ele>
        <time>2015-08-07T09:09:35.000Z</time>
      </trkpt>
      <trkpt lat="45.43452" lon="5.68922">
        <ele>809</ele>
        <time>2015-08-07T09:09:36.001Z</time>
      </trkpt>
      <trkpt lat="45.43455" lon="5.68922">
        <ele>809</ele>
        <time>2015-08-07T09:09:37.000Z</time>
      </trkpt>
      <trkpt lat="45.43457" lon="5.68921">
        <ele>809</ele>
        <time>2015-08-07T09:09:38.000Z</time>
      </trkpt>
      <trkpt lat="45.4346" lon="5.6892">
        <ele>809</ele>
        <time>2015-08-07T09:09:39.000Z</time>
      </trkpt>
      <trkpt lat="45.43462" lon="5.68919">
        <ele>810</ele>
        <time>2015-08-07T09:09:40.000Z</time>
      </trkpt>
      <trkpt lat="45.43464" lon="5.68918">
        <ele>810</ele>
        <time>2015-08-07T09:09:41.000Z</time>
      </trkpt>
      <trkpt lat="45.43468" lon="5.68916">
        <ele>811</ele>
        <time>2015-08-07T09:09:42.000Z</time>
      </trkpt>
      <trkpt lat="45.43472" lon="5.68915">
        <ele>812</ele>
        <time>2015-08-07T09:09:43.000Z</time>
      </trkpt>
      <trkpt lat="45.43475" lon="5.68913">
        <ele>812</ele>
        <time>2015-08-07T09:09:44.001Z</time>
      </trkpt>
      <trkpt lat="45.43476" lon="5.68912">
        <ele>812</ele>
        <time>2015-08-07T09:09:45.000Z</time>
      </trkpt>
      <trkpt lat="45.43479" lon="5.68912">
        <ele>812</ele>
        <time>2015-08-07T09:09:46.000Z</time>
      </trkpt>
      <trkpt lat="45.43483" lon="5.68911">
        <ele>812</ele>
        <time>2015-08-07T09:09:47.000Z</time>
      </trkpt>
      <trkpt lat="45.43486" lon="5.68911">
        <ele>812</ele>
        <time>2015-08-07T09:09:48.000Z</time>
      </trkpt>
      <trkpt lat="45.4349" lon="5.68909">
        <ele>812</ele>
        <time>2015-08-07T09:09:49.000Z</time>
      </trkpt>
      <trkpt lat="45.43494" lon="5.68907">
        <ele>812</ele>
        <time>2015-08-07T09:09:51.000Z</time>
      </trkpt>
      <trkpt lat="45.43496" lon="5.68907">
        <ele>812</ele>
        <time>2015-08-07T09:09:52.000Z</time>
      </trkpt>
      <trkpt lat="45.43499" lon="5.68906">
        <ele>812</ele>
        <time>2015-08-07T09:09:53.000Z</time>
      </trkpt>
      <trkpt lat="45.43501" lon="5.68906">
        <ele>813</ele>
        <time>2015-08-07T09:09:54.000Z</time>
      </trkpt>
      <trkpt lat="45.43504" lon="5.68906">
        <ele>813</ele>
        <time>2015-08-07T09:09:55.000Z</time>
      </trkpt>
      <trkpt lat="45.43506" lon="5.68906">
        <ele>813</ele>
        <time>2015-08-07T09:09:56.000Z</time>
      </trkpt>
      <trkpt lat="45.43509" lon="5.68906">
        <ele>813</ele>
        <time>2015-08-07T09:09:57.000Z</time>
      </trkpt>
      <trkpt lat="45.43512" lon="5.68906">
        <ele>813</ele>
        <time>2015-08-07T09:09:58.000Z</time>
      </trkpt>
      <trkpt lat="45.43515" lon="5.68906">
        <ele>813</ele>
        <time>2015-08-07T09:09:59.001Z</time>
      </trkpt>
      <trkpt lat="45.43518" lon="5.68906">
        <ele>813</ele>
        <time>2015-08-07T09:10:00.000Z</time>
      </trkpt>
      <trkpt lat="45.43521" lon="5.68906">
        <ele>813</ele>
        <time>2015-08-07T09:10:01.000Z</time>
      </trkpt>
      <trkpt lat="45.43523" lon="5.68906">
        <ele>814</ele>
        <time>2015-08-07T09:10:02.000Z</time>
      </trkpt>
      <trkpt lat="45.43527" lon="5.68906">
        <ele>814</ele>
        <time>2015-08-07T09:10:04.000Z</time>
      </trkpt>
      <trkpt lat="45.4353" lon="5.68907">
        <ele>814</ele>
        <time>2015-08-07T09:10:05.000Z</time>
      </trkpt>
      <trkpt lat="45.43533" lon="5.68907">
        <ele>814</ele>
        <time>2015-08-07T09:10:06.000Z</time>
      </trkpt>
      <trkpt lat="45.43535" lon="5.68908">
        <ele>814</ele>
        <time>2015-08-07T09:10:07.000Z</time>
      </trkpt>
      <trkpt lat="45.43537" lon="5.68909">
        <ele>814</ele>
        <time>2015-08-07T09:10:08.000Z</time>
      </trkpt>
      <trkpt lat="45.4354" lon="5.6891">
        <ele>814</ele>
        <time>2015-08-07T09:10:09.000Z</time>
      </trkpt>
      <trkpt lat="45.43543" lon="5.68911">
        <ele>814</ele>
        <time>2015-08-07T09:10:10.000Z</time>
      </trkpt>
      <trkpt lat="45.43546" lon="5.68913">
        <ele>815</ele>
        <time>2015-08-07T09:10:11.000Z</time>
      </trkpt>
      <trkpt lat="45.43548" lon="5.68914">
        <ele>815</ele>
        <time>2015-08-07T09:10:12.000Z</time>
      </trkpt>
      <trkpt lat="45.43551" lon="5.68915">
        <ele>815</ele>
        <time>2015-08-07T09:10:13.000Z</time>
      </trkpt>
      <trkpt lat="45.43553" lon="5.68916">
        <ele>815</ele>
        <time>2015-08-07T09:10:14.000Z</time>
      </trkpt>
      <trkpt lat="45.43556" lon="5.68917">
        <ele>813</ele>
        <time>2015-08-07T09:10:15.000Z</time>
      </trkpt>
      <trkpt lat="45.43559" lon="5.68918">
        <ele>814</ele>
        <time>2015-08-07T09:10:16.000Z</time>
      </trkpt>
      <trkpt lat="45.43562" lon="5.68918">
        <ele>814</ele>
        <time>2015-08-07T09:10:17.000Z</time>
      </trkpt>
      <trkpt lat="45.43564" lon="5.68919">
        <ele>814</ele>
        <time>2015-08-07T09:10:18.000Z</time>
      </trkpt>
      <trkpt lat="45.43566" lon="5.68919">
        <ele>814</ele>
        <time>2015-08-07T09:10:19.000Z</time>
      </trkpt>
      <trkpt lat="45.43569" lon="5.6892">
        <ele>814</ele>
        <time>2015-08-07T09:10:20.000Z</time>
      </trkpt>
      <trkpt lat="45.43571" lon="5.68921">
        <ele>815</ele>
        <time>2015-08-07T09:10:21.000Z</time>
      </trkpt>
      <trkpt lat="45.43574" lon="5.68922">
        <ele>815</ele>
        <time>2015-08-07T09:10:22.000Z</time>
      </trkpt>
      <trkpt lat="45.43577" lon="5.68922">
        <ele>815</ele>
        <time>2015-08-07T09:10:23.000Z</time>
      </trkpt>
      <trkpt lat="45.4358" lon="5.68923">
        <ele>816</ele>
        <time>2015-08-07T09:10:24.000Z</time>
      </trkpt>
      <trkpt lat="45.43583" lon="5.68925">
        <ele>815</ele>
        <time>2015-08-07T09:10:25.000Z</time>
      </trkpt>
      <trkpt lat="45.43587" lon="5.68926">
        <ele>816</ele>
        <time>2015-08-07T09:10:26.000Z</time>
      </trkpt>
      <trkpt lat="45.43591" lon="5.68928">
        <ele>816</ele>
        <time>2015-08-07T09:10:27.000Z</time>
      </trkpt>
      <trkpt lat="45.43595" lon="5.6893">
        <ele>816</ele>
        <time>2015-08-07T09:10:28.000Z</time>
      </trkpt>
      <trkpt lat="45.43599" lon="5.68931">
        <ele>815</ele>
        <time>2015-08-07T09:10:29.000Z</time>
      </trkpt>
      <trkpt lat="45.43603" lon="5.68932">
        <ele>815</ele>
        <time>2015-08-07T09:10:30.000Z</time>
      </trkpt>
      <trkpt lat="45.43606" lon="5.68932">
        <ele>815</ele>
        <time>2015-08-07T09:10:31.000Z</time>
      </trkpt>
      <trkpt lat="45.43609" lon="5.68932">
        <ele>815</ele>
        <time>2015-08-07T09:10:32.000Z</time>
      </trkpt>
      <trkpt lat="45.43613" lon="5.68932">
        <ele>815</ele>
        <time>2015-08-07T09:10:33.000Z</time>
      </trkpt>
      <trkpt lat="45.43616" lon="5.68931">
        <ele>815</ele>
        <time>2015-08-07T09:10:34.000Z</time>
      </trkpt>
      <trkpt lat="45.4362" lon="5.68931">
        <ele>815</ele>
        <time>2015-08-07T09:10:35.000Z</time>
      </trkpt>
      <trkpt lat="45.43623" lon="5.68931">
        <ele>815</ele>
        <time>2015-08-07T09:10:36.000Z</time>
      </trkpt>
      <trkpt lat="45.43626" lon="5.68931">
        <ele>815</ele>
        <time>2015-08-07T09:10:37.000Z</time>
      </trkpt>
      <trkpt lat="45.43629" lon="5.68931">
        <ele>815</ele>
        <time>2015-08-07T09:10:38.000Z</time>
      </trkpt>
      <trkpt lat="45.43631" lon="5.68932">
        <ele>815</ele>
        <time>2015-08-07T09:10:39.000Z</time>
      </trkpt>
      <trkpt lat="45.43634" lon="5.68932">
        <ele>816</ele>
        <time>2015-08-07T09:10:40.000Z</time>
      </trkpt>
      <trkpt lat="45.43637" lon="5.68932">
        <ele>816</ele>
        <time>2015-08-07T09:10:41.000Z</time>
      </trkpt>
      <trkpt lat="45.43641" lon="5.68931">
        <ele>816</ele>
        <time>2015-08-07T09:10:42.000Z</time>
      </trkpt>
      <trkpt lat="45.43645" lon="5.6893">
        <ele>816</ele>
        <time>2015-08-07T09:10:43.000Z</time>
      </trkpt>
      <trkpt lat="45.43648" lon="5.68929">
        <ele>816</ele>
        <time>2015-08-07T09:10:44.000Z</time>
      </trkpt>
      <trkpt lat="45.43651" lon="5.68929">
        <ele>816</ele>
        <time>2015-08-07T09:10:45.000Z</time>
      </trkpt>
      <trkpt lat="45.43654" lon="5.68929">
        <ele>817</ele>
        <time>2015-08-07T09:10:46.000Z</time>
      </trkpt>
      <trkpt lat="45.43657" lon="5.68929">
        <ele>817</ele>
        <time>2015-08-07T09:10:47.000Z</time>
      </trkpt>
      <trkpt lat="45.43661" lon="5.68929">
        <ele>817</ele>
        <time>2015-08-07T09:10:48.000Z</time>
      </trkpt>
      <trkpt lat="45.43665" lon="5.6893">
        <ele>817</ele>
        <time>2015-08-07T09:10:49.000Z</time>
      </trkpt>
      <trkpt lat="45.43669" lon="5.6893">
        <ele>817</ele>
        <time>2015-08-07T09:10:50.000Z</time>
      </trkpt>
      <trkpt lat="45.43673" lon="5.68929">
        <ele>817</ele>
        <time>2015-08-07T09:10:51.000Z</time>
      </trkpt>
      <trkpt lat="45.43676" lon="5.68928">
        <ele>817</ele>
        <time>2015-08-07T09:10:52.000Z</time>
      </trkpt>
      <trkpt lat="45.4368" lon="5.68927">
        <ele>817</ele>
        <time>2015-08-07T09:10:53.000Z</time>
      </trkpt>
      <trkpt lat="45.43684" lon="5.68926">
        <ele>817</ele>
        <time>2015-08-07T09:10:54.000Z</time>
      </trkpt>
      <trkpt lat="45.43688" lon="5.68925">
        <ele>817</ele>
        <time>2015-08-07T09:10:55.000Z</time>
      </trkpt>
      <trkpt lat="45.43691" lon="5.68925">
        <ele>817</ele>
        <time>2015-08-07T09:10:56.000Z</time>
      </trkpt>
      <trkpt lat="45.43695" lon="5.68925">
        <ele>817</ele>
        <time>2015-08-07T09:10:57.000Z</time>
      </trkpt>
      <trkpt lat="45.43699" lon="5.68925">
        <ele>817</ele>
        <time>2015-08-07T09:10:58.000Z</time>
      </trkpt>
      <trkpt lat="45.43702" lon="5.68925">
        <ele>816</ele>
        <time>2015-08-07T09:10:59.000Z</time>
      </trkpt>
      <trkpt lat="45.43706" lon="5.68925">
        <ele>816</ele>
        <time>2015-08-07T09:11:00.000Z</time>
      </trkpt>
      <trkpt lat="45.43709" lon="5.68926">
        <ele>816</ele>
        <time>2015-08-07T09:11:01.000Z</time>
      </trkpt>
      <trkpt lat="45.43713" lon="5.68926">
        <ele>816</ele>
        <time>2015-08-07T09:11:02.000Z</time>
      </trkpt>
      <trkpt lat="45.43718" lon="5.68925">
        <ele>816</ele>
        <time>2015-08-07T09:11:03.000Z</time>
      </trkpt>
      <trkpt lat="45.43722" lon="5.68925">
        <ele>816</ele>
        <time>2015-08-07T09:11:04.000Z</time>
      </trkpt>
      <trkpt lat="45.43726" lon="5.68925">
        <ele>816</ele>
        <time>2015-08-07T09:11:05.000Z</time>
      </trkpt>
      <trkpt lat="45.43731" lon="5.68925">
        <ele>816</ele>
        <time>2015-08-07T09:11:06.000Z</time>
      </trkpt>
      <trkpt lat="45.43735" lon="5.68924">
        <ele>816</ele>
        <time>2015-08-07T09:11:07.001Z</time>
      </trkpt>
      <trkpt lat="45.4374" lon="5.68923">
        <ele>817</ele>
        <time>2015-08-07T09:11:08.000Z</time>
      </trkpt>
      <trkpt lat="45.43744" lon="5.68923">
        <ele>817</ele>
        <time>2015-08-07T09:11:09.000Z</time>
      </trkpt>
      <trkpt lat="45.43749" lon="5.68922">
        <ele>817</ele>
        <time>2015-08-07T09:11:10.000Z</time>
      </trkpt>
      <trkpt lat="45.43753" lon="5.6892">
        <ele>817</ele>
        <time>2015-08-07T09:11:11.000Z</time>
      </trkpt>
      <trkpt lat="45.43757" lon="5.68919">
        <ele>817</ele>
        <time>2015-08-07T09:11:12.000Z</time>
      </trkpt>
      <trkpt lat="45.43761" lon="5.68918">
        <ele>817</ele>
        <time>2015-08-07T09:11:13.000Z</time>
      </trkpt>
      <trkpt lat="45.43765" lon="5.68917">
        <ele>816</ele>
        <time>2015-08-07T09:11:14.000Z</time>
      </trkpt>
      <trkpt lat="45.43769" lon="5.68916">
        <ele>817</ele>
        <time>2015-08-07T09:11:15.000Z</time>
      </trkpt>
      <trkpt lat="45.43773" lon="5.68916">
        <ele>817</ele>
        <time>2015-08-07T09:11:16.000Z</time>
      </trkpt>
      <trkpt lat="45.43777" lon="5.68916">
        <ele>817</ele>
        <time>2015-08-07T09:11:17.000Z</time>
      </trkpt>
      <trkpt lat="45.43781" lon="5.68915">
        <ele>817</ele>
        <time>2015-08-07T09:11:18.000Z</time>
      </trkpt>
      <trkpt lat="45.43785" lon="5.68914">
        <ele>817</ele>
        <time>2015-08-07T09:11:19.000Z</time>
      </trkpt>
      <trkpt lat="45.43789" lon="5.68914">
        <ele>817</ele>
        <time>2015-08-07T09:11:20.000Z</time>
      </trkpt>
      <trkpt lat="45.43793" lon="5.68913">
        <ele>817</ele>
        <time>2015-08-07T09:11:21.000Z</time>
      </trkpt>
      <trkpt lat="45.43797" lon="5.68912">
        <ele>817</ele>
        <time>2015-08-07T09:11:22.000Z</time>
      </trkpt>
      <trkpt lat="45.43801" lon="5.68911">
        <ele>817</ele>
        <time>2015-08-07T09:11:23.000Z</time>
      </trkpt>
      <trkpt lat="45.43805" lon="5.6891">
        <ele>817</ele>
        <time>2015-08-07T09:11:24.000Z</time>
      </trkpt>
      <trkpt lat="45.43809" lon="5.6891">
        <ele>817</ele>
        <time>2015-08-07T09:11:25.000Z</time>
      </trkpt>
      <trkpt lat="45.43812" lon="5.68909">
        <ele>817</ele>
        <time>2015-08-07T09:11:26.000Z</time>
      </trkpt>
      <trkpt lat="45.43816" lon="5.68909">
        <ele>817</ele>
        <time>2015-08-07T09:11:27.000Z</time>
      </trkpt>
      <trkpt lat="45.4382" lon="5.68909">
        <ele>817</ele>
        <time>2015-08-07T09:11:28.000Z</time>
      </trkpt>
      <trkpt lat="45.43823" lon="5.68908">
        <ele>817</ele>
        <time>2015-08-07T09:11:29.000Z</time>
      </trkpt>
      <trkpt lat="45.43827" lon="5.68908">
        <ele>817</ele>
        <time>2015-08-07T09:11:30.000Z</time>
      </trkpt>
      <trkpt lat="45.43831" lon="5.68908">
        <ele>817</ele>
        <time>2015-08-07T09:11:31.000Z</time>
      </trkpt>
      <trkpt lat="45.43834" lon="5.68907">
        <ele>818</ele>
        <time>2015-08-07T09:11:32.000Z</time>
      </trkpt>
      <trkpt lat="45.43838" lon="5.68907">
        <ele>818</ele>
        <time>2015-08-07T09:11:33.000Z</time>
      </trkpt>
      <trkpt lat="45.43841" lon="5.68908">
        <ele>818</ele>
        <time>2015-08-07T09:11:34.000Z</time>
      </trkpt>
      <trkpt lat="45.43845" lon="5.68908">
        <ele>818</ele>
        <time>2015-08-07T09:11:35.000Z</time>
      </trkpt>
      <trkpt lat="45.43849" lon="5.68908">
        <ele>818</ele>
        <time>2015-08-07T09:11:36.000Z</time>
      </trkpt>
      <trkpt lat="45.43853" lon="5.68908">
        <ele>818</ele>
        <time>2015-08-07T09:11:37.000Z</time>
      </trkpt>
      <trkpt lat="45.43856" lon="5.68909">
        <ele>818</ele>
        <time>2015-08-07T09:11:38.000Z</time>
      </trkpt>
      <trkpt lat="45.4386" lon="5.6891">
        <ele>819</ele>
        <time>2015-08-07T09:11:38.999Z</time>
      </trkpt>
      <trkpt lat="45.43864" lon="5.68911">
        <ele>819</ele>
        <time>2015-08-07T09:11:40.000Z</time>
      </trkpt>
      <trkpt lat="45.43868" lon="5.68911">
        <ele>819</ele>
        <time>2015-08-07T09:11:41.000Z</time>
      </trkpt>
      <trkpt lat="45.43873" lon="5.6891">
        <ele>819</ele>
        <time>2015-08-07T09:11:42.000Z</time>
      </trkpt>
      <trkpt lat="45.43877" lon="5.68909">
        <ele>819</ele>
        <time>2015-08-07T09:11:43.000Z</time>
      </trkpt>
      <trkpt lat="45.43881" lon="5.68908">
        <ele>819</ele>
        <time>2015-08-07T09:11:44.000Z</time>
      </trkpt>
      <trkpt lat="45.43885" lon="5.68906">
        <ele>820</ele>
        <time>2015-08-07T09:11:45.000Z</time>
      </trkpt>
      <trkpt lat="45.43888" lon="5.68905">
        <ele>820</ele>
        <time>2015-08-07T09:11:46.000Z</time>
      </trkpt>
      <trkpt lat="45.43891" lon="5.68904">
        <ele>820</ele>
        <time>2015-08-07T09:11:47.000Z</time>
      </trkpt>
      <trkpt lat="45.43894" lon="5.68902">
        <ele>820</ele>
        <time>2015-08-07T09:11:48.000Z</time>
      </trkpt>
      <trkpt lat="45.43898" lon="5.689">
        <ele>820</ele>
        <time>2015-08-07T09:11:49.000Z</time>
      </trkpt>
      <trkpt lat="45.43901" lon="5.68899">
        <ele>820</ele>
        <time>2015-08-07T09:11:50.000Z</time>
      </trkpt>
      <trkpt lat="45.43904" lon="5.68897">
        <ele>820</ele>
        <time>2015-08-07T09:11:51.000Z</time>
      </trkpt>
      <trkpt lat="45.43908" lon="5.68896">
        <ele>820</ele>
        <time>2015-08-07T09:11:52.000Z</time>
      </trkpt>
      <trkpt lat="45.43911" lon="5.68895">
        <ele>820</ele>
        <time>2015-08-07T09:11:53.000Z</time>
      </trkpt>
      <trkpt lat="45.43914" lon="5.68893">
        <ele>820</ele>
        <time>2015-08-07T09:11:54.000Z</time>
      </trkpt>
      <trkpt lat="45.43918" lon="5.68892">
        <ele>822</ele>
        <time>2015-08-07T09:11:55.000Z</time>
      </trkpt>
      <trkpt lat="45.43921" lon="5.68891">
        <ele>822</ele>
        <time>2015-08-07T09:11:56.000Z</time>
      </trkpt>
      <trkpt lat="45.43924" lon="5.68889">
        <ele>822</ele>
        <time>2015-08-07T09:11:57.000Z</time>
      </trkpt>
      <trkpt lat="45.43928" lon="5.68887">
        <ele>822</ele>
        <time>2015-08-07T09:11:58.000Z</time>
      </trkpt>
      <trkpt lat="45.43931" lon="5.68885">
        <ele>822</ele>
        <time>2015-08-07T09:11:59.000Z</time>
      </trkpt>
      <trkpt lat="45.43935" lon="5.68883">
        <ele>822</ele>
        <time>2015-08-07T09:12:00.000Z</time>
      </trkpt>
      <trkpt lat="45.43938" lon="5.68881">
        <ele>822</ele>
        <time>2015-08-07T09:12:01.000Z</time>
      </trkpt>
      <trkpt lat="45.43942" lon="5.68879">
        <ele>822</ele>
        <time>2015-08-07T09:12:02.000Z</time>
      </trkpt>
      <trkpt lat="45.43945" lon="5.68877">
        <ele>822</ele>
        <time>2015-08-07T09:12:03.000Z</time>
      </trkpt>
      <trkpt lat="45.43949" lon="5.68875">
        <ele>822</ele>
        <time>2015-08-07T09:12:04.000Z</time>
      </trkpt>
      <trkpt lat="45.43952" lon="5.68871">
        <ele>822</ele>
        <time>2015-08-07T09:12:05.000Z</time>
      </trkpt>
      <trkpt lat="45.43956" lon="5.68867">
        <ele>822</ele>
        <time>2015-08-07T09:12:06.000Z</time>
      </trkpt>
      <trkpt lat="45.43959" lon="5.68866">
        <ele>822</ele>
        <time>2015-08-07T09:12:07.000Z</time>
      </trkpt>
      <trkpt lat="45.43962" lon="5.68864">
        <ele>822</ele>
        <time>2015-08-07T09:12:08.000Z</time>
      </trkpt>
      <trkpt lat="45.43965" lon="5.68863">
        <ele>822</ele>
        <time>2015-08-07T09:12:09.000Z</time>
      </trkpt>
      <trkpt lat="45.43968" lon="5.68861">
        <ele>822</ele>
        <time>2015-08-07T09:12:10.000Z</time>
      </trkpt>
      <trkpt lat="45.43972" lon="5.6886">
        <ele>822</ele>
        <time>2015-08-07T09:12:11.000Z</time>
      </trkpt>
      <trkpt lat="45.43974" lon="5.68857">
        <ele>822</ele>
        <time>2015-08-07T09:12:12.000Z</time>
      </trkpt>
      <trkpt lat="45.43977" lon="5.68855">
        <ele>822</ele>
        <time>2015-08-07T09:12:13.000Z</time>
      </trkpt>
      <trkpt lat="45.43981" lon="5.68852">
        <ele>822</ele>
        <time>2015-08-07T09:12:14.000Z</time>
      </trkpt>
      <trkpt lat="45.43984" lon="5.6885">
        <ele>823</ele>
        <time>2015-08-07T09:12:15.000Z</time>
      </trkpt>
      <trkpt lat="45.43987" lon="5.68848">
        <ele>823</ele>
        <time>2015-08-07T09:12:15.998Z</time>
      </trkpt>
      <trkpt lat="45.43989" lon="5.68845">
        <ele>823</ele>
        <time>2015-08-07T09:12:17.000Z</time>
      </trkpt>
      <trkpt lat="45.43992" lon="5.68843">
        <ele>823</ele>
        <time>2015-08-07T09:12:18.000Z</time>
      </trkpt>
      <trkpt lat="45.43995" lon="5.6884">
        <ele>823</ele>
        <time>2015-08-07T09:12:19.000Z</time>
      </trkpt>
      <trkpt lat="45.43997" lon="5.68837">
        <ele>823</ele>
        <time>2015-08-07T09:12:20.000Z</time>
      </trkpt>
      <trkpt lat="45.44" lon="5.68833">
        <ele>823</ele>
        <time>2015-08-07T09:12:21.000Z</time>
      </trkpt>
      <trkpt lat="45.44002" lon="5.68828">
        <ele>824</ele>
        <time>2015-08-07T09:12:22.000Z</time>
      </trkpt>
      <trkpt lat="45.44004" lon="5.68823">
        <ele>824</ele>
        <time>2015-08-07T09:12:23.000Z</time>
      </trkpt>
      <trkpt lat="45.44005" lon="5.68818">
        <ele>824</ele>
        <time>2015-08-07T09:12:24.000Z</time>
      </trkpt>
      <trkpt lat="45.44007" lon="5.68813">
        <ele>825</ele>
        <time>2015-08-07T09:12:25.000Z</time>
      </trkpt>
      <trkpt lat="45.44009" lon="5.68808">
        <ele>825</ele>
        <time>2015-08-07T09:12:26.000Z</time>
      </trkpt>
      <trkpt lat="45.4401" lon="5.68803">
        <ele>825</ele>
        <time>2015-08-07T09:12:27.000Z</time>
      </trkpt>
      <trkpt lat="45.44011" lon="5.68798">
        <ele>825</ele>
        <time>2015-08-07T09:12:27.999Z</time>
      </trkpt>
      <trkpt lat="45.44011" lon="5.68793">
        <ele>825</ele>
        <time>2015-08-07T09:12:29.000Z</time>
      </trkpt>
      <trkpt lat="45.44011" lon="5.68787">
        <ele>825</ele>
        <time>2015-08-07T09:12:30.000Z</time>
      </trkpt>
      <trkpt lat="45.44011" lon="5.68782">
        <ele>826</ele>
        <time>2015-08-07T09:12:31.000Z</time>
      </trkpt>
      <trkpt lat="45.44011" lon="5.68777">
        <ele>826</ele>
        <time>2015-08-07T09:12:32.000Z</time>
      </trkpt>
      <trkpt lat="45.4401" lon="5.68771">
        <ele>826</ele>
        <time>2015-08-07T09:12:33.000Z</time>
      </trkpt>
      <trkpt lat="45.44009" lon="5.68766">
        <ele>826</ele>
        <time>2015-08-07T09:12:34.000Z</time>
      </trkpt>
      <trkpt lat="45.44007" lon="5.68761">
        <ele>826</ele>
        <time>2015-08-07T09:12:35.000Z</time>
      </trkpt>
      <trkpt lat="45.44005" lon="5.68756">
        <ele>826</ele>
        <time>2015-08-07T09:12:36.000Z</time>
      </trkpt>
      <trkpt lat="45.44003" lon="5.68751">
        <ele>826</ele>
        <time>2015-08-07T09:12:37.000Z</time>
      </trkpt>
      <trkpt lat="45.44001" lon="5.68747">
        <ele>827</ele>
        <time>2015-08-07T09:12:38.000Z</time>
      </trkpt>
      <trkpt lat="45.43999" lon="5.68743">
        <ele>827</ele>
        <time>2015-08-07T09:12:39.000Z</time>
      </trkpt>
      <trkpt lat="45.43997" lon="5.68739">
        <ele>827</ele>
        <time>2015-08-07T09:12:40.000Z</time>
      </trkpt>
      <trkpt lat="45.43995" lon="5.68736">
        <ele>827</ele>
        <time>2015-08-07T09:12:41.000Z</time>
      </trkpt>
      <trkpt lat="45.43992" lon="5.68733">
        <ele>827</ele>
        <time>2015-08-07T09:12:42.000Z</time>
      </trkpt>
      <trkpt lat="45.4399" lon="5.68729">
        <ele>827</ele>
        <time>2015-08-07T09:12:43.000Z</time>
      </trkpt>
      <trkpt lat="45.43988" lon="5.68725">
        <ele>828</ele>
        <time>2015-08-07T09:12:44.000Z</time>
      </trkpt>
      <trkpt lat="45.43985" lon="5.68722">
        <ele>828</ele>
        <time>2015-08-07T09:12:45.000Z</time>
      </trkpt>
      <trkpt lat="45.43983" lon="5.68719">
        <ele>828</ele>
        <time>2015-08-07T09:12:46.000Z</time>
      </trkpt>
      <trkpt lat="45.43981" lon="5.68715">
        <ele>828</ele>
        <time>2015-08-07T09:12:46.998Z</time>
      </trkpt>
      <trkpt lat="45.43979" lon="5.68712">
        <ele>828</ele>
        <time>2015-08-07T09:12:48.000Z</time>
      </trkpt>
      <trkpt lat="45.43975" lon="5.6871">
        <ele>828</ele>
        <time>2015-08-07T09:12:49.000Z</time>
      </trkpt>
      <trkpt lat="45.43972" lon="5.68706">
        <ele>829</ele>
        <time>2015-08-07T09:12:50.000Z</time>
      </trkpt>
      <trkpt lat="45.43969" lon="5.68703">
        <ele>829</ele>
        <time>2015-08-07T09:12:51.000Z</time>
      </trkpt>
      <trkpt lat="45.43966" lon="5.68701">
        <ele>829</ele>
        <time>2015-08-07T09:12:52.000Z</time>
      </trkpt>
      <trkpt lat="45.43963" lon="5.68698">
        <ele>829</ele>
        <time>2015-08-07T09:12:53.000Z</time>
      </trkpt>
      <trkpt lat="45.43961" lon="5.68694">
        <ele>829</ele>
        <time>2015-08-07T09:12:54.000Z</time>
      </trkpt>
      <trkpt lat="45.43959" lon="5.68691">
        <ele>829</ele>
        <time>2015-08-07T09:12:55.000Z</time>
      </trkpt>
      <trkpt lat="45.43956" lon="5.68688">
        <ele>829</ele>
        <time>2015-08-07T09:12:56.000Z</time>
      </trkpt>
      <trkpt lat="45.43954" lon="5.68684">
        <ele>829</ele>
        <time>2015-08-07T09:12:57.000Z</time>
      </trkpt>
      <trkpt lat="45.43951" lon="5.68681">
        <ele>829</ele>
        <time>2015-08-07T09:12:58.000Z</time>
      </trkpt>
      <trkpt lat="45.43949" lon="5.68678">
        <ele>829</ele>
        <time>2015-08-07T09:12:59.000Z</time>
      </trkpt>
      <trkpt lat="45.43946" lon="5.68674">
        <ele>829</ele>
        <time>2015-08-07T09:13:00.000Z</time>
      </trkpt>
      <trkpt lat="45.43944" lon="5.68671">
        <ele>829</ele>
        <time>2015-08-07T09:13:01.000Z</time>
      </trkpt>
      <trkpt lat="45.43942" lon="5.68667">
        <ele>829</ele>
        <time>2015-08-07T09:13:02.000Z</time>
      </trkpt>
      <trkpt lat="45.43939" lon="5.68664">
        <ele>832</ele>
        <time>2015-08-07T09:13:03.000Z</time>
      </trkpt>
      <trkpt lat="45.43937" lon="5.68661">
        <ele>832</ele>
        <time>2015-08-07T09:13:04.001Z</time>
      </trkpt>
      <trkpt lat="45.43935" lon="5.68657">
        <ele>832</ele>
        <time>2015-08-07T09:13:05.000Z</time>
      </trkpt>
      <trkpt lat="45.43933" lon="5.68654">
        <ele>832</ele>
        <time>2015-08-07T09:13:06.000Z</time>
      </trkpt>
      <trkpt lat="45.4393" lon="5.68651">
        <ele>832</ele>
        <time>2015-08-07T09:13:07.000Z</time>
      </trkpt>
      <trkpt lat="45.43928" lon="5.68648">
        <ele>832</ele>
        <time>2015-08-07T09:13:08.000Z</time>
      </trkpt>
      <trkpt lat="45.43926" lon="5.68644">
        <ele>833</ele>
        <time>2015-08-07T09:13:09.000Z</time>
      </trkpt>
      <trkpt lat="45.43923" lon="5.68641">
        <ele>833</ele>
        <time>2015-08-07T09:13:10.000Z</time>
      </trkpt>
      <trkpt lat="45.43921" lon="5.68637">
        <ele>833</ele>
        <time>2015-08-07T09:13:11.000Z</time>
      </trkpt>
      <trkpt lat="45.43919" lon="5.68634">
        <ele>833</ele>
        <time>2015-08-07T09:13:12.000Z</time>
      </trkpt>
      <trkpt lat="45.43917" lon="5.68631">
        <ele>834</ele>
        <time>2015-08-07T09:13:13.000Z</time>
      </trkpt>
      <trkpt lat="45.43915" lon="5.68628">
        <ele>832</ele>
        <time>2015-08-07T09:13:14.000Z</time>
      </trkpt>
      <trkpt lat="45.43913" lon="5.68625">
        <ele>832</ele>
        <time>2015-08-07T09:13:15.000Z</time>
      </trkpt>
      <trkpt lat="45.43911" lon="5.68622">
        <ele>832</ele>
        <time>2015-08-07T09:13:16.000Z</time>
      </trkpt>
      <trkpt lat="45.43909" lon="5.68619">
        <ele>832</ele>
        <time>2015-08-07T09:13:17.000Z</time>
      </trkpt>
      <trkpt lat="45.43907" lon="5.68616">
        <ele>833</ele>
        <time>2015-08-07T09:13:18.000Z</time>
      </trkpt>
      <trkpt lat="45.43905" lon="5.68613">
        <ele>833</ele>
        <time>2015-08-07T09:13:19.000Z</time>
      </trkpt>
      <trkpt lat="45.43903" lon="5.6861">
        <ele>833</ele>
        <time>2015-08-07T09:13:20.000Z</time>
      </trkpt>
      <trkpt lat="45.439" lon="5.68607">
        <ele>833</ele>
        <time>2015-08-07T09:13:21.000Z</time>
      </trkpt>
      <trkpt lat="45.43898" lon="5.68604">
        <ele>833</ele>
        <time>2015-08-07T09:13:22.000Z</time>
      </trkpt>
      <trkpt lat="45.43895" lon="5.68601">
        <ele>833</ele>
        <time>2015-08-07T09:13:23.000Z</time>
      </trkpt>
      <trkpt lat="45.43893" lon="5.68598">
        <ele>833</ele>
        <time>2015-08-07T09:13:24.000Z</time>
      </trkpt>
      <trkpt lat="45.43891" lon="5.68596">
        <ele>833</ele>
        <time>2015-08-07T09:13:25.000Z</time>
      </trkpt>
      <trkpt lat="45.43889" lon="5.68594">
        <ele>833</ele>
        <time>2015-08-07T09:13:26.000Z</time>
      </trkpt>
      <trkpt lat="45.43887" lon="5.68592">
        <ele>833</ele>
        <time>2015-08-07T09:13:27.000Z</time>
      </trkpt>
      <trkpt lat="45.43885" lon="5.6859">
        <ele>833</ele>
        <time>2015-08-07T09:13:28.000Z</time>
      </trkpt>
      <trkpt lat="45.43883" lon="5.68587">
        <ele>833</ele>
        <time>2015-08-07T09:13:29.000Z</time>
      </trkpt>
      <trkpt lat="45.43881" lon="5.68584">
        <ele>833</ele>
        <time>2015-08-07T09:13:30.000Z</time>
      </trkpt>
      <trkpt lat="45.43879" lon="5.6858">
        <ele>837</ele>
        <time>2015-08-07T09:13:31.000Z</time>
      </trkpt>
      <trkpt lat="45.43877" lon="5.68577">
        <ele>837</ele>
        <time>2015-08-07T09:13:32.000Z</time>
      </trkpt>
      <trkpt lat="45.43875" lon="5.68574">
        <ele>837</ele>
        <time>2015-08-07T09:13:33.000Z</time>
      </trkpt>
      <trkpt lat="45.43873" lon="5.68571">
        <ele>837</ele>
        <time>2015-08-07T09:13:34.000Z</time>
      </trkpt>
      <trkpt lat="45.43871" lon="5.68568">
        <ele>837</ele>
        <time>2015-08-07T09:13:35.000Z</time>
      </trkpt>
      <trkpt lat="45.43869" lon="5.68565">
        <ele>837</ele>
        <time>2015-08-07T09:13:36.000Z</time>
      </trkpt>
      <trkpt lat="45.43866" lon="5.68561">
        <ele>837</ele>
        <time>2015-08-07T09:13:37.000Z</time>
      </trkpt>
      <trkpt lat="45.43863" lon="5.68558">
        <ele>837</ele>
        <time>2015-08-07T09:13:38.000Z</time>
      </trkpt>
      <trkpt lat="45.43861" lon="5.68555">
        <ele>837</ele>
        <time>2015-08-07T09:13:39.000Z</time>
      </trkpt>
      <trkpt lat="45.43859" lon="5.68553">
        <ele>837</ele>
        <time>2015-08-07T09:13:40.000Z</time>
      </trkpt>
      <trkpt lat="45.43857" lon="5.68549">
        <ele>837</ele>
        <time>2015-08-07T09:13:41.000Z</time>
      </trkpt>
      <trkpt lat="45.43855" lon="5.68546">
        <ele>837</ele>
        <time>2015-08-07T09:13:42.000Z</time>
      </trkpt>
      <trkpt lat="45.43854" lon="5.68543">
        <ele>837</ele>
        <time>2015-08-07T09:13:43.000Z</time>
      </trkpt>
      <trkpt lat="45.43852" lon="5.6854">
        <ele>838</ele>
        <time>2015-08-07T09:13:44.000Z</time>
      </trkpt>
      <trkpt lat="45.4385" lon="5.68537">
        <ele>838</ele>
        <time>2015-08-07T09:13:45.000Z</time>
      </trkpt>
      <trkpt lat="45.43847" lon="5.68534">
        <ele>838</ele>
        <time>2015-08-07T09:13:46.000Z</time>
      </trkpt>
      <trkpt lat="45.43845" lon="5.68531">
        <ele>838</ele>
        <time>2015-08-07T09:13:47.000Z</time>
      </trkpt>
      <trkpt lat="45.43843" lon="5.68528">
        <ele>838</ele>
        <time>2015-08-07T09:13:48.000Z</time>
      </trkpt>
      <trkpt lat="45.43841" lon="5.68525">
        <ele>838</ele>
        <time>2015-08-07T09:13:49.000Z</time>
      </trkpt>
      <trkpt lat="45.43839" lon="5.68522">
        <ele>838</ele>
        <time>2015-08-07T09:13:50.000Z</time>
      </trkpt>
      <trkpt lat="45.43836" lon="5.68519">
        <ele>839</ele>
        <time>2015-08-07T09:13:51.000Z</time>
      </trkpt>
      <trkpt lat="45.43834" lon="5.68517">
        <ele>839</ele>
        <time>2015-08-07T09:13:52.000Z</time>
      </trkpt>
      <trkpt lat="45.43833" lon="5.68514">
        <ele>838</ele>
        <time>2015-08-07T09:13:53.000Z</time>
      </trkpt>
      <trkpt lat="45.43831" lon="5.68511">
        <ele>839</ele>
        <time>2015-08-07T09:13:54.000Z</time>
      </trkpt>
      <trkpt lat="45.43829" lon="5.68508">
        <ele>839</ele>
        <time>2015-08-07T09:13:55.000Z</time>
      </trkpt>
      <trkpt lat="45.43826" lon="5.68505">
        <ele>839</ele>
        <time>2015-08-07T09:13:56.000Z</time>
      </trkpt>
      <trkpt lat="45.43824" lon="5.68502">
        <ele>839</ele>
        <time>2015-08-07T09:13:57.001Z</time>
      </trkpt>
      <trkpt lat="45.43822" lon="5.68499">
        <ele>840</ele>
        <time>2015-08-07T09:13:58.000Z</time>
      </trkpt>
      <trkpt lat="45.4382" lon="5.68496">
        <ele>840</ele>
        <time>2015-08-07T09:13:59.001Z</time>
      </trkpt>
      <trkpt lat="45.43818" lon="5.68491">
        <ele>840</ele>
        <time>2015-08-07T09:14:02.000Z</time>
      </trkpt>
      <trkpt lat="45.43817" lon="5.68489">
        <ele>840</ele>
        <time>2015-08-07T09:14:03.000Z</time>
      </trkpt>
      <trkpt lat="45.43815" lon="5.68485">
        <ele>841</ele>
        <time>2015-08-07T09:14:07.000Z</time>
      </trkpt>
      <trkpt lat="45.43814" lon="5.68484">
        <ele>841</ele>
        <time>2015-08-07T09:14:08.000Z</time>
      </trkpt>
      <trkpt lat="45.43811" lon="5.6848">
        <ele>841</ele>
        <time>2015-08-07T09:14:11.000Z</time>
      </trkpt>
      <trkpt lat="45.4381" lon="5.68479">
        <ele>841</ele>
        <time>2015-08-07T09:14:12.000Z</time>
      </trkpt>
      <trkpt lat="45.4381" lon="5.68483">
        <ele>841</ele>
        <time>2015-08-07T09:14:20.000Z</time>
      </trkpt>
      <trkpt lat="45.43812" lon="5.68485">
        <ele>841</ele>
        <time>2015-08-07T09:14:21.000Z</time>
      </trkpt>
      <trkpt lat="45.43814" lon="5.68488">
        <ele>840</ele>
        <time>2015-08-07T09:14:22.000Z</time>
      </trkpt>
      <trkpt lat="45.43817" lon="5.6849">
        <ele>840</ele>
        <time>2015-08-07T09:14:23.000Z</time>
      </trkpt>
      <trkpt lat="45.4382" lon="5.68492">
        <ele>840</ele>
        <time>2015-08-07T09:14:24.000Z</time>
      </trkpt>
      <trkpt lat="45.43823" lon="5.68495">
        <ele>840</ele>
        <time>2015-08-07T09:14:25.000Z</time>
      </trkpt>
      <trkpt lat="45.43827" lon="5.68498">
        <ele>840</ele>
        <time>2015-08-07T09:14:26.000Z</time>
      </trkpt>
      <trkpt lat="45.43829" lon="5.68501">
        <ele>839</ele>
        <time>2015-08-07T09:14:26.999Z</time>
      </trkpt>
      <trkpt lat="45.43833" lon="5.68506">
        <ele>839</ele>
        <time>2015-08-07T09:14:28.000Z</time>
      </trkpt>
      <trkpt lat="45.43836" lon="5.6851">
        <ele>839</ele>
        <time>2015-08-07T09:14:29.000Z</time>
      </trkpt>
      <trkpt lat="45.4384" lon="5.68514">
        <ele>839</ele>
        <time>2015-08-07T09:14:30.000Z</time>
      </trkpt>
      <trkpt lat="45.43843" lon="5.68519">
        <ele>838</ele>
        <time>2015-08-07T09:14:31.000Z</time>
      </trkpt>
      <trkpt lat="45.43846" lon="5.68523">
        <ele>838</ele>
        <time>2015-08-07T09:14:32.000Z</time>
      </trkpt>
      <trkpt lat="45.43848" lon="5.68527">
        <ele>838</ele>
        <time>2015-08-07T09:14:33.001Z</time>
      </trkpt>
      <trkpt lat="45.43851" lon="5.68531">
        <ele>838</ele>
        <time>2015-08-07T09:14:34.000Z</time>
      </trkpt>
      <trkpt lat="45.43854" lon="5.68534">
        <ele>838</ele>
        <time>2015-08-07T09:14:35.000Z</time>
      </trkpt>
      <trkpt lat="45.43858" lon="5.68537">
        <ele>838</ele>
        <time>2015-08-07T09:14:36.000Z</time>
      </trkpt>
      <trkpt lat="45.43861" lon="5.68538">
        <ele>838</ele>
        <time>2015-08-07T09:14:37.000Z</time>
      </trkpt>
      <trkpt lat="45.43864" lon="5.68538">
        <ele>838</ele>
        <time>2015-08-07T09:14:38.000Z</time>
      </trkpt>
      <trkpt lat="45.43867" lon="5.68539">
        <ele>838</ele>
        <time>2015-08-07T09:14:39.000Z</time>
      </trkpt>
      <trkpt lat="45.4387" lon="5.68538">
        <ele>838</ele>
        <time>2015-08-07T09:14:40.000Z</time>
      </trkpt>
      <trkpt lat="45.43873" lon="5.68538">
        <ele>838</ele>
        <time>2015-08-07T09:14:41.000Z</time>
      </trkpt>
      <trkpt lat="45.43875" lon="5.68537">
        <ele>838</ele>
        <time>2015-08-07T09:14:42.000Z</time>
      </trkpt>
      <trkpt lat="45.43877" lon="5.68535">
        <ele>838</ele>
        <time>2015-08-07T09:14:43.000Z</time>
      </trkpt>
      <trkpt lat="45.43879" lon="5.68534">
        <ele>838</ele>
        <time>2015-08-07T09:14:44.000Z</time>
      </trkpt>
      <trkpt lat="45.43881" lon="5.68531">
        <ele>838</ele>
        <time>2015-08-07T09:14:45.000Z</time>
      </trkpt>
      <trkpt lat="45.43882" lon="5.68529">
        <ele>838</ele>
        <time>2015-08-07T09:14:46.000Z</time>
      </trkpt>
      <trkpt lat="45.43884" lon="5.68526">
        <ele>838</ele>
        <time>2015-08-07T09:14:47.000Z</time>
      </trkpt>
      <trkpt lat="45.43884" lon="5.68523">
        <ele>838</ele>
        <time>2015-08-07T09:14:48.000Z</time>
      </trkpt>
      <trkpt lat="45.43884" lon="5.68516">
        <ele>838</ele>
        <time>2015-08-07T09:14:50.000Z</time>
      </trkpt>
      <trkpt lat="45.43883" lon="5.68513">
        <ele>838</ele>
        <time>2015-08-07T09:14:51.000Z</time>
      </trkpt>
      <trkpt lat="45.43882" lon="5.68507">
        <ele>838</ele>
        <time>2015-08-07T09:14:53.000Z</time>
      </trkpt>
      <trkpt lat="45.4388" lon="5.68504">
        <ele>838</ele>
        <time>2015-08-07T09:14:54.000Z</time>
      </trkpt>
      <trkpt lat="45.43879" lon="5.68501">
        <ele>838</ele>
        <time>2015-08-07T09:14:55.000Z</time>
      </trkpt>
      <trkpt lat="45.43878" lon="5.68498">
        <ele>841</ele>
        <time>2015-08-07T09:14:55.999Z</time>
      </trkpt>
      <trkpt lat="45.43876" lon="5.68495">
        <ele>841</ele>
        <time>2015-08-07T09:14:57.000Z</time>
      </trkpt>
      <trkpt lat="45.43874" lon="5.68492">
        <ele>841</ele>
        <time>2015-08-07T09:14:58.000Z</time>
      </trkpt>
      <trkpt lat="45.43872" lon="5.68488">
        <ele>841</ele>
        <time>2015-08-07T09:14:59.000Z</time>
      </trkpt>
      <trkpt lat="45.43871" lon="5.68485">
        <ele>841</ele>
        <time>2015-08-07T09:15:00.000Z</time>
      </trkpt>
      <trkpt lat="45.4387" lon="5.68483">
        <ele>841</ele>
        <time>2015-08-07T09:15:01.000Z</time>
      </trkpt>
      <trkpt lat="45.43869" lon="5.6848">
        <ele>841</ele>
        <time>2015-08-07T09:15:02.000Z</time>
      </trkpt>
      <trkpt lat="45.43868" lon="5.68474">
        <ele>841</ele>
        <time>2015-08-07T09:15:04.000Z</time>
      </trkpt>
      <trkpt lat="45.43868" lon="5.68471">
        <ele>841</ele>
        <time>2015-08-07T09:15:04.998Z</time>
      </trkpt>
      <trkpt lat="45.43867" lon="5.68465">
        <ele>841</ele>
        <time>2015-08-07T09:15:07.000Z</time>
      </trkpt>
      <trkpt lat="45.43867" lon="5.68462">
        <ele>841</ele>
        <time>2015-08-07T09:15:08.000Z</time>
      </trkpt>
      <trkpt lat="45.43866" lon="5.68459">
        <ele>841</ele>
        <time>2015-08-07T09:15:09.000Z</time>
      </trkpt>
      <trkpt lat="45.43865" lon="5.68455">
        <ele>841</ele>
        <time>2015-08-07T09:15:10.000Z</time>
      </trkpt>
      <trkpt lat="45.43864" lon="5.68452">
        <ele>841</ele>
        <time>2015-08-07T09:15:11.000Z</time>
      </trkpt>
      <trkpt lat="45.43863" lon="5.68449">
        <ele>842</ele>
        <time>2015-08-07T09:15:12.000Z</time>
      </trkpt>
      <trkpt lat="45.43862" lon="5.68444">
        <ele>842</ele>
        <time>2015-08-07T09:15:14.000Z</time>
      </trkpt>
      <trkpt lat="45.43862" lon="5.68441">
        <ele>842</ele>
        <time>2015-08-07T09:15:15.000Z</time>
      </trkpt>
      <trkpt lat="45.43861" lon="5.68436">
        <ele>842</ele>
        <time>2015-08-07T09:15:17.000Z</time>
      </trkpt>
      <trkpt lat="45.43861" lon="5.68433">
        <ele>842</ele>
        <time>2015-08-07T09:15:18.000Z</time>
      </trkpt>
      <trkpt lat="45.43861" lon="5.68428">
        <ele>842</ele>
        <time>2015-08-07T09:15:20.000Z</time>
      </trkpt>
      <trkpt lat="45.4386" lon="5.68425">
        <ele>842</ele>
        <time>2015-08-07T09:15:21.000Z</time>
      </trkpt>
      <trkpt lat="45.43859" lon="5.68419">
        <ele>842</ele>
        <time>2015-08-07T09:15:23.000Z</time>
      </trkpt>
      <trkpt lat="45.43858" lon="5.68417">
        <ele>846</ele>
        <time>2015-08-07T09:15:24.000Z</time>
      </trkpt>
      <trkpt lat="45.43857" lon="5.68411">
        <ele>846</ele>
        <time>2015-08-07T09:15:26.000Z</time>
      </trkpt>
      <trkpt lat="45.43856" lon="5.68408">
        <ele>846</ele>
        <time>2015-08-07T09:15:27.000Z</time>
      </trkpt>
      <trkpt lat="45.43854" lon="5.68403">
        <ele>846</ele>
        <time>2015-08-07T09:15:29.000Z</time>
      </trkpt>
      <trkpt lat="45.43854" lon="5.68401">
        <ele>846</ele>
        <time>2015-08-07T09:15:30.000Z</time>
      </trkpt>
      <trkpt lat="45.43853" lon="5.68396">
        <ele>846</ele>
        <time>2015-08-07T09:15:32.000Z</time>
      </trkpt>
      <trkpt lat="45.43852" lon="5.68393">
        <ele>846</ele>
        <time>2015-08-07T09:15:33.000Z</time>
      </trkpt>
      <trkpt lat="45.4385" lon="5.68388">
        <ele>846</ele>
        <time>2015-08-07T09:15:34.998Z</time>
      </trkpt>
      <trkpt lat="45.43849" lon="5.68386">
        <ele>847</ele>
        <time>2015-08-07T09:15:36.000Z</time>
      </trkpt>
      <trkpt lat="45.43847" lon="5.68381">
        <ele>847</ele>
        <time>2015-08-07T09:15:38.000Z</time>
      </trkpt>
      <trkpt lat="45.43846" lon="5.68378">
        <ele>847</ele>
        <time>2015-08-07T09:15:39.000Z</time>
      </trkpt>
      <trkpt lat="45.43844" lon="5.68373">
        <ele>847</ele>
        <time>2015-08-07T09:15:41.000Z</time>
      </trkpt>
      <trkpt lat="45.43843" lon="5.6837">
        <ele>847</ele>
        <time>2015-08-07T09:15:42.000Z</time>
      </trkpt>
      <trkpt lat="45.43842" lon="5.68365">
        <ele>847</ele>
        <time>2015-08-07T09:15:44.000Z</time>
      </trkpt>
      <trkpt lat="45.43841" lon="5.68363">
        <ele>848</ele>
        <time>2015-08-07T09:15:45.000Z</time>
      </trkpt>
      <trkpt lat="45.4384" lon="5.68358">
        <ele>848</ele>
        <time>2015-08-07T09:15:47.000Z</time>
      </trkpt>
      <trkpt lat="45.4384" lon="5.68356">
        <ele>848</ele>
        <time>2015-08-07T09:15:48.000Z</time>
      </trkpt>
      <trkpt lat="45.4384" lon="5.68351">
        <ele>848</ele>
        <time>2015-08-07T09:15:50.000Z</time>
      </trkpt>
      <trkpt lat="45.4384" lon="5.68348">
        <ele>848</ele>
        <time>2015-08-07T09:15:51.000Z</time>
      </trkpt>
      <trkpt lat="45.43839" lon="5.68343">
        <ele>848</ele>
        <time>2015-08-07T09:15:53.000Z</time>
      </trkpt>
      <trkpt lat="45.43838" lon="5.6834">
        <ele>849</ele>
        <time>2015-08-07T09:15:54.000Z</time>
      </trkpt>
      <trkpt lat="45.43837" lon="5.68335">
        <ele>849</ele>
        <time>2015-08-07T09:15:56.000Z</time>
      </trkpt>
      <trkpt lat="45.43836" lon="5.68333">
        <ele>850</ele>
        <time>2015-08-07T09:15:57.000Z</time>
      </trkpt>
      <trkpt lat="45.43836" lon="5.68329">
        <ele>851</ele>
        <time>2015-08-07T09:15:59.000Z</time>
      </trkpt>
      <trkpt lat="45.43836" lon="5.68327">
        <ele>851</ele>
        <time>2015-08-07T09:16:00.000Z</time>
      </trkpt>
      <trkpt lat="45.43836" lon="5.68322">
        <ele>853</ele>
        <time>2015-08-07T09:16:02.000Z</time>
      </trkpt>
      <trkpt lat="45.43837" lon="5.68319">
        <ele>853</ele>
        <time>2015-08-07T09:16:03.000Z</time>
      </trkpt>
      <trkpt lat="45.43838" lon="5.68315">
        <ele>854</ele>
        <time>2015-08-07T09:16:05.000Z</time>
      </trkpt>
      <trkpt lat="45.43838" lon="5.68312">
        <ele>855</ele>
        <time>2015-08-07T09:16:06.000Z</time>
      </trkpt>
      <trkpt lat="45.4384" lon="5.68308">
        <ele>856</ele>
        <time>2015-08-07T09:16:08.000Z</time>
      </trkpt>
      <trkpt lat="45.4384" lon="5.68305">
        <ele>856</ele>
        <time>2015-08-07T09:16:09.000Z</time>
      </trkpt>
      <trkpt lat="45.43841" lon="5.683">
        <ele>857</ele>
        <time>2015-08-07T09:16:11.000Z</time>
      </trkpt>
      <trkpt lat="45.43841" lon="5.68297">
        <ele>857</ele>
        <time>2015-08-07T09:16:12.000Z</time>
      </trkpt>
      <trkpt lat="45.43842" lon="5.68293">
        <ele>858</ele>
        <time>2015-08-07T09:16:14.000Z</time>
      </trkpt>
      <trkpt lat="45.43842" lon="5.68291">
        <ele>858</ele>
        <time>2015-08-07T09:16:15.000Z</time>
      </trkpt>
      <trkpt lat="45.43844" lon="5.68286">
        <ele>858</ele>
        <time>2015-08-07T09:16:17.000Z</time>
      </trkpt>
      <trkpt lat="45.43845" lon="5.68284">
        <ele>858</ele>
        <time>2015-08-07T09:16:18.000Z</time>
      </trkpt>
      <trkpt lat="45.43847" lon="5.6828">
        <ele>859</ele>
        <time>2015-08-07T09:16:20.000Z</time>
      </trkpt>
      <trkpt lat="45.43847" lon="5.68278">
        <ele>859</ele>
        <time>2015-08-07T09:16:20.999Z</time>
      </trkpt>
      <trkpt lat="45.43849" lon="5.68272">
        <ele>860</ele>
        <time>2015-08-07T09:16:24.000Z</time>
      </trkpt>
      <trkpt lat="45.43849" lon="5.68271">
        <ele>860</ele>
        <time>2015-08-07T09:16:25.000Z</time>
      </trkpt>
      <trkpt lat="45.43852" lon="5.68266">
        <ele>860</ele>
        <time>2015-08-07T09:16:29.000Z</time>
      </trkpt>
      <trkpt lat="45.43853" lon="5.68265">
        <ele>860</ele>
        <time>2015-08-07T09:16:30.000Z</time>
      </trkpt>
      <trkpt lat="45.43857" lon="5.68267">
        <ele>860</ele>
        <time>2015-08-07T09:16:36.000Z</time>
      </trkpt>
      <trkpt lat="45.43858" lon="5.68267">
        <ele>860</ele>
        <time>2015-08-07T09:16:37.000Z</time>
      </trkpt>
      <trkpt lat="45.43861" lon="5.68268">
        <ele>860</ele>
        <time>2015-08-07T09:16:49.000Z</time>
      </trkpt>
      <trkpt lat="45.43862" lon="5.68269">
        <ele>860</ele>
        <time>2015-08-07T09:16:50.000Z</time>
      </trkpt>
      <trkpt lat="45.43866" lon="5.68269">
        <ele>860</ele>
        <time>2015-08-07T09:16:52.000Z</time>
      </trkpt>
      <trkpt lat="45.43868" lon="5.68269">
        <ele>860</ele>
        <time>2015-08-07T09:16:53.000Z</time>
      </trkpt>
      <trkpt lat="45.43872" lon="5.68269">
        <ele>861</ele>
        <time>2015-08-07T09:16:55.000Z</time>
      </trkpt>
      <trkpt lat="45.43873" lon="5.68269">
        <ele>861</ele>
        <time>2015-08-07T09:16:56.001Z</time>
      </trkpt>
      <trkpt lat="45.43877" lon="5.68272">
        <ele>861</ele>
        <time>2015-08-07T09:17:00.000Z</time>
      </trkpt>
      <trkpt lat="45.43878" lon="5.68272">
        <ele>861</ele>
        <time>2015-08-07T09:17:01.000Z</time>
      </trkpt>
      <trkpt lat="45.43882" lon="5.68273">
        <ele>861</ele>
        <time>2015-08-07T09:17:03.000Z</time>
      </trkpt>
      <trkpt lat="45.43885" lon="5.68273">
        <ele>861</ele>
        <time>2015-08-07T09:17:04.000Z</time>
      </trkpt>
      <trkpt lat="45.43888" lon="5.68273">
        <ele>862</ele>
        <time>2015-08-07T09:17:05.000Z</time>
      </trkpt>
      <trkpt lat="45.43891" lon="5.68273">
        <ele>862</ele>
        <time>2015-08-07T09:17:06.000Z</time>
      </trkpt>
      <trkpt lat="45.43894" lon="5.68273">
        <ele>862</ele>
        <time>2015-08-07T09:17:07.000Z</time>
      </trkpt>
      <trkpt lat="45.43901" lon="5.68274">
        <ele>863</ele>
        <time>2015-08-07T09:17:08.000Z</time>
      </trkpt>
      <trkpt lat="45.43906" lon="5.68272">
        <ele>864</ele>
        <time>2015-08-07T09:17:09.000Z</time>
      </trkpt>
      <trkpt lat="45.43907" lon="5.68276">
        <ele>863</ele>
        <time>2015-08-07T09:17:10.000Z</time>
      </trkpt>
      <trkpt lat="45.43909" lon="5.68277">
        <ele>863</ele>
        <time>2015-08-07T09:17:11.000Z</time>
      </trkpt>
      <trkpt lat="45.43912" lon="5.68278">
        <ele>863</ele>
        <time>2015-08-07T09:17:12.000Z</time>
      </trkpt>
      <trkpt lat="45.43914" lon="5.6828">
        <ele>863</ele>
        <time>2015-08-07T09:17:13.000Z</time>
      </trkpt>
      <trkpt lat="45.43916" lon="5.68282">
        <ele>862</ele>
        <time>2015-08-07T09:17:14.000Z</time>
      </trkpt>
      <trkpt lat="45.43919" lon="5.68284">
        <ele>866</ele>
        <time>2015-08-07T09:17:15.000Z</time>
      </trkpt>
      <trkpt lat="45.4392" lon="5.68287">
        <ele>866</ele>
        <time>2015-08-07T09:17:16.000Z</time>
      </trkpt>
      <trkpt lat="45.43922" lon="5.68288">
        <ele>866</ele>
        <time>2015-08-07T09:17:17.000Z</time>
      </trkpt>
      <trkpt lat="45.43925" lon="5.68289">
        <ele>866</ele>
        <time>2015-08-07T09:17:18.000Z</time>
      </trkpt>
      <trkpt lat="45.43929" lon="5.6829">
        <ele>866</ele>
        <time>2015-08-07T09:17:19.000Z</time>
      </trkpt>
      <trkpt lat="45.43932" lon="5.68291">
        <ele>866</ele>
        <time>2015-08-07T09:17:20.000Z</time>
      </trkpt>
      <trkpt lat="45.43935" lon="5.68292">
        <ele>866</ele>
        <time>2015-08-07T09:17:21.000Z</time>
      </trkpt>
      <trkpt lat="45.43939" lon="5.68293">
        <ele>866</ele>
        <time>2015-08-07T09:17:22.000Z</time>
      </trkpt>
      <trkpt lat="45.43942" lon="5.68295">
        <ele>866</ele>
        <time>2015-08-07T09:17:23.000Z</time>
      </trkpt>
      <trkpt lat="45.43946" lon="5.68297">
        <ele>865</ele>
        <time>2015-08-07T09:17:24.000Z</time>
      </trkpt>
      <trkpt lat="45.43949" lon="5.68299">
        <ele>865</ele>
        <time>2015-08-07T09:17:25.000Z</time>
      </trkpt>
      <trkpt lat="45.43953" lon="5.68301">
        <ele>865</ele>
        <time>2015-08-07T09:17:26.000Z</time>
      </trkpt>
      <trkpt lat="45.43956" lon="5.68303">
        <ele>865</ele>
        <time>2015-08-07T09:17:27.000Z</time>
      </trkpt>
      <trkpt lat="45.43959" lon="5.68304">
        <ele>865</ele>
        <time>2015-08-07T09:17:28.000Z</time>
      </trkpt>
      <trkpt lat="45.43963" lon="5.68305">
        <ele>865</ele>
        <time>2015-08-07T09:17:29.000Z</time>
      </trkpt>
      <trkpt lat="45.43967" lon="5.68305">
        <ele>866</ele>
        <time>2015-08-07T09:17:30.000Z</time>
      </trkpt>
      <trkpt lat="45.43971" lon="5.68306">
        <ele>866</ele>
        <time>2015-08-07T09:17:31.000Z</time>
      </trkpt>
      <trkpt lat="45.43975" lon="5.68306">
        <ele>866</ele>
        <time>2015-08-07T09:17:32.000Z</time>
      </trkpt>
      <trkpt lat="45.43978" lon="5.68307">
        <ele>866</ele>
        <time>2015-08-07T09:17:33.000Z</time>
      </trkpt>
      <trkpt lat="45.43981" lon="5.68309">
        <ele>866</ele>
        <time>2015-08-07T09:17:34.000Z</time>
      </trkpt>
      <trkpt lat="45.43984" lon="5.68311">
        <ele>866</ele>
        <time>2015-08-07T09:17:35.000Z</time>
      </trkpt>
      <trkpt lat="45.43986" lon="5.68313">
        <ele>865</ele>
        <time>2015-08-07T09:17:36.000Z</time>
      </trkpt>
      <trkpt lat="45.43989" lon="5.68314">
        <ele>865</ele>
        <time>2015-08-07T09:17:36.999Z</time>
      </trkpt>
      <trkpt lat="45.43991" lon="5.68318">
        <ele>865</ele>
        <time>2015-08-07T09:17:38.000Z</time>
      </trkpt>
      <trkpt lat="45.43993" lon="5.68321">
        <ele>865</ele>
        <time>2015-08-07T09:17:39.000Z</time>
      </trkpt>
      <trkpt lat="45.43995" lon="5.68323">
        <ele>864</ele>
        <time>2015-08-07T09:17:40.000Z</time>
      </trkpt>
      <trkpt lat="45.43996" lon="5.68326">
        <ele>864</ele>
        <time>2015-08-07T09:17:41.000Z</time>
      </trkpt>
      <trkpt lat="45.43999" lon="5.68327">
        <ele>864</ele>
        <time>2015-08-07T09:17:42.000Z</time>
      </trkpt>
      <trkpt lat="45.44002" lon="5.68329">
        <ele>864</ele>
        <time>2015-08-07T09:17:43.000Z</time>
      </trkpt>
      <trkpt lat="45.44005" lon="5.6833">
        <ele>865</ele>
        <time>2015-08-07T09:17:43.999Z</time>
      </trkpt>
      <trkpt lat="45.44009" lon="5.68332">
        <ele>865</ele>
        <time>2015-08-07T09:17:45.000Z</time>
      </trkpt>
      <trkpt lat="45.44011" lon="5.68333">
        <ele>862</ele>
        <time>2015-08-07T09:17:46.000Z</time>
      </trkpt>
      <trkpt lat="45.44015" lon="5.68337">
        <ele>861</ele>
        <time>2015-08-07T09:17:47.000Z</time>
      </trkpt>
      <trkpt lat="45.44018" lon="5.68339">
        <ele>861</ele>
        <time>2015-08-07T09:17:48.000Z</time>
      </trkpt>
      <trkpt lat="45.4402" lon="5.68341">
        <ele>861</ele>
        <time>2015-08-07T09:17:49.000Z</time>
      </trkpt>
      <trkpt lat="45.44024" lon="5.68344">
        <ele>861</ele>
        <time>2015-08-07T09:17:50.000Z</time>
      </trkpt>
      <trkpt lat="45.44027" lon="5.68347">
        <ele>861</ele>
        <time>2015-08-07T09:17:51.000Z</time>
      </trkpt>
      <trkpt lat="45.4403" lon="5.68349">
        <ele>860</ele>
        <time>2015-08-07T09:17:51.999Z</time>
      </trkpt>
      <trkpt lat="45.44034" lon="5.68354">
        <ele>860</ele>
        <time>2015-08-07T09:17:53.000Z</time>
      </trkpt>
      <trkpt lat="45.44037" lon="5.68357">
        <ele>860</ele>
        <time>2015-08-07T09:17:54.001Z</time>
      </trkpt>
      <trkpt lat="45.44041" lon="5.68362">
        <ele>860</ele>
        <time>2015-08-07T09:17:55.000Z</time>
      </trkpt>
      <trkpt lat="45.44044" lon="5.68367">
        <ele>860</ele>
        <time>2015-08-07T09:17:56.000Z</time>
      </trkpt>
      <trkpt lat="45.44046" lon="5.68371">
        <ele>860</ele>
        <time>2015-08-07T09:17:57.000Z</time>
      </trkpt>
      <trkpt lat="45.44048" lon="5.68375">
        <ele>859</ele>
        <time>2015-08-07T09:17:58.000Z</time>
      </trkpt>
      <trkpt lat="45.4405" lon="5.68379">
        <ele>859</ele>
        <time>2015-08-07T09:17:59.000Z</time>
      </trkpt>
      <trkpt lat="45.44052" lon="5.68382">
        <ele>859</ele>
        <time>2015-08-07T09:18:00.000Z</time>
      </trkpt>
      <trkpt lat="45.44055" lon="5.68385">
        <ele>859</ele>
        <time>2015-08-07T09:18:01.000Z</time>
      </trkpt>
      <trkpt lat="45.44057" lon="5.68388">
        <ele>859</ele>
        <time>2015-08-07T09:18:02.000Z</time>
      </trkpt>
      <trkpt lat="45.44059" lon="5.6839">
        <ele>859</ele>
        <time>2015-08-07T09:18:03.000Z</time>
      </trkpt>
      <trkpt lat="45.44062" lon="5.6839">
        <ele>859</ele>
        <time>2015-08-07T09:18:07.000Z</time>
      </trkpt>
      <trkpt lat="45.44063" lon="5.6839">
        <ele>859</ele>
        <time>2015-08-07T09:18:08.000Z</time>
      </trkpt>
      <trkpt lat="45.44067" lon="5.68388">
        <ele>859</ele>
        <time>2015-08-07T09:18:14.000Z</time>
      </trkpt>
      <trkpt lat="45.44068" lon="5.68388">
        <ele>859</ele>
        <time>2015-08-07T09:18:15.000Z</time>
      </trkpt>
      <trkpt lat="45.44072" lon="5.68386">
        <ele>859</ele>
        <time>2015-08-07T09:18:18.000Z</time>
      </trkpt>
      <trkpt lat="45.44073" lon="5.68385">
        <ele>859</ele>
        <time>2015-08-07T09:18:19.000Z</time>
      </trkpt>
      <trkpt lat="45.44075" lon="5.68388">
        <ele>859</ele>
        <time>2015-08-07T09:18:33.000Z</time>
      </trkpt>
      <trkpt lat="45.44077" lon="5.68389">
        <ele>859</ele>
        <time>2015-08-07T09:18:34.000Z</time>
      </trkpt>
      <trkpt lat="45.44081" lon="5.68391">
        <ele>859</ele>
        <time>2015-08-07T09:18:36.000Z</time>
      </trkpt>
      <trkpt lat="45.44083" lon="5.68393">
        <ele>859</ele>
        <time>2015-08-07T09:18:37.000Z</time>
      </trkpt>
      <trkpt lat="45.44084" lon="5.68397">
        <ele>860</ele>
        <time>2015-08-07T09:18:38.000Z</time>
      </trkpt>
      <trkpt lat="45.44086" lon="5.68401">
        <ele>860</ele>
        <time>2015-08-07T09:18:39.000Z</time>
      </trkpt>
      <trkpt lat="45.44087" lon="5.68405">
        <ele>859</ele>
        <time>2015-08-07T09:18:40.000Z</time>
      </trkpt>
      <trkpt lat="45.44088" lon="5.68409">
        <ele>859</ele>
        <time>2015-08-07T09:18:41.000Z</time>
      </trkpt>
      <trkpt lat="45.4409" lon="5.68412">
        <ele>859</ele>
        <time>2015-08-07T09:18:42.000Z</time>
      </trkpt>
      <trkpt lat="45.44092" lon="5.68413">
        <ele>859</ele>
        <time>2015-08-07T09:18:43.000Z</time>
      </trkpt>
      <trkpt lat="45.44095" lon="5.68411">
        <ele>859</ele>
        <time>2015-08-07T09:18:44.000Z</time>
      </trkpt>
      <trkpt lat="45.44097" lon="5.68409">
        <ele>860</ele>
        <time>2015-08-07T09:18:45.000Z</time>
      </trkpt>
      <trkpt lat="45.441" lon="5.68407">
        <ele>860</ele>
        <time>2015-08-07T09:18:46.000Z</time>
      </trkpt>
      <trkpt lat="45.44103" lon="5.68403">
        <ele>861</ele>
        <time>2015-08-07T09:18:47.000Z</time>
      </trkpt>
      <trkpt lat="45.44106" lon="5.684">
        <ele>861</ele>
        <time>2015-08-07T09:18:48.000Z</time>
      </trkpt>
      <trkpt lat="45.44109" lon="5.68397">
        <ele>861</ele>
        <time>2015-08-07T09:18:49.000Z</time>
      </trkpt>
      <trkpt lat="45.44111" lon="5.68394">
        <ele>861</ele>
        <time>2015-08-07T09:18:50.000Z</time>
      </trkpt>
      <trkpt lat="45.44113" lon="5.68392">
        <ele>862</ele>
        <time>2015-08-07T09:18:51.000Z</time>
      </trkpt>
      <trkpt lat="45.44115" lon="5.6839">
        <ele>862</ele>
        <time>2015-08-07T09:18:52.000Z</time>
      </trkpt>
      <trkpt lat="45.44117" lon="5.68387">
        <ele>862</ele>
        <time>2015-08-07T09:18:53.000Z</time>
      </trkpt>
      <trkpt lat="45.44119" lon="5.68385">
        <ele>862</ele>
        <time>2015-08-07T09:18:54.000Z</time>
      </trkpt>
      <trkpt lat="45.44121" lon="5.68382">
        <ele>862</ele>
        <time>2015-08-07T09:18:55.000Z</time>
      </trkpt>
      <trkpt lat="45.44123" lon="5.68379">
        <ele>862</ele>
        <time>2015-08-07T09:18:56.000Z</time>
      </trkpt>
      <trkpt lat="45.44126" lon="5.68377">
        <ele>862</ele>
        <time>2015-08-07T09:18:57.000Z</time>
      </trkpt>
      <trkpt lat="45.44129" lon="5.68375">
        <ele>863</ele>
        <time>2015-08-07T09:18:58.000Z</time>
      </trkpt>
      <trkpt lat="45.44131" lon="5.68373">
        <ele>863</ele>
        <time>2015-08-07T09:18:59.000Z</time>
      </trkpt>
      <trkpt lat="45.44134" lon="5.68372">
        <ele>863</ele>
        <time>2015-08-07T09:19:00.000Z</time>
      </trkpt>
      <trkpt lat="45.44135" lon="5.6837">
        <ele>863</ele>
        <time>2015-08-07T09:19:01.000Z</time>
      </trkpt>
      <trkpt lat="45.44138" lon="5.68366">
        <ele>863</ele>
        <time>2015-08-07T09:19:03.000Z</time>
      </trkpt>
      <trkpt lat="45.44139" lon="5.68364">
        <ele>863</ele>
        <time>2015-08-07T09:19:04.000Z</time>
      </trkpt>
      <trkpt lat="45.44142" lon="5.6836">
        <ele>863</ele>
        <time>2015-08-07T09:19:06.000Z</time>
      </trkpt>
      <trkpt lat="45.44144" lon="5.68358">
        <ele>863</ele>
        <time>2015-08-07T09:19:07.000Z</time>
      </trkpt>
      <trkpt lat="45.44146" lon="5.68355">
        <ele>863</ele>
        <time>2015-08-07T09:19:09.000Z</time>
      </trkpt>
      <trkpt lat="45.44147" lon="5.68352">
        <ele>863</ele>
        <time>2015-08-07T09:19:10.000Z</time>
      </trkpt>
      <trkpt lat="45.44148" lon="5.68347">
        <ele>863</ele>
        <time>2015-08-07T09:19:12.000Z</time>
      </trkpt>
      <trkpt lat="45.44149" lon="5.68344">
        <ele>863</ele>
        <time>2015-08-07T09:19:13.000Z</time>
      </trkpt>
      <trkpt lat="45.44151" lon="5.68338">
        <ele>864</ele>
        <time>2015-08-07T09:19:20.000Z</time>
      </trkpt>
      <trkpt lat="45.44151" lon="5.68338">
        <ele>864</ele>
        <time>2015-08-07T09:19:21.000Z</time>
      </trkpt>
      <trkpt lat="45.44154" lon="5.68334">
        <ele>864</ele>
        <time>2015-08-07T09:19:29.000Z</time>
      </trkpt>
      <trkpt lat="45.44155" lon="5.68333">
        <ele>865</ele>
        <time>2015-08-07T09:19:30.000Z</time>
      </trkpt>
      <trkpt lat="45.44157" lon="5.6833">
        <ele>865</ele>
        <time>2015-08-07T09:19:33.000Z</time>
      </trkpt>
      <trkpt lat="45.44158" lon="5.68328">
        <ele>865</ele>
        <time>2015-08-07T09:19:34.000Z</time>
      </trkpt>
      <trkpt lat="45.4416" lon="5.68325">
        <ele>865</ele>
        <time>2015-08-07T09:19:36.000Z</time>
      </trkpt>
      <trkpt lat="45.4416" lon="5.68322">
        <ele>865</ele>
        <time>2015-08-07T09:19:37.000Z</time>
      </trkpt>
      <trkpt lat="45.44161" lon="5.68316">
        <ele>866</ele>
        <time>2015-08-07T09:19:39.000Z</time>
      </trkpt>
      <trkpt lat="45.44161" lon="5.68313">
        <ele>866</ele>
        <time>2015-08-07T09:19:40.000Z</time>
      </trkpt>
      <trkpt lat="45.44162" lon="5.68307">
        <ele>866</ele>
        <time>2015-08-07T09:19:42.000Z</time>
      </trkpt>
      <trkpt lat="45.44163" lon="5.68304">
        <ele>866</ele>
        <time>2015-08-07T09:19:43.000Z</time>
      </trkpt>
      <trkpt lat="45.44164" lon="5.68301">
        <ele>866</ele>
        <time>2015-08-07T09:19:44.000Z</time>
      </trkpt>
      <trkpt lat="45.44166" lon="5.68299">
        <ele>866</ele>
        <time>2015-08-07T09:19:45.000Z</time>
      </trkpt>
      <trkpt lat="45.44169" lon="5.68298">
        <ele>864</ele>
        <time>2015-08-07T09:19:46.000Z</time>
      </trkpt>
      <trkpt lat="45.44171" lon="5.68296">
        <ele>864</ele>
        <time>2015-08-07T09:19:47.000Z</time>
      </trkpt>
      <trkpt lat="45.44173" lon="5.68295">
        <ele>864</ele>
        <time>2015-08-07T09:19:48.000Z</time>
      </trkpt>
      <trkpt lat="45.44175" lon="5.68293">
        <ele>864</ele>
        <time>2015-08-07T09:19:49.000Z</time>
      </trkpt>
      <trkpt lat="45.44177" lon="5.6829">
        <ele>864</ele>
        <time>2015-08-07T09:19:50.000Z</time>
      </trkpt>
      <trkpt lat="45.44179" lon="5.68288">
        <ele>864</ele>
        <time>2015-08-07T09:19:51.000Z</time>
      </trkpt>
      <trkpt lat="45.4418" lon="5.68285">
        <ele>864</ele>
        <time>2015-08-07T09:19:52.000Z</time>
      </trkpt>
      <trkpt lat="45.44182" lon="5.68283">
        <ele>864</ele>
        <time>2015-08-07T09:19:53.000Z</time>
      </trkpt>
      <trkpt lat="45.44186" lon="5.68279">
        <ele>864</ele>
        <time>2015-08-07T09:19:54.000Z</time>
      </trkpt>
      <trkpt lat="45.4419" lon="5.68274">
        <ele>864</ele>
        <time>2015-08-07T09:19:55.000Z</time>
      </trkpt>
      <trkpt lat="45.44194" lon="5.68269">
        <ele>864</ele>
        <time>2015-08-07T09:19:56.000Z</time>
      </trkpt>
      <trkpt lat="45.44198" lon="5.68264">
        <ele>864</ele>
        <time>2015-08-07T09:19:57.000Z</time>
      </trkpt>
      <trkpt lat="45.44201" lon="5.68259">
        <ele>864</ele>
        <time>2015-08-07T09:19:58.000Z</time>
      </trkpt>
      <trkpt lat="45.44204" lon="5.68255">
        <ele>864</ele>
        <time>2015-08-07T09:19:59.000Z</time>
      </trkpt>
      <trkpt lat="45.44207" lon="5.68253">
        <ele>864</ele>
        <time>2015-08-07T09:20:00.000Z</time>
      </trkpt>
      <trkpt lat="45.44209" lon="5.68251">
        <ele>864</ele>
        <time>2015-08-07T09:20:01.000Z</time>
      </trkpt>
      <trkpt lat="45.44212" lon="5.68249">
        <ele>862</ele>
        <time>2015-08-07T09:20:02.000Z</time>
      </trkpt>
      <trkpt lat="45.44215" lon="5.68248">
        <ele>862</ele>
        <time>2015-08-07T09:20:03.000Z</time>
      </trkpt>
      <trkpt lat="45.44217" lon="5.68248">
        <ele>862</ele>
        <time>2015-08-07T09:20:04.000Z</time>
      </trkpt>
      <trkpt lat="45.4422" lon="5.68247">
        <ele>862</ele>
        <time>2015-08-07T09:20:05.000Z</time>
      </trkpt>
      <trkpt lat="45.44222" lon="5.68246">
        <ele>862</ele>
        <time>2015-08-07T09:20:06.000Z</time>
      </trkpt>
      <trkpt lat="45.44224" lon="5.68245">
        <ele>862</ele>
        <time>2015-08-07T09:20:07.000Z</time>
      </trkpt>
      <trkpt lat="45.44226" lon="5.68244">
        <ele>862</ele>
        <time>2015-08-07T09:20:08.000Z</time>
      </trkpt>
      <trkpt lat="45.44229" lon="5.68243">
        <ele>862</ele>
        <time>2015-08-07T09:20:09.000Z</time>
      </trkpt>
      <trkpt lat="45.44231" lon="5.68242">
        <ele>862</ele>
        <time>2015-08-07T09:20:10.000Z</time>
      </trkpt>
      <trkpt lat="45.44234" lon="5.6824">
        <ele>862</ele>
        <time>2015-08-07T09:20:11.000Z</time>
      </trkpt>
      <trkpt lat="45.44237" lon="5.68239">
        <ele>862</ele>
        <time>2015-08-07T09:20:12.000Z</time>
      </trkpt>
      <trkpt lat="45.4424" lon="5.68238">
        <ele>862</ele>
        <time>2015-08-07T09:20:13.000Z</time>
      </trkpt>
      <trkpt lat="45.44244" lon="5.68237">
        <ele>862</ele>
        <time>2015-08-07T09:20:14.000Z</time>
      </trkpt>
      <trkpt lat="45.44248" lon="5.68236">
        <ele>862</ele>
        <time>2015-08-07T09:20:15.000Z</time>
      </trkpt>
      <trkpt lat="45.44251" lon="5.68234">
        <ele>858</ele>
        <time>2015-08-07T09:20:16.000Z</time>
      </trkpt>
      <trkpt lat="45.44255" lon="5.68233">
        <ele>858</ele>
        <time>2015-08-07T09:20:17.000Z</time>
      </trkpt>
      <trkpt lat="45.44258" lon="5.68232">
        <ele>857</ele>
        <time>2015-08-07T09:20:18.000Z</time>
      </trkpt>
      <trkpt lat="45.44261" lon="5.68231">
        <ele>857</ele>
        <time>2015-08-07T09:20:19.000Z</time>
      </trkpt>
      <trkpt lat="45.44264" lon="5.68229">
        <ele>856</ele>
        <time>2015-08-07T09:20:20.000Z</time>
      </trkpt>
      <trkpt lat="45.44267" lon="5.68228">
        <ele>856</ele>
        <time>2015-08-07T09:20:21.000Z</time>
      </trkpt>
      <trkpt lat="45.4427" lon="5.68226">
        <ele>855</ele>
        <time>2015-08-07T09:20:22.000Z</time>
      </trkpt>
      <trkpt lat="45.44273" lon="5.68223">
        <ele>855</ele>
        <time>2015-08-07T09:20:23.000Z</time>
      </trkpt>
      <trkpt lat="45.44276" lon="5.68221">
        <ele>855</ele>
        <time>2015-08-07T09:20:24.000Z</time>
      </trkpt>
      <trkpt lat="45.44279" lon="5.68219">
        <ele>854</ele>
        <time>2015-08-07T09:20:25.000Z</time>
      </trkpt>
      <trkpt lat="45.44282" lon="5.68218">
        <ele>854</ele>
        <time>2015-08-07T09:20:26.000Z</time>
      </trkpt>
      <trkpt lat="45.44285" lon="5.68217">
        <ele>854</ele>
        <time>2015-08-07T09:20:27.000Z</time>
      </trkpt>
      <trkpt lat="45.44287" lon="5.68215">
        <ele>853</ele>
        <time>2015-08-07T09:20:28.000Z</time>
      </trkpt>
      <trkpt lat="45.4429" lon="5.68214">
        <ele>853</ele>
        <time>2015-08-07T09:20:29.000Z</time>
      </trkpt>
      <trkpt lat="45.44293" lon="5.68213">
        <ele>853</ele>
        <time>2015-08-07T09:20:30.000Z</time>
      </trkpt>
      <trkpt lat="45.44297" lon="5.68211">
        <ele>852</ele>
        <time>2015-08-07T09:20:32.000Z</time>
      </trkpt>
      <trkpt lat="45.44298" lon="5.6821">
        <ele>852</ele>
        <time>2015-08-07T09:20:33.000Z</time>
      </trkpt>
      <trkpt lat="45.44302" lon="5.68208">
        <ele>852</ele>
        <time>2015-08-07T09:20:35.000Z</time>
      </trkpt>
      <trkpt lat="45.44304" lon="5.68206">
        <ele>852</ele>
        <time>2015-08-07T09:20:36.000Z</time>
      </trkpt>
      <trkpt lat="45.44306" lon="5.68204">
        <ele>851</ele>
        <time>2015-08-07T09:20:37.000Z</time>
      </trkpt>
      <trkpt lat="45.44308" lon="5.68201">
        <ele>851</ele>
        <time>2015-08-07T09:20:38.000Z</time>
      </trkpt>
      <trkpt lat="45.4431" lon="5.68199">
        <ele>850</ele>
        <time>2015-08-07T09:20:39.000Z</time>
      </trkpt>
      <trkpt lat="45.44313" lon="5.68197">
        <ele>850</ele>
        <time>2015-08-07T09:20:40.000Z</time>
      </trkpt>
      <trkpt lat="45.44317" lon="5.68195">
        <ele>850</ele>
        <time>2015-08-07T09:20:41.000Z</time>
      </trkpt>
      <trkpt lat="45.4432" lon="5.68194">
        <ele>849</ele>
        <time>2015-08-07T09:20:42.000Z</time>
      </trkpt>
      <trkpt lat="45.44323" lon="5.68194">
        <ele>849</ele>
        <time>2015-08-07T09:20:43.000Z</time>
      </trkpt>
      <trkpt lat="45.44326" lon="5.68194">
        <ele>849</ele>
        <time>2015-08-07T09:20:44.000Z</time>
      </trkpt>
      <trkpt lat="45.4433" lon="5.68195">
        <ele>849</ele>
        <time>2015-08-07T09:20:54.000Z</time>
      </trkpt>
      <trkpt lat="45.4433" lon="5.68195">
        <ele>849</ele>
        <time>2015-08-07T09:20:55.000Z</time>
      </trkpt>
      <trkpt lat="45.44335" lon="5.68195">
        <ele>839</ele>
        <time>2015-08-07T09:21:08.000Z</time>
      </trkpt>
      <trkpt lat="45.44336" lon="5.68195">
        <ele>839</ele>
        <time>2015-08-07T09:21:09.000Z</time>
      </trkpt>
      <trkpt lat="45.44339" lon="5.68196">
        <ele>839</ele>
        <time>2015-08-07T09:21:12.000Z</time>
      </trkpt>
      <trkpt lat="45.4434" lon="5.68195">
        <ele>839</ele>
        <time>2015-08-07T09:21:13.000Z</time>
      </trkpt>
      <trkpt lat="45.44344" lon="5.68192">
        <ele>839</ele>
        <time>2015-08-07T09:21:15.000Z</time>
      </trkpt>
      <trkpt lat="45.44345" lon="5.68191">
        <ele>839</ele>
        <time>2015-08-07T09:21:16.000Z</time>
      </trkpt>
      <trkpt lat="45.44348" lon="5.68187">
        <ele>838</ele>
        <time>2015-08-07T09:21:18.000Z</time>
      </trkpt>
      <trkpt lat="45.4435" lon="5.68184">
        <ele>838</ele>
        <time>2015-08-07T09:21:19.000Z</time>
      </trkpt>
      <trkpt lat="45.44352" lon="5.68179">
        <ele>838</ele>
        <time>2015-08-07T09:21:21.000Z</time>
      </trkpt>
      <trkpt lat="45.44352" lon="5.68177">
        <ele>838</ele>
        <time>2015-08-07T09:21:22.000Z</time>
      </trkpt>
      <trkpt lat="45.44354" lon="5.68173">
        <ele>838</ele>
        <time>2015-08-07T09:21:25.000Z</time>
      </trkpt>
      <trkpt lat="45.44355" lon="5.68172">
        <ele>838</ele>
        <time>2015-08-07T09:21:26.000Z</time>
      </trkpt>
      <trkpt lat="45.44358" lon="5.68169">
        <ele>837</ele>
        <time>2015-08-07T09:21:28.000Z</time>
      </trkpt>
      <trkpt lat="45.44359" lon="5.68166">
        <ele>832</ele>
        <time>2015-08-07T09:21:29.000Z</time>
      </trkpt>
      <trkpt lat="45.4436" lon="5.68163">
        <ele>832</ele>
        <time>2015-08-07T09:21:30.000Z</time>
      </trkpt>
      <trkpt lat="45.44361" lon="5.6816">
        <ele>831</ele>
        <time>2015-08-07T09:21:31.000Z</time>
      </trkpt>
      <trkpt lat="45.44362" lon="5.68156">
        <ele>831</ele>
        <time>2015-08-07T09:21:32.000Z</time>
      </trkpt>
      <trkpt lat="45.44362" lon="5.68152">
        <ele>830</ele>
        <time>2015-08-07T09:21:33.000Z</time>
      </trkpt>
      <trkpt lat="45.44363" lon="5.68148">
        <ele>830</ele>
        <time>2015-08-07T09:21:34.000Z</time>
      </trkpt>
      <trkpt lat="45.44364" lon="5.68144">
        <ele>830</ele>
        <time>2015-08-07T09:21:35.000Z</time>
      </trkpt>
      <trkpt lat="45.44366" lon="5.6814">
        <ele>829</ele>
        <time>2015-08-07T09:21:37.000Z</time>
      </trkpt>
      <trkpt lat="45.44368" lon="5.6814">
        <ele>829</ele>
        <time>2015-08-07T09:21:38.000Z</time>
      </trkpt>
      <trkpt lat="45.44371" lon="5.68142">
        <ele>829</ele>
        <time>2015-08-07T09:21:40.000Z</time>
      </trkpt>
      <trkpt lat="45.44373" lon="5.68143">
        <ele>828</ele>
        <time>2015-08-07T09:21:41.000Z</time>
      </trkpt>
      <trkpt lat="45.44377" lon="5.68144">
        <ele>828</ele>
        <time>2015-08-07T09:21:43.000Z</time>
      </trkpt>
      <trkpt lat="45.44378" lon="5.68144">
        <ele>828</ele>
        <time>2015-08-07T09:21:44.000Z</time>
      </trkpt>
      <trkpt lat="45.44382" lon="5.68144">
        <ele>827</ele>
        <time>2015-08-07T09:21:46.000Z</time>
      </trkpt>
      <trkpt lat="45.44384" lon="5.68144">
        <ele>827</ele>
        <time>2015-08-07T09:21:47.000Z</time>
      </trkpt>
      <trkpt lat="45.44388" lon="5.68145">
        <ele>827</ele>
        <time>2015-08-07T09:21:49.000Z</time>
      </trkpt>
      <trkpt lat="45.4439" lon="5.68145">
        <ele>827</ele>
        <time>2015-08-07T09:21:50.000Z</time>
      </trkpt>
      <trkpt lat="45.44393" lon="5.68144">
        <ele>826</ele>
        <time>2015-08-07T09:21:51.000Z</time>
      </trkpt>
      <trkpt lat="45.44396" lon="5.68142">
        <ele>826</ele>
        <time>2015-08-07T09:21:52.000Z</time>
      </trkpt>
      <trkpt lat="45.44399" lon="5.6814">
        <ele>826</ele>
        <time>2015-08-07T09:21:53.000Z</time>
      </trkpt>
      <trkpt lat="45.44402" lon="5.68137">
        <ele>825</ele>
        <time>2015-08-07T09:21:54.000Z</time>
      </trkpt>
      <trkpt lat="45.44405" lon="5.68135">
        <ele>825</ele>
        <time>2015-08-07T09:21:55.000Z</time>
      </trkpt>
      <trkpt lat="45.44408" lon="5.68133">
        <ele>825</ele>
        <time>2015-08-07T09:21:56.000Z</time>
      </trkpt>
      <trkpt lat="45.44411" lon="5.68132">
        <ele>825</ele>
        <time>2015-08-07T09:21:57.000Z</time>
      </trkpt>
      <trkpt lat="45.44413" lon="5.68131">
        <ele>824</ele>
        <time>2015-08-07T09:21:58.000Z</time>
      </trkpt>
      <trkpt lat="45.44415" lon="5.68129">
        <ele>824</ele>
        <time>2015-08-07T09:21:59.000Z</time>
      </trkpt>
      <trkpt lat="45.44417" lon="5.68126">
        <ele>814</ele>
        <time>2015-08-07T09:22:00.000Z</time>
      </trkpt>
      <trkpt lat="45.44419" lon="5.68124">
        <ele>813</ele>
        <time>2015-08-07T09:22:01.000Z</time>
      </trkpt>
      <trkpt lat="45.4442" lon="5.68121">
        <ele>813</ele>
        <time>2015-08-07T09:22:02.000Z</time>
      </trkpt>
      <trkpt lat="45.44422" lon="5.68119">
        <ele>813</ele>
        <time>2015-08-07T09:22:03.000Z</time>
      </trkpt>
      <trkpt lat="45.44423" lon="5.68116">
        <ele>812</ele>
        <time>2015-08-07T09:22:04.000Z</time>
      </trkpt>
      <trkpt lat="45.44425" lon="5.68114">
        <ele>812</ele>
        <time>2015-08-07T09:22:05.000Z</time>
      </trkpt>
      <trkpt lat="45.44427" lon="5.68112">
        <ele>812</ele>
        <time>2015-08-07T09:22:06.000Z</time>
      </trkpt>
      <trkpt lat="45.44429" lon="5.6811">
        <ele>812</ele>
        <time>2015-08-07T09:22:07.000Z</time>
      </trkpt>
      <trkpt lat="45.44431" lon="5.68107">
        <ele>811</ele>
        <time>2015-08-07T09:22:08.000Z</time>
      </trkpt>
      <trkpt lat="45.44433" lon="5.68102">
        <ele>811</ele>
        <time>2015-08-07T09:22:09.000Z</time>
      </trkpt>
      <trkpt lat="45.44435" lon="5.68098">
        <ele>811</ele>
        <time>2015-08-07T09:22:10.000Z</time>
      </trkpt>
      <trkpt lat="45.44437" lon="5.68093">
        <ele>811</ele>
        <time>2015-08-07T09:22:11.000Z</time>
      </trkpt>
      <trkpt lat="45.44439" lon="5.68089">
        <ele>810</ele>
        <time>2015-08-07T09:22:12.000Z</time>
      </trkpt>
      <trkpt lat="45.4444" lon="5.68085">
        <ele>810</ele>
        <time>2015-08-07T09:22:13.000Z</time>
      </trkpt>
      <trkpt lat="45.44442" lon="5.68082">
        <ele>803</ele>
        <time>2015-08-07T09:22:14.000Z</time>
      </trkpt>
      <trkpt lat="45.44443" lon="5.68079">
        <ele>802</ele>
        <time>2015-08-07T09:22:15.000Z</time>
      </trkpt>
      <trkpt lat="45.44444" lon="5.68076">
        <ele>802</ele>
        <time>2015-08-07T09:22:16.000Z</time>
      </trkpt>
      <trkpt lat="45.44446" lon="5.6807">
        <ele>801</ele>
        <time>2015-08-07T09:22:18.000Z</time>
      </trkpt>
      <trkpt lat="45.44447" lon="5.68068">
        <ele>801</ele>
        <time>2015-08-07T09:22:19.000Z</time>
      </trkpt>
      <trkpt lat="45.44448" lon="5.68064">
        <ele>800</ele>
        <time>2015-08-07T09:22:21.000Z</time>
      </trkpt>
      <trkpt lat="45.44449" lon="5.68061">
        <ele>800</ele>
        <time>2015-08-07T09:22:22.000Z</time>
      </trkpt>
      <trkpt lat="45.44452" lon="5.68057">
        <ele>799</ele>
        <time>2015-08-07T09:22:25.000Z</time>
      </trkpt>
      <trkpt lat="45.44453" lon="5.68055">
        <ele>799</ele>
        <time>2015-08-07T09:22:26.000Z</time>
      </trkpt>
      <trkpt lat="45.44455" lon="5.68051">
        <ele>798</ele>
        <time>2015-08-07T09:22:29.000Z</time>
      </trkpt>
      <trkpt lat="45.44456" lon="5.6805">
        <ele>798</ele>
        <time>2015-08-07T09:22:30.000Z</time>
      </trkpt>
      <trkpt lat="45.44459" lon="5.68049">
        <ele>797</ele>
        <time>2015-08-07T09:23:22.000Z</time>
      </trkpt>
      <trkpt lat="45.44461" lon="5.6805">
        <ele>797</ele>
        <time>2015-08-07T09:23:23.000Z</time>
      </trkpt>
      <trkpt lat="45.44464" lon="5.6805">
        <ele>797</ele>
        <time>2015-08-07T09:23:24.000Z</time>
      </trkpt>
      <trkpt lat="45.44466" lon="5.6805">
        <ele>796</ele>
        <time>2015-08-07T09:23:25.000Z</time>
      </trkpt>
      <trkpt lat="45.44468" lon="5.68051">
        <ele>796</ele>
        <time>2015-08-07T09:23:26.000Z</time>
      </trkpt>
      <trkpt lat="45.44472" lon="5.68051">
        <ele>796</ele>
        <time>2015-08-07T09:23:27.000Z</time>
      </trkpt>
      <trkpt lat="45.44475" lon="5.68052">
        <ele>796</ele>
        <time>2015-08-07T09:23:28.000Z</time>
      </trkpt>
      <trkpt lat="45.44478" lon="5.68052">
        <ele>795</ele>
        <time>2015-08-07T09:23:29.000Z</time>
      </trkpt>
      <trkpt lat="45.44481" lon="5.68052">
        <ele>795</ele>
        <time>2015-08-07T09:23:30.000Z</time>
      </trkpt>
      <trkpt lat="45.44484" lon="5.68052">
        <ele>795</ele>
        <time>2015-08-07T09:23:31.000Z</time>
      </trkpt>
      <trkpt lat="45.44487" lon="5.68052">
        <ele>795</ele>
        <time>2015-08-07T09:23:32.000Z</time>
      </trkpt>
      <trkpt lat="45.44489" lon="5.68053">
        <ele>794</ele>
        <time>2015-08-07T09:23:33.000Z</time>
      </trkpt>
      <trkpt lat="45.44492" lon="5.68053">
        <ele>794</ele>
        <time>2015-08-07T09:23:34.000Z</time>
      </trkpt>
      <trkpt lat="45.44494" lon="5.68053">
        <ele>794</ele>
        <time>2015-08-07T09:23:35.000Z</time>
      </trkpt>
      <trkpt lat="45.44497" lon="5.68053">
        <ele>794</ele>
        <time>2015-08-07T09:23:36.000Z</time>
      </trkpt>
      <trkpt lat="45.44499" lon="5.68054">
        <ele>794</ele>
        <time>2015-08-07T09:23:37.000Z</time>
      </trkpt>
      <trkpt lat="45.44502" lon="5.68054">
        <ele>782</ele>
        <time>2015-08-07T09:23:38.000Z</time>
      </trkpt>
      <trkpt lat="45.44505" lon="5.68055">
        <ele>782</ele>
        <time>2015-08-07T09:23:39.000Z</time>
      </trkpt>
      <trkpt lat="45.44508" lon="5.68057">
        <ele>782</ele>
        <time>2015-08-07T09:23:40.000Z</time>
      </trkpt>
      <trkpt lat="45.44511" lon="5.68059">
        <ele>782</ele>
        <time>2015-08-07T09:23:41.000Z</time>
      </trkpt>
      <trkpt lat="45.44514" lon="5.68062">
        <ele>782</ele>
        <time>2015-08-07T09:23:42.000Z</time>
      </trkpt>
      <trkpt lat="45.44516" lon="5.68064">
        <ele>782</ele>
        <time>2015-08-07T09:23:43.000Z</time>
      </trkpt>
      <trkpt lat="45.44519" lon="5.68065">
        <ele>782</ele>
        <time>2015-08-07T09:23:44.000Z</time>
      </trkpt>
      <trkpt lat="45.44521" lon="5.68067">
        <ele>782</ele>
        <time>2015-08-07T09:23:45.000Z</time>
      </trkpt>
      <trkpt lat="45.44525" lon="5.68068">
        <ele>781</ele>
        <time>2015-08-07T09:23:48.000Z</time>
      </trkpt>
      <trkpt lat="45.44526" lon="5.68068">
        <ele>781</ele>
        <time>2015-08-07T09:23:49.000Z</time>
      </trkpt>
      <trkpt lat="45.44528" lon="5.68066">
        <ele>780</ele>
        <time>2015-08-07T09:23:52.000Z</time>
      </trkpt>
      <trkpt lat="45.4453" lon="5.68063">
        <ele>779</ele>
        <time>2015-08-07T09:23:53.000Z</time>
      </trkpt>
      <trkpt lat="45.44534" lon="5.6806">
        <ele>778</ele>
        <time>2015-08-07T09:23:57.000Z</time>
      </trkpt>
      <trkpt lat="45.44534" lon="5.6806">
        <ele>778</ele>
        <time>2015-08-07T09:23:58.000Z</time>
      </trkpt>
      <trkpt lat="45.44538" lon="5.68056">
        <ele>777</ele>
        <time>2015-08-07T09:24:14.000Z</time>
      </trkpt>
      <trkpt lat="45.44538" lon="5.68055">
        <ele>777</ele>
        <time>2015-08-07T09:24:15.000Z</time>
      </trkpt>
      <trkpt lat="45.44539" lon="5.68049">
        <ele>777</ele>
        <time>2015-08-07T09:24:21.000Z</time>
      </trkpt>
      <trkpt lat="45.44539" lon="5.68049">
        <ele>776</ele>
        <time>2015-08-07T09:24:22.000Z</time>
      </trkpt>
      <trkpt lat="45.44542" lon="5.68053">
        <ele>777</ele>
        <time>2015-08-07T09:24:44.000Z</time>
      </trkpt>
      <trkpt lat="45.44542" lon="5.68054">
        <ele>777</ele>
        <time>2015-08-07T09:24:45.000Z</time>
      </trkpt>
      <trkpt lat="45.44543" lon="5.6806">
        <ele>777</ele>
        <time>2015-08-07T09:25:12.000Z</time>
      </trkpt>
      <trkpt lat="45.44544" lon="5.68061">
        <ele>777</ele>
        <time>2015-08-07T09:25:13.000Z</time>
      </trkpt>
      <trkpt lat="45.44545" lon="5.68066">
        <ele>777</ele>
        <time>2015-08-07T09:25:17.000Z</time>
      </trkpt>
      <trkpt lat="45.44545" lon="5.68068">
        <ele>777</ele>
        <time>2015-08-07T09:25:18.000Z</time>
      </trkpt>
      <trkpt lat="45.44546" lon="5.68072">
        <ele>777</ele>
        <time>2015-08-07T09:25:22.000Z</time>
      </trkpt>
      <trkpt lat="45.44547" lon="5.68074">
        <ele>777</ele>
        <time>2015-08-07T09:25:23.000Z</time>
      </trkpt>
      <trkpt lat="45.44549" lon="5.68079">
        <ele>777</ele>
        <time>2015-08-07T09:25:26.000Z</time>
      </trkpt>
      <trkpt lat="45.4455" lon="5.6808">
        <ele>777</ele>
        <time>2015-08-07T09:25:27.000Z</time>
      </trkpt>
      <trkpt lat="45.44554" lon="5.68083">
        <ele>777</ele>
        <time>2015-08-07T09:25:36.000Z</time>
      </trkpt>
      <trkpt lat="45.44554" lon="5.68083">
        <ele>787</ele>
        <time>2015-08-07T09:25:37.000Z</time>
      </trkpt>
      <trkpt lat="45.44555" lon="5.68089">
        <ele>788</ele>
        <time>2015-08-07T09:26:18.000Z</time>
      </trkpt>
      <trkpt lat="45.44555" lon="5.6809">
        <ele>788</ele>
        <time>2015-08-07T09:26:19.000Z</time>
      </trkpt>
      <trkpt lat="45.44558" lon="5.68094">
        <ele>787</ele>
        <time>2015-08-07T09:26:24.000Z</time>
      </trkpt>
      <trkpt lat="45.44559" lon="5.68096">
        <ele>787</ele>
        <time>2015-08-07T09:26:25.000Z</time>
      </trkpt>
      <trkpt lat="45.4456" lon="5.68098">
        <ele>787</ele>
        <time>2015-08-07T09:26:26.000Z</time>
      </trkpt>
      <trkpt lat="45.44562" lon="5.681">
        <ele>787</ele>
        <time>2015-08-07T09:26:27.000Z</time>
      </trkpt>
      <trkpt lat="45.44564" lon="5.68102">
        <ele>787</ele>
        <time>2015-08-07T09:26:28.000Z</time>
      </trkpt>
      <trkpt lat="45.44566" lon="5.68105">
        <ele>788</ele>
        <time>2015-08-07T09:26:29.000Z</time>
      </trkpt>
      <trkpt lat="45.44568" lon="5.68107">
        <ele>788</ele>
        <time>2015-08-07T09:26:30.000Z</time>
      </trkpt>
      <trkpt lat="45.44571" lon="5.68109">
        <ele>788</ele>
        <time>2015-08-07T09:26:31.000Z</time>
      </trkpt>
      <trkpt lat="45.44573" lon="5.68112">
        <ele>788</ele>
        <time>2015-08-07T09:26:32.000Z</time>
      </trkpt>
      <trkpt lat="45.44575" lon="5.68114">
        <ele>789</ele>
        <time>2015-08-07T09:26:33.000Z</time>
      </trkpt>
      <trkpt lat="45.44578" lon="5.68117">
        <ele>789</ele>
        <time>2015-08-07T09:26:34.000Z</time>
      </trkpt>
      <trkpt lat="45.4458" lon="5.6812">
        <ele>790</ele>
        <time>2015-08-07T09:26:35.000Z</time>
      </trkpt>
      <trkpt lat="45.44582" lon="5.68123">
        <ele>790</ele>
        <time>2015-08-07T09:26:36.000Z</time>
      </trkpt>
      <trkpt lat="45.44585" lon="5.68126">
        <ele>781</ele>
        <time>2015-08-07T09:26:37.000Z</time>
      </trkpt>
      <trkpt lat="45.44588" lon="5.68129">
        <ele>782</ele>
        <time>2015-08-07T09:26:38.000Z</time>
      </trkpt>
      <trkpt lat="45.44592" lon="5.68133">
        <ele>782</ele>
        <time>2015-08-07T09:26:39.000Z</time>
      </trkpt>
      <trkpt lat="45.44596" lon="5.68135">
        <ele>783</ele>
        <time>2015-08-07T09:26:40.000Z</time>
      </trkpt>
      <trkpt lat="45.44599" lon="5.68138">
        <ele>783</ele>
        <time>2015-08-07T09:26:41.000Z</time>
      </trkpt>
      <trkpt lat="45.44602" lon="5.68141">
        <ele>783</ele>
        <time>2015-08-07T09:26:42.000Z</time>
      </trkpt>
      <trkpt lat="45.44604" lon="5.68144">
        <ele>784</ele>
        <time>2015-08-07T09:26:43.000Z</time>
      </trkpt>
      <trkpt lat="45.44607" lon="5.68147">
        <ele>784</ele>
        <time>2015-08-07T09:26:44.000Z</time>
      </trkpt>
      <trkpt lat="45.4461" lon="5.6815">
        <ele>784</ele>
        <time>2015-08-07T09:26:45.000Z</time>
      </trkpt>
      <trkpt lat="45.44613" lon="5.68153">
        <ele>783</ele>
        <time>2015-08-07T09:26:46.000Z</time>
      </trkpt>
      <trkpt lat="45.44615" lon="5.68156">
        <ele>783</ele>
        <time>2015-08-07T09:26:47.000Z</time>
      </trkpt>
      <trkpt lat="45.44618" lon="5.6816">
        <ele>783</ele>
        <time>2015-08-07T09:26:48.000Z</time>
      </trkpt>
      <trkpt lat="45.4462" lon="5.68164">
        <ele>783</ele>
        <time>2015-08-07T09:26:49.000Z</time>
      </trkpt>
      <trkpt lat="45.44623" lon="5.68169">
        <ele>794</ele>
        <time>2015-08-07T09:26:50.000Z</time>
      </trkpt>
      <trkpt lat="45.44626" lon="5.68173">
        <ele>794</ele>
        <time>2015-08-07T09:26:51.000Z</time>
      </trkpt>
      <trkpt lat="45.44629" lon="5.68177">
        <ele>794</ele>
        <time>2015-08-07T09:26:52.000Z</time>
      </trkpt>
      <trkpt lat="45.44631" lon="5.6818">
        <ele>793</ele>
        <time>2015-08-07T09:26:53.000Z</time>
      </trkpt>
      <trkpt lat="45.44634" lon="5.68183">
        <ele>793</ele>
        <time>2015-08-07T09:26:54.000Z</time>
      </trkpt>
      <trkpt lat="45.44636" lon="5.68186">
        <ele>793</ele>
        <time>2015-08-07T09:26:55.000Z</time>
      </trkpt>
      <trkpt lat="45.4464" lon="5.68189">
        <ele>793</ele>
        <time>2015-08-07T09:26:56.000Z</time>
      </trkpt>
      <trkpt lat="45.44644" lon="5.68191">
        <ele>793</ele>
        <time>2015-08-07T09:26:57.000Z</time>
      </trkpt>
      <trkpt lat="45.44647" lon="5.68195">
        <ele>793</ele>
        <time>2015-08-07T09:26:58.000Z</time>
      </trkpt>
      <trkpt lat="45.44651" lon="5.68199">
        <ele>793</ele>
        <time>2015-08-07T09:26:59.000Z</time>
      </trkpt>
      <trkpt lat="45.44654" lon="5.68202">
        <ele>793</ele>
        <time>2015-08-07T09:27:00.000Z</time>
      </trkpt>
      <trkpt lat="45.44657" lon="5.68205">
        <ele>794</ele>
        <time>2015-08-07T09:27:01.000Z</time>
      </trkpt>
      <trkpt lat="45.4466" lon="5.68208">
        <ele>794</ele>
        <time>2015-08-07T09:27:02.000Z</time>
      </trkpt>
      <trkpt lat="45.44663" lon="5.6821">
        <ele>794</ele>
        <time>2015-08-07T09:27:03.000Z</time>
      </trkpt>
      <trkpt lat="45.44666" lon="5.68213">
        <ele>794</ele>
        <time>2015-08-07T09:27:04.000Z</time>
      </trkpt>
      <trkpt lat="45.44669" lon="5.68215">
        <ele>785</ele>
        <time>2015-08-07T09:27:05.000Z</time>
      </trkpt>
      <trkpt lat="45.44671" lon="5.68217">
        <ele>785</ele>
        <time>2015-08-07T09:27:06.000Z</time>
      </trkpt>
      <trkpt lat="45.44674" lon="5.68219">
        <ele>786</ele>
        <time>2015-08-07T09:27:07.000Z</time>
      </trkpt>
      <trkpt lat="45.44677" lon="5.68221">
        <ele>786</ele>
        <time>2015-08-07T09:27:08.000Z</time>
      </trkpt>
      <trkpt lat="45.4468" lon="5.68222">
        <ele>786</ele>
        <time>2015-08-07T09:27:09.000Z</time>
      </trkpt>
      <trkpt lat="45.44682" lon="5.68224">
        <ele>786</ele>
        <time>2015-08-07T09:27:10.000Z</time>
      </trkpt>
      <trkpt lat="45.44685" lon="5.68225">
        <ele>786</ele>
        <time>2015-08-07T09:27:11.000Z</time>
      </trkpt>
      <trkpt lat="45.44687" lon="5.68228">
        <ele>786</ele>
        <time>2015-08-07T09:27:12.000Z</time>
      </trkpt>
      <trkpt lat="45.4469" lon="5.6823">
        <ele>786</ele>
        <time>2015-08-07T09:27:13.000Z</time>
      </trkpt>
      <trkpt lat="45.44694" lon="5.68232">
        <ele>785</ele>
        <time>2015-08-07T09:27:14.000Z</time>
      </trkpt>
      <trkpt lat="45.44702" lon="5.6824">
        <ele>785</ele>
        <time>2015-08-07T09:27:15.000Z</time>
      </trkpt>
      <trkpt lat="45.44706" lon="5.68243">
        <ele>784</ele>
        <time>2015-08-07T09:27:16.000Z</time>
      </trkpt>
      <trkpt lat="45.44707" lon="5.68246">
        <ele>784</ele>
        <time>2015-08-07T09:27:17.000Z</time>
      </trkpt>
      <trkpt lat="45.4471" lon="5.68248">
        <ele>784</ele>
        <time>2015-08-07T09:27:18.000Z</time>
      </trkpt>
      <trkpt lat="45.44711" lon="5.68251">
        <ele>791</ele>
        <time>2015-08-07T09:27:19.000Z</time>
      </trkpt>
      <trkpt lat="45.44713" lon="5.68253">
        <ele>791</ele>
        <time>2015-08-07T09:27:20.000Z</time>
      </trkpt>
      <trkpt lat="45.44715" lon="5.68258">
        <ele>790</ele>
        <time>2015-08-07T09:27:21.000Z</time>
      </trkpt>
      <trkpt lat="45.44717" lon="5.68261">
        <ele>790</ele>
        <time>2015-08-07T09:27:22.000Z</time>
      </trkpt>
      <trkpt lat="45.44717" lon="5.68264">
        <ele>790</ele>
        <time>2015-08-07T09:27:23.000Z</time>
      </trkpt>
      <trkpt lat="45.44718" lon="5.68267">
        <ele>790</ele>
        <time>2015-08-07T09:27:24.000Z</time>
      </trkpt>
      <trkpt lat="45.44719" lon="5.6827">
        <ele>790</ele>
        <time>2015-08-07T09:27:25.000Z</time>
      </trkpt>
      <trkpt lat="45.44722" lon="5.68273">
        <ele>790</ele>
        <time>2015-08-07T09:27:27.000Z</time>
      </trkpt>
      <trkpt lat="45.44723" lon="5.68275">
        <ele>790</ele>
        <time>2015-08-07T09:27:28.000Z</time>
      </trkpt>
      <trkpt lat="45.44724" lon="5.68279">
        <ele>790</ele>
        <time>2015-08-07T09:27:31.000Z</time>
      </trkpt>
      <trkpt lat="45.44724" lon="5.68281">
        <ele>790</ele>
        <time>2015-08-07T09:27:32.000Z</time>
      </trkpt>
      <trkpt lat="45.44725" lon="5.68285">
        <ele>791</ele>
        <time>2015-08-07T09:27:34.000Z</time>
      </trkpt>
      <trkpt lat="45.44726" lon="5.68288">
        <ele>791</ele>
        <time>2015-08-07T09:27:35.000Z</time>
      </trkpt>
      <trkpt lat="45.44727" lon="5.68293">
        <ele>791</ele>
        <time>2015-08-07T09:27:37.000Z</time>
      </trkpt>
      <trkpt lat="45.44729" lon="5.68296">
        <ele>791</ele>
        <time>2015-08-07T09:27:38.000Z</time>
      </trkpt>
      <trkpt lat="45.4473" lon="5.68298">
        <ele>791</ele>
        <time>2015-08-07T09:27:39.000Z</time>
      </trkpt>
      <trkpt lat="45.44732" lon="5.68301">
        <ele>791</ele>
        <time>2015-08-07T09:27:40.000Z</time>
      </trkpt>
      <trkpt lat="45.44733" lon="5.68302">
        <ele>791</ele>
        <time>2015-08-07T09:27:41.000Z</time>
      </trkpt>
      <trkpt lat="45.44736" lon="5.68304">
        <ele>791</ele>
        <time>2015-08-07T09:27:42.000Z</time>
      </trkpt>
      <trkpt lat="45.44738" lon="5.68305">
        <ele>791</ele>
        <time>2015-08-07T09:27:43.000Z</time>
      </trkpt>
      <trkpt lat="45.4474" lon="5.68307">
        <ele>790</ele>
        <time>2015-08-07T09:27:44.000Z</time>
      </trkpt>
      <trkpt lat="45.44742" lon="5.68309">
        <ele>790</ele>
        <time>2015-08-07T09:27:45.000Z</time>
      </trkpt>
      <trkpt lat="45.44743" lon="5.68312">
        <ele>790</ele>
        <time>2015-08-07T09:27:46.000Z</time>
      </trkpt>
      <trkpt lat="45.44745" lon="5.68315">
        <ele>790</ele>
        <time>2015-08-07T09:27:47.000Z</time>
      </trkpt>
      <trkpt lat="45.44746" lon="5.68317">
        <ele>790</ele>
        <time>2015-08-07T09:27:48.000Z</time>
      </trkpt>
      <trkpt lat="45.4475" lon="5.68321">
        <ele>790</ele>
        <time>2015-08-07T09:27:50.000Z</time>
      </trkpt>
      <trkpt lat="45.44751" lon="5.68322">
        <ele>785</ele>
        <time>2015-08-07T09:27:51.000Z</time>
      </trkpt>
      <trkpt lat="45.44755" lon="5.68326">
        <ele>785</ele>
        <time>2015-08-07T09:27:53.000Z</time>
      </trkpt>
      <trkpt lat="45.44757" lon="5.68328">
        <ele>785</ele>
        <time>2015-08-07T09:27:54.000Z</time>
      </trkpt>
      <trkpt lat="45.44759" lon="5.6833">
        <ele>785</ele>
        <time>2015-08-07T09:27:55.000Z</time>
      </trkpt>
      <trkpt lat="45.44761" lon="5.68333">
        <ele>785</ele>
        <time>2015-08-07T09:27:56.000Z</time>
      </trkpt>
      <trkpt lat="45.44763" lon="5.68338">
        <ele>788</ele>
        <time>2015-08-07T09:27:58.000Z</time>
      </trkpt>
      <trkpt lat="45.44764" lon="5.68341">
        <ele>788</ele>
        <time>2015-08-07T09:27:59.000Z</time>
      </trkpt>
      <trkpt lat="45.44765" lon="5.68345">
        <ele>788</ele>
        <time>2015-08-07T09:28:01.000Z</time>
      </trkpt>
      <trkpt lat="45.44766" lon="5.68347">
        <ele>788</ele>
        <time>2015-08-07T09:28:02.000Z</time>
      </trkpt>
      <trkpt lat="45.44767" lon="5.68352">
        <ele>788</ele>
        <time>2015-08-07T09:28:04.000Z</time>
      </trkpt>
      <trkpt lat="45.44767" lon="5.68355">
        <ele>788</ele>
        <time>2015-08-07T09:28:05.000Z</time>
      </trkpt>
      <trkpt lat="45.44769" lon="5.6836">
        <ele>788</ele>
        <time>2015-08-07T09:28:07.000Z</time>
      </trkpt>
      <trkpt lat="45.44769" lon="5.68362">
        <ele>788</ele>
        <time>2015-08-07T09:28:08.000Z</time>
      </trkpt>
      <trkpt lat="45.4477" lon="5.68368">
        <ele>788</ele>
        <time>2015-08-07T09:28:11.000Z</time>
      </trkpt>
      <trkpt lat="45.44771" lon="5.68369">
        <ele>789</ele>
        <time>2015-08-07T09:28:12.000Z</time>
      </trkpt>
      <trkpt lat="45.44773" lon="5.68372">
        <ele>789</ele>
        <time>2015-08-07T09:28:14.000Z</time>
      </trkpt>
      <trkpt lat="45.44774" lon="5.68374">
        <ele>789</ele>
        <time>2015-08-07T09:28:15.000Z</time>
      </trkpt>
      <trkpt lat="45.44776" lon="5.68376">
        <ele>789</ele>
        <time>2015-08-07T09:28:16.000Z</time>
      </trkpt>
      <trkpt lat="45.44777" lon="5.68379">
        <ele>789</ele>
        <time>2015-08-07T09:28:17.000Z</time>
      </trkpt>
      <trkpt lat="45.44778" lon="5.68382">
        <ele>789</ele>
        <time>2015-08-07T09:28:18.000Z</time>
      </trkpt>
      <trkpt lat="45.44779" lon="5.68385">
        <ele>789</ele>
        <time>2015-08-07T09:28:19.000Z</time>
      </trkpt>
      <trkpt lat="45.4478" lon="5.68388">
        <ele>789</ele>
        <time>2015-08-07T09:28:20.000Z</time>
      </trkpt>
      <trkpt lat="45.4478" lon="5.68391">
        <ele>789</ele>
        <time>2015-08-07T09:28:21.000Z</time>
      </trkpt>
      <trkpt lat="45.44781" lon="5.68394">
        <ele>789</ele>
        <time>2015-08-07T09:28:22.000Z</time>
      </trkpt>
      <trkpt lat="45.44781" lon="5.68397">
        <ele>790</ele>
        <time>2015-08-07T09:28:23.000Z</time>
      </trkpt>
      <trkpt lat="45.44782" lon="5.68403">
        <ele>790</ele>
        <time>2015-08-07T09:28:25.000Z</time>
      </trkpt>
      <trkpt lat="45.44783" lon="5.68406">
        <ele>790</ele>
        <time>2015-08-07T09:28:26.000Z</time>
      </trkpt>
      <trkpt lat="45.44784" lon="5.68411">
        <ele>790</ele>
        <time>2015-08-07T09:28:28.000Z</time>
      </trkpt>
      <trkpt lat="45.44785" lon="5.68413">
        <ele>790</ele>
        <time>2015-08-07T09:28:29.000Z</time>
      </trkpt>
      <trkpt lat="45.44787" lon="5.68417">
        <ele>794</ele>
        <time>2015-08-07T09:28:31.000Z</time>
      </trkpt>
      <trkpt lat="45.44787" lon="5.68419">
        <ele>794</ele>
        <time>2015-08-07T09:28:32.000Z</time>
      </trkpt>
      <trkpt lat="45.44789" lon="5.68423">
        <ele>794</ele>
        <time>2015-08-07T09:28:34.000Z</time>
      </trkpt>
      <trkpt lat="45.44791" lon="5.68426">
        <ele>794</ele>
        <time>2015-08-07T09:28:35.000Z</time>
      </trkpt>
      <trkpt lat="45.44793" lon="5.68431">
        <ele>794</ele>
        <time>2015-08-07T09:28:36.000Z</time>
      </trkpt>
      <trkpt lat="45.44794" lon="5.68435">
        <ele>794</ele>
        <time>2015-08-07T09:28:37.000Z</time>
      </trkpt>
      <trkpt lat="45.44796" lon="5.6844">
        <ele>794</ele>
        <time>2015-08-07T09:28:38.000Z</time>
      </trkpt>
      <trkpt lat="45.44797" lon="5.68445">
        <ele>794</ele>
        <time>2015-08-07T09:28:39.000Z</time>
      </trkpt>
      <trkpt lat="45.44798" lon="5.6845">
        <ele>794</ele>
        <time>2015-08-07T09:28:40.000Z</time>
      </trkpt>
      <trkpt lat="45.44799" lon="5.68456">
        <ele>795</ele>
        <time>2015-08-07T09:28:41.000Z</time>
      </trkpt>
      <trkpt lat="45.44801" lon="5.68461">
        <ele>795</ele>
        <time>2015-08-07T09:28:42.000Z</time>
      </trkpt>
      <trkpt lat="45.44802" lon="5.68467">
        <ele>795</ele>
        <time>2015-08-07T09:28:43.000Z</time>
      </trkpt>
      <trkpt lat="45.44803" lon="5.68472">
        <ele>795</ele>
        <time>2015-08-07T09:28:44.000Z</time>
      </trkpt>
      <trkpt lat="45.44805" lon="5.68477">
        <ele>795</ele>
        <time>2015-08-07T09:28:45.000Z</time>
      </trkpt>
      <trkpt lat="45.44806" lon="5.68482">
        <ele>795</ele>
        <time>2015-08-07T09:28:46.000Z</time>
      </trkpt>
      <trkpt lat="45.44806" lon="5.68488">
        <ele>795</ele>
        <time>2015-08-07T09:28:47.000Z</time>
      </trkpt>
      <trkpt lat="45.44807" lon="5.68494">
        <ele>795</ele>
        <time>2015-08-07T09:28:48.000Z</time>
      </trkpt>
      <trkpt lat="45.44807" lon="5.685">
        <ele>796</ele>
        <time>2015-08-07T09:28:49.000Z</time>
      </trkpt>
      <trkpt lat="45.44809" lon="5.68507">
        <ele>796</ele>
        <time>2015-08-07T09:28:50.000Z</time>
      </trkpt>
      <trkpt lat="45.4482" lon="5.68524">
        <ele>796</ele>
        <time>2015-08-07T09:28:51.000Z</time>
      </trkpt>
      <trkpt lat="45.44824" lon="5.68531">
        <ele>796</ele>
        <time>2015-08-07T09:28:52.000Z</time>
      </trkpt>
      <trkpt lat="45.44827" lon="5.68535">
        <ele>796</ele>
        <time>2015-08-07T09:28:53.000Z</time>
      </trkpt>
      <trkpt lat="45.4483" lon="5.68541">
        <ele>796</ele>
        <time>2015-08-07T09:28:54.000Z</time>
      </trkpt>
      <trkpt lat="45.44835" lon="5.68545">
        <ele>790</ele>
        <time>2015-08-07T09:28:55.000Z</time>
      </trkpt>
      <trkpt lat="45.44837" lon="5.68546">
        <ele>790</ele>
        <time>2015-08-07T09:28:58.000Z</time>
      </trkpt>
      <trkpt lat="45.4484" lon="5.68548">
        <ele>790</ele>
        <time>2015-08-07T09:28:59.000Z</time>
      </trkpt>
      <trkpt lat="45.44842" lon="5.68554">
        <ele>790</ele>
        <time>2015-08-07T09:29:01.000Z</time>
      </trkpt>
      <trkpt lat="45.44844" lon="5.68559">
        <ele>790</ele>
        <time>2015-08-07T09:29:02.000Z</time>
      </trkpt>
      <trkpt lat="45.44846" lon="5.68566">
        <ele>790</ele>
        <time>2015-08-07T09:29:03.000Z</time>
      </trkpt>
      <trkpt lat="45.44848" lon="5.6857">
        <ele>790</ele>
        <time>2015-08-07T09:29:05.000Z</time>
      </trkpt>
      <trkpt lat="45.44849" lon="5.68573">
        <ele>790</ele>
        <time>2015-08-07T09:29:06.000Z</time>
      </trkpt>
      <trkpt lat="45.4485" lon="5.68576">
        <ele>790</ele>
        <time>2015-08-07T09:29:07.000Z</time>
      </trkpt>
      <trkpt lat="45.4485" lon="5.68579">
        <ele>790</ele>
        <time>2015-08-07T09:29:08.000Z</time>
      </trkpt>
      <trkpt lat="45.4485" lon="5.68583">
        <ele>790</ele>
        <time>2015-08-07T09:29:09.000Z</time>
      </trkpt>
      <trkpt lat="45.4485" lon="5.68587">
        <ele>790</ele>
        <time>2015-08-07T09:29:10.000Z</time>
      </trkpt>
      <trkpt lat="45.4485" lon="5.6859">
        <ele>790</ele>
        <time>2015-08-07T09:29:11.000Z</time>
      </trkpt>
      <trkpt lat="45.44851" lon="5.68594">
        <ele>790</ele>
        <time>2015-08-07T09:29:12.000Z</time>
      </trkpt>
      <trkpt lat="45.44851" lon="5.68599">
        <ele>790</ele>
        <time>2015-08-07T09:29:13.000Z</time>
      </trkpt>
      <trkpt lat="45.44851" lon="5.68603">
        <ele>790</ele>
        <time>2015-08-07T09:29:14.000Z</time>
      </trkpt>
      <trkpt lat="45.44852" lon="5.68607">
        <ele>790</ele>
        <time>2015-08-07T09:29:15.000Z</time>
      </trkpt>
      <trkpt lat="45.44852" lon="5.6861">
        <ele>790</ele>
        <time>2015-08-07T09:29:16.000Z</time>
      </trkpt>
      <trkpt lat="45.44853" lon="5.68615">
        <ele>790</ele>
        <time>2015-08-07T09:29:18.000Z</time>
      </trkpt>
      <trkpt lat="45.44853" lon="5.68618">
        <ele>790</ele>
        <time>2015-08-07T09:29:19.000Z</time>
      </trkpt>
      <trkpt lat="45.44854" lon="5.68621">
        <ele>790</ele>
        <time>2015-08-07T09:29:20.000Z</time>
      </trkpt>
      <trkpt lat="45.44854" lon="5.68625">
        <ele>790</ele>
        <time>2015-08-07T09:29:21.000Z</time>
      </trkpt>
      <trkpt lat="45.44855" lon="5.6863">
        <ele>790</ele>
        <time>2015-08-07T09:29:22.000Z</time>
      </trkpt>
      <trkpt lat="45.44855" lon="5.68634">
        <ele>790</ele>
        <time>2015-08-07T09:29:23.000Z</time>
      </trkpt>
      <trkpt lat="45.44856" lon="5.68639">
        <ele>790</ele>
        <time>2015-08-07T09:29:24.000Z</time>
      </trkpt>
      <trkpt lat="45.44857" lon="5.68643">
        <ele>790</ele>
        <time>2015-08-07T09:29:25.000Z</time>
      </trkpt>
      <trkpt lat="45.44858" lon="5.68648">
        <ele>790</ele>
        <time>2015-08-07T09:29:27.000Z</time>
      </trkpt>
      <trkpt lat="45.44858" lon="5.6865">
        <ele>790</ele>
        <time>2015-08-07T09:29:28.000Z</time>
      </trkpt>
      <trkpt lat="45.44859" lon="5.68654">
        <ele>790</ele>
        <time>2015-08-07T09:29:30.000Z</time>
      </trkpt>
      <trkpt lat="45.4486" lon="5.68657">
        <ele>790</ele>
        <time>2015-08-07T09:29:31.000Z</time>
      </trkpt>
      <trkpt lat="45.44861" lon="5.6866">
        <ele>790</ele>
        <time>2015-08-07T09:29:32.000Z</time>
      </trkpt>
      <trkpt lat="45.44862" lon="5.68663">
        <ele>790</ele>
        <time>2015-08-07T09:29:33.000Z</time>
      </trkpt>
      <trkpt lat="45.44863" lon="5.68668">
        <ele>791</ele>
        <time>2015-08-07T09:29:34.000Z</time>
      </trkpt>
      <trkpt lat="45.44863" lon="5.68672">
        <ele>791</ele>
        <time>2015-08-07T09:29:35.000Z</time>
      </trkpt>
      <trkpt lat="45.44863" lon="5.68676">
        <ele>791</ele>
        <time>2015-08-07T09:29:36.000Z</time>
      </trkpt>
      <trkpt lat="45.44863" lon="5.68681">
        <ele>791</ele>
        <time>2015-08-07T09:29:37.000Z</time>
      </trkpt>
      <trkpt lat="45.44862" lon="5.68685">
        <ele>791</ele>
        <time>2015-08-07T09:29:38.000Z</time>
      </trkpt>
      <trkpt lat="45.44862" lon="5.68688">
        <ele>791</ele>
        <time>2015-08-07T09:29:39.000Z</time>
      </trkpt>
      <trkpt lat="45.44862" lon="5.68692">
        <ele>791</ele>
        <time>2015-08-07T09:29:40.000Z</time>
      </trkpt>
      <trkpt lat="45.44862" lon="5.68695">
        <ele>791</ele>
        <time>2015-08-07T09:29:41.000Z</time>
      </trkpt>
      <trkpt lat="45.44862" lon="5.68701">
        <ele>791</ele>
        <time>2015-08-07T09:29:43.000Z</time>
      </trkpt>
      <trkpt lat="45.44862" lon="5.68704">
        <ele>792</ele>
        <time>2015-08-07T09:29:44.000Z</time>
      </trkpt>
      <trkpt lat="45.4486" lon="5.6871">
        <ele>792</ele>
        <time>2015-08-07T09:29:46.000Z</time>
      </trkpt>
      <trkpt lat="45.44859" lon="5.68712">
        <ele>792</ele>
        <time>2015-08-07T09:29:47.000Z</time>
      </trkpt>
      <trkpt lat="45.44857" lon="5.68715">
        <ele>792</ele>
        <time>2015-08-07T09:29:50.000Z</time>
      </trkpt>
      <trkpt lat="45.44856" lon="5.68716">
        <ele>792</ele>
        <time>2015-08-07T09:29:51.000Z</time>
      </trkpt>
      <trkpt lat="45.44854" lon="5.68721">
        <ele>793</ele>
        <time>2015-08-07T09:29:55.000Z</time>
      </trkpt>
      <trkpt lat="45.44854" lon="5.68723">
        <ele>793</ele>
        <time>2015-08-07T09:29:56.000Z</time>
      </trkpt>
      <trkpt lat="45.44854" lon="5.68728">
        <ele>793</ele>
        <time>2015-08-07T09:29:59.000Z</time>
      </trkpt>
      <trkpt lat="45.44854" lon="5.68729">
        <ele>793</ele>
        <time>2015-08-07T09:30:00.000Z</time>
      </trkpt>
      <trkpt lat="45.44854" lon="5.68735">
        <ele>794</ele>
        <time>2015-08-07T09:30:03.000Z</time>
      </trkpt>
      <trkpt lat="45.44853" lon="5.68737">
        <ele>794</ele>
        <time>2015-08-07T09:30:04.000Z</time>
      </trkpt>
      <trkpt lat="45.44851" lon="5.68742">
        <ele>794</ele>
        <time>2015-08-07T09:30:07.000Z</time>
      </trkpt>
      <trkpt lat="45.44851" lon="5.68744">
        <ele>795</ele>
        <time>2015-08-07T09:30:08.000Z</time>
      </trkpt>
      <trkpt lat="45.44849" lon="5.68749">
        <ele>795</ele>
        <time>2015-08-07T09:30:12.000Z</time>
      </trkpt>
      <trkpt lat="45.44848" lon="5.68751">
        <ele>797</ele>
        <time>2015-08-07T09:30:13.000Z</time>
      </trkpt>
      <trkpt lat="45.44846" lon="5.68756">
        <ele>797</ele>
        <time>2015-08-07T09:30:15.000Z</time>
      </trkpt>
      <trkpt lat="45.44845" lon="5.68758">
        <ele>797</ele>
        <time>2015-08-07T09:30:16.000Z</time>
      </trkpt>
      <trkpt lat="45.44844" lon="5.68764">
        <ele>796</ele>
        <time>2015-08-07T09:30:20.000Z</time>
      </trkpt>
      <trkpt lat="45.44844" lon="5.68765">
        <ele>796</ele>
        <time>2015-08-07T09:30:21.000Z</time>
      </trkpt>
      <trkpt lat="45.44842" lon="5.68769">
        <ele>796</ele>
        <time>2015-08-07T09:30:24.000Z</time>
      </trkpt>
      <trkpt lat="45.44842" lon="5.68771">
        <ele>796</ele>
        <time>2015-08-07T09:30:25.000Z</time>
      </trkpt>
      <trkpt lat="45.44841" lon="5.68775">
        <ele>796</ele>
        <time>2015-08-07T09:30:27.000Z</time>
      </trkpt>
      <trkpt lat="45.44841" lon="5.68777">
        <ele>796</ele>
        <time>2015-08-07T09:30:28.000Z</time>
      </trkpt>
      <trkpt lat="45.44841" lon="5.68781">
        <ele>796</ele>
        <time>2015-08-07T09:30:30.000Z</time>
      </trkpt>
      <trkpt lat="45.44841" lon="5.68784">
        <ele>796</ele>
        <time>2015-08-07T09:30:31.000Z</time>
      </trkpt>
      <trkpt lat="45.4484" lon="5.68787">
        <ele>796</ele>
        <time>2015-08-07T09:30:32.000Z</time>
      </trkpt>
      <trkpt lat="45.44839" lon="5.6879">
        <ele>796</ele>
        <time>2015-08-07T09:30:33.000Z</time>
      </trkpt>
      <trkpt lat="45.44838" lon="5.68793">
        <ele>796</ele>
        <time>2015-08-07T09:30:34.000Z</time>
      </trkpt>
      <trkpt lat="45.44837" lon="5.68796">
        <ele>796</ele>
        <time>2015-08-07T09:30:35.000Z</time>
      </trkpt>
      <trkpt lat="45.44835" lon="5.68801">
        <ele>796</ele>
        <time>2015-08-07T09:30:37.000Z</time>
      </trkpt>
      <trkpt lat="45.44834" lon="5.68804">
        <ele>796</ele>
        <time>2015-08-07T09:30:38.000Z</time>
      </trkpt>
      <trkpt lat="45.44833" lon="5.68809">
        <ele>804</ele>
        <time>2015-08-07T09:30:41.000Z</time>
      </trkpt>
      <trkpt lat="45.44833" lon="5.6881">
        <ele>804</ele>
        <time>2015-08-07T09:30:42.000Z</time>
      </trkpt>
      <trkpt lat="45.44831" lon="5.68815">
        <ele>803</ele>
        <time>2015-08-07T09:30:45.000Z</time>
      </trkpt>
      <trkpt lat="45.4483" lon="5.68816">
        <ele>803</ele>
        <time>2015-08-07T09:30:46.000Z</time>
      </trkpt>
      <trkpt lat="45.44827" lon="5.6882">
        <ele>803</ele>
        <time>2015-08-07T09:30:48.000Z</time>
      </trkpt>
      <trkpt lat="45.44826" lon="5.68823">
        <ele>803</ele>
        <time>2015-08-07T09:30:49.000Z</time>
      </trkpt>
      <trkpt lat="45.44825" lon="5.68825">
        <ele>803</ele>
        <time>2015-08-07T09:30:50.000Z</time>
      </trkpt>
      <trkpt lat="45.44823" lon="5.68829">
        <ele>802</ele>
        <time>2015-08-07T09:30:51.000Z</time>
      </trkpt>
      <trkpt lat="45.44821" lon="5.68832">
        <ele>803</ele>
        <time>2015-08-07T09:30:52.000Z</time>
      </trkpt>
      <trkpt lat="45.44819" lon="5.68836">
        <ele>804</ele>
        <time>2015-08-07T09:30:53.000Z</time>
      </trkpt>
      <trkpt lat="45.44816" lon="5.68839">
        <ele>805</ele>
        <time>2015-08-07T09:30:54.000Z</time>
      </trkpt>
      <trkpt lat="45.44813" lon="5.68843">
        <ele>806</ele>
        <time>2015-08-07T09:30:55.000Z</time>
      </trkpt>
      <trkpt lat="45.44811" lon="5.68847">
        <ele>807</ele>
        <time>2015-08-07T09:30:56.000Z</time>
      </trkpt>
      <trkpt lat="45.44809" lon="5.6885">
        <ele>807</ele>
        <time>2015-08-07T09:30:57.000Z</time>
      </trkpt>
      <trkpt lat="45.44808" lon="5.68854">
        <ele>807</ele>
        <time>2015-08-07T09:30:58.000Z</time>
      </trkpt>
      <trkpt lat="45.44807" lon="5.68859">
        <ele>808</ele>
        <time>2015-08-07T09:30:59.000Z</time>
      </trkpt>
      <trkpt lat="45.44806" lon="5.68864">
        <ele>808</ele>
        <time>2015-08-07T09:31:00.000Z</time>
      </trkpt>
      <trkpt lat="45.44805" lon="5.6887">
        <ele>809</ele>
        <time>2015-08-07T09:31:01.000Z</time>
      </trkpt>
      <trkpt lat="45.44804" lon="5.68874">
        <ele>809</ele>
        <time>2015-08-07T09:31:02.000Z</time>
      </trkpt>
      <trkpt lat="45.44804" lon="5.68878">
        <ele>809</ele>
        <time>2015-08-07T09:31:03.000Z</time>
      </trkpt>
      <trkpt lat="45.44804" lon="5.68884">
        <ele>809</ele>
        <time>2015-08-07T09:31:05.000Z</time>
      </trkpt>
      <trkpt lat="45.44804" lon="5.68887">
        <ele>809</ele>
        <time>2015-08-07T09:31:06.000Z</time>
      </trkpt>
      <trkpt lat="45.44804" lon="5.6889">
        <ele>809</ele>
        <time>2015-08-07T09:31:07.000Z</time>
      </trkpt>
      <trkpt lat="45.44804" lon="5.68894">
        <ele>809</ele>
        <time>2015-08-07T09:31:08.000Z</time>
      </trkpt>
      <trkpt lat="45.44804" lon="5.68897">
        <ele>809</ele>
        <time>2015-08-07T09:31:09.000Z</time>
      </trkpt>
      <trkpt lat="45.44804" lon="5.68901">
        <ele>809</ele>
        <time>2015-08-07T09:31:10.000Z</time>
      </trkpt>
      <trkpt lat="45.44804" lon="5.68904">
        <ele>809</ele>
        <time>2015-08-07T09:31:11.000Z</time>
      </trkpt>
      <trkpt lat="45.44803" lon="5.68908">
        <ele>809</ele>
        <time>2015-08-07T09:31:12.000Z</time>
      </trkpt>
      <trkpt lat="45.44802" lon="5.68912">
        <ele>809</ele>
        <time>2015-08-07T09:31:13.000Z</time>
      </trkpt>
      <trkpt lat="45.44801" lon="5.68914">
        <ele>809</ele>
        <time>2015-08-07T09:31:14.000Z</time>
      </trkpt>
      <trkpt lat="45.44799" lon="5.6892">
        <ele>811</ele>
        <time>2015-08-07T09:31:17.000Z</time>
      </trkpt>
      <trkpt lat="45.44799" lon="5.68922">
        <ele>811</ele>
        <time>2015-08-07T09:31:18.000Z</time>
      </trkpt>
      <trkpt lat="45.44798" lon="5.68925">
        <ele>811</ele>
        <time>2015-08-07T09:31:19.000Z</time>
      </trkpt>
      <trkpt lat="45.44797" lon="5.68929">
        <ele>811</ele>
        <time>2015-08-07T09:31:20.000Z</time>
      </trkpt>
      <trkpt lat="45.44797" lon="5.68933">
        <ele>811</ele>
        <time>2015-08-07T09:31:21.000Z</time>
      </trkpt>
      <trkpt lat="45.44797" lon="5.68938">
        <ele>811</ele>
        <time>2015-08-07T09:31:22.000Z</time>
      </trkpt>
      <trkpt lat="45.44796" lon="5.68942">
        <ele>812</ele>
        <time>2015-08-07T09:31:23.000Z</time>
      </trkpt>
      <trkpt lat="45.44797" lon="5.68944">
        <ele>812</ele>
        <time>2015-08-07T09:31:24.000Z</time>
      </trkpt>
      <trkpt lat="45.44799" lon="5.68948">
        <ele>812</ele>
        <time>2015-08-07T09:31:26.000Z</time>
      </trkpt>
      <trkpt lat="45.448" lon="5.68951">
        <ele>812</ele>
        <time>2015-08-07T09:31:27.000Z</time>
      </trkpt>
      <trkpt lat="45.448" lon="5.68957">
        <ele>812</ele>
        <time>2015-08-07T09:31:29.000Z</time>
      </trkpt>
      <trkpt lat="45.448" lon="5.6896">
        <ele>812</ele>
        <time>2015-08-07T09:31:30.000Z</time>
      </trkpt>
      <trkpt lat="45.44799" lon="5.68964">
        <ele>812</ele>
        <time>2015-08-07T09:31:31.000Z</time>
      </trkpt>
      <trkpt lat="45.44799" lon="5.68967">
        <ele>812</ele>
        <time>2015-08-07T09:31:32.000Z</time>
      </trkpt>
      <trkpt lat="45.44798" lon="5.68971">
        <ele>812</ele>
        <time>2015-08-07T09:31:33.000Z</time>
      </trkpt>
      <trkpt lat="45.44797" lon="5.68975">
        <ele>812</ele>
        <time>2015-08-07T09:31:34.000Z</time>
      </trkpt>
      <trkpt lat="45.44796" lon="5.6898">
        <ele>813</ele>
        <time>2015-08-07T09:31:35.000Z</time>
      </trkpt>
      <trkpt lat="45.44796" lon="5.68983">
        <ele>813</ele>
        <time>2015-08-07T09:31:36.000Z</time>
      </trkpt>
      <trkpt lat="45.44795" lon="5.6899">
        <ele>813</ele>
        <time>2015-08-07T09:31:38.000Z</time>
      </trkpt>
      <trkpt lat="45.44796" lon="5.68993">
        <ele>813</ele>
        <time>2015-08-07T09:31:39.000Z</time>
      </trkpt>
      <trkpt lat="45.44796" lon="5.68999">
        <ele>813</ele>
        <time>2015-08-07T09:31:41.000Z</time>
      </trkpt>
      <trkpt lat="45.44797" lon="5.69002">
        <ele>812</ele>
        <time>2015-08-07T09:31:42.000Z</time>
      </trkpt>
      <trkpt lat="45.44797" lon="5.69005">
        <ele>812</ele>
        <time>2015-08-07T09:31:43.000Z</time>
      </trkpt>
      <trkpt lat="45.44798" lon="5.69008">
        <ele>812</ele>
        <time>2015-08-07T09:31:44.000Z</time>
      </trkpt>
      <trkpt lat="45.448" lon="5.69011">
        <ele>812</ele>
        <time>2015-08-07T09:31:45.000Z</time>
      </trkpt>
      <trkpt lat="45.44802" lon="5.69013">
        <ele>812</ele>
        <time>2015-08-07T09:31:46.000Z</time>
      </trkpt>
      <trkpt lat="45.44804" lon="5.69014">
        <ele>812</ele>
        <time>2015-08-07T09:31:47.000Z</time>
      </trkpt>
      <trkpt lat="45.44806" lon="5.69016">
        <ele>812</ele>
        <time>2015-08-07T09:31:48.000Z</time>
      </trkpt>
      <trkpt lat="45.44809" lon="5.69019">
        <ele>812</ele>
        <time>2015-08-07T09:31:50.000Z</time>
      </trkpt>
      <trkpt lat="45.4481" lon="5.69021">
        <ele>812</ele>
        <time>2015-08-07T09:31:51.000Z</time>
      </trkpt>
      <trkpt lat="45.44813" lon="5.69023">
        <ele>812</ele>
        <time>2015-08-07T09:31:53.000Z</time>
      </trkpt>
      <trkpt lat="45.44814" lon="5.69024">
        <ele>812</ele>
        <time>2015-08-07T09:31:54.000Z</time>
      </trkpt>
      <trkpt lat="45.44817" lon="5.69027">
        <ele>812</ele>
        <time>2015-08-07T09:31:57.000Z</time>
      </trkpt>
      <trkpt lat="45.44819" lon="5.69028">
        <ele>812</ele>
        <time>2015-08-07T09:31:58.000Z</time>
      </trkpt>
      <trkpt lat="45.44821" lon="5.69032">
        <ele>811</ele>
        <time>2015-08-07T09:32:00.000Z</time>
      </trkpt>
      <trkpt lat="45.44823" lon="5.69034">
        <ele>811</ele>
        <time>2015-08-07T09:32:01.000Z</time>
      </trkpt>
      <trkpt lat="45.44827" lon="5.69036">
        <ele>811</ele>
        <time>2015-08-07T09:32:03.000Z</time>
      </trkpt>
      <trkpt lat="45.44828" lon="5.69037">
        <ele>811</ele>
        <time>2015-08-07T09:32:04.000Z</time>
      </trkpt>
      <trkpt lat="45.4483" lon="5.69041">
        <ele>811</ele>
        <time>2015-08-07T09:32:07.000Z</time>
      </trkpt>
      <trkpt lat="45.44831" lon="5.69042">
        <ele>811</ele>
        <time>2015-08-07T09:32:08.000Z</time>
      </trkpt>
      <trkpt lat="45.44832" lon="5.69047">
        <ele>811</ele>
        <time>2015-08-07T09:32:11.000Z</time>
      </trkpt>
      <trkpt lat="45.44832" lon="5.69049">
        <ele>811</ele>
        <time>2015-08-07T09:32:12.000Z</time>
      </trkpt>
      <trkpt lat="45.44832" lon="5.69055">
        <ele>811</ele>
        <time>2015-08-07T09:32:15.000Z</time>
      </trkpt>
      <trkpt lat="45.44833" lon="5.69056">
        <ele>811</ele>
        <time>2015-08-07T09:32:16.000Z</time>
      </trkpt>
      <trkpt lat="45.44834" lon="5.69061">
        <ele>810</ele>
        <time>2015-08-07T09:32:19.000Z</time>
      </trkpt>
      <trkpt lat="45.44835" lon="5.69062">
        <ele>810</ele>
        <time>2015-08-07T09:32:20.000Z</time>
      </trkpt>
      <trkpt lat="45.44837" lon="5.69068">
        <ele>810</ele>
        <time>2015-08-07T09:32:23.000Z</time>
      </trkpt>
      <trkpt lat="45.44837" lon="5.69069">
        <ele>810</ele>
        <time>2015-08-07T09:32:24.000Z</time>
      </trkpt>
      <trkpt lat="45.44839" lon="5.69074">
        <ele>810</ele>
        <time>2015-08-07T09:32:27.000Z</time>
      </trkpt>
      <trkpt lat="45.4484" lon="5.69076">
        <ele>810</ele>
        <time>2015-08-07T09:32:28.000Z</time>
      </trkpt>
      <trkpt lat="45.44842" lon="5.69079">
        <ele>810</ele>
        <time>2015-08-07T09:32:30.000Z</time>
      </trkpt>
      <trkpt lat="45.44843" lon="5.69081">
        <ele>810</ele>
        <time>2015-08-07T09:32:31.000Z</time>
      </trkpt>
      <trkpt lat="45.44845" lon="5.69083">
        <ele>810</ele>
        <time>2015-08-07T09:32:32.000Z</time>
      </trkpt>
      <trkpt lat="45.44847" lon="5.69086">
        <ele>810</ele>
        <time>2015-08-07T09:32:33.000Z</time>
      </trkpt>
      <trkpt lat="45.44848" lon="5.6909">
        <ele>810</ele>
        <time>2015-08-07T09:32:34.000Z</time>
      </trkpt>
      <trkpt lat="45.4485" lon="5.69094">
        <ele>809</ele>
        <time>2015-08-07T09:32:35.000Z</time>
      </trkpt>
      <trkpt lat="45.44851" lon="5.69099">
        <ele>809</ele>
        <time>2015-08-07T09:32:36.000Z</time>
      </trkpt>
      <trkpt lat="45.44852" lon="5.69103">
        <ele>809</ele>
        <time>2015-08-07T09:32:37.000Z</time>
      </trkpt>
      <trkpt lat="45.44853" lon="5.69108">
        <ele>809</ele>
        <time>2015-08-07T09:32:38.000Z</time>
      </trkpt>
      <trkpt lat="45.44855" lon="5.69112">
        <ele>809</ele>
        <time>2015-08-07T09:32:39.000Z</time>
      </trkpt>
      <trkpt lat="45.44857" lon="5.69117">
        <ele>809</ele>
        <time>2015-08-07T09:32:40.000Z</time>
      </trkpt>
      <trkpt lat="45.44859" lon="5.6912">
        <ele>809</ele>
        <time>2015-08-07T09:32:41.000Z</time>
      </trkpt>
      <trkpt lat="45.44861" lon="5.69123">
        <ele>809</ele>
        <time>2015-08-07T09:32:42.000Z</time>
      </trkpt>
      <trkpt lat="45.44865" lon="5.69125">
        <ele>809</ele>
        <time>2015-08-07T09:32:43.000Z</time>
      </trkpt>
      <trkpt lat="45.44867" lon="5.69127">
        <ele>809</ele>
        <time>2015-08-07T09:32:44.000Z</time>
      </trkpt>
      <trkpt lat="45.4487" lon="5.69129">
        <ele>809</ele>
        <time>2015-08-07T09:32:45.000Z</time>
      </trkpt>
      <trkpt lat="45.44874" lon="5.69131">
        <ele>809</ele>
        <time>2015-08-07T09:32:47.000Z</time>
      </trkpt>
      <trkpt lat="45.44875" lon="5.69132">
        <ele>809</ele>
        <time>2015-08-07T09:32:48.000Z</time>
      </trkpt>
      <trkpt lat="45.44877" lon="5.69134">
        <ele>809</ele>
        <time>2015-08-07T09:32:49.000Z</time>
      </trkpt>
      <trkpt lat="45.4488" lon="5.69137">
        <ele>809</ele>
        <time>2015-08-07T09:32:50.000Z</time>
      </trkpt>
      <trkpt lat="45.44883" lon="5.6914">
        <ele>809</ele>
        <time>2015-08-07T09:32:51.000Z</time>
      </trkpt>
      <trkpt lat="45.44886" lon="5.69143">
        <ele>809</ele>
        <time>2015-08-07T09:32:52.000Z</time>
      </trkpt>
      <trkpt lat="45.44889" lon="5.69146">
        <ele>810</ele>
        <time>2015-08-07T09:32:53.000Z</time>
      </trkpt>
      <trkpt lat="45.44891" lon="5.69149">
        <ele>810</ele>
        <time>2015-08-07T09:32:54.000Z</time>
      </trkpt>
      <trkpt lat="45.44894" lon="5.69153">
        <ele>810</ele>
        <time>2015-08-07T09:32:55.000Z</time>
      </trkpt>
      <trkpt lat="45.44896" lon="5.69157">
        <ele>810</ele>
        <time>2015-08-07T09:32:56.000Z</time>
      </trkpt>
      <trkpt lat="45.44898" lon="5.69161">
        <ele>810</ele>
        <time>2015-08-07T09:32:57.000Z</time>
      </trkpt>
      <trkpt lat="45.449" lon="5.69165">
        <ele>810</ele>
        <time>2015-08-07T09:32:58.000Z</time>
      </trkpt>
      <trkpt lat="45.44902" lon="5.69171">
        <ele>810</ele>
        <time>2015-08-07T09:32:59.000Z</time>
      </trkpt>
      <trkpt lat="45.44904" lon="5.69175">
        <ele>810</ele>
        <time>2015-08-07T09:33:00.000Z</time>
      </trkpt>
      <trkpt lat="45.44907" lon="5.6918">
        <ele>809</ele>
        <time>2015-08-07T09:33:01.000Z</time>
      </trkpt>
      <trkpt lat="45.44909" lon="5.69184">
        <ele>809</ele>
        <time>2015-08-07T09:33:02.000Z</time>
      </trkpt>
      <trkpt lat="45.44912" lon="5.69188">
        <ele>809</ele>
        <time>2015-08-07T09:33:03.000Z</time>
      </trkpt>
      <trkpt lat="45.44915" lon="5.69191">
        <ele>809</ele>
        <time>2015-08-07T09:33:04.000Z</time>
      </trkpt>
      <trkpt lat="45.44929" lon="5.6919">
        <ele>810</ele>
        <time>2015-08-07T09:33:05.000Z</time>
      </trkpt>
      <trkpt lat="45.4493" lon="5.69193">
        <ele>810</ele>
        <time>2015-08-07T09:33:06.000Z</time>
      </trkpt>
      <trkpt lat="45.44932" lon="5.69197">
        <ele>810</ele>
        <time>2015-08-07T09:33:07.000Z</time>
      </trkpt>
      <trkpt lat="45.44934" lon="5.69199">
        <ele>810</ele>
        <time>2015-08-07T09:33:08.000Z</time>
      </trkpt>
      <trkpt lat="45.44936" lon="5.69201">
        <ele>809</ele>
        <time>2015-08-07T09:33:09.000Z</time>
      </trkpt>
      <trkpt lat="45.44938" lon="5.69203">
        <ele>809</ele>
        <time>2015-08-07T09:33:10.000Z</time>
      </trkpt>
      <trkpt lat="45.44938" lon="5.69208">
        <ele>809</ele>
        <time>2015-08-07T09:33:11.000Z</time>
      </trkpt>
      <trkpt lat="45.44941" lon="5.69213">
        <ele>809</ele>
        <time>2015-08-07T09:33:12.000Z</time>
      </trkpt>
      <trkpt lat="45.44944" lon="5.69217">
        <ele>809</ele>
        <time>2015-08-07T09:33:13.000Z</time>
      </trkpt>
      <trkpt lat="45.44949" lon="5.69223">
        <ele>809</ele>
        <time>2015-08-07T09:33:14.000Z</time>
      </trkpt>
      <trkpt lat="45.44952" lon="5.69226">
        <ele>809</ele>
        <time>2015-08-07T09:33:15.000Z</time>
      </trkpt>
      <trkpt lat="45.44956" lon="5.6923">
        <ele>809</ele>
        <time>2015-08-07T09:33:16.000Z</time>
      </trkpt>
      <trkpt lat="45.4496" lon="5.69233">
        <ele>809</ele>
        <time>2015-08-07T09:33:17.000Z</time>
      </trkpt>
      <trkpt lat="45.44963" lon="5.69236">
        <ele>809</ele>
        <time>2015-08-07T09:33:18.000Z</time>
      </trkpt>
      <trkpt lat="45.44966" lon="5.69238">
        <ele>809</ele>
        <time>2015-08-07T09:33:19.000Z</time>
      </trkpt>
      <trkpt lat="45.44969" lon="5.69239">
        <ele>809</ele>
        <time>2015-08-07T09:33:20.000Z</time>
      </trkpt>
      <trkpt lat="45.44973" lon="5.6924">
        <ele>809</ele>
        <time>2015-08-07T09:33:22.000Z</time>
      </trkpt>
      <trkpt lat="45.44974" lon="5.6924">
        <ele>809</ele>
        <time>2015-08-07T09:33:23.000Z</time>
      </trkpt>
      <trkpt lat="45.44978" lon="5.69239">
        <ele>809</ele>
        <time>2015-08-07T09:33:53.000Z</time>
      </trkpt>
      <trkpt lat="45.44979" lon="5.6924">
        <ele>809</ele>
        <time>2015-08-07T09:33:54.000Z</time>
      </trkpt>
      <trkpt lat="45.44982" lon="5.69244">
        <ele>808</ele>
        <time>2015-08-07T09:33:58.000Z</time>
      </trkpt>
      <trkpt lat="45.44983" lon="5.69245">
        <ele>808</ele>
        <time>2015-08-07T09:33:59.000Z</time>
      </trkpt>
      <trkpt lat="45.44986" lon="5.69246">
        <ele>808</ele>
        <time>2015-08-07T09:34:01.000Z</time>
      </trkpt>
      <trkpt lat="45.44988" lon="5.69247">
        <ele>808</ele>
        <time>2015-08-07T09:34:02.000Z</time>
      </trkpt>
      <trkpt lat="45.44989" lon="5.69249">
        <ele>808</ele>
        <time>2015-08-07T09:34:03.000Z</time>
      </trkpt>
      <trkpt lat="45.44991" lon="5.69252">
        <ele>808</ele>
        <time>2015-08-07T09:34:04.000Z</time>
      </trkpt>
      <trkpt lat="45.44992" lon="5.69255">
        <ele>808</ele>
        <time>2015-08-07T09:34:05.000Z</time>
      </trkpt>
      <trkpt lat="45.44995" lon="5.69258">
        <ele>808</ele>
        <time>2015-08-07T09:34:06.000Z</time>
      </trkpt>
      <trkpt lat="45.44997" lon="5.69262">
        <ele>808</ele>
        <time>2015-08-07T09:34:07.000Z</time>
      </trkpt>
      <trkpt lat="45.45" lon="5.69265">
        <ele>808</ele>
        <time>2015-08-07T09:34:08.000Z</time>
      </trkpt>
      <trkpt lat="45.45008" lon="5.69272">
        <ele>809</ele>
        <time>2015-08-07T09:34:09.000Z</time>
      </trkpt>
      <trkpt lat="45.45011" lon="5.69277">
        <ele>810</ele>
        <time>2015-08-07T09:34:10.000Z</time>
      </trkpt>
      <trkpt lat="45.45015" lon="5.69281">
        <ele>810</ele>
        <time>2015-08-07T09:34:11.000Z</time>
      </trkpt>
      <trkpt lat="45.45018" lon="5.69285">
        <ele>810</ele>
        <time>2015-08-07T09:34:12.000Z</time>
      </trkpt>
      <trkpt lat="45.45022" lon="5.69288">
        <ele>810</ele>
        <time>2015-08-07T09:34:13.000Z</time>
      </trkpt>
      <trkpt lat="45.45025" lon="5.69291">
        <ele>810</ele>
        <time>2015-08-07T09:34:14.000Z</time>
      </trkpt>
      <trkpt lat="45.45028" lon="5.69295">
        <ele>810</ele>
        <time>2015-08-07T09:34:15.000Z</time>
      </trkpt>
      <trkpt lat="45.45031" lon="5.69297">
        <ele>811</ele>
        <time>2015-08-07T09:34:16.000Z</time>
      </trkpt>
      <trkpt lat="45.45033" lon="5.693">
        <ele>811</ele>
        <time>2015-08-07T09:34:17.000Z</time>
      </trkpt>
      <trkpt lat="45.45035" lon="5.69303">
        <ele>811</ele>
        <time>2015-08-07T09:34:18.000Z</time>
      </trkpt>
      <trkpt lat="45.45038" lon="5.69306">
        <ele>811</ele>
        <time>2015-08-07T09:34:19.000Z</time>
      </trkpt>
      <trkpt lat="45.4504" lon="5.69308">
        <ele>811</ele>
        <time>2015-08-07T09:34:20.000Z</time>
      </trkpt>
      <trkpt lat="45.45042" lon="5.6931">
        <ele>811</ele>
        <time>2015-08-07T09:34:21.000Z</time>
      </trkpt>
      <trkpt lat="45.45046" lon="5.69313">
        <ele>812</ele>
        <time>2015-08-07T09:34:23.000Z</time>
      </trkpt>
      <trkpt lat="45.45047" lon="5.69314">
        <ele>812</ele>
        <time>2015-08-07T09:34:24.000Z</time>
      </trkpt>
      <trkpt lat="45.45051" lon="5.69315">
        <ele>812</ele>
        <time>2015-08-07T09:34:26.000Z</time>
      </trkpt>
      <trkpt lat="45.45052" lon="5.69316">
        <ele>812</ele>
        <time>2015-08-07T09:34:27.000Z</time>
      </trkpt>
      <trkpt lat="45.45055" lon="5.69319">
        <ele>812</ele>
        <time>2015-08-07T09:34:30.000Z</time>
      </trkpt>
      <trkpt lat="45.45056" lon="5.6932">
        <ele>813</ele>
        <time>2015-08-07T09:34:31.000Z</time>
      </trkpt>
      <trkpt lat="45.45059" lon="5.69324">
        <ele>813</ele>
        <time>2015-08-07T09:34:34.000Z</time>
      </trkpt>
      <trkpt lat="45.4506" lon="5.69324">
        <ele>813</ele>
        <time>2015-08-07T09:34:35.000Z</time>
      </trkpt>
      <trkpt lat="45.45064" lon="5.69328">
        <ele>814</ele>
        <time>2015-08-07T09:34:38.000Z</time>
      </trkpt>
      <trkpt lat="45.45065" lon="5.69329">
        <ele>814</ele>
        <time>2015-08-07T09:34:39.000Z</time>
      </trkpt>
      <trkpt lat="45.45068" lon="5.69332">
        <ele>815</ele>
        <time>2015-08-07T09:34:42.000Z</time>
      </trkpt>
      <trkpt lat="45.45069" lon="5.69333">
        <ele>815</ele>
        <time>2015-08-07T09:34:43.000Z</time>
      </trkpt>
      <trkpt lat="45.45071" lon="5.69337">
        <ele>817</ele>
        <time>2015-08-07T09:34:46.000Z</time>
      </trkpt>
      <trkpt lat="45.45072" lon="5.69338">
        <ele>817</ele>
        <time>2015-08-07T09:34:47.000Z</time>
      </trkpt>
      <trkpt lat="45.45076" lon="5.69341">
        <ele>817</ele>
        <time>2015-08-07T09:34:51.000Z</time>
      </trkpt>
      <trkpt lat="45.45077" lon="5.69342">
        <ele>817</ele>
        <time>2015-08-07T09:34:52.000Z</time>
      </trkpt>
      <trkpt lat="45.4508" lon="5.69346">
        <ele>817</ele>
        <time>2015-08-07T09:34:56.000Z</time>
      </trkpt>
      <trkpt lat="45.45081" lon="5.69347">
        <ele>817</ele>
        <time>2015-08-07T09:34:57.000Z</time>
      </trkpt>
      <trkpt lat="45.45085" lon="5.6935">
        <ele>820</ele>
        <time>2015-08-07T09:35:00.000Z</time>
      </trkpt>
      <trkpt lat="45.45085" lon="5.69351">
        <ele>820</ele>
        <time>2015-08-07T09:35:01.000Z</time>
      </trkpt>
      <trkpt lat="45.45088" lon="5.69355">
        <ele>821</ele>
        <time>2015-08-07T09:35:04.000Z</time>
      </trkpt>
      <trkpt lat="45.45089" lon="5.69357">
        <ele>821</ele>
        <time>2015-08-07T09:35:05.000Z</time>
      </trkpt>
      <trkpt lat="45.45091" lon="5.6936">
        <ele>821</ele>
        <time>2015-08-07T09:35:07.000Z</time>
      </trkpt>
      <trkpt lat="45.45092" lon="5.69362">
        <ele>821</ele>
        <time>2015-08-07T09:35:08.000Z</time>
      </trkpt>
      <trkpt lat="45.45095" lon="5.69364">
        <ele>821</ele>
        <time>2015-08-07T09:35:10.000Z</time>
      </trkpt>
      <trkpt lat="45.45096" lon="5.69365">
        <ele>821</ele>
        <time>2015-08-07T09:35:11.000Z</time>
      </trkpt>
      <trkpt lat="45.45099" lon="5.69368">
        <ele>821</ele>
        <time>2015-08-07T09:35:14.000Z</time>
      </trkpt>
      <trkpt lat="45.45101" lon="5.69369">
        <ele>821</ele>
        <time>2015-08-07T09:35:15.000Z</time>
      </trkpt>
      <trkpt lat="45.45104" lon="5.6937">
        <ele>822</ele>
        <time>2015-08-07T09:35:17.000Z</time>
      </trkpt>
      <trkpt lat="45.45105" lon="5.69372">
        <ele>822</ele>
        <time>2015-08-07T09:35:18.000Z</time>
      </trkpt>
      <trkpt lat="45.45109" lon="5.69375">
        <ele>822</ele>
        <time>2015-08-07T09:35:20.000Z</time>
      </trkpt>
      <trkpt lat="45.4511" lon="5.69377">
        <ele>822</ele>
        <time>2015-08-07T09:35:20.999Z</time>
      </trkpt>
      <trkpt lat="45.45114" lon="5.69376">
        <ele>822</ele>
        <time>2015-08-07T09:35:22.000Z</time>
      </trkpt>
      <trkpt lat="45.45116" lon="5.69376">
        <ele>822</ele>
        <time>2015-08-07T09:35:23.000Z</time>
      </trkpt>
      <trkpt lat="45.4512" lon="5.69375">
        <ele>822</ele>
        <time>2015-08-07T09:35:25.000Z</time>
      </trkpt>
      <trkpt lat="45.45122" lon="5.69375">
        <ele>822</ele>
        <time>2015-08-07T09:35:26.000Z</time>
      </trkpt>
      <trkpt lat="45.45126" lon="5.69375">
        <ele>823</ele>
        <time>2015-08-07T09:35:28.000Z</time>
      </trkpt>
      <trkpt lat="45.45127" lon="5.69376">
        <ele>823</ele>
        <time>2015-08-07T09:35:29.000Z</time>
      </trkpt>
      <trkpt lat="45.45131" lon="5.69377">
        <ele>823</ele>
        <time>2015-08-07T09:35:31.000Z</time>
      </trkpt>
      <trkpt lat="45.45132" lon="5.69378">
        <ele>823</ele>
        <time>2015-08-07T09:35:32.000Z</time>
      </trkpt>
      <trkpt lat="45.45136" lon="5.69378">
        <ele>823</ele>
        <time>2015-08-07T09:35:34.000Z</time>
      </trkpt>
      <trkpt lat="45.45138" lon="5.69379">
        <ele>823</ele>
        <time>2015-08-07T09:35:35.000Z</time>
      </trkpt>
      <trkpt lat="45.45142" lon="5.69381">
        <ele>823</ele>
        <time>2015-08-07T09:35:37.000Z</time>
      </trkpt>
      <trkpt lat="45.45143" lon="5.69383">
        <ele>823</ele>
        <time>2015-08-07T09:35:38.000Z</time>
      </trkpt>
      <trkpt lat="45.45146" lon="5.69387">
        <ele>824</ele>
        <time>2015-08-07T09:35:40.000Z</time>
      </trkpt>
      <trkpt lat="45.45148" lon="5.69389">
        <ele>824</ele>
        <time>2015-08-07T09:35:41.000Z</time>
      </trkpt>
      <trkpt lat="45.4515" lon="5.6939">
        <ele>824</ele>
        <time>2015-08-07T09:35:42.000Z</time>
      </trkpt>
      <trkpt lat="45.45153" lon="5.69392">
        <ele>824</ele>
        <time>2015-08-07T09:35:43.000Z</time>
      </trkpt>
      <trkpt lat="45.45156" lon="5.69393">
        <ele>824</ele>
        <time>2015-08-07T09:35:44.000Z</time>
      </trkpt>
      <trkpt lat="45.45159" lon="5.69394">
        <ele>824</ele>
        <time>2015-08-07T09:35:45.000Z</time>
      </trkpt>
      <trkpt lat="45.45163" lon="5.69395">
        <ele>825</ele>
        <time>2015-08-07T09:35:46.000Z</time>
      </trkpt>
      <trkpt lat="45.45166" lon="5.69395">
        <ele>825</ele>
        <time>2015-08-07T09:35:47.000Z</time>
      </trkpt>
      <trkpt lat="45.4517" lon="5.69396">
        <ele>828</ele>
        <time>2015-08-07T09:35:48.000Z</time>
      </trkpt>
      <trkpt lat="45.45173" lon="5.69396">
        <ele>828</ele>
        <time>2015-08-07T09:35:49.000Z</time>
      </trkpt>
      <trkpt lat="45.45176" lon="5.69397">
        <ele>828</ele>
        <time>2015-08-07T09:35:50.000Z</time>
      </trkpt>
      <trkpt lat="45.45179" lon="5.69398">
        <ele>829</ele>
        <time>2015-08-07T09:35:51.000Z</time>
      </trkpt>
      <trkpt lat="45.45183" lon="5.69398">
        <ele>829</ele>
        <time>2015-08-07T09:35:52.000Z</time>
      </trkpt>
      <trkpt lat="45.45185" lon="5.69399">
        <ele>829</ele>
        <time>2015-08-07T09:35:53.000Z</time>
      </trkpt>
      <trkpt lat="45.45188" lon="5.69399">
        <ele>829</ele>
        <time>2015-08-07T09:35:54.000Z</time>
      </trkpt>
      <trkpt lat="45.45191" lon="5.69398">
        <ele>829</ele>
        <time>2015-08-07T09:35:55.000Z</time>
      </trkpt>
      <trkpt lat="45.45195" lon="5.69398">
        <ele>829</ele>
        <time>2015-08-07T09:35:57.000Z</time>
      </trkpt>
      <trkpt lat="45.45197" lon="5.69399">
        <ele>829</ele>
        <time>2015-08-07T09:35:58.000Z</time>
      </trkpt>
      <trkpt lat="45.452" lon="5.694">
        <ele>830</ele>
        <time>2015-08-07T09:36:00.000Z</time>
      </trkpt>
      <trkpt lat="45.45201" lon="5.69401">
        <ele>830</ele>
        <time>2015-08-07T09:36:01.000Z</time>
      </trkpt>
      <trkpt lat="45.45204" lon="5.69403">
        <ele>830</ele>
        <time>2015-08-07T09:36:03.000Z</time>
      </trkpt>
      <trkpt lat="45.45205" lon="5.69404">
        <ele>830</ele>
        <time>2015-08-07T09:36:04.000Z</time>
      </trkpt>
      <trkpt lat="45.45208" lon="5.69405">
        <ele>830</ele>
        <time>2015-08-07T09:36:06.000Z</time>
      </trkpt>
      <trkpt lat="45.4521" lon="5.69405">
        <ele>831</ele>
        <time>2015-08-07T09:36:07.000Z</time>
      </trkpt>
      <trkpt lat="45.45213" lon="5.69405">
        <ele>831</ele>
        <time>2015-08-07T09:36:09.000Z</time>
      </trkpt>
      <trkpt lat="45.45214" lon="5.69405">
        <ele>831</ele>
        <time>2015-08-07T09:36:10.000Z</time>
      </trkpt>
      <trkpt lat="45.45218" lon="5.69408">
        <ele>831</ele>
        <time>2015-08-07T09:36:13.000Z</time>
      </trkpt>
      <trkpt lat="45.45219" lon="5.69408">
        <ele>832</ele>
        <time>2015-08-07T09:36:14.000Z</time>
      </trkpt>
      <trkpt lat="45.45223" lon="5.6941">
        <ele>832</ele>
        <time>2015-08-07T09:36:20.000Z</time>
      </trkpt>
      <trkpt lat="45.45224" lon="5.69411">
        <ele>832</ele>
        <time>2015-08-07T09:36:21.000Z</time>
      </trkpt>
      <trkpt lat="45.45227" lon="5.69414">
        <ele>833</ele>
        <time>2015-08-07T09:36:25.000Z</time>
      </trkpt>
      <trkpt lat="45.45228" lon="5.69415">
        <ele>833</ele>
        <time>2015-08-07T09:36:26.000Z</time>
      </trkpt>
      <trkpt lat="45.45231" lon="5.69418">
        <ele>835</ele>
        <time>2015-08-07T09:36:28.000Z</time>
      </trkpt>
      <trkpt lat="45.45232" lon="5.69419">
        <ele>835</ele>
        <time>2015-08-07T09:36:29.000Z</time>
      </trkpt>
      <trkpt lat="45.45236" lon="5.69422">
        <ele>835</ele>
        <time>2015-08-07T09:36:32.000Z</time>
      </trkpt>
      <trkpt lat="45.45236" lon="5.69422">
        <ele>835</ele>
        <time>2015-08-07T09:36:33.000Z</time>
      </trkpt>
      <trkpt lat="45.45241" lon="5.69423">
        <ele>836</ele>
        <time>2015-08-07T09:37:11.000Z</time>
      </trkpt>
      <trkpt lat="45.45241" lon="5.69423">
        <ele>836</ele>
        <time>2015-08-07T09:37:12.000Z</time>
      </trkpt>
      <trkpt lat="45.45243" lon="5.69427">
        <ele>836</ele>
        <time>2015-08-07T09:38:19.000Z</time>
      </trkpt>
      <trkpt lat="45.45243" lon="5.69429">
        <ele>835</ele>
        <time>2015-08-07T09:38:20.000Z</time>
      </trkpt>
      <trkpt lat="45.45244" lon="5.69433">
        <ele>835</ele>
        <time>2015-08-07T09:38:22.000Z</time>
      </trkpt>
      <trkpt lat="45.45244" lon="5.69436">
        <ele>835</ele>
        <time>2015-08-07T09:38:23.000Z</time>
      </trkpt>
      <trkpt lat="45.45245" lon="5.6944">
        <ele>835</ele>
        <time>2015-08-07T09:38:25.000Z</time>
      </trkpt>
      <trkpt lat="45.45246" lon="5.69442">
        <ele>834</ele>
        <time>2015-08-07T09:38:26.000Z</time>
      </trkpt>
      <trkpt lat="45.45247" lon="5.69447">
        <ele>834</ele>
        <time>2015-08-07T09:38:28.000Z</time>
      </trkpt>
      <trkpt lat="45.45248" lon="5.69449">
        <ele>834</ele>
        <time>2015-08-07T09:38:29.000Z</time>
      </trkpt>
      <trkpt lat="45.4525" lon="5.69454">
        <ele>834</ele>
        <time>2015-08-07T09:38:31.000Z</time>
      </trkpt>
      <trkpt lat="45.45251" lon="5.69456">
        <ele>839</ele>
        <time>2015-08-07T09:38:32.000Z</time>
      </trkpt>
      <trkpt lat="45.45252" lon="5.69459">
        <ele>839</ele>
        <time>2015-08-07T09:38:33.000Z</time>
      </trkpt>
      <trkpt lat="45.45251" lon="5.69464">
        <ele>839</ele>
        <time>2015-08-07T09:38:34.000Z</time>
      </trkpt>
      <trkpt lat="45.45251" lon="5.69471">
        <ele>839</ele>
        <time>2015-08-07T09:38:35.000Z</time>
      </trkpt>
      <trkpt lat="45.4525" lon="5.69477">
        <ele>838</ele>
        <time>2015-08-07T09:38:36.000Z</time>
      </trkpt>
      <trkpt lat="45.4525" lon="5.69484">
        <ele>834</ele>
        <time>2015-08-07T09:38:37.000Z</time>
      </trkpt>
      <trkpt lat="45.45249" lon="5.6949">
        <ele>835</ele>
        <time>2015-08-07T09:38:38.000Z</time>
      </trkpt>
      <trkpt lat="45.4525" lon="5.69494">
        <ele>835</ele>
        <time>2015-08-07T09:38:39.000Z</time>
      </trkpt>
      <trkpt lat="45.45252" lon="5.69499">
        <ele>836</ele>
        <time>2015-08-07T09:38:44.000Z</time>
      </trkpt>
      <trkpt lat="45.45253" lon="5.69499">
        <ele>837</ele>
        <time>2015-08-07T09:38:45.000Z</time>
      </trkpt>
      <trkpt lat="45.45255" lon="5.69503">
        <ele>837</ele>
        <time>2015-08-07T09:38:51.000Z</time>
      </trkpt>
      <trkpt lat="45.45256" lon="5.69505">
        <ele>837</ele>
        <time>2015-08-07T09:38:52.000Z</time>
      </trkpt>
      <trkpt lat="45.45259" lon="5.69508">
        <ele>837</ele>
        <time>2015-08-07T09:38:54.000Z</time>
      </trkpt>
      <trkpt lat="45.4526" lon="5.69508">
        <ele>837</ele>
        <time>2015-08-07T09:38:55.000Z</time>
      </trkpt>
      <trkpt lat="45.45264" lon="5.69509">
        <ele>837</ele>
        <time>2015-08-07T09:38:57.000Z</time>
      </trkpt>
      <trkpt lat="45.45266" lon="5.6951">
        <ele>838</ele>
        <time>2015-08-07T09:38:58.000Z</time>
      </trkpt>
      <trkpt lat="45.45268" lon="5.69511">
        <ele>838</ele>
        <time>2015-08-07T09:38:59.000Z</time>
      </trkpt>
      <trkpt lat="45.4527" lon="5.69512">
        <ele>838</ele>
        <time>2015-08-07T09:39:00.000Z</time>
      </trkpt>
      <trkpt lat="45.45273" lon="5.69513">
        <ele>838</ele>
        <time>2015-08-07T09:39:01.000Z</time>
      </trkpt>
      <trkpt lat="45.45276" lon="5.69513">
        <ele>838</ele>
        <time>2015-08-07T09:39:02.000Z</time>
      </trkpt>
      <trkpt lat="45.45278" lon="5.69514">
        <ele>838</ele>
        <time>2015-08-07T09:39:03.000Z</time>
      </trkpt>
      <trkpt lat="45.4528" lon="5.69515">
        <ele>839</ele>
        <time>2015-08-07T09:39:04.000Z</time>
      </trkpt>
      <trkpt lat="45.45282" lon="5.69517">
        <ele>839</ele>
        <time>2015-08-07T09:39:05.000Z</time>
      </trkpt>
      <trkpt lat="45.45285" lon="5.69518">
        <ele>839</ele>
        <time>2015-08-07T09:39:06.000Z</time>
      </trkpt>
      <trkpt lat="45.45288" lon="5.69519">
        <ele>839</ele>
        <time>2015-08-07T09:39:07.000Z</time>
      </trkpt>
      <trkpt lat="45.45291" lon="5.6952">
        <ele>839</ele>
        <time>2015-08-07T09:39:08.000Z</time>
      </trkpt>
      <trkpt lat="45.45293" lon="5.6952">
        <ele>839</ele>
        <time>2015-08-07T09:39:09.000Z</time>
      </trkpt>
      <trkpt lat="45.45295" lon="5.69521">
        <ele>839</ele>
        <time>2015-08-07T09:39:10.000Z</time>
      </trkpt>
      <trkpt lat="45.45294" lon="5.69526">
        <ele>839</ele>
        <time>2015-08-07T09:39:16.000Z</time>
      </trkpt>
      <trkpt lat="45.45293" lon="5.6953">
        <ele>839</ele>
        <time>2015-08-07T09:39:17.000Z</time>
      </trkpt>
      <trkpt lat="45.45293" lon="5.69536">
        <ele>839</ele>
        <time>2015-08-07T09:39:18.000Z</time>
      </trkpt>
      <trkpt lat="45.45294" lon="5.69543">
        <ele>839</ele>
        <time>2015-08-07T09:39:19.000Z</time>
      </trkpt>
      <trkpt lat="45.45296" lon="5.69549">
        <ele>839</ele>
        <time>2015-08-07T09:39:20.000Z</time>
      </trkpt>
      <trkpt lat="45.45298" lon="5.69556">
        <ele>839</ele>
        <time>2015-08-07T09:39:21.000Z</time>
      </trkpt>
      <trkpt lat="45.453" lon="5.69562">
        <ele>839</ele>
        <time>2015-08-07T09:39:22.000Z</time>
      </trkpt>
      <trkpt lat="45.45302" lon="5.69567">
        <ele>839</ele>
        <time>2015-08-07T09:39:23.000Z</time>
      </trkpt>
      <trkpt lat="45.45304" lon="5.69572">
        <ele>839</ele>
        <time>2015-08-07T09:39:24.000Z</time>
      </trkpt>
      <trkpt lat="45.45305" lon="5.69576">
        <ele>840</ele>
        <time>2015-08-07T09:39:25.000Z</time>
      </trkpt>
      <trkpt lat="45.45307" lon="5.69579">
        <ele>840</ele>
        <time>2015-08-07T09:39:26.000Z</time>
      </trkpt>
      <trkpt lat="45.45309" lon="5.69582">
        <ele>840</ele>
        <time>2015-08-07T09:39:27.000Z</time>
      </trkpt>
      <trkpt lat="45.45311" lon="5.69584">
        <ele>838</ele>
        <time>2015-08-07T09:39:28.000Z</time>
      </trkpt>
      <trkpt lat="45.45315" lon="5.69583">
        <ele>839</ele>
        <time>2015-08-07T09:39:30.000Z</time>
      </trkpt>
      <trkpt lat="45.45316" lon="5.69583">
        <ele>840</ele>
        <time>2015-08-07T09:39:31.000Z</time>
      </trkpt>
      <trkpt lat="45.45321" lon="5.69583">
        <ele>841</ele>
        <time>2015-08-07T09:39:33.000Z</time>
      </trkpt>
      <trkpt lat="45.45324" lon="5.69584">
        <ele>840</ele>
        <time>2015-08-07T09:39:34.000Z</time>
      </trkpt>
      <trkpt lat="45.45328" lon="5.69585">
        <ele>841</ele>
        <time>2015-08-07T09:39:35.000Z</time>
      </trkpt>
      <trkpt lat="45.45331" lon="5.69587">
        <ele>841</ele>
        <time>2015-08-07T09:39:36.000Z</time>
      </trkpt>
      <trkpt lat="45.45335" lon="5.69588">
        <ele>842</ele>
        <time>2015-08-07T09:39:37.000Z</time>
      </trkpt>
      <trkpt lat="45.45336" lon="5.6959">
        <ele>842</ele>
        <time>2015-08-07T09:39:38.000Z</time>
      </trkpt>
      <trkpt lat="45.45338" lon="5.69592">
        <ele>842</ele>
        <time>2015-08-07T09:39:39.000Z</time>
      </trkpt>
      <trkpt lat="45.4534" lon="5.69594">
        <ele>842</ele>
        <time>2015-08-07T09:39:40.000Z</time>
      </trkpt>
      <trkpt lat="45.45342" lon="5.69596">
        <ele>842</ele>
        <time>2015-08-07T09:39:41.000Z</time>
      </trkpt>
      <trkpt lat="45.45344" lon="5.69597">
        <ele>842</ele>
        <time>2015-08-07T09:39:42.000Z</time>
      </trkpt>
      <trkpt lat="45.45346" lon="5.69599">
        <ele>842</ele>
        <time>2015-08-07T09:39:43.000Z</time>
      </trkpt>
      <trkpt lat="45.45348" lon="5.69601">
        <ele>842</ele>
        <time>2015-08-07T09:39:44.000Z</time>
      </trkpt>
      <trkpt lat="45.4535" lon="5.69603">
        <ele>842</ele>
        <time>2015-08-07T09:39:45.000Z</time>
      </trkpt>
      <trkpt lat="45.45352" lon="5.69605">
        <ele>842</ele>
        <time>2015-08-07T09:39:46.000Z</time>
      </trkpt>
      <trkpt lat="45.45355" lon="5.69609">
        <ele>842</ele>
        <time>2015-08-07T09:39:48.000Z</time>
      </trkpt>
      <trkpt lat="45.45357" lon="5.69611">
        <ele>842</ele>
        <time>2015-08-07T09:39:49.000Z</time>
      </trkpt>
      <trkpt lat="45.45359" lon="5.69614">
        <ele>842</ele>
        <time>2015-08-07T09:39:51.000Z</time>
      </trkpt>
      <trkpt lat="45.4536" lon="5.69616">
        <ele>842</ele>
        <time>2015-08-07T09:39:52.000Z</time>
      </trkpt>
      <trkpt lat="45.45363" lon="5.6962">
        <ele>842</ele>
        <time>2015-08-07T09:39:54.000Z</time>
      </trkpt>
      <trkpt lat="45.45364" lon="5.69623">
        <ele>842</ele>
        <time>2015-08-07T09:39:55.000Z</time>
      </trkpt>
      <trkpt lat="45.45366" lon="5.69625">
        <ele>842</ele>
        <time>2015-08-07T09:39:56.000Z</time>
      </trkpt>
      <trkpt lat="45.45368" lon="5.69626">
        <ele>842</ele>
        <time>2015-08-07T09:39:57.000Z</time>
      </trkpt>
      <trkpt lat="45.4537" lon="5.69628">
        <ele>842</ele>
        <time>2015-08-07T09:39:58.000Z</time>
      </trkpt>
      <trkpt lat="45.45372" lon="5.69631">
        <ele>842</ele>
        <time>2015-08-07T09:39:59.000Z</time>
      </trkpt>
      <trkpt lat="45.45374" lon="5.69635">
        <ele>842</ele>
        <time>2015-08-07T09:40:01.000Z</time>
      </trkpt>
      <trkpt lat="45.45376" lon="5.69637">
        <ele>842</ele>
        <time>2015-08-07T09:40:02.000Z</time>
      </trkpt>
      <trkpt lat="45.45378" lon="5.69639">
        <ele>842</ele>
        <time>2015-08-07T09:40:03.000Z</time>
      </trkpt>
      <trkpt lat="45.4538" lon="5.69642">
        <ele>842</ele>
        <time>2015-08-07T09:40:04.000Z</time>
      </trkpt>
      <trkpt lat="45.45381" lon="5.69644">
        <ele>842</ele>
        <time>2015-08-07T09:40:05.000Z</time>
      </trkpt>
      <trkpt lat="45.45383" lon="5.69647">
        <ele>842</ele>
        <time>2015-08-07T09:40:06.000Z</time>
      </trkpt>
      <trkpt lat="45.45386" lon="5.69651">
        <ele>843</ele>
        <time>2015-08-07T09:40:09.000Z</time>
      </trkpt>
      <trkpt lat="45.45387" lon="5.69648">
        <ele>843</ele>
        <time>2015-08-07T09:40:10.000Z</time>
      </trkpt>
      <trkpt lat="45.45385" lon="5.6965">
        <ele>842</ele>
        <time>2015-08-07T09:40:13.000Z</time>
      </trkpt>
      <trkpt lat="45.45382" lon="5.69654">
        <ele>842</ele>
        <time>2015-08-07T09:40:14.000Z</time>
      </trkpt>
      <trkpt lat="45.4538" lon="5.69658">
        <ele>842</ele>
        <time>2015-08-07T09:40:15.000Z</time>
      </trkpt>
      <trkpt lat="45.45378" lon="5.69662">
        <ele>842</ele>
        <time>2015-08-07T09:40:16.000Z</time>
      </trkpt>
      <trkpt lat="45.45376" lon="5.69667">
        <ele>838</ele>
        <time>2015-08-07T09:40:17.000Z</time>
      </trkpt>
      <trkpt lat="45.45375" lon="5.69672">
        <ele>838</ele>
        <time>2015-08-07T09:40:18.000Z</time>
      </trkpt>
      <trkpt lat="45.45374" lon="5.69677">
        <ele>838</ele>
        <time>2015-08-07T09:40:19.000Z</time>
      </trkpt>
      <trkpt lat="45.45373" lon="5.69682">
        <ele>837</ele>
        <time>2015-08-07T09:40:20.000Z</time>
      </trkpt>
      <trkpt lat="45.45372" lon="5.69686">
        <ele>837</ele>
        <time>2015-08-07T09:40:21.000Z</time>
      </trkpt>
      <trkpt lat="45.45372" lon="5.69691">
        <ele>837</ele>
        <time>2015-08-07T09:40:22.000Z</time>
      </trkpt>
      <trkpt lat="45.45371" lon="5.69695">
        <ele>837</ele>
        <time>2015-08-07T09:40:23.000Z</time>
      </trkpt>
      <trkpt lat="45.45371" lon="5.697">
        <ele>837</ele>
        <time>2015-08-07T09:40:24.000Z</time>
      </trkpt>
      <trkpt lat="45.4537" lon="5.69704">
        <ele>837</ele>
        <time>2015-08-07T09:40:25.000Z</time>
      </trkpt>
      <trkpt lat="45.45369" lon="5.6971">
        <ele>836</ele>
        <time>2015-08-07T09:40:26.000Z</time>
      </trkpt>
      <trkpt lat="45.45367" lon="5.69715">
        <ele>836</ele>
        <time>2015-08-07T09:40:27.000Z</time>
      </trkpt>
      <trkpt lat="45.45365" lon="5.69722">
        <ele>836</ele>
        <time>2015-08-07T09:40:28.000Z</time>
      </trkpt>
      <trkpt lat="45.45364" lon="5.69728">
        <ele>835</ele>
        <time>2015-08-07T09:40:29.000Z</time>
      </trkpt>
      <trkpt lat="45.45364" lon="5.69734">
        <ele>835</ele>
        <time>2015-08-07T09:40:30.000Z</time>
      </trkpt>
      <trkpt lat="45.45369" lon="5.69758">
        <ele>831</ele>
        <time>2015-08-07T09:40:31.000Z</time>
      </trkpt>
      <trkpt lat="45.45367" lon="5.69767">
        <ele>830</ele>
        <time>2015-08-07T09:40:32.000Z</time>
      </trkpt>
      <trkpt lat="45.45369" lon="5.69775">
        <ele>830</ele>
        <time>2015-08-07T09:40:33.000Z</time>
      </trkpt>
      <trkpt lat="45.4537" lon="5.69781">
        <ele>830</ele>
        <time>2015-08-07T09:40:34.000Z</time>
      </trkpt>
      <trkpt lat="45.45372" lon="5.69789">
        <ele>830</ele>
        <time>2015-08-07T09:40:35.000Z</time>
      </trkpt>
      <trkpt lat="45.45376" lon="5.69794">
        <ele>829</ele>
        <time>2015-08-07T09:40:36.000Z</time>
      </trkpt>
      <trkpt lat="45.45378" lon="5.69799">
        <ele>829</ele>
        <time>2015-08-07T09:40:37.000Z</time>
      </trkpt>
      <trkpt lat="45.4538" lon="5.69803">
        <ele>829</ele>
        <time>2015-08-07T09:40:38.000Z</time>
      </trkpt>
      <trkpt lat="45.45382" lon="5.69808">
        <ele>829</ele>
        <time>2015-08-07T09:40:39.000Z</time>
      </trkpt>
      <trkpt lat="45.45384" lon="5.69811">
        <ele>829</ele>
        <time>2015-08-07T09:40:40.000Z</time>
      </trkpt>
      <trkpt lat="45.45386" lon="5.69814">
        <ele>829</ele>
        <time>2015-08-07T09:40:41.000Z</time>
      </trkpt>
      <trkpt lat="45.45388" lon="5.69817">
        <ele>829</ele>
        <time>2015-08-07T09:40:42.000Z</time>
      </trkpt>
      <trkpt lat="45.45389" lon="5.6982">
        <ele>828</ele>
        <time>2015-08-07T09:40:43.000Z</time>
      </trkpt>
      <trkpt lat="45.4539" lon="5.69823">
        <ele>828</ele>
        <time>2015-08-07T09:40:44.000Z</time>
      </trkpt>
      <trkpt lat="45.45392" lon="5.69826">
        <ele>828</ele>
        <time>2015-08-07T09:40:45.000Z</time>
      </trkpt>
      <trkpt lat="45.45393" lon="5.69829">
        <ele>828</ele>
        <time>2015-08-07T09:40:46.000Z</time>
      </trkpt>
      <trkpt lat="45.45394" lon="5.69832">
        <ele>828</ele>
        <time>2015-08-07T09:40:47.000Z</time>
      </trkpt>
      <trkpt lat="45.45395" lon="5.69836">
        <ele>824</ele>
        <time>2015-08-07T09:40:48.000Z</time>
      </trkpt>
      <trkpt lat="45.45396" lon="5.69841">
        <ele>824</ele>
        <time>2015-08-07T09:40:49.000Z</time>
      </trkpt>
      <trkpt lat="45.45397" lon="5.69846">
        <ele>824</ele>
        <time>2015-08-07T09:40:50.000Z</time>
      </trkpt>
      <trkpt lat="45.45397" lon="5.69852">
        <ele>823</ele>
        <time>2015-08-07T09:40:51.000Z</time>
      </trkpt>
      <trkpt lat="45.45397" lon="5.69858">
        <ele>823</ele>
        <time>2015-08-07T09:40:52.000Z</time>
      </trkpt>
      <trkpt lat="45.45398" lon="5.69863">
        <ele>823</ele>
        <time>2015-08-07T09:40:53.000Z</time>
      </trkpt>
      <trkpt lat="45.45398" lon="5.69868">
        <ele>822</ele>
        <time>2015-08-07T09:40:54.000Z</time>
      </trkpt>
      <trkpt lat="45.45399" lon="5.69873">
        <ele>822</ele>
        <time>2015-08-07T09:40:55.000Z</time>
      </trkpt>
      <trkpt lat="45.45401" lon="5.69878">
        <ele>822</ele>
        <time>2015-08-07T09:40:56.000Z</time>
      </trkpt>
      <trkpt lat="45.45403" lon="5.69884">
        <ele>821</ele>
        <time>2015-08-07T09:40:57.000Z</time>
      </trkpt>
      <trkpt lat="45.45404" lon="5.6989">
        <ele>821</ele>
        <time>2015-08-07T09:40:58.000Z</time>
      </trkpt>
      <trkpt lat="45.45405" lon="5.69895">
        <ele>821</ele>
        <time>2015-08-07T09:40:59.000Z</time>
      </trkpt>
      <trkpt lat="45.45406" lon="5.699">
        <ele>821</ele>
        <time>2015-08-07T09:41:00.000Z</time>
      </trkpt>
      <trkpt lat="45.45406" lon="5.69905">
        <ele>821</ele>
        <time>2015-08-07T09:41:01.000Z</time>
      </trkpt>
      <trkpt lat="45.45406" lon="5.69909">
        <ele>820</ele>
        <time>2015-08-07T09:41:02.000Z</time>
      </trkpt>
      <trkpt lat="45.45406" lon="5.69912">
        <ele>820</ele>
        <time>2015-08-07T09:41:03.000Z</time>
      </trkpt>
      <trkpt lat="45.45405" lon="5.69916">
        <ele>820</ele>
        <time>2015-08-07T09:41:04.000Z</time>
      </trkpt>
      <trkpt lat="45.45404" lon="5.6992">
        <ele>817</ele>
        <time>2015-08-07T09:41:05.000Z</time>
      </trkpt>
      <trkpt lat="45.45404" lon="5.69923">
        <ele>816</ele>
        <time>2015-08-07T09:41:06.000Z</time>
      </trkpt>
      <trkpt lat="45.45403" lon="5.69928">
        <ele>816</ele>
        <time>2015-08-07T09:41:07.000Z</time>
      </trkpt>
      <trkpt lat="45.45402" lon="5.69931">
        <ele>815</ele>
        <time>2015-08-07T09:41:08.000Z</time>
      </trkpt>
      <trkpt lat="45.454" lon="5.69935">
        <ele>815</ele>
        <time>2015-08-07T09:41:09.000Z</time>
      </trkpt>
      <trkpt lat="45.45399" lon="5.69939">
        <ele>814</ele>
        <time>2015-08-07T09:41:10.000Z</time>
      </trkpt>
      <trkpt lat="45.45397" lon="5.69942">
        <ele>814</ele>
        <time>2015-08-07T09:41:11.000Z</time>
      </trkpt>
      <trkpt lat="45.45394" lon="5.69946">
        <ele>814</ele>
        <time>2015-08-07T09:41:12.000Z</time>
      </trkpt>
      <trkpt lat="45.45391" lon="5.69949">
        <ele>813</ele>
        <time>2015-08-07T09:41:13.000Z</time>
      </trkpt>
      <trkpt lat="45.45388" lon="5.69952">
        <ele>813</ele>
        <time>2015-08-07T09:41:14.000Z</time>
      </trkpt>
      <trkpt lat="45.45384" lon="5.69955">
        <ele>813</ele>
        <time>2015-08-07T09:41:15.000Z</time>
      </trkpt>
      <trkpt lat="45.45381" lon="5.69957">
        <ele>812</ele>
        <time>2015-08-07T09:41:16.000Z</time>
      </trkpt>
      <trkpt lat="45.45378" lon="5.6996">
        <ele>812</ele>
        <time>2015-08-07T09:41:17.000Z</time>
      </trkpt>
      <trkpt lat="45.45375" lon="5.69964">
        <ele>812</ele>
        <time>2015-08-07T09:41:18.000Z</time>
      </trkpt>
      <trkpt lat="45.45373" lon="5.69966">
        <ele>811</ele>
        <time>2015-08-07T09:41:19.000Z</time>
      </trkpt>
      <trkpt lat="45.4537" lon="5.69969">
        <ele>811</ele>
        <time>2015-08-07T09:41:20.000Z</time>
      </trkpt>
      <trkpt lat="45.45367" lon="5.69971">
        <ele>811</ele>
        <time>2015-08-07T09:41:21.000Z</time>
      </trkpt>
      <trkpt lat="45.45364" lon="5.69973">
        <ele>811</ele>
        <time>2015-08-07T09:41:22.000Z</time>
      </trkpt>
      <trkpt lat="45.4536" lon="5.69975">
        <ele>810</ele>
        <time>2015-08-07T09:41:23.000Z</time>
      </trkpt>
      <trkpt lat="45.45357" lon="5.69976">
        <ele>810</ele>
        <time>2015-08-07T09:41:23.999Z</time>
      </trkpt>
      <trkpt lat="45.45351" lon="5.69978">
        <ele>810</ele>
        <time>2015-08-07T09:41:25.000Z</time>
      </trkpt>
      <trkpt lat="45.45347" lon="5.69978">
        <ele>809</ele>
        <time>2015-08-07T09:41:26.000Z</time>
      </trkpt>
      <trkpt lat="45.45343" lon="5.69978">
        <ele>809</ele>
        <time>2015-08-07T09:41:27.000Z</time>
      </trkpt>
      <trkpt lat="45.45339" lon="5.69979">
        <ele>809</ele>
        <time>2015-08-07T09:41:28.000Z</time>
      </trkpt>
      <trkpt lat="45.45336" lon="5.6998">
        <ele>808</ele>
        <time>2015-08-07T09:41:29.000Z</time>
      </trkpt>
      <trkpt lat="45.45332" lon="5.69982">
        <ele>805</ele>
        <time>2015-08-07T09:41:30.000Z</time>
      </trkpt>
      <trkpt lat="45.45328" lon="5.69989">
        <ele>805</ele>
        <time>2015-08-07T09:41:31.000Z</time>
      </trkpt>
      <trkpt lat="45.45324" lon="5.69994">
        <ele>804</ele>
        <time>2015-08-07T09:41:32.000Z</time>
      </trkpt>
      <trkpt lat="45.45321" lon="5.7">
        <ele>804</ele>
        <time>2015-08-07T09:41:33.000Z</time>
      </trkpt>
      <trkpt lat="45.45318" lon="5.70006">
        <ele>799</ele>
        <time>2015-08-07T09:41:34.000Z</time>
      </trkpt>
      <trkpt lat="45.45316" lon="5.70013">
        <ele>798</ele>
        <time>2015-08-07T09:41:35.000Z</time>
      </trkpt>
      <trkpt lat="45.45315" lon="5.7002">
        <ele>798</ele>
        <time>2015-08-07T09:41:36.000Z</time>
      </trkpt>
      <trkpt lat="45.45314" lon="5.70025">
        <ele>797</ele>
        <time>2015-08-07T09:41:37.000Z</time>
      </trkpt>
      <trkpt lat="45.45312" lon="5.7003">
        <ele>796</ele>
        <time>2015-08-07T09:41:38.000Z</time>
      </trkpt>
      <trkpt lat="45.45311" lon="5.70034">
        <ele>796</ele>
        <time>2015-08-07T09:41:39.000Z</time>
      </trkpt>
      <trkpt lat="45.4531" lon="5.70036">
        <ele>796</ele>
        <time>2015-08-07T09:41:40.000Z</time>
      </trkpt>
      <trkpt lat="45.45309" lon="5.7004">
        <ele>795</ele>
        <time>2015-08-07T09:41:41.000Z</time>
      </trkpt>
      <trkpt lat="45.45308" lon="5.70047">
        <ele>795</ele>
        <time>2015-08-07T09:41:42.000Z</time>
      </trkpt>
      <trkpt lat="45.45307" lon="5.70052">
        <ele>795</ele>
        <time>2015-08-07T09:41:43.000Z</time>
      </trkpt>
      <trkpt lat="45.45306" lon="5.70058">
        <ele>794</ele>
        <time>2015-08-07T09:41:44.000Z</time>
      </trkpt>
      <trkpt lat="45.45304" lon="5.70065">
        <ele>794</ele>
        <time>2015-08-07T09:41:45.000Z</time>
      </trkpt>
      <trkpt lat="45.45303" lon="5.70072">
        <ele>793</ele>
        <time>2015-08-07T09:41:46.000Z</time>
      </trkpt>
      <trkpt lat="45.45302" lon="5.70079">
        <ele>793</ele>
        <time>2015-08-07T09:41:47.000Z</time>
      </trkpt>
      <trkpt lat="45.45301" lon="5.70086">
        <ele>788</ele>
        <time>2015-08-07T09:41:48.000Z</time>
      </trkpt>
      <trkpt lat="45.453" lon="5.70092">
        <ele>788</ele>
        <time>2015-08-07T09:41:49.000Z</time>
      </trkpt>
      <trkpt lat="45.45299" lon="5.70098">
        <ele>787</ele>
        <time>2015-08-07T09:41:50.000Z</time>
      </trkpt>
      <trkpt lat="45.45298" lon="5.70105">
        <ele>787</ele>
        <time>2015-08-07T09:41:51.000Z</time>
      </trkpt>
      <trkpt lat="45.45297" lon="5.70111">
        <ele>787</ele>
        <time>2015-08-07T09:41:52.000Z</time>
      </trkpt>
      <trkpt lat="45.45297" lon="5.70118">
        <ele>786</ele>
        <time>2015-08-07T09:41:53.000Z</time>
      </trkpt>
      <trkpt lat="45.45295" lon="5.70124">
        <ele>786</ele>
        <time>2015-08-07T09:41:54.000Z</time>
      </trkpt>
      <trkpt lat="45.45293" lon="5.70129">
        <ele>786</ele>
        <time>2015-08-07T09:41:55.000Z</time>
      </trkpt>
      <trkpt lat="45.45292" lon="5.70134">
        <ele>785</ele>
        <time>2015-08-07T09:41:56.000Z</time>
      </trkpt>
      <trkpt lat="45.45292" lon="5.7014">
        <ele>785</ele>
        <time>2015-08-07T09:41:57.000Z</time>
      </trkpt>
      <trkpt lat="45.45291" lon="5.70144">
        <ele>785</ele>
        <time>2015-08-07T09:41:58.000Z</time>
      </trkpt>
      <trkpt lat="45.4529" lon="5.70147">
        <ele>785</ele>
        <time>2015-08-07T09:41:59.000Z</time>
      </trkpt>
      <trkpt lat="45.45286" lon="5.70151">
        <ele>785</ele>
        <time>2015-08-07T09:42:01.000Z</time>
      </trkpt>
      <trkpt lat="45.45283" lon="5.70153">
        <ele>784</ele>
        <time>2015-08-07T09:42:02.000Z</time>
      </trkpt>
      <trkpt lat="45.4528" lon="5.70153">
        <ele>784</ele>
        <time>2015-08-07T09:42:03.000Z</time>
      </trkpt>
      <trkpt lat="45.45278" lon="5.70154">
        <ele>784</ele>
        <time>2015-08-07T09:42:04.000Z</time>
      </trkpt>
      <trkpt lat="45.45275" lon="5.70154">
        <ele>784</ele>
        <time>2015-08-07T09:42:05.000Z</time>
      </trkpt>
      <trkpt lat="45.45271" lon="5.70155">
        <ele>784</ele>
        <time>2015-08-07T09:42:06.000Z</time>
      </trkpt>
      <trkpt lat="45.45268" lon="5.70155">
        <ele>784</ele>
        <time>2015-08-07T09:42:07.000Z</time>
      </trkpt>
      <trkpt lat="45.45265" lon="5.70155">
        <ele>783</ele>
        <time>2015-08-07T09:42:08.000Z</time>
      </trkpt>
      <trkpt lat="45.45262" lon="5.70154">
        <ele>783</ele>
        <time>2015-08-07T09:42:09.000Z</time>
      </trkpt>
      <trkpt lat="45.45258" lon="5.70155">
        <ele>783</ele>
        <time>2015-08-07T09:42:10.000Z</time>
      </trkpt>
      <trkpt lat="45.45254" lon="5.70155">
        <ele>783</ele>
        <time>2015-08-07T09:42:11.000Z</time>
      </trkpt>
      <trkpt lat="45.4525" lon="5.70156">
        <ele>781</ele>
        <time>2015-08-07T09:42:12.000Z</time>
      </trkpt>
      <trkpt lat="45.45244" lon="5.70158">
        <ele>781</ele>
        <time>2015-08-07T09:42:13.000Z</time>
      </trkpt>
      <trkpt lat="45.4524" lon="5.7016">
        <ele>781</ele>
        <time>2015-08-07T09:42:14.000Z</time>
      </trkpt>
      <trkpt lat="45.45236" lon="5.70162">
        <ele>781</ele>
        <time>2015-08-07T09:42:15.000Z</time>
      </trkpt>
      <trkpt lat="45.45232" lon="5.7016">
        <ele>781</ele>
        <time>2015-08-07T09:42:16.000Z</time>
      </trkpt>
      <trkpt lat="45.45229" lon="5.70161">
        <ele>781</ele>
        <time>2015-08-07T09:42:17.000Z</time>
      </trkpt>
      <trkpt lat="45.45225" lon="5.70162">
        <ele>780</ele>
        <time>2015-08-07T09:42:18.000Z</time>
      </trkpt>
      <trkpt lat="45.4522" lon="5.70163">
        <ele>780</ele>
        <time>2015-08-07T09:42:19.000Z</time>
      </trkpt>
      <trkpt lat="45.45216" lon="5.70164">
        <ele>780</ele>
        <time>2015-08-07T09:42:20.000Z</time>
      </trkpt>
      <trkpt lat="45.45212" lon="5.70166">
        <ele>780</ele>
        <time>2015-08-07T09:42:21.000Z</time>
      </trkpt>
      <trkpt lat="45.45208" lon="5.70168">
        <ele>776</ele>
        <time>2015-08-07T09:42:22.000Z</time>
      </trkpt>
      <trkpt lat="45.45203" lon="5.7017">
        <ele>775</ele>
        <time>2015-08-07T09:42:23.001Z</time>
      </trkpt>
      <trkpt lat="45.45199" lon="5.70173">
        <ele>775</ele>
        <time>2015-08-07T09:42:24.000Z</time>
      </trkpt>
      <trkpt lat="45.45195" lon="5.70174">
        <ele>775</ele>
        <time>2015-08-07T09:42:25.000Z</time>
      </trkpt>
      <trkpt lat="45.45192" lon="5.70176">
        <ele>775</ele>
        <time>2015-08-07T09:42:26.000Z</time>
      </trkpt>
      <trkpt lat="45.45185" lon="5.70179">
        <ele>775</ele>
        <time>2015-08-07T09:42:27.000Z</time>
      </trkpt>
      <trkpt lat="45.4518" lon="5.70173">
        <ele>775</ele>
        <time>2015-08-07T09:42:28.000Z</time>
      </trkpt>
      <trkpt lat="45.45176" lon="5.7017">
        <ele>775</ele>
        <time>2015-08-07T09:42:29.000Z</time>
      </trkpt>
      <trkpt lat="45.4517" lon="5.7017">
        <ele>775</ele>
        <time>2015-08-07T09:42:30.000Z</time>
      </trkpt>
      <trkpt lat="45.45166" lon="5.70166">
        <ele>775</ele>
        <time>2015-08-07T09:42:31.000Z</time>
      </trkpt>
      <trkpt lat="45.45161" lon="5.70163">
        <ele>775</ele>
        <time>2015-08-07T09:42:32.000Z</time>
      </trkpt>
      <trkpt lat="45.45156" lon="5.70161">
        <ele>775</ele>
        <time>2015-08-07T09:42:33.000Z</time>
      </trkpt>
      <trkpt lat="45.45152" lon="5.70158">
        <ele>775</ele>
        <time>2015-08-07T09:42:34.000Z</time>
      </trkpt>
      <trkpt lat="45.45148" lon="5.70155">
        <ele>775</ele>
        <time>2015-08-07T09:42:35.000Z</time>
      </trkpt>
      <trkpt lat="45.45143" lon="5.70155">
        <ele>775</ele>
        <time>2015-08-07T09:42:36.000Z</time>
      </trkpt>
      <trkpt lat="45.45138" lon="5.70152">
        <ele>775</ele>
        <time>2015-08-07T09:42:37.000Z</time>
      </trkpt>
      <trkpt lat="45.45134" lon="5.70149">
        <ele>775</ele>
        <time>2015-08-07T09:42:38.000Z</time>
      </trkpt>
      <trkpt lat="45.45129" lon="5.70147">
        <ele>775</ele>
        <time>2015-08-07T09:42:39.000Z</time>
      </trkpt>
      <trkpt lat="45.45125" lon="5.70144">
        <ele>775</ele>
        <time>2015-08-07T09:42:40.000Z</time>
      </trkpt>
      <trkpt lat="45.45122" lon="5.70141">
        <ele>775</ele>
        <time>2015-08-07T09:42:41.000Z</time>
      </trkpt>
      <trkpt lat="45.45117" lon="5.70138">
        <ele>775</ele>
        <time>2015-08-07T09:42:42.000Z</time>
      </trkpt>
      <trkpt lat="45.45113" lon="5.70136">
        <ele>775</ele>
        <time>2015-08-07T09:42:43.000Z</time>
      </trkpt>
      <trkpt lat="45.45111" lon="5.70133">
        <ele>775</ele>
        <time>2015-08-07T09:42:44.000Z</time>
      </trkpt>
      <trkpt lat="45.45107" lon="5.70131">
        <ele>775</ele>
        <time>2015-08-07T09:42:45.000Z</time>
      </trkpt>
      <trkpt lat="45.45104" lon="5.70128">
        <ele>775</ele>
        <time>2015-08-07T09:42:46.000Z</time>
      </trkpt>
      <trkpt lat="45.451" lon="5.70126">
        <ele>775</ele>
        <time>2015-08-07T09:42:47.000Z</time>
      </trkpt>
      <trkpt lat="45.45097" lon="5.70123">
        <ele>775</ele>
        <time>2015-08-07T09:42:48.000Z</time>
      </trkpt>
      <trkpt lat="45.45093" lon="5.70121">
        <ele>775</ele>
        <time>2015-08-07T09:42:49.000Z</time>
      </trkpt>
      <trkpt lat="45.4509" lon="5.70118">
        <ele>775</ele>
        <time>2015-08-07T09:42:50.000Z</time>
      </trkpt>
      <trkpt lat="45.45087" lon="5.70115">
        <ele>775</ele>
        <time>2015-08-07T09:42:51.000Z</time>
      </trkpt>
      <trkpt lat="45.45085" lon="5.70113">
        <ele>775</ele>
        <time>2015-08-07T09:42:52.000Z</time>
      </trkpt>
      <trkpt lat="45.45082" lon="5.7011">
        <ele>772</ele>
        <time>2015-08-07T09:42:53.000Z</time>
      </trkpt>
      <trkpt lat="45.45079" lon="5.70108">
        <ele>772</ele>
        <time>2015-08-07T09:42:54.000Z</time>
      </trkpt>
      <trkpt lat="45.45075" lon="5.70106">
        <ele>772</ele>
        <time>2015-08-07T09:42:55.000Z</time>
      </trkpt>
      <trkpt lat="45.45072" lon="5.70103">
        <ele>772</ele>
        <time>2015-08-07T09:42:56.000Z</time>
      </trkpt>
      <trkpt lat="45.45069" lon="5.70101">
        <ele>772</ele>
        <time>2015-08-07T09:42:57.000Z</time>
      </trkpt>
      <trkpt lat="45.45066" lon="5.70098">
        <ele>772</ele>
        <time>2015-08-07T09:42:58.000Z</time>
      </trkpt>
      <trkpt lat="45.45063" lon="5.70096">
        <ele>772</ele>
        <time>2015-08-07T09:42:59.000Z</time>
      </trkpt>
      <trkpt lat="45.4506" lon="5.70093">
        <ele>772</ele>
        <time>2015-08-07T09:43:00.000Z</time>
      </trkpt>
      <trkpt lat="45.45056" lon="5.70091">
        <ele>772</ele>
        <time>2015-08-07T09:43:01.000Z</time>
      </trkpt>
      <trkpt lat="45.45053" lon="5.70089">
        <ele>772</ele>
        <time>2015-08-07T09:43:02.000Z</time>
      </trkpt>
      <trkpt lat="45.4505" lon="5.70087">
        <ele>771</ele>
        <time>2015-08-07T09:43:03.000Z</time>
      </trkpt>
      <trkpt lat="45.45047" lon="5.70084">
        <ele>771</ele>
        <time>2015-08-07T09:43:04.000Z</time>
      </trkpt>
      <trkpt lat="45.45045" lon="5.70082">
        <ele>776</ele>
        <time>2015-08-07T09:43:05.000Z</time>
      </trkpt>
      <trkpt lat="45.45042" lon="5.7008">
        <ele>776</ele>
        <time>2015-08-07T09:43:06.000Z</time>
      </trkpt>
      <trkpt lat="45.45039" lon="5.70078">
        <ele>776</ele>
        <time>2015-08-07T09:43:07.000Z</time>
      </trkpt>
      <trkpt lat="45.45036" lon="5.70075">
        <ele>776</ele>
        <time>2015-08-07T09:43:08.000Z</time>
      </trkpt>
      <trkpt lat="45.45033" lon="5.70073">
        <ele>776</ele>
        <time>2015-08-07T09:43:09.000Z</time>
      </trkpt>
      <trkpt lat="45.4503" lon="5.7007">
        <ele>776</ele>
        <time>2015-08-07T09:43:10.000Z</time>
      </trkpt>
      <trkpt lat="45.45027" lon="5.70067">
        <ele>776</ele>
        <time>2015-08-07T09:43:11.000Z</time>
      </trkpt>
      <trkpt lat="45.45024" lon="5.70065">
        <ele>776</ele>
        <time>2015-08-07T09:43:12.000Z</time>
      </trkpt>
      <trkpt lat="45.45021" lon="5.70062">
        <ele>775</ele>
        <time>2015-08-07T09:43:13.000Z</time>
      </trkpt>
      <trkpt lat="45.45018" lon="5.7006">
        <ele>775</ele>
        <time>2015-08-07T09:43:14.000Z</time>
      </trkpt>
      <trkpt lat="45.45015" lon="5.70057">
        <ele>776</ele>
        <time>2015-08-07T09:43:15.000Z</time>
      </trkpt>
      <trkpt lat="45.45012" lon="5.70055">
        <ele>776</ele>
        <time>2015-08-07T09:43:16.000Z</time>
      </trkpt>
      <trkpt lat="45.45009" lon="5.70053">
        <ele>776</ele>
        <time>2015-08-07T09:43:17.000Z</time>
      </trkpt>
      <trkpt lat="45.45006" lon="5.70051">
        <ele>776</ele>
        <time>2015-08-07T09:43:18.000Z</time>
      </trkpt>
      <trkpt lat="45.45003" lon="5.70049">
        <ele>776</ele>
        <time>2015-08-07T09:43:18.999Z</time>
      </trkpt>
      <trkpt lat="45.45001" lon="5.70046">
        <ele>776</ele>
        <time>2015-08-07T09:43:20.000Z</time>
      </trkpt>
      <trkpt lat="45.44998" lon="5.70043">
        <ele>772</ele>
        <time>2015-08-07T09:43:21.000Z</time>
      </trkpt>
      <trkpt lat="45.44995" lon="5.70041">
        <ele>772</ele>
        <time>2015-08-07T09:43:22.000Z</time>
      </trkpt>
      <trkpt lat="45.44991" lon="5.70038">
        <ele>772</ele>
        <time>2015-08-07T09:43:23.000Z</time>
      </trkpt>
      <trkpt lat="45.44988" lon="5.70035">
        <ele>772</ele>
        <time>2015-08-07T09:43:24.000Z</time>
      </trkpt>
      <trkpt lat="45.44985" lon="5.70032">
        <ele>772</ele>
        <time>2015-08-07T09:43:25.000Z</time>
      </trkpt>
      <trkpt lat="45.4498" lon="5.70028">
        <ele>772</ele>
        <time>2015-08-07T09:43:26.000Z</time>
      </trkpt>
      <trkpt lat="45.44976" lon="5.70025">
        <ele>772</ele>
        <time>2015-08-07T09:43:27.000Z</time>
      </trkpt>
      <trkpt lat="45.44972" lon="5.70022">
        <ele>772</ele>
        <time>2015-08-07T09:43:28.000Z</time>
      </trkpt>
      <trkpt lat="45.44967" lon="5.70018">
        <ele>772</ele>
        <time>2015-08-07T09:43:29.000Z</time>
      </trkpt>
      <trkpt lat="45.44963" lon="5.70014">
        <ele>772</ele>
        <time>2015-08-07T09:43:30.000Z</time>
      </trkpt>
      <trkpt lat="45.44958" lon="5.7001">
        <ele>771</ele>
        <time>2015-08-07T09:43:31.000Z</time>
      </trkpt>
      <trkpt lat="45.44953" lon="5.70006">
        <ele>771</ele>
        <time>2015-08-07T09:43:32.000Z</time>
      </trkpt>
      <trkpt lat="45.44948" lon="5.70002">
        <ele>771</ele>
        <time>2015-08-07T09:43:33.000Z</time>
      </trkpt>
      <trkpt lat="45.44943" lon="5.69998">
        <ele>775</ele>
        <time>2015-08-07T09:43:34.000Z</time>
      </trkpt>
      <trkpt lat="45.44938" lon="5.69994">
        <ele>775</ele>
        <time>2015-08-07T09:43:35.000Z</time>
      </trkpt>
      <trkpt lat="45.44933" lon="5.69989">
        <ele>774</ele>
        <time>2015-08-07T09:43:36.000Z</time>
      </trkpt>
      <trkpt lat="45.44928" lon="5.69985">
        <ele>774</ele>
        <time>2015-08-07T09:43:37.000Z</time>
      </trkpt>
      <trkpt lat="45.44923" lon="5.69981">
        <ele>774</ele>
        <time>2015-08-07T09:43:38.000Z</time>
      </trkpt>
      <trkpt lat="45.44917" lon="5.69976">
        <ele>775</ele>
        <time>2015-08-07T09:43:39.000Z</time>
      </trkpt>
      <trkpt lat="45.44911" lon="5.69972">
        <ele>769</ele>
        <time>2015-08-07T09:43:40.000Z</time>
      </trkpt>
      <trkpt lat="45.44906" lon="5.69967">
        <ele>769</ele>
        <time>2015-08-07T09:43:41.000Z</time>
      </trkpt>
      <trkpt lat="45.44901" lon="5.69963">
        <ele>770</ele>
        <time>2015-08-07T09:43:42.000Z</time>
      </trkpt>
      <trkpt lat="45.44895" lon="5.69958">
        <ele>770</ele>
        <time>2015-08-07T09:43:43.000Z</time>
      </trkpt>
      <trkpt lat="45.44889" lon="5.69954">
        <ele>769</ele>
        <time>2015-08-07T09:43:44.000Z</time>
      </trkpt>
      <trkpt lat="45.44884" lon="5.6995">
        <ele>769</ele>
        <time>2015-08-07T09:43:45.000Z</time>
      </trkpt>
      <trkpt lat="45.44879" lon="5.69945">
        <ele>769</ele>
        <time>2015-08-07T09:43:46.000Z</time>
      </trkpt>
      <trkpt lat="45.44873" lon="5.69939">
        <ele>769</ele>
        <time>2015-08-07T09:43:47.000Z</time>
      </trkpt>
      <trkpt lat="45.44866" lon="5.69934">
        <ele>768</ele>
        <time>2015-08-07T09:43:48.000Z</time>
      </trkpt>
      <trkpt lat="45.4486" lon="5.69929">
        <ele>768</ele>
        <time>2015-08-07T09:43:49.000Z</time>
      </trkpt>
      <trkpt lat="45.44854" lon="5.69924">
        <ele>767</ele>
        <time>2015-08-07T09:43:50.000Z</time>
      </trkpt>
      <trkpt lat="45.44847" lon="5.69918">
        <ele>767</ele>
        <time>2015-08-07T09:43:51.000Z</time>
      </trkpt>
      <trkpt lat="45.44841" lon="5.69911">
        <ele>768</ele>
        <time>2015-08-07T09:43:52.000Z</time>
      </trkpt>
      <trkpt lat="45.44835" lon="5.69905">
        <ele>769</ele>
        <time>2015-08-07T09:43:53.000Z</time>
      </trkpt>
      <trkpt lat="45.44829" lon="5.69899">
        <ele>763</ele>
        <time>2015-08-07T09:43:54.000Z</time>
      </trkpt>
      <trkpt lat="45.44823" lon="5.69892">
        <ele>763</ele>
        <time>2015-08-07T09:43:55.000Z</time>
      </trkpt>
      <trkpt lat="45.44816" lon="5.69886">
        <ele>763</ele>
        <time>2015-08-07T09:43:56.000Z</time>
      </trkpt>
      <trkpt lat="45.44811" lon="5.69879">
        <ele>763</ele>
        <time>2015-08-07T09:43:57.000Z</time>
      </trkpt>
      <trkpt lat="45.44806" lon="5.69874">
        <ele>763</ele>
        <time>2015-08-07T09:43:58.000Z</time>
      </trkpt>
      <trkpt lat="45.44801" lon="5.69867">
        <ele>762</ele>
        <time>2015-08-07T09:43:59.000Z</time>
      </trkpt>
      <trkpt lat="45.44797" lon="5.69862">
        <ele>762</ele>
        <time>2015-08-07T09:44:00.000Z</time>
      </trkpt>
      <trkpt lat="45.44792" lon="5.69856">
        <ele>762</ele>
        <time>2015-08-07T09:44:01.000Z</time>
      </trkpt>
      <trkpt lat="45.44787" lon="5.69851">
        <ele>761</ele>
        <time>2015-08-07T09:44:02.000Z</time>
      </trkpt>
      <trkpt lat="45.44781" lon="5.69846">
        <ele>761</ele>
        <time>2015-08-07T09:44:03.000Z</time>
      </trkpt>
      <trkpt lat="45.44776" lon="5.69842">
        <ele>760</ele>
        <time>2015-08-07T09:44:04.000Z</time>
      </trkpt>
      <trkpt lat="45.44771" lon="5.69838">
        <ele>760</ele>
        <time>2015-08-07T09:44:05.000Z</time>
      </trkpt>
      <trkpt lat="45.44768" lon="5.69833">
        <ele>762</ele>
        <time>2015-08-07T09:44:06.000Z</time>
      </trkpt>
      <trkpt lat="45.44763" lon="5.69829">
        <ele>761</ele>
        <time>2015-08-07T09:44:07.000Z</time>
      </trkpt>
      <trkpt lat="45.44758" lon="5.69825">
        <ele>760</ele>
        <time>2015-08-07T09:44:08.000Z</time>
      </trkpt>
      <trkpt lat="45.44752" lon="5.69822">
        <ele>760</ele>
        <time>2015-08-07T09:44:09.000Z</time>
      </trkpt>
      <trkpt lat="45.44745" lon="5.69819">
        <ele>757</ele>
        <time>2015-08-07T09:44:10.000Z</time>
      </trkpt>
      <trkpt lat="45.44737" lon="5.69816">
        <ele>757</ele>
        <time>2015-08-07T09:44:11.000Z</time>
      </trkpt>
      <trkpt lat="45.44729" lon="5.69813">
        <ele>757</ele>
        <time>2015-08-07T09:44:12.000Z</time>
      </trkpt>
      <trkpt lat="45.44722" lon="5.69811">
        <ele>757</ele>
        <time>2015-08-07T09:44:13.000Z</time>
      </trkpt>
      <trkpt lat="45.44715" lon="5.69808">
        <ele>757</ele>
        <time>2015-08-07T09:44:14.000Z</time>
      </trkpt>
      <trkpt lat="45.44708" lon="5.69806">
        <ele>757</ele>
        <time>2015-08-07T09:44:15.000Z</time>
      </trkpt>
      <trkpt lat="45.44701" lon="5.69806">
        <ele>757</ele>
        <time>2015-08-07T09:44:16.000Z</time>
      </trkpt>
      <trkpt lat="45.44694" lon="5.69807">
        <ele>757</ele>
        <time>2015-08-07T09:44:17.001Z</time>
      </trkpt>
      <trkpt lat="45.44688" lon="5.69817">
        <ele>756</ele>
        <time>2015-08-07T09:44:18.000Z</time>
      </trkpt>
      <trkpt lat="45.44682" lon="5.69825">
        <ele>755</ele>
        <time>2015-08-07T09:44:19.000Z</time>
      </trkpt>
      <trkpt lat="45.44681" lon="5.69838">
        <ele>752</ele>
        <time>2015-08-07T09:44:20.000Z</time>
      </trkpt>
      <trkpt lat="45.44678" lon="5.69848">
        <ele>752</ele>
        <time>2015-08-07T09:44:21.000Z</time>
      </trkpt>
      <trkpt lat="45.44679" lon="5.69862">
        <ele>751</ele>
        <time>2015-08-07T09:44:22.000Z</time>
      </trkpt>
      <trkpt lat="45.44677" lon="5.69876">
        <ele>750</ele>
        <time>2015-08-07T09:44:23.000Z</time>
      </trkpt>
      <trkpt lat="45.44674" lon="5.69889">
        <ele>749</ele>
        <time>2015-08-07T09:44:24.000Z</time>
      </trkpt>
      <trkpt lat="45.4467" lon="5.69899">
        <ele>748</ele>
        <time>2015-08-07T09:44:25.000Z</time>
      </trkpt>
      <trkpt lat="45.44665" lon="5.69911">
        <ele>746</ele>
        <time>2015-08-07T09:44:26.000Z</time>
      </trkpt>
      <trkpt lat="45.44658" lon="5.69926">
        <ele>744</ele>
        <time>2015-08-07T09:44:27.000Z</time>
      </trkpt>
      <trkpt lat="45.44652" lon="5.69934">
        <ele>743</ele>
        <time>2015-08-07T09:44:28.000Z</time>
      </trkpt>
      <trkpt lat="45.44646" lon="5.69944">
        <ele>743</ele>
        <time>2015-08-07T09:44:29.000Z</time>
      </trkpt>
      <trkpt lat="45.4464" lon="5.69955">
        <ele>742</ele>
        <time>2015-08-07T09:44:30.000Z</time>
      </trkpt>
      <trkpt lat="45.44633" lon="5.69966">
        <ele>742</ele>
        <time>2015-08-07T09:44:31.000Z</time>
      </trkpt>
      <trkpt lat="45.44627" lon="5.69976">
        <ele>741</ele>
        <time>2015-08-07T09:44:32.000Z</time>
      </trkpt>
      <trkpt lat="45.44622" lon="5.69984">
        <ele>741</ele>
        <time>2015-08-07T09:44:33.000Z</time>
      </trkpt>
      <trkpt lat="45.44618" lon="5.69991">
        <ele>741</ele>
        <time>2015-08-07T09:44:34.000Z</time>
      </trkpt>
      <trkpt lat="45.44612" lon="5.7">
        <ele>736</ele>
        <time>2015-08-07T09:44:35.000Z</time>
      </trkpt>
      <trkpt lat="45.44607" lon="5.70009">
        <ele>736</ele>
        <time>2015-08-07T09:44:36.000Z</time>
      </trkpt>
      <trkpt lat="45.44604" lon="5.70017">
        <ele>736</ele>
        <time>2015-08-07T09:44:37.000Z</time>
      </trkpt>
      <trkpt lat="45.44601" lon="5.70025">
        <ele>735</ele>
        <time>2015-08-07T09:44:38.000Z</time>
      </trkpt>
      <trkpt lat="45.44598" lon="5.70034">
        <ele>735</ele>
        <time>2015-08-07T09:44:39.000Z</time>
      </trkpt>
      <trkpt lat="45.44595" lon="5.70042">
        <ele>734</ele>
        <time>2015-08-07T09:44:40.000Z</time>
      </trkpt>
      <trkpt lat="45.44592" lon="5.70048">
        <ele>734</ele>
        <time>2015-08-07T09:44:41.000Z</time>
      </trkpt>
      <trkpt lat="45.44589" lon="5.70053">
        <ele>733</ele>
        <time>2015-08-07T09:44:42.000Z</time>
      </trkpt>
      <trkpt lat="45.44586" lon="5.70057">
        <ele>733</ele>
        <time>2015-08-07T09:44:43.000Z</time>
      </trkpt>
      <trkpt lat="45.44583" lon="5.70061">
        <ele>731</ele>
        <time>2015-08-07T09:44:44.000Z</time>
      </trkpt>
      <trkpt lat="45.44582" lon="5.70065">
        <ele>730</ele>
        <time>2015-08-07T09:44:45.000Z</time>
      </trkpt>
      <trkpt lat="45.44579" lon="5.70069">
        <ele>730</ele>
        <time>2015-08-07T09:44:46.000Z</time>
      </trkpt>
      <trkpt lat="45.44577" lon="5.70073">
        <ele>730</ele>
        <time>2015-08-07T09:44:47.000Z</time>
      </trkpt>
      <trkpt lat="45.44575" lon="5.70079">
        <ele>729</ele>
        <time>2015-08-07T09:44:48.000Z</time>
      </trkpt>
      <trkpt lat="45.4457" lon="5.70084">
        <ele>727</ele>
        <time>2015-08-07T09:44:49.000Z</time>
      </trkpt>
      <trkpt lat="45.44566" lon="5.70088">
        <ele>726</ele>
        <time>2015-08-07T09:44:49.998Z</time>
      </trkpt>
      <trkpt lat="45.4456" lon="5.70088">
        <ele>726</ele>
        <time>2015-08-07T09:44:51.000Z</time>
      </trkpt>
      <trkpt lat="45.44554" lon="5.7009">
        <ele>726</ele>
        <time>2015-08-07T09:44:52.000Z</time>
      </trkpt>
      <trkpt lat="45.44549" lon="5.70092">
        <ele>726</ele>
        <time>2015-08-07T09:44:53.000Z</time>
      </trkpt>
      <trkpt lat="45.44542" lon="5.70093">
        <ele>725</ele>
        <time>2015-08-07T09:44:54.000Z</time>
      </trkpt>
      <trkpt lat="45.44536" lon="5.70094">
        <ele>725</ele>
        <time>2015-08-07T09:44:55.000Z</time>
      </trkpt>
      <trkpt lat="45.44529" lon="5.70095">
        <ele>726</ele>
        <time>2015-08-07T09:44:56.000Z</time>
      </trkpt>
      <trkpt lat="45.44521" lon="5.70096">
        <ele>726</ele>
        <time>2015-08-07T09:44:56.999Z</time>
      </trkpt>
      <trkpt lat="45.44514" lon="5.70098">
        <ele>726</ele>
        <time>2015-08-07T09:44:58.000Z</time>
      </trkpt>
      <trkpt lat="45.44506" lon="5.70097">
        <ele>726</ele>
        <time>2015-08-07T09:44:59.000Z</time>
      </trkpt>
      <trkpt lat="45.44498" lon="5.701">
        <ele>725</ele>
        <time>2015-08-07T09:45:00.000Z</time>
      </trkpt>
      <trkpt lat="45.4449" lon="5.70103">
        <ele>725</ele>
        <time>2015-08-07T09:45:01.000Z</time>
      </trkpt>
      <trkpt lat="45.44482" lon="5.70106">
        <ele>724</ele>
        <time>2015-08-07T09:45:02.000Z</time>
      </trkpt>
      <trkpt lat="45.44473" lon="5.7011">
        <ele>723</ele>
        <time>2015-08-07T09:45:03.000Z</time>
      </trkpt>
      <trkpt lat="45.44464" lon="5.70114">
        <ele>723</ele>
        <time>2015-08-07T09:45:04.000Z</time>
      </trkpt>
      <trkpt lat="45.44457" lon="5.70118">
        <ele>722</ele>
        <time>2015-08-07T09:45:05.000Z</time>
      </trkpt>
      <trkpt lat="45.44448" lon="5.70121">
        <ele>722</ele>
        <time>2015-08-07T09:45:06.000Z</time>
      </trkpt>
      <trkpt lat="45.44439" lon="5.70127">
        <ele>722</ele>
        <time>2015-08-07T09:45:07.000Z</time>
      </trkpt>
      <trkpt lat="45.4443" lon="5.7013">
        <ele>721</ele>
        <time>2015-08-07T09:45:08.000Z</time>
      </trkpt>
      <trkpt lat="45.44421" lon="5.70134">
        <ele>720</ele>
        <time>2015-08-07T09:45:09.000Z</time>
      </trkpt>
      <trkpt lat="45.44413" lon="5.70141">
        <ele>719</ele>
        <time>2015-08-07T09:45:10.000Z</time>
      </trkpt>
      <trkpt lat="45.44404" lon="5.70148">
        <ele>718</ele>
        <time>2015-08-07T09:45:10.999Z</time>
      </trkpt>
      <trkpt lat="45.44397" lon="5.70159">
        <ele>718</ele>
        <time>2015-08-07T09:45:12.000Z</time>
      </trkpt>
      <trkpt lat="45.44389" lon="5.70169">
        <ele>712</ele>
        <time>2015-08-07T09:45:13.000Z</time>
      </trkpt>
      <trkpt lat="45.44383" lon="5.7018">
        <ele>712</ele>
        <time>2015-08-07T09:45:14.000Z</time>
      </trkpt>
      <trkpt lat="45.44377" lon="5.70191">
        <ele>711</ele>
        <time>2015-08-07T09:45:14.999Z</time>
      </trkpt>
      <trkpt lat="45.4437" lon="5.70202">
        <ele>711</ele>
        <time>2015-08-07T09:45:16.000Z</time>
      </trkpt>
      <trkpt lat="45.44363" lon="5.70215">
        <ele>710</ele>
        <time>2015-08-07T09:45:17.000Z</time>
      </trkpt>
      <trkpt lat="45.44357" lon="5.70227">
        <ele>709</ele>
        <time>2015-08-07T09:45:18.002Z</time>
      </trkpt>
      <trkpt lat="45.4435" lon="5.70241">
        <ele>708</ele>
        <time>2015-08-07T09:45:19.000Z</time>
      </trkpt>
      <trkpt lat="45.44348" lon="5.70255">
        <ele>704</ele>
        <time>2015-08-07T09:45:20.000Z</time>
      </trkpt>
      <trkpt lat="45.44344" lon="5.70267">
        <ele>703</ele>
        <time>2015-08-07T09:45:21.000Z</time>
      </trkpt>
      <trkpt lat="45.44339" lon="5.7028">
        <ele>702</ele>
        <time>2015-08-07T09:45:22.000Z</time>
      </trkpt>
      <trkpt lat="45.44325" lon="5.70287">
        <ele>702</ele>
        <time>2015-08-07T09:45:23.000Z</time>
      </trkpt>
      <trkpt lat="45.44315" lon="5.70294">
        <ele>702</ele>
        <time>2015-08-07T09:45:24.000Z</time>
      </trkpt>
      <trkpt lat="45.44304" lon="5.703">
        <ele>701</ele>
        <time>2015-08-07T09:45:25.000Z</time>
      </trkpt>
      <trkpt lat="45.44293" lon="5.70302">
        <ele>701</ele>
        <time>2015-08-07T09:45:26.000Z</time>
      </trkpt>
      <trkpt lat="45.44281" lon="5.70298">
        <ele>701</ele>
        <time>2015-08-07T09:45:27.000Z</time>
      </trkpt>
      <trkpt lat="45.4427" lon="5.70296">
        <ele>701</ele>
        <time>2015-08-07T09:45:28.000Z</time>
      </trkpt>
      <trkpt lat="45.44259" lon="5.70294">
        <ele>701</ele>
        <time>2015-08-07T09:45:29.000Z</time>
      </trkpt>
      <trkpt lat="45.44248" lon="5.70296">
        <ele>701</ele>
        <time>2015-08-07T09:45:30.000Z</time>
      </trkpt>
      <trkpt lat="45.44237" lon="5.70299">
        <ele>701</ele>
        <time>2015-08-07T09:45:31.000Z</time>
      </trkpt>
      <trkpt lat="45.44227" lon="5.70304">
        <ele>700</ele>
        <time>2015-08-07T09:45:32.000Z</time>
      </trkpt>
      <trkpt lat="45.44217" lon="5.70312">
        <ele>700</ele>
        <time>2015-08-07T09:45:33.000Z</time>
      </trkpt>
      <trkpt lat="45.44209" lon="5.70321">
        <ele>700</ele>
        <time>2015-08-07T09:45:34.000Z</time>
      </trkpt>
      <trkpt lat="45.44203" lon="5.7033">
        <ele>699</ele>
        <time>2015-08-07T09:45:35.000Z</time>
      </trkpt>
      <trkpt lat="45.44196" lon="5.70336">
        <ele>694</ele>
        <time>2015-08-07T09:45:36.000Z</time>
      </trkpt>
      <trkpt lat="45.4419" lon="5.70336">
        <ele>694</ele>
        <time>2015-08-07T09:45:37.000Z</time>
      </trkpt>
      <trkpt lat="45.44183" lon="5.70338">
        <ele>695</ele>
        <time>2015-08-07T09:45:38.000Z</time>
      </trkpt>
      <trkpt lat="45.44177" lon="5.7034">
        <ele>695</ele>
        <time>2015-08-07T09:45:39.000Z</time>
      </trkpt>
      <trkpt lat="45.44171" lon="5.70342">
        <ele>695</ele>
        <time>2015-08-07T09:45:40.000Z</time>
      </trkpt>
      <trkpt lat="45.44165" lon="5.70345">
        <ele>696</ele>
        <time>2015-08-07T09:45:40.998Z</time>
      </trkpt>
      <trkpt lat="45.4416" lon="5.70348">
        <ele>696</ele>
        <time>2015-08-07T09:45:42.000Z</time>
      </trkpt>
      <trkpt lat="45.44155" lon="5.70351">
        <ele>696</ele>
        <time>2015-08-07T09:45:43.000Z</time>
      </trkpt>
      <trkpt lat="45.4415" lon="5.70355">
        <ele>696</ele>
        <time>2015-08-07T09:45:44.000Z</time>
      </trkpt>
      <trkpt lat="45.44146" lon="5.70358">
        <ele>695</ele>
        <time>2015-08-07T09:45:45.000Z</time>
      </trkpt>
      <trkpt lat="45.44141" lon="5.70361">
        <ele>695</ele>
        <time>2015-08-07T09:45:46.000Z</time>
      </trkpt>
      <trkpt lat="45.44137" lon="5.70365">
        <ele>695</ele>
        <time>2015-08-07T09:45:47.000Z</time>
      </trkpt>
      <trkpt lat="45.44132" lon="5.70368">
        <ele>695</ele>
        <time>2015-08-07T09:45:48.000Z</time>
      </trkpt>
      <trkpt lat="45.44127" lon="5.70371">
        <ele>695</ele>
        <time>2015-08-07T09:45:49.000Z</time>
      </trkpt>
      <trkpt lat="45.44123" lon="5.70374">
        <ele>695</ele>
        <time>2015-08-07T09:45:50.000Z</time>
      </trkpt>
      <trkpt lat="45.44119" lon="5.70379">
        <ele>695</ele>
        <time>2015-08-07T09:45:51.000Z</time>
      </trkpt>
      <trkpt lat="45.44114" lon="5.70382">
        <ele>695</ele>
        <time>2015-08-07T09:45:52.000Z</time>
      </trkpt>
      <trkpt lat="45.44109" lon="5.70383">
        <ele>695</ele>
        <time>2015-08-07T09:45:53.000Z</time>
      </trkpt>
      <trkpt lat="45.44104" lon="5.70384">
        <ele>695</ele>
        <time>2015-08-07T09:45:54.000Z</time>
      </trkpt>
      <trkpt lat="45.44098" lon="5.70386">
        <ele>695</ele>
        <time>2015-08-07T09:45:55.000Z</time>
      </trkpt>
      <trkpt lat="45.44092" lon="5.70386">
        <ele>695</ele>
        <time>2015-08-07T09:45:56.000Z</time>
      </trkpt>
      <trkpt lat="45.44088" lon="5.70385">
        <ele>695</ele>
        <time>2015-08-07T09:45:57.000Z</time>
      </trkpt>
      <trkpt lat="45.44083" lon="5.70382">
        <ele>697</ele>
        <time>2015-08-07T09:45:58.000Z</time>
      </trkpt>
      <trkpt lat="45.44079" lon="5.7038">
        <ele>697</ele>
        <time>2015-08-07T09:45:59.000Z</time>
      </trkpt>
      <trkpt lat="45.44076" lon="5.70378">
        <ele>697</ele>
        <time>2015-08-07T09:46:00.000Z</time>
      </trkpt>
      <trkpt lat="45.44074" lon="5.70376">
        <ele>697</ele>
        <time>2015-08-07T09:46:01.000Z</time>
      </trkpt>
      <trkpt lat="45.44071" lon="5.70373">
        <ele>698</ele>
        <time>2015-08-07T09:46:02.000Z</time>
      </trkpt>
      <trkpt lat="45.44068" lon="5.7037">
        <ele>698</ele>
        <time>2015-08-07T09:46:03.000Z</time>
      </trkpt>
      <trkpt lat="45.44065" lon="5.70368">
        <ele>698</ele>
        <time>2015-08-07T09:46:04.000Z</time>
      </trkpt>
      <trkpt lat="45.44063" lon="5.70366">
        <ele>698</ele>
        <time>2015-08-07T09:46:05.000Z</time>
      </trkpt>
      <trkpt lat="45.4406" lon="5.70363">
        <ele>698</ele>
        <time>2015-08-07T09:46:07.000Z</time>
      </trkpt>
      <trkpt lat="45.44059" lon="5.70362">
        <ele>699</ele>
        <time>2015-08-07T09:46:08.000Z</time>
      </trkpt>
      <trkpt lat="45.44056" lon="5.7036">
        <ele>699</ele>
        <time>2015-08-07T09:46:10.000Z</time>
      </trkpt>
      <trkpt lat="45.44054" lon="5.70359">
        <ele>699</ele>
        <time>2015-08-07T09:46:11.000Z</time>
      </trkpt>
      <trkpt lat="45.4405" lon="5.70356">
        <ele>699</ele>
        <time>2015-08-07T09:46:13.000Z</time>
      </trkpt>
      <trkpt lat="45.44048" lon="5.70356">
        <ele>699</ele>
        <time>2015-08-07T09:46:14.000Z</time>
      </trkpt>
      <trkpt lat="45.44044" lon="5.70353">
        <ele>699</ele>
        <time>2015-08-07T09:46:17.000Z</time>
      </trkpt>
      <trkpt lat="45.44043" lon="5.70352">
        <ele>699</ele>
        <time>2015-08-07T09:46:18.000Z</time>
      </trkpt>
      <trkpt lat="45.4404" lon="5.7035">
        <ele>699</ele>
        <time>2015-08-07T09:46:21.000Z</time>
      </trkpt>
      <trkpt lat="45.44039" lon="5.7035">
        <ele>699</ele>
        <time>2015-08-07T09:46:22.000Z</time>
      </trkpt>
      <trkpt lat="45.44035" lon="5.7035">
        <ele>700</ele>
        <time>2015-08-07T09:46:24.000Z</time>
      </trkpt>
      <trkpt lat="45.44032" lon="5.7035">
        <ele>700</ele>
        <time>2015-08-07T09:46:25.000Z</time>
      </trkpt>
      <trkpt lat="45.4403" lon="5.7035">
        <ele>700</ele>
        <time>2015-08-07T09:46:26.000Z</time>
      </trkpt>
      <trkpt lat="45.44028" lon="5.70351">
        <ele>700</ele>
        <time>2015-08-07T09:46:27.000Z</time>
      </trkpt>
      <trkpt lat="45.44025" lon="5.70353">
        <ele>700</ele>
        <time>2015-08-07T09:46:28.000Z</time>
      </trkpt>
      <trkpt lat="45.44023" lon="5.70354">
        <ele>700</ele>
        <time>2015-08-07T09:46:29.000Z</time>
      </trkpt>
      <trkpt lat="45.44021" lon="5.70356">
        <ele>700</ele>
        <time>2015-08-07T09:46:30.000Z</time>
      </trkpt>
      <trkpt lat="45.44018" lon="5.70357">
        <ele>700</ele>
        <time>2015-08-07T09:46:31.000Z</time>
      </trkpt>
      <trkpt lat="45.44016" lon="5.70359">
        <ele>700</ele>
        <time>2015-08-07T09:46:32.000Z</time>
      </trkpt>
      <trkpt lat="45.44014" lon="5.7036">
        <ele>700</ele>
        <time>2015-08-07T09:46:33.000Z</time>
      </trkpt>
      <trkpt lat="45.44011" lon="5.7036">
        <ele>700</ele>
        <time>2015-08-07T09:46:34.000Z</time>
      </trkpt>
      <trkpt lat="45.44009" lon="5.70361">
        <ele>700</ele>
        <time>2015-08-07T09:46:35.000Z</time>
      </trkpt>
      <trkpt lat="45.44006" lon="5.70361">
        <ele>700</ele>
        <time>2015-08-07T09:46:36.000Z</time>
      </trkpt>
      <trkpt lat="45.44004" lon="5.70362">
        <ele>700</ele>
        <time>2015-08-07T09:46:37.000Z</time>
      </trkpt>
      <trkpt lat="45.44" lon="5.70361">
        <ele>701</ele>
        <time>2015-08-07T09:46:39.000Z</time>
      </trkpt>
      <trkpt lat="45.43998" lon="5.70361">
        <ele>701</ele>
        <time>2015-08-07T09:46:40.000Z</time>
      </trkpt>
      <trkpt lat="45.43994" lon="5.70359">
        <ele>701</ele>
        <time>2015-08-07T09:46:42.000Z</time>
      </trkpt>
      <trkpt lat="45.43992" lon="5.70358">
        <ele>701</ele>
        <time>2015-08-07T09:46:43.000Z</time>
      </trkpt>
      <trkpt lat="45.4399" lon="5.70357">
        <ele>701</ele>
        <time>2015-08-07T09:46:44.000Z</time>
      </trkpt>
      <trkpt lat="45.43988" lon="5.70355">
        <ele>702</ele>
        <time>2015-08-07T09:46:45.000Z</time>
      </trkpt>
      <trkpt lat="45.43985" lon="5.70354">
        <ele>702</ele>
        <time>2015-08-07T09:46:46.000Z</time>
      </trkpt>
      <trkpt lat="45.43983" lon="5.70353">
        <ele>702</ele>
        <time>2015-08-07T09:46:47.000Z</time>
      </trkpt>
      <trkpt lat="45.4398" lon="5.70349">
        <ele>702</ele>
        <time>2015-08-07T09:46:52.000Z</time>
      </trkpt>
      <trkpt lat="45.43979" lon="5.70346">
        <ele>702</ele>
        <time>2015-08-07T09:46:53.000Z</time>
      </trkpt>
      <trkpt lat="45.43978" lon="5.70343">
        <ele>702</ele>
        <time>2015-08-07T09:46:53.991Z</time>
      </trkpt>
      <trkpt lat="45.43979" lon="5.70338">
        <ele>703</ele>
        <time>2015-08-07T09:46:55.000Z</time>
      </trkpt>
      <trkpt lat="45.43979" lon="5.70334">
        <ele>703</ele>
        <time>2015-08-07T09:46:56.000Z</time>
      </trkpt>
      <trkpt lat="45.4398" lon="5.7033">
        <ele>710</ele>
        <time>2015-08-07T09:46:57.000Z</time>
      </trkpt>
      <trkpt lat="45.43981" lon="5.70326">
        <ele>710</ele>
        <time>2015-08-07T09:46:58.000Z</time>
      </trkpt>
      <trkpt lat="45.43981" lon="5.70322">
        <ele>710</ele>
        <time>2015-08-07T09:46:59.000Z</time>
      </trkpt>
      <trkpt lat="45.43981" lon="5.70318">
        <ele>711</ele>
        <time>2015-08-07T09:47:00.000Z</time>
      </trkpt>
      <trkpt lat="45.43981" lon="5.70314">
        <ele>711</ele>
        <time>2015-08-07T09:47:01.000Z</time>
      </trkpt>
      <trkpt lat="45.43982" lon="5.7031">
        <ele>711</ele>
        <time>2015-08-07T09:47:02.000Z</time>
      </trkpt>
      <trkpt lat="45.43984" lon="5.70307">
        <ele>712</ele>
        <time>2015-08-07T09:47:03.000Z</time>
      </trkpt>
      <trkpt lat="45.43986" lon="5.70304">
        <ele>712</ele>
        <time>2015-08-07T09:47:04.000Z</time>
      </trkpt>
      <trkpt lat="45.43988" lon="5.70302">
        <ele>712</ele>
        <time>2015-08-07T09:47:05.000Z</time>
      </trkpt>
      <trkpt lat="45.4399" lon="5.70299">
        <ele>713</ele>
        <time>2015-08-07T09:47:06.000Z</time>
      </trkpt>
      <trkpt lat="45.43992" lon="5.70296">
        <ele>713</ele>
        <time>2015-08-07T09:47:07.000Z</time>
      </trkpt>
      <trkpt lat="45.43993" lon="5.70293">
        <ele>713</ele>
        <time>2015-08-07T09:47:08.000Z</time>
      </trkpt>
      <trkpt lat="45.43994" lon="5.70291">
        <ele>714</ele>
        <time>2015-08-07T09:47:09.000Z</time>
      </trkpt>
      <trkpt lat="45.43996" lon="5.70285">
        <ele>714</ele>
        <time>2015-08-07T09:47:11.000Z</time>
      </trkpt>
      <trkpt lat="45.43998" lon="5.70282">
        <ele>715</ele>
        <time>2015-08-07T09:47:12.000Z</time>
      </trkpt>
      <trkpt lat="45.43999" lon="5.7028">
        <ele>715</ele>
        <time>2015-08-07T09:47:13.000Z</time>
      </trkpt>
      <trkpt lat="45.44001" lon="5.70277">
        <ele>713</ele>
        <time>2015-08-07T09:47:14.000Z</time>
      </trkpt>
      <trkpt lat="45.44003" lon="5.70275">
        <ele>714</ele>
        <time>2015-08-07T09:47:15.000Z</time>
      </trkpt>
      <trkpt lat="45.44005" lon="5.70273">
        <ele>714</ele>
        <time>2015-08-07T09:47:16.000Z</time>
      </trkpt>
      <trkpt lat="45.44007" lon="5.70268">
        <ele>715</ele>
        <time>2015-08-07T09:47:18.000Z</time>
      </trkpt>
      <trkpt lat="45.44008" lon="5.70264">
        <ele>715</ele>
        <time>2015-08-07T09:47:19.000Z</time>
      </trkpt>
      <trkpt lat="45.4401" lon="5.70259">
        <ele>716</ele>
        <time>2015-08-07T09:47:21.000Z</time>
      </trkpt>
      <trkpt lat="45.4401" lon="5.70256">
        <ele>716</ele>
        <time>2015-08-07T09:47:22.000Z</time>
      </trkpt>
      <trkpt lat="45.4401" lon="5.7025">
        <ele>720</ele>
        <time>2015-08-07T09:47:24.000Z</time>
      </trkpt>
      <trkpt lat="45.44011" lon="5.70246">
        <ele>720</ele>
        <time>2015-08-07T09:47:25.000Z</time>
      </trkpt>
      <trkpt lat="45.44012" lon="5.70242">
        <ele>720</ele>
        <time>2015-08-07T09:47:26.000Z</time>
      </trkpt>
      <trkpt lat="45.44013" lon="5.70236">
        <ele>720</ele>
        <time>2015-08-07T09:47:27.000Z</time>
      </trkpt>
      <trkpt lat="45.44014" lon="5.70231">
        <ele>720</ele>
        <time>2015-08-07T09:47:28.000Z</time>
      </trkpt>
      <trkpt lat="45.44015" lon="5.70228">
        <ele>721</ele>
        <time>2015-08-07T09:47:29.000Z</time>
      </trkpt>
      <trkpt lat="45.44013" lon="5.70223">
        <ele>721</ele>
        <time>2015-08-07T09:47:32.000Z</time>
      </trkpt>
      <trkpt lat="45.44011" lon="5.70222">
        <ele>721</ele>
        <time>2015-08-07T09:47:33.000Z</time>
      </trkpt>
      <trkpt lat="45.44009" lon="5.70222">
        <ele>721</ele>
        <time>2015-08-07T09:47:34.000Z</time>
      </trkpt>
      <trkpt lat="45.44007" lon="5.70222">
        <ele>721</ele>
        <time>2015-08-07T09:47:35.000Z</time>
      </trkpt>
      <trkpt lat="45.44004" lon="5.70222">
        <ele>721</ele>
        <time>2015-08-07T09:47:36.000Z</time>
      </trkpt>
      <trkpt lat="45.44002" lon="5.70222">
        <ele>721</ele>
        <time>2015-08-07T09:47:37.000Z</time>
      </trkpt>
      <trkpt lat="45.43998" lon="5.70222">
        <ele>724</ele>
        <time>2015-08-07T09:47:39.000Z</time>
      </trkpt>
      <trkpt lat="45.43995" lon="5.70222">
        <ele>724</ele>
        <time>2015-08-07T09:47:40.000Z</time>
      </trkpt>
      <trkpt lat="45.43991" lon="5.70222">
        <ele>724</ele>
        <time>2015-08-07T09:47:42.000Z</time>
      </trkpt>
      <trkpt lat="45.4399" lon="5.70223">
        <ele>724</ele>
        <time>2015-08-07T09:47:43.000Z</time>
      </trkpt>
      <trkpt lat="45.43985" lon="5.70224">
        <ele>724</ele>
        <time>2015-08-07T09:47:46.000Z</time>
      </trkpt>
      <trkpt lat="45.43984" lon="5.70224">
        <ele>724</ele>
        <time>2015-08-07T09:47:47.000Z</time>
      </trkpt>
      <trkpt lat="45.43981" lon="5.70225">
        <ele>724</ele>
        <time>2015-08-07T09:47:49.000Z</time>
      </trkpt>
      <trkpt lat="45.43979" lon="5.70226">
        <ele>724</ele>
        <time>2015-08-07T09:47:50.000Z</time>
      </trkpt>
      <trkpt lat="45.43977" lon="5.70228">
        <ele>724</ele>
        <time>2015-08-07T09:47:51.000Z</time>
      </trkpt>
      <trkpt lat="45.43974" lon="5.70229">
        <ele>724</ele>
        <time>2015-08-07T09:47:52.000Z</time>
      </trkpt>
      <trkpt lat="45.43972" lon="5.70231">
        <ele>724</ele>
        <time>2015-08-07T09:47:53.000Z</time>
      </trkpt>
      <trkpt lat="45.4397" lon="5.70233">
        <ele>724</ele>
        <time>2015-08-07T09:47:54.000Z</time>
      </trkpt>
      <trkpt lat="45.43966" lon="5.70235">
        <ele>724</ele>
        <time>2015-08-07T09:47:56.000Z</time>
      </trkpt>
      <trkpt lat="45.43964" lon="5.70236">
        <ele>724</ele>
        <time>2015-08-07T09:47:57.000Z</time>
      </trkpt>
      <trkpt lat="45.43962" lon="5.70237">
        <ele>724</ele>
        <time>2015-08-07T09:47:58.000Z</time>
      </trkpt>
      <trkpt lat="45.43959" lon="5.70238">
        <ele>724</ele>
        <time>2015-08-07T09:47:59.000Z</time>
      </trkpt>
      <trkpt lat="45.43957" lon="5.70239">
        <ele>724</ele>
        <time>2015-08-07T09:48:00.000Z</time>
      </trkpt>
      <trkpt lat="45.43954" lon="5.70239">
        <ele>724</ele>
        <time>2015-08-07T09:48:01.000Z</time>
      </trkpt>
      <trkpt lat="45.43952" lon="5.7024">
        <ele>724</ele>
        <time>2015-08-07T09:48:02.000Z</time>
      </trkpt>
      <trkpt lat="45.43949" lon="5.70239">
        <ele>724</ele>
        <time>2015-08-07T09:48:03.000Z</time>
      </trkpt>
      <trkpt lat="45.43947" lon="5.7024">
        <ele>724</ele>
        <time>2015-08-07T09:48:04.000Z</time>
      </trkpt>
      <trkpt lat="45.43945" lon="5.70241">
        <ele>724</ele>
        <time>2015-08-07T09:48:05.000Z</time>
      </trkpt>
      <trkpt lat="45.43942" lon="5.70241">
        <ele>724</ele>
        <time>2015-08-07T09:48:06.000Z</time>
      </trkpt>
      <trkpt lat="45.43939" lon="5.70242">
        <ele>724</ele>
        <time>2015-08-07T09:48:07.000Z</time>
      </trkpt>
      <trkpt lat="45.43937" lon="5.70242">
        <ele>724</ele>
        <time>2015-08-07T09:48:08.000Z</time>
      </trkpt>
      <trkpt lat="45.43934" lon="5.70242">
        <ele>724</ele>
        <time>2015-08-07T09:48:09.000Z</time>
      </trkpt>
      <trkpt lat="45.43932" lon="5.70242">
        <ele>724</ele>
        <time>2015-08-07T09:48:10.000Z</time>
      </trkpt>
      <trkpt lat="45.43929" lon="5.70242">
        <ele>724</ele>
        <time>2015-08-07T09:48:11.000Z</time>
      </trkpt>
      <trkpt lat="45.43926" lon="5.70243">
        <ele>723</ele>
        <time>2015-08-07T09:48:12.000Z</time>
      </trkpt>
      <trkpt lat="45.43923" lon="5.70244">
        <ele>723</ele>
        <time>2015-08-07T09:48:13.000Z</time>
      </trkpt>
      <trkpt lat="45.43919" lon="5.70246">
        <ele>723</ele>
        <time>2015-08-07T09:48:14.000Z</time>
      </trkpt>
      <trkpt lat="45.43915" lon="5.70247">
        <ele>723</ele>
        <time>2015-08-07T09:48:15.000Z</time>
      </trkpt>
      <trkpt lat="45.4391" lon="5.70249">
        <ele>724</ele>
        <time>2015-08-07T09:48:16.000Z</time>
      </trkpt>
      <trkpt lat="45.43907" lon="5.7025">
        <ele>721</ele>
        <time>2015-08-07T09:48:17.000Z</time>
      </trkpt>
      <trkpt lat="45.43903" lon="5.70252">
        <ele>720</ele>
        <time>2015-08-07T09:48:18.000Z</time>
      </trkpt>
      <trkpt lat="45.43899" lon="5.70253">
        <ele>720</ele>
        <time>2015-08-07T09:48:19.000Z</time>
      </trkpt>
      <trkpt lat="45.43895" lon="5.70254">
        <ele>720</ele>
        <time>2015-08-07T09:48:20.000Z</time>
      </trkpt>
      <trkpt lat="45.43891" lon="5.70256">
        <ele>720</ele>
        <time>2015-08-07T09:48:21.000Z</time>
      </trkpt>
      <trkpt lat="45.43887" lon="5.70259">
        <ele>720</ele>
        <time>2015-08-07T09:48:22.000Z</time>
      </trkpt>
      <trkpt lat="45.43883" lon="5.70262">
        <ele>720</ele>
        <time>2015-08-07T09:48:23.000Z</time>
      </trkpt>
      <trkpt lat="45.43879" lon="5.70266">
        <ele>719</ele>
        <time>2015-08-07T09:48:24.000Z</time>
      </trkpt>
      <trkpt lat="45.43875" lon="5.70271">
        <ele>719</ele>
        <time>2015-08-07T09:48:25.000Z</time>
      </trkpt>
      <trkpt lat="45.43863" lon="5.70286">
        <ele>719</ele>
        <time>2015-08-07T09:48:26.000Z</time>
      </trkpt>
      <trkpt lat="45.43857" lon="5.70296">
        <ele>718</ele>
        <time>2015-08-07T09:48:27.000Z</time>
      </trkpt>
      <trkpt lat="45.43851" lon="5.70302">
        <ele>717</ele>
        <time>2015-08-07T09:48:28.000Z</time>
      </trkpt>
      <trkpt lat="45.43845" lon="5.70305">
        <ele>717</ele>
        <time>2015-08-07T09:48:29.000Z</time>
      </trkpt>
      <trkpt lat="45.43839" lon="5.70307">
        <ele>717</ele>
        <time>2015-08-07T09:48:30.000Z</time>
      </trkpt>
      <trkpt lat="45.43833" lon="5.70305">
        <ele>718</ele>
        <time>2015-08-07T09:48:31.000Z</time>
      </trkpt>
      <trkpt lat="45.43828" lon="5.70304">
        <ele>718</ele>
        <time>2015-08-07T09:48:32.000Z</time>
      </trkpt>
      <trkpt lat="45.43824" lon="5.70304">
        <ele>718</ele>
        <time>2015-08-07T09:48:33.000Z</time>
      </trkpt>
      <trkpt lat="45.4382" lon="5.70305">
        <ele>718</ele>
        <time>2015-08-07T09:48:35.000Z</time>
      </trkpt>
      <trkpt lat="45.43818" lon="5.70306">
        <ele>718</ele>
        <time>2015-08-07T09:48:36.000Z</time>
      </trkpt>
      <trkpt lat="45.43814" lon="5.70309">
        <ele>718</ele>
        <time>2015-08-07T09:48:42.000Z</time>
      </trkpt>
      <trkpt lat="45.43814" lon="5.70309">
        <ele>718</ele>
        <time>2015-08-07T09:48:43.000Z</time>
      </trkpt>
      <trkpt lat="45.43814" lon="5.70315">
        <ele>717</ele>
        <time>2015-08-07T09:48:46.000Z</time>
      </trkpt>
      <trkpt lat="45.43814" lon="5.70317">
        <ele>717</ele>
        <time>2015-08-07T09:48:47.000Z</time>
      </trkpt>
      <trkpt lat="45.43814" lon="5.70321">
        <ele>717</ele>
        <time>2015-08-07T09:48:49.000Z</time>
      </trkpt>
      <trkpt lat="45.43813" lon="5.70324">
        <ele>717</ele>
        <time>2015-08-07T09:48:50.000Z</time>
      </trkpt>
      <trkpt lat="45.43813" lon="5.7033">
        <ele>717</ele>
        <time>2015-08-07T09:48:53.000Z</time>
      </trkpt>
      <trkpt lat="45.43813" lon="5.70331">
        <ele>717</ele>
        <time>2015-08-07T09:48:54.000Z</time>
      </trkpt>
      <trkpt lat="45.43812" lon="5.70337">
        <ele>710</ele>
        <time>2015-08-07T09:48:58.000Z</time>
      </trkpt>
      <trkpt lat="45.43812" lon="5.70338">
        <ele>710</ele>
        <time>2015-08-07T09:48:59.000Z</time>
      </trkpt>
      <trkpt lat="45.43812" lon="5.70344">
        <ele>709</ele>
        <time>2015-08-07T09:49:02.000Z</time>
      </trkpt>
      <trkpt lat="45.43813" lon="5.70346">
        <ele>709</ele>
        <time>2015-08-07T09:49:03.000Z</time>
      </trkpt>
      <trkpt lat="45.43813" lon="5.70349">
        <ele>709</ele>
        <time>2015-08-07T09:49:04.000Z</time>
      </trkpt>
      <trkpt lat="45.43814" lon="5.70353">
        <ele>709</ele>
        <time>2015-08-07T09:49:05.000Z</time>
      </trkpt>
      <trkpt lat="45.43814" lon="5.70356">
        <ele>708</ele>
        <time>2015-08-07T09:49:06.000Z</time>
      </trkpt>
      <trkpt lat="45.43815" lon="5.7036">
        <ele>708</ele>
        <time>2015-08-07T09:49:07.000Z</time>
      </trkpt>
      <trkpt lat="45.43815" lon="5.70365">
        <ele>707</ele>
        <time>2015-08-07T09:49:09.000Z</time>
      </trkpt>
      <trkpt lat="45.43815" lon="5.70366">
        <ele>707</ele>
        <time>2015-08-07T09:49:10.000Z</time>
      </trkpt>
      <trkpt lat="45.43818" lon="5.70371">
        <ele>707</ele>
        <time>2015-08-07T09:49:15.000Z</time>
      </trkpt>
      <trkpt lat="45.43819" lon="5.70371">
        <ele>706</ele>
        <time>2015-08-07T09:49:16.000Z</time>
      </trkpt>
      <trkpt lat="45.4382" lon="5.70377">
        <ele>706</ele>
        <time>2015-08-07T09:49:22.000Z</time>
      </trkpt>
      <trkpt lat="45.43821" lon="5.70378">
        <ele>706</ele>
        <time>2015-08-07T09:49:23.000Z</time>
      </trkpt>
      <trkpt lat="45.43821" lon="5.70382">
        <ele>705</ele>
        <time>2015-08-07T09:49:26.000Z</time>
      </trkpt>
      <trkpt lat="45.4382" lon="5.70386">
        <ele>705</ele>
        <time>2015-08-07T09:49:27.000Z</time>
      </trkpt>
      <trkpt lat="45.43822" lon="5.70391">
        <ele>704</ele>
        <time>2015-08-07T09:49:29.000Z</time>
      </trkpt>
      <trkpt lat="45.43823" lon="5.70392">
        <ele>704</ele>
        <time>2015-08-07T09:49:30.000Z</time>
      </trkpt>
      <trkpt lat="45.43827" lon="5.70392">
        <ele>704</ele>
        <time>2015-08-07T09:49:32.000Z</time>
      </trkpt>
      <trkpt lat="45.43828" lon="5.70392">
        <ele>704</ele>
        <time>2015-08-07T09:49:33.000Z</time>
      </trkpt>
      <trkpt lat="45.43831" lon="5.70395">
        <ele>703</ele>
        <time>2015-08-07T09:49:40.000Z</time>
      </trkpt>
      <trkpt lat="45.43832" lon="5.70395">
        <ele>703</ele>
        <time>2015-08-07T09:49:41.000Z</time>
      </trkpt>
      <trkpt lat="45.43829" lon="5.70393">
        <ele>703</ele>
        <time>2015-08-07T09:50:50.000Z</time>
      </trkpt>
      <trkpt lat="45.43827" lon="5.70393">
        <ele>703</ele>
        <time>2015-08-07T09:50:51.000Z</time>
      </trkpt>
      <trkpt lat="45.43823" lon="5.70393">
        <ele>704</ele>
        <time>2015-08-07T09:50:53.000Z</time>
      </trkpt>
      <trkpt lat="45.43822" lon="5.70393">
        <ele>704</ele>
        <time>2015-08-07T09:50:54.000Z</time>
      </trkpt>
      <trkpt lat="45.43819" lon="5.70397">
        <ele>703</ele>
        <time>2015-08-07T09:50:57.000Z</time>
      </trkpt>
      <trkpt lat="45.43819" lon="5.70399">
        <ele>703</ele>
        <time>2015-08-07T09:50:58.000Z</time>
      </trkpt>
      <trkpt lat="45.43823" lon="5.70397">
        <ele>703</ele>
        <time>2015-08-07T09:51:03.000Z</time>
      </trkpt>
      <trkpt lat="45.43823" lon="5.70396">
        <ele>703</ele>
        <time>2015-08-07T09:51:04.000Z</time>
      </trkpt>
      <trkpt lat="45.43823" lon="5.7039">
        <ele>704</ele>
        <time>2015-08-07T09:51:36.000Z</time>
      </trkpt>
      <trkpt lat="45.43823" lon="5.70389">
        <ele>704</ele>
        <time>2015-08-07T09:51:37.000Z</time>
      </trkpt>
      <trkpt lat="45.4382" lon="5.70384">
        <ele>705</ele>
        <time>2015-08-07T09:52:24.000Z</time>
      </trkpt>
      <trkpt lat="45.4382" lon="5.70384">
        <ele>705</ele>
        <time>2015-08-07T09:52:25.000Z</time>
      </trkpt>
      <trkpt lat="45.43822" lon="5.70378">
        <ele>706</ele>
        <time>2015-08-07T09:52:51.000Z</time>
      </trkpt>
      <trkpt lat="45.43822" lon="5.70378">
        <ele>706</ele>
        <time>2015-08-07T09:52:52.000Z</time>
      </trkpt>
      <trkpt lat="45.43821" lon="5.70378">
        <ele>706</ele>
        <time>2015-08-07T09:53:57.000Z</time>
      </trkpt>
    </trkseg>
  </trk>
</gpx>